<?xml version="1.0" encoding="UTF-8" standalone="no" ?>
<gpx xmlns="http://www.topografix.com/GPX/1/1" xmlns:xsi="http://www.w3.org/2001/XMLSchema-instance" xsi:schemaLocation="http://www.topografix.com/GPX/1/1 http://www.topografix.com/GPX/1/1/gpx.xsd" version="1.1" creator="VisuGPX - https://www.visugpx.com">
  <metadata>
    <name>de Faux la Montagne à Royère de Vassivière</name>
    <desc><![CDATA[de Faux la Montagne à Royère de Vassivière
 Rando Acp3c aout 2013 ]]></desc>
  </metadata>
  <trk>
    <name><![CDATA[Faux la montagne a Royere]]></name>
    <trkseg>
      <trkpt lat="45.83994" lon="1.91167">
        <ele>681</ele>
        <time>2013-08-05T07:46:24Z</time>
      </trkpt>
      <trkpt lat="45.83995" lon="1.91169">
        <ele>681</ele>
        <time>2013-08-05T07:46:25Z</time>
      </trkpt>
      <trkpt lat="45.83988" lon="1.91188">
        <ele>681</ele>
        <time>2013-08-05T07:46:38Z</time>
      </trkpt>
      <trkpt lat="45.83986" lon="1.91191">
        <ele>684</ele>
        <time>2013-08-05T07:46:42Z</time>
      </trkpt>
      <trkpt lat="45.83985" lon="1.91193">
        <ele>688</ele>
        <time>2013-08-05T07:46:45Z</time>
      </trkpt>
      <trkpt lat="45.83986" lon="1.91192">
        <ele>693</ele>
        <time>2013-08-05T07:46:48Z</time>
      </trkpt>
      <trkpt lat="45.83985" lon="1.91193">
        <ele>696</ele>
        <time>2013-08-05T07:46:51Z</time>
      </trkpt>
      <trkpt lat="45.83984" lon="1.91194">
        <ele>700</ele>
        <time>2013-08-05T07:46:54Z</time>
      </trkpt>
      <trkpt lat="45.83984" lon="1.91193">
        <ele>703</ele>
        <time>2013-08-05T07:46:57Z</time>
      </trkpt>
      <trkpt lat="45.83985" lon="1.91192">
        <ele>707</ele>
        <time>2013-08-05T07:47:00Z</time>
      </trkpt>
      <trkpt lat="45.83985" lon="1.91193">
        <ele>710</ele>
        <time>2013-08-05T07:47:04Z</time>
      </trkpt>
      <trkpt lat="45.83985" lon="1.91193">
        <ele>711</ele>
        <time>2013-08-05T07:47:06Z</time>
      </trkpt>
      <trkpt lat="45.83985" lon="1.91193">
        <ele>713</ele>
        <time>2013-08-05T07:47:08Z</time>
      </trkpt>
      <trkpt lat="45.83985" lon="1.9119">
        <ele>716</ele>
        <time>2013-08-05T07:47:13Z</time>
      </trkpt>
      <trkpt lat="45.83985" lon="1.91187">
        <ele>717</ele>
        <time>2013-08-05T07:47:15Z</time>
      </trkpt>
      <trkpt lat="45.83986" lon="1.91184">
        <ele>719</ele>
        <time>2013-08-05T07:47:18Z</time>
      </trkpt>
      <trkpt lat="45.83987" lon="1.91177">
        <ele>722</ele>
        <time>2013-08-05T07:47:29Z</time>
      </trkpt>
      <trkpt lat="45.83986" lon="1.91176">
        <ele>723</ele>
        <time>2013-08-05T07:47:31Z</time>
      </trkpt>
      <trkpt lat="45.83986" lon="1.91182">
        <ele>723</ele>
        <time>2013-08-05T07:47:43Z</time>
      </trkpt>
      <trkpt lat="45.83983" lon="1.91185">
        <ele>724</ele>
        <time>2013-08-05T07:47:58Z</time>
      </trkpt>
      <trkpt lat="45.83985" lon="1.9118">
        <ele>724</ele>
        <time>2013-08-05T07:48:15Z</time>
      </trkpt>
      <trkpt lat="45.83985" lon="1.91183">
        <ele>724</ele>
        <time>2013-08-05T07:48:28Z</time>
      </trkpt>
      <trkpt lat="45.83985" lon="1.91183">
        <ele>724</ele>
        <time>2013-08-05T07:48:31Z</time>
      </trkpt>
      <trkpt lat="45.83984" lon="1.91186">
        <ele>724</ele>
        <time>2013-08-05T07:48:40Z</time>
      </trkpt>
      <trkpt lat="45.83985" lon="1.9119">
        <ele>724</ele>
        <time>2013-08-05T07:48:51Z</time>
      </trkpt>
      <trkpt lat="45.83981" lon="1.912">
        <ele>724</ele>
        <time>2013-08-05T07:49:04Z</time>
      </trkpt>
      <trkpt lat="45.83982" lon="1.91207">
        <ele>724</ele>
        <time>2013-08-05T07:49:15Z</time>
      </trkpt>
      <trkpt lat="45.83983" lon="1.91216">
        <ele>724</ele>
        <time>2013-08-05T07:49:21Z</time>
      </trkpt>
      <trkpt lat="45.83979" lon="1.91242">
        <ele>722</ele>
        <time>2013-08-05T07:49:32Z</time>
      </trkpt>
      <trkpt lat="45.83977" lon="1.9125">
        <ele>721</ele>
        <time>2013-08-05T07:49:36Z</time>
      </trkpt>
      <trkpt lat="45.83972" lon="1.91277">
        <ele>719</ele>
        <time>2013-08-05T07:49:50Z</time>
      </trkpt>
      <trkpt lat="45.83968" lon="1.91283">
        <ele>719</ele>
        <time>2013-08-05T07:49:53Z</time>
      </trkpt>
      <trkpt lat="45.83961" lon="1.91296">
        <ele>718</ele>
        <time>2013-08-05T07:50:00Z</time>
      </trkpt>
      <trkpt lat="45.83951" lon="1.91325">
        <ele>718</ele>
        <time>2013-08-05T07:50:14Z</time>
      </trkpt>
      <trkpt lat="45.83949" lon="1.91332">
        <ele>717</ele>
        <time>2013-08-05T07:50:17Z</time>
      </trkpt>
      <trkpt lat="45.83947" lon="1.91343">
        <ele>718</ele>
        <time>2013-08-05T07:50:22Z</time>
      </trkpt>
      <trkpt lat="45.83944" lon="1.91359">
        <ele>717</ele>
        <time>2013-08-05T07:50:29Z</time>
      </trkpt>
      <trkpt lat="45.83943" lon="1.91366">
        <ele>717</ele>
        <time>2013-08-05T07:50:33Z</time>
      </trkpt>
      <trkpt lat="45.83941" lon="1.91378">
        <ele>717</ele>
        <time>2013-08-05T07:50:38Z</time>
      </trkpt>
      <trkpt lat="45.83941" lon="1.91413">
        <ele>716</ele>
        <time>2013-08-05T07:50:53Z</time>
      </trkpt>
      <trkpt lat="45.83944" lon="1.91447">
        <ele>715</ele>
        <time>2013-08-05T07:51:08Z</time>
      </trkpt>
      <trkpt lat="45.83948" lon="1.91459">
        <ele>714</ele>
        <time>2013-08-05T07:51:16Z</time>
      </trkpt>
      <trkpt lat="45.8395" lon="1.91464">
        <ele>714</ele>
        <time>2013-08-05T07:51:19Z</time>
      </trkpt>
      <trkpt lat="45.83958" lon="1.91477">
        <ele>715</ele>
        <time>2013-08-05T07:51:28Z</time>
      </trkpt>
      <trkpt lat="45.83965" lon="1.91486">
        <ele>716</ele>
        <time>2013-08-05T07:51:34Z</time>
      </trkpt>
      <trkpt lat="45.83967" lon="1.91491">
        <ele>716</ele>
        <time>2013-08-05T07:51:36Z</time>
      </trkpt>
      <trkpt lat="45.83969" lon="1.91498">
        <ele>716</ele>
        <time>2013-08-05T07:51:39Z</time>
      </trkpt>
      <trkpt lat="45.83975" lon="1.91512">
        <ele>716</ele>
        <time>2013-08-05T07:51:47Z</time>
      </trkpt>
      <trkpt lat="45.83978" lon="1.91516">
        <ele>716</ele>
        <time>2013-08-05T07:51:50Z</time>
      </trkpt>
      <trkpt lat="45.83992" lon="1.91545">
        <ele>717</ele>
        <time>2013-08-05T07:52:04Z</time>
      </trkpt>
      <trkpt lat="45.84" lon="1.91565">
        <ele>718</ele>
        <time>2013-08-05T07:52:15Z</time>
      </trkpt>
      <trkpt lat="45.84011" lon="1.91586">
        <ele>718</ele>
        <time>2013-08-05T07:52:28Z</time>
      </trkpt>
      <trkpt lat="45.84015" lon="1.91592">
        <ele>719</ele>
        <time>2013-08-05T07:52:35Z</time>
      </trkpt>
      <trkpt lat="45.84029" lon="1.91625">
        <ele>720</ele>
        <time>2013-08-05T07:52:51Z</time>
      </trkpt>
      <trkpt lat="45.84035" lon="1.91649">
        <ele>721</ele>
        <time>2013-08-05T07:53:06Z</time>
      </trkpt>
      <trkpt lat="45.84044" lon="1.91663">
        <ele>722</ele>
        <time>2013-08-05T07:53:15Z</time>
      </trkpt>
      <trkpt lat="45.8405" lon="1.91679">
        <ele>723</ele>
        <time>2013-08-05T07:53:22Z</time>
      </trkpt>
      <trkpt lat="45.84054" lon="1.91689">
        <ele>724</ele>
        <time>2013-08-05T07:53:29Z</time>
      </trkpt>
      <trkpt lat="45.84064" lon="1.91705">
        <ele>724</ele>
        <time>2013-08-05T07:53:40Z</time>
      </trkpt>
      <trkpt lat="45.84066" lon="1.91706">
        <ele>724</ele>
        <time>2013-08-05T07:53:42Z</time>
      </trkpt>
      <trkpt lat="45.84071" lon="1.91708">
        <ele>725</ele>
        <time>2013-08-05T07:53:47Z</time>
      </trkpt>
      <trkpt lat="45.84082" lon="1.91719">
        <ele>726</ele>
        <time>2013-08-05T07:53:56Z</time>
      </trkpt>
      <trkpt lat="45.84086" lon="1.91727">
        <ele>726</ele>
        <time>2013-08-05T07:53:59Z</time>
      </trkpt>
      <trkpt lat="45.84087" lon="1.91743">
        <ele>727</ele>
        <time>2013-08-05T07:54:08Z</time>
      </trkpt>
      <trkpt lat="45.84084" lon="1.91753">
        <ele>727</ele>
        <time>2013-08-05T07:54:12Z</time>
      </trkpt>
      <trkpt lat="45.84078" lon="1.91779">
        <ele>727</ele>
        <time>2013-08-05T07:54:23Z</time>
      </trkpt>
      <trkpt lat="45.84073" lon="1.91796">
        <ele>727</ele>
        <time>2013-08-05T07:54:32Z</time>
      </trkpt>
      <trkpt lat="45.84065" lon="1.91814">
        <ele>728</ele>
        <time>2013-08-05T07:54:45Z</time>
      </trkpt>
      <trkpt lat="45.84064" lon="1.91821">
        <ele>728</ele>
        <time>2013-08-05T07:54:53Z</time>
      </trkpt>
      <trkpt lat="45.84061" lon="1.91828">
        <ele>728</ele>
        <time>2013-08-05T07:54:58Z</time>
      </trkpt>
      <trkpt lat="45.84058" lon="1.91832">
        <ele>728</ele>
        <time>2013-08-05T07:55:01Z</time>
      </trkpt>
      <trkpt lat="45.84057" lon="1.91837">
        <ele>728</ele>
        <time>2013-08-05T07:55:04Z</time>
      </trkpt>
      <trkpt lat="45.84065" lon="1.91864">
        <ele>731</ele>
        <time>2013-08-05T07:55:18Z</time>
      </trkpt>
      <trkpt lat="45.84068" lon="1.91888">
        <ele>733</ele>
        <time>2013-08-05T07:55:30Z</time>
      </trkpt>
      <trkpt lat="45.84068" lon="1.91894">
        <ele>734</ele>
        <time>2013-08-05T07:55:33Z</time>
      </trkpt>
      <trkpt lat="45.84065" lon="1.919">
        <ele>734</ele>
        <time>2013-08-05T07:55:38Z</time>
      </trkpt>
      <trkpt lat="45.84068" lon="1.91908">
        <ele>735</ele>
        <time>2013-08-05T07:55:43Z</time>
      </trkpt>
      <trkpt lat="45.84075" lon="1.91926">
        <ele>737</ele>
        <time>2013-08-05T07:55:54Z</time>
      </trkpt>
      <trkpt lat="45.84084" lon="1.9194">
        <ele>738</ele>
        <time>2013-08-05T07:56:03Z</time>
      </trkpt>
      <trkpt lat="45.84087" lon="1.91945">
        <ele>739</ele>
        <time>2013-08-05T07:56:06Z</time>
      </trkpt>
      <trkpt lat="45.84101" lon="1.91969">
        <ele>741</ele>
        <time>2013-08-05T07:56:21Z</time>
      </trkpt>
      <trkpt lat="45.84103" lon="1.91972">
        <ele>741</ele>
        <time>2013-08-05T07:56:23Z</time>
      </trkpt>
      <trkpt lat="45.84106" lon="1.91976">
        <ele>741</ele>
        <time>2013-08-05T07:56:25Z</time>
      </trkpt>
      <trkpt lat="45.84116" lon="1.91993">
        <ele>742</ele>
        <time>2013-08-05T07:56:35Z</time>
      </trkpt>
      <trkpt lat="45.84124" lon="1.92015">
        <ele>742</ele>
        <time>2013-08-05T07:56:49Z</time>
      </trkpt>
      <trkpt lat="45.84128" lon="1.92021">
        <ele>742</ele>
        <time>2013-08-05T07:56:53Z</time>
      </trkpt>
      <trkpt lat="45.84136" lon="1.9203">
        <ele>742</ele>
        <time>2013-08-05T07:56:58Z</time>
      </trkpt>
      <trkpt lat="45.8414" lon="1.92057">
        <ele>740</ele>
        <time>2013-08-05T07:57:10Z</time>
      </trkpt>
      <trkpt lat="45.84164" lon="1.92076">
        <ele>740</ele>
        <time>2013-08-05T07:57:24Z</time>
      </trkpt>
      <trkpt lat="45.84166" lon="1.92079">
        <ele>740</ele>
        <time>2013-08-05T07:57:26Z</time>
      </trkpt>
      <trkpt lat="45.84171" lon="1.92085">
        <ele>741</ele>
        <time>2013-08-05T07:57:29Z</time>
      </trkpt>
      <trkpt lat="45.84175" lon="1.92092">
        <ele>741</ele>
        <time>2013-08-05T07:57:32Z</time>
      </trkpt>
      <trkpt lat="45.84184" lon="1.92105">
        <ele>741</ele>
        <time>2013-08-05T07:57:39Z</time>
      </trkpt>
      <trkpt lat="45.84192" lon="1.92119">
        <ele>741</ele>
        <time>2013-08-05T07:57:48Z</time>
      </trkpt>
      <trkpt lat="45.842" lon="1.92131">
        <ele>741</ele>
        <time>2013-08-05T07:57:55Z</time>
      </trkpt>
      <trkpt lat="45.84217" lon="1.92158">
        <ele>743</ele>
        <time>2013-08-05T07:58:09Z</time>
      </trkpt>
      <trkpt lat="45.84218" lon="1.9216">
        <ele>742</ele>
        <time>2013-08-05T07:58:10Z</time>
      </trkpt>
      <trkpt lat="45.84221" lon="1.92171">
        <ele>742</ele>
        <time>2013-08-05T07:58:14Z</time>
      </trkpt>
      <trkpt lat="45.8423" lon="1.922">
        <ele>743</ele>
        <time>2013-08-05T07:58:28Z</time>
      </trkpt>
      <trkpt lat="45.84238" lon="1.92233">
        <ele>742</ele>
        <time>2013-08-05T07:58:44Z</time>
      </trkpt>
      <trkpt lat="45.84246" lon="1.92256">
        <ele>743</ele>
        <time>2013-08-05T07:58:54Z</time>
      </trkpt>
      <trkpt lat="45.84247" lon="1.92268">
        <ele>744</ele>
        <time>2013-08-05T07:59:00Z</time>
      </trkpt>
      <trkpt lat="45.84248" lon="1.92272">
        <ele>744</ele>
        <time>2013-08-05T07:59:02Z</time>
      </trkpt>
      <trkpt lat="45.84248" lon="1.92293">
        <ele>744</ele>
        <time>2013-08-05T07:59:12Z</time>
      </trkpt>
      <trkpt lat="45.84253" lon="1.92308">
        <ele>744</ele>
        <time>2013-08-05T07:59:19Z</time>
      </trkpt>
      <trkpt lat="45.84253" lon="1.92346">
        <ele>745</ele>
        <time>2013-08-05T07:59:35Z</time>
      </trkpt>
      <trkpt lat="45.84252" lon="1.92374">
        <ele>746</ele>
        <time>2013-08-05T07:59:48Z</time>
      </trkpt>
      <trkpt lat="45.8425" lon="1.92385">
        <ele>747</ele>
        <time>2013-08-05T07:59:53Z</time>
      </trkpt>
      <trkpt lat="45.84249" lon="1.92399">
        <ele>747</ele>
        <time>2013-08-05T07:59:58Z</time>
      </trkpt>
      <trkpt lat="45.84245" lon="1.92414">
        <ele>747</ele>
        <time>2013-08-05T08:00:05Z</time>
      </trkpt>
      <trkpt lat="45.84235" lon="1.92425">
        <ele>747</ele>
        <time>2013-08-05T08:00:12Z</time>
      </trkpt>
      <trkpt lat="45.84231" lon="1.92431">
        <ele>747</ele>
        <time>2013-08-05T08:00:16Z</time>
      </trkpt>
      <trkpt lat="45.84217" lon="1.92456">
        <ele>747</ele>
        <time>2013-08-05T08:00:29Z</time>
      </trkpt>
      <trkpt lat="45.84213" lon="1.92465">
        <ele>747</ele>
        <time>2013-08-05T08:00:33Z</time>
      </trkpt>
      <trkpt lat="45.84202" lon="1.92486">
        <ele>747</ele>
        <time>2013-08-05T08:00:46Z</time>
      </trkpt>
      <trkpt lat="45.84199" lon="1.9249">
        <ele>747</ele>
        <time>2013-08-05T08:00:49Z</time>
      </trkpt>
      <trkpt lat="45.84197" lon="1.92496">
        <ele>747</ele>
        <time>2013-08-05T08:00:52Z</time>
      </trkpt>
      <trkpt lat="45.84196" lon="1.92503">
        <ele>747</ele>
        <time>2013-08-05T08:00:56Z</time>
      </trkpt>
      <trkpt lat="45.84192" lon="1.92512">
        <ele>748</ele>
        <time>2013-08-05T08:01:01Z</time>
      </trkpt>
      <trkpt lat="45.84183" lon="1.92527">
        <ele>748</ele>
        <time>2013-08-05T08:01:07Z</time>
      </trkpt>
      <trkpt lat="45.84162" lon="1.92551">
        <ele>748</ele>
        <time>2013-08-05T08:01:22Z</time>
      </trkpt>
      <trkpt lat="45.84157" lon="1.92556">
        <ele>748</ele>
        <time>2013-08-05T08:01:26Z</time>
      </trkpt>
      <trkpt lat="45.84148" lon="1.92568">
        <ele>748</ele>
        <time>2013-08-05T08:01:33Z</time>
      </trkpt>
      <trkpt lat="45.84145" lon="1.92571">
        <ele>748</ele>
        <time>2013-08-05T08:01:35Z</time>
      </trkpt>
      <trkpt lat="45.8414" lon="1.92575">
        <ele>748</ele>
        <time>2013-08-05T08:01:38Z</time>
      </trkpt>
      <trkpt lat="45.84137" lon="1.92577">
        <ele>748</ele>
        <time>2013-08-05T08:01:40Z</time>
      </trkpt>
      <trkpt lat="45.84125" lon="1.92598">
        <ele>749</ele>
        <time>2013-08-05T08:01:52Z</time>
      </trkpt>
      <trkpt lat="45.84108" lon="1.92626">
        <ele>750</ele>
        <time>2013-08-05T08:02:07Z</time>
      </trkpt>
      <trkpt lat="45.84092" lon="1.9264">
        <ele>751</ele>
        <time>2013-08-05T08:02:19Z</time>
      </trkpt>
      <trkpt lat="45.84086" lon="1.92645">
        <ele>751</ele>
        <time>2013-08-05T08:02:23Z</time>
      </trkpt>
      <trkpt lat="45.8407" lon="1.92659">
        <ele>752</ele>
        <time>2013-08-05T08:02:35Z</time>
      </trkpt>
      <trkpt lat="45.84068" lon="1.92665">
        <ele>752</ele>
        <time>2013-08-05T08:02:40Z</time>
      </trkpt>
      <trkpt lat="45.84063" lon="1.92674">
        <ele>753</ele>
        <time>2013-08-05T08:02:46Z</time>
      </trkpt>
      <trkpt lat="45.8406" lon="1.92683">
        <ele>753</ele>
        <time>2013-08-05T08:02:50Z</time>
      </trkpt>
      <trkpt lat="45.84053" lon="1.92697">
        <ele>754</ele>
        <time>2013-08-05T08:02:58Z</time>
      </trkpt>
      <trkpt lat="45.84037" lon="1.92726">
        <ele>755</ele>
        <time>2013-08-05T08:03:12Z</time>
      </trkpt>
      <trkpt lat="45.84018" lon="1.92744">
        <ele>756</ele>
        <time>2013-08-05T08:03:25Z</time>
      </trkpt>
      <trkpt lat="45.83998" lon="1.92753">
        <ele>756</ele>
        <time>2013-08-05T08:03:40Z</time>
      </trkpt>
      <trkpt lat="45.83974" lon="1.92756">
        <ele>756</ele>
        <time>2013-08-05T08:03:52Z</time>
      </trkpt>
      <trkpt lat="45.83967" lon="1.92758">
        <ele>756</ele>
        <time>2013-08-05T08:03:56Z</time>
      </trkpt>
      <trkpt lat="45.83958" lon="1.92762">
        <ele>757</ele>
        <time>2013-08-05T08:04:02Z</time>
      </trkpt>
      <trkpt lat="45.83951" lon="1.92772">
        <ele>757</ele>
        <time>2013-08-05T08:04:08Z</time>
      </trkpt>
      <trkpt lat="45.83949" lon="1.92782">
        <ele>757</ele>
        <time>2013-08-05T08:04:12Z</time>
      </trkpt>
      <trkpt lat="45.83948" lon="1.92787">
        <ele>757</ele>
        <time>2013-08-05T08:04:15Z</time>
      </trkpt>
      <trkpt lat="45.83951" lon="1.92816">
        <ele>758</ele>
        <time>2013-08-05T08:04:26Z</time>
      </trkpt>
      <trkpt lat="45.83954" lon="1.92823">
        <ele>758</ele>
        <time>2013-08-05T08:04:30Z</time>
      </trkpt>
      <trkpt lat="45.83956" lon="1.92834">
        <ele>758</ele>
        <time>2013-08-05T08:04:36Z</time>
      </trkpt>
      <trkpt lat="45.83961" lon="1.92857">
        <ele>759</ele>
        <time>2013-08-05T08:04:49Z</time>
      </trkpt>
      <trkpt lat="45.83963" lon="1.92873">
        <ele>759</ele>
        <time>2013-08-05T08:04:56Z</time>
      </trkpt>
      <trkpt lat="45.83963" lon="1.92901">
        <ele>761</ele>
        <time>2013-08-05T08:05:10Z</time>
      </trkpt>
      <trkpt lat="45.83964" lon="1.92925">
        <ele>762</ele>
        <time>2013-08-05T08:05:23Z</time>
      </trkpt>
      <trkpt lat="45.83965" lon="1.92933">
        <ele>762</ele>
        <time>2013-08-05T08:05:29Z</time>
      </trkpt>
      <trkpt lat="45.83961" lon="1.92955">
        <ele>762</ele>
        <time>2013-08-05T08:05:40Z</time>
      </trkpt>
      <trkpt lat="45.83958" lon="1.92993">
        <ele>763</ele>
        <time>2013-08-05T08:05:54Z</time>
      </trkpt>
      <trkpt lat="45.83949" lon="1.93032">
        <ele>763</ele>
        <time>2013-08-05T08:06:10Z</time>
      </trkpt>
      <trkpt lat="45.8395" lon="1.93034">
        <ele>763</ele>
        <time>2013-08-05T08:06:11Z</time>
      </trkpt>
      <trkpt lat="45.83951" lon="1.93063">
        <ele>764</ele>
        <time>2013-08-05T08:06:21Z</time>
      </trkpt>
      <trkpt lat="45.83951" lon="1.93073">
        <ele>764</ele>
        <time>2013-08-05T08:06:25Z</time>
      </trkpt>
      <trkpt lat="45.83944" lon="1.93111">
        <ele>765</ele>
        <time>2013-08-05T08:06:42Z</time>
      </trkpt>
      <trkpt lat="45.83941" lon="1.93134">
        <ele>765</ele>
        <time>2013-08-05T08:06:52Z</time>
      </trkpt>
      <trkpt lat="45.83938" lon="1.93153">
        <ele>766</ele>
        <time>2013-08-05T08:07:01Z</time>
      </trkpt>
      <trkpt lat="45.83933" lon="1.93192">
        <ele>766</ele>
        <time>2013-08-05T08:07:17Z</time>
      </trkpt>
      <trkpt lat="45.83933" lon="1.93194">
        <ele>766</ele>
        <time>2013-08-05T08:07:18Z</time>
      </trkpt>
      <trkpt lat="45.83931" lon="1.93204">
        <ele>766</ele>
        <time>2013-08-05T08:07:22Z</time>
      </trkpt>
      <trkpt lat="45.83927" lon="1.93226">
        <ele>765</ele>
        <time>2013-08-05T08:07:33Z</time>
      </trkpt>
      <trkpt lat="45.83918" lon="1.93249">
        <ele>765</ele>
        <time>2013-08-05T08:07:43Z</time>
      </trkpt>
      <trkpt lat="45.83905" lon="1.93279">
        <ele>764</ele>
        <time>2013-08-05T08:07:57Z</time>
      </trkpt>
      <trkpt lat="45.83898" lon="1.93288">
        <ele>764</ele>
        <time>2013-08-05T08:08:03Z</time>
      </trkpt>
      <trkpt lat="45.83893" lon="1.93294">
        <ele>763</ele>
        <time>2013-08-05T08:08:07Z</time>
      </trkpt>
      <trkpt lat="45.8388" lon="1.93305">
        <ele>762</ele>
        <time>2013-08-05T08:08:15Z</time>
      </trkpt>
      <trkpt lat="45.83859" lon="1.93312">
        <ele>761</ele>
        <time>2013-08-05T08:08:27Z</time>
      </trkpt>
      <trkpt lat="45.83853" lon="1.93314">
        <ele>761</ele>
        <time>2013-08-05T08:08:32Z</time>
      </trkpt>
      <trkpt lat="45.83846" lon="1.93315">
        <ele>760</ele>
        <time>2013-08-05T08:08:36Z</time>
      </trkpt>
      <trkpt lat="45.83826" lon="1.93318">
        <ele>759</ele>
        <time>2013-08-05T08:08:47Z</time>
      </trkpt>
      <trkpt lat="45.8382" lon="1.9332">
        <ele>759</ele>
        <time>2013-08-05T08:08:51Z</time>
      </trkpt>
      <trkpt lat="45.83818" lon="1.93322">
        <ele>759</ele>
        <time>2013-08-05T08:08:54Z</time>
      </trkpt>
      <trkpt lat="45.838" lon="1.93327">
        <ele>758</ele>
        <time>2013-08-05T08:09:05Z</time>
      </trkpt>
      <trkpt lat="45.83779" lon="1.93333">
        <ele>758</ele>
        <time>2013-08-05T08:09:18Z</time>
      </trkpt>
      <trkpt lat="45.83753" lon="1.93332">
        <ele>757</ele>
        <time>2013-08-05T08:09:33Z</time>
      </trkpt>
      <trkpt lat="45.83752" lon="1.93332">
        <ele>757</ele>
        <time>2013-08-05T08:09:34Z</time>
      </trkpt>
      <trkpt lat="45.83727" lon="1.93328">
        <ele>756</ele>
        <time>2013-08-05T08:09:49Z</time>
      </trkpt>
      <trkpt lat="45.83721" lon="1.93329">
        <ele>757</ele>
        <time>2013-08-05T08:09:53Z</time>
      </trkpt>
      <trkpt lat="45.8371" lon="1.9333">
        <ele>756</ele>
        <time>2013-08-05T08:10:02Z</time>
      </trkpt>
      <trkpt lat="45.83691" lon="1.93335">
        <ele>756</ele>
        <time>2013-08-05T08:10:14Z</time>
      </trkpt>
      <trkpt lat="45.83687" lon="1.93337">
        <ele>756</ele>
        <time>2013-08-05T08:10:17Z</time>
      </trkpt>
      <trkpt lat="45.83676" lon="1.93353">
        <ele>757</ele>
        <time>2013-08-05T08:10:28Z</time>
      </trkpt>
      <trkpt lat="45.83672" lon="1.93363">
        <ele>757</ele>
        <time>2013-08-05T08:10:34Z</time>
      </trkpt>
      <trkpt lat="45.83656" lon="1.93389">
        <ele>759</ele>
        <time>2013-08-05T08:10:48Z</time>
      </trkpt>
      <trkpt lat="45.83655" lon="1.93391">
        <ele>759</ele>
        <time>2013-08-05T08:10:49Z</time>
      </trkpt>
      <trkpt lat="45.83638" lon="1.93413">
        <ele>759</ele>
        <time>2013-08-05T08:11:02Z</time>
      </trkpt>
      <trkpt lat="45.83633" lon="1.93423">
        <ele>759</ele>
        <time>2013-08-05T08:11:07Z</time>
      </trkpt>
      <trkpt lat="45.83632" lon="1.93427">
        <ele>760</ele>
        <time>2013-08-05T08:11:09Z</time>
      </trkpt>
      <trkpt lat="45.83622" lon="1.9345">
        <ele>761</ele>
        <time>2013-08-05T08:11:24Z</time>
      </trkpt>
      <trkpt lat="45.83613" lon="1.9347">
        <ele>760</ele>
        <time>2013-08-05T08:11:34Z</time>
      </trkpt>
      <trkpt lat="45.83606" lon="1.93485">
        <ele>760</ele>
        <time>2013-08-05T08:11:42Z</time>
      </trkpt>
      <trkpt lat="45.83591" lon="1.93512">
        <ele>760</ele>
        <time>2013-08-05T08:11:55Z</time>
      </trkpt>
      <trkpt lat="45.83588" lon="1.93519">
        <ele>759</ele>
        <time>2013-08-05T08:12:00Z</time>
      </trkpt>
      <trkpt lat="45.83574" lon="1.93547">
        <ele>758</ele>
        <time>2013-08-05T08:12:14Z</time>
      </trkpt>
      <trkpt lat="45.83558" lon="1.93572">
        <ele>756</ele>
        <time>2013-08-05T08:12:28Z</time>
      </trkpt>
      <trkpt lat="45.83545" lon="1.93584">
        <ele>756</ele>
        <time>2013-08-05T08:12:37Z</time>
      </trkpt>
      <trkpt lat="45.83534" lon="1.93608">
        <ele>755</ele>
        <time>2013-08-05T08:12:48Z</time>
      </trkpt>
      <trkpt lat="45.83521" lon="1.9363">
        <ele>755</ele>
        <time>2013-08-05T08:13:00Z</time>
      </trkpt>
      <trkpt lat="45.83518" lon="1.93635">
        <ele>755</ele>
        <time>2013-08-05T08:13:04Z</time>
      </trkpt>
      <trkpt lat="45.83514" lon="1.93641">
        <ele>755</ele>
        <time>2013-08-05T08:13:08Z</time>
      </trkpt>
      <trkpt lat="45.83504" lon="1.93658">
        <ele>755</ele>
        <time>2013-08-05T08:13:16Z</time>
      </trkpt>
      <trkpt lat="45.83493" lon="1.93674">
        <ele>754</ele>
        <time>2013-08-05T08:13:26Z</time>
      </trkpt>
      <trkpt lat="45.8349" lon="1.93678">
        <ele>754</ele>
        <time>2013-08-05T08:13:28Z</time>
      </trkpt>
      <trkpt lat="45.83485" lon="1.93681">
        <ele>754</ele>
        <time>2013-08-05T08:13:32Z</time>
      </trkpt>
      <trkpt lat="45.83477" lon="1.93682">
        <ele>753</ele>
        <time>2013-08-05T08:13:37Z</time>
      </trkpt>
      <trkpt lat="45.8347" lon="1.93681">
        <ele>752</ele>
        <time>2013-08-05T08:13:42Z</time>
      </trkpt>
      <trkpt lat="45.8345" lon="1.93692">
        <ele>751</ele>
        <time>2013-08-05T08:13:56Z</time>
      </trkpt>
      <trkpt lat="45.83445" lon="1.93696">
        <ele>751</ele>
        <time>2013-08-05T08:13:59Z</time>
      </trkpt>
      <trkpt lat="45.83436" lon="1.93703">
        <ele>751</ele>
        <time>2013-08-05T08:14:04Z</time>
      </trkpt>
      <trkpt lat="45.8342" lon="1.93723">
        <ele>751</ele>
        <time>2013-08-05T08:14:17Z</time>
      </trkpt>
      <trkpt lat="45.8341" lon="1.93743">
        <ele>750</ele>
        <time>2013-08-05T08:14:26Z</time>
      </trkpt>
      <trkpt lat="45.83403" lon="1.93748">
        <ele>750</ele>
        <time>2013-08-05T08:14:31Z</time>
      </trkpt>
      <trkpt lat="45.83387" lon="1.9377">
        <ele>750</ele>
        <time>2013-08-05T08:14:44Z</time>
      </trkpt>
      <trkpt lat="45.83378" lon="1.93805">
        <ele>750</ele>
        <time>2013-08-05T08:14:59Z</time>
      </trkpt>
      <trkpt lat="45.83375" lon="1.93823">
        <ele>751</ele>
        <time>2013-08-05T08:15:08Z</time>
      </trkpt>
      <trkpt lat="45.83368" lon="1.93846">
        <ele>751</ele>
        <time>2013-08-05T08:15:19Z</time>
      </trkpt>
      <trkpt lat="45.83361" lon="1.93864">
        <ele>752</ele>
        <time>2013-08-05T08:15:28Z</time>
      </trkpt>
      <trkpt lat="45.83358" lon="1.93872">
        <ele>753</ele>
        <time>2013-08-05T08:15:32Z</time>
      </trkpt>
      <trkpt lat="45.83354" lon="1.93884">
        <ele>753</ele>
        <time>2013-08-05T08:15:38Z</time>
      </trkpt>
      <trkpt lat="45.83351" lon="1.93896">
        <ele>754</ele>
        <time>2013-08-05T08:15:43Z</time>
      </trkpt>
      <trkpt lat="45.83347" lon="1.93908">
        <ele>755</ele>
        <time>2013-08-05T08:15:50Z</time>
      </trkpt>
      <trkpt lat="45.83345" lon="1.93911">
        <ele>755</ele>
        <time>2013-08-05T08:15:53Z</time>
      </trkpt>
      <trkpt lat="45.83333" lon="1.93932">
        <ele>756</ele>
        <time>2013-08-05T08:16:04Z</time>
      </trkpt>
      <trkpt lat="45.83325" lon="1.93939">
        <ele>757</ele>
        <time>2013-08-05T08:16:09Z</time>
      </trkpt>
      <trkpt lat="45.83309" lon="1.9396">
        <ele>757</ele>
        <time>2013-08-05T08:16:22Z</time>
      </trkpt>
      <trkpt lat="45.83305" lon="1.93967">
        <ele>757</ele>
        <time>2013-08-05T08:16:26Z</time>
      </trkpt>
      <trkpt lat="45.83304" lon="1.93979">
        <ele>757</ele>
        <time>2013-08-05T08:16:32Z</time>
      </trkpt>
      <trkpt lat="45.83301" lon="1.93986">
        <ele>757</ele>
        <time>2013-08-05T08:16:36Z</time>
      </trkpt>
      <trkpt lat="45.83287" lon="1.94002">
        <ele>755</ele>
        <time>2013-08-05T08:16:49Z</time>
      </trkpt>
      <trkpt lat="45.83285" lon="1.94011">
        <ele>754</ele>
        <time>2013-08-05T08:16:54Z</time>
      </trkpt>
      <trkpt lat="45.83286" lon="1.94017">
        <ele>754</ele>
        <time>2013-08-05T08:16:57Z</time>
      </trkpt>
      <trkpt lat="45.83286" lon="1.94021">
        <ele>753</ele>
        <time>2013-08-05T08:16:59Z</time>
      </trkpt>
      <trkpt lat="45.83285" lon="1.94025">
        <ele>753</ele>
        <time>2013-08-05T08:17:01Z</time>
      </trkpt>
      <trkpt lat="45.83279" lon="1.94042">
        <ele>751</ele>
        <time>2013-08-05T08:17:10Z</time>
      </trkpt>
      <trkpt lat="45.83276" lon="1.94044">
        <ele>751</ele>
        <time>2013-08-05T08:17:12Z</time>
      </trkpt>
      <trkpt lat="45.8327" lon="1.94051">
        <ele>749</ele>
        <time>2013-08-05T08:17:17Z</time>
      </trkpt>
      <trkpt lat="45.83255" lon="1.94054">
        <ele>749</ele>
        <time>2013-08-05T08:17:26Z</time>
      </trkpt>
      <trkpt lat="45.83253" lon="1.94055">
        <ele>749</ele>
        <time>2013-08-05T08:17:28Z</time>
      </trkpt>
      <trkpt lat="45.83246" lon="1.94059">
        <ele>747</ele>
        <time>2013-08-05T08:17:33Z</time>
      </trkpt>
      <trkpt lat="45.83232" lon="1.94067">
        <ele>743</ele>
        <time>2013-08-05T08:17:44Z</time>
      </trkpt>
      <trkpt lat="45.83227" lon="1.94074">
        <ele>740</ele>
        <time>2013-08-05T08:17:52Z</time>
      </trkpt>
      <trkpt lat="45.83225" lon="1.94083">
        <ele>738</ele>
        <time>2013-08-05T08:17:57Z</time>
      </trkpt>
      <trkpt lat="45.83221" lon="1.94103">
        <ele>737</ele>
        <time>2013-08-05T08:18:04Z</time>
      </trkpt>
      <trkpt lat="45.83224" lon="1.9412">
        <ele>735</ele>
        <time>2013-08-05T08:18:10Z</time>
      </trkpt>
      <trkpt lat="45.83228" lon="1.94126">
        <ele>735</ele>
        <time>2013-08-05T08:18:15Z</time>
      </trkpt>
      <trkpt lat="45.83235" lon="1.94142">
        <ele>734</ele>
        <time>2013-08-05T08:18:22Z</time>
      </trkpt>
      <trkpt lat="45.8324" lon="1.9416">
        <ele>732</ele>
        <time>2013-08-05T08:18:33Z</time>
      </trkpt>
      <trkpt lat="45.8322" lon="1.94168">
        <ele>731</ele>
        <time>2013-08-05T08:18:44Z</time>
      </trkpt>
      <trkpt lat="45.83202" lon="1.94161">
        <ele>731</ele>
        <time>2013-08-05T08:18:54Z</time>
      </trkpt>
      <trkpt lat="45.83192" lon="1.94153">
        <ele>730</ele>
        <time>2013-08-05T08:19:01Z</time>
      </trkpt>
      <trkpt lat="45.83185" lon="1.94153">
        <ele>730</ele>
        <time>2013-08-05T08:19:06Z</time>
      </trkpt>
      <trkpt lat="45.83171" lon="1.94151">
        <ele>730</ele>
        <time>2013-08-05T08:19:14Z</time>
      </trkpt>
      <trkpt lat="45.83168" lon="1.94152">
        <ele>730</ele>
        <time>2013-08-05T08:19:16Z</time>
      </trkpt>
      <trkpt lat="45.83144" lon="1.94169">
        <ele>730</ele>
        <time>2013-08-05T08:19:30Z</time>
      </trkpt>
      <trkpt lat="45.83143" lon="1.9417">
        <ele>730</ele>
        <time>2013-08-05T08:19:31Z</time>
      </trkpt>
      <trkpt lat="45.83135" lon="1.94178">
        <ele>730</ele>
        <time>2013-08-05T08:19:36Z</time>
      </trkpt>
      <trkpt lat="45.83129" lon="1.94184">
        <ele>729</ele>
        <time>2013-08-05T08:19:40Z</time>
      </trkpt>
      <trkpt lat="45.83113" lon="1.94204">
        <ele>730</ele>
        <time>2013-08-05T08:19:54Z</time>
      </trkpt>
      <trkpt lat="45.83116" lon="1.94218">
        <ele>729</ele>
        <time>2013-08-05T08:20:00Z</time>
      </trkpt>
      <trkpt lat="45.83111" lon="1.94243">
        <ele>728</ele>
        <time>2013-08-05T08:20:13Z</time>
      </trkpt>
      <trkpt lat="45.83111" lon="1.94245">
        <ele>728</ele>
        <time>2013-08-05T08:20:14Z</time>
      </trkpt>
      <trkpt lat="45.83123" lon="1.94271">
        <ele>729</ele>
        <time>2013-08-05T08:20:28Z</time>
      </trkpt>
      <trkpt lat="45.83124" lon="1.94273">
        <ele>729</ele>
        <time>2013-08-05T08:20:29Z</time>
      </trkpt>
      <trkpt lat="45.8313" lon="1.94284">
        <ele>729</ele>
        <time>2013-08-05T08:20:36Z</time>
      </trkpt>
      <trkpt lat="45.83136" lon="1.94293">
        <ele>729</ele>
        <time>2013-08-05T08:20:41Z</time>
      </trkpt>
      <trkpt lat="45.83139" lon="1.94297">
        <ele>729</ele>
        <time>2013-08-05T08:20:43Z</time>
      </trkpt>
      <trkpt lat="45.83151" lon="1.94312">
        <ele>730</ele>
        <time>2013-08-05T08:20:50Z</time>
      </trkpt>
      <trkpt lat="45.83155" lon="1.9432">
        <ele>730</ele>
        <time>2013-08-05T08:20:54Z</time>
      </trkpt>
      <trkpt lat="45.83157" lon="1.94333">
        <ele>731</ele>
        <time>2013-08-05T08:20:59Z</time>
      </trkpt>
      <trkpt lat="45.83161" lon="1.94342">
        <ele>731</ele>
        <time>2013-08-05T08:21:03Z</time>
      </trkpt>
      <trkpt lat="45.8316" lon="1.9436">
        <ele>733</ele>
        <time>2013-08-05T08:21:10Z</time>
      </trkpt>
      <trkpt lat="45.83156" lon="1.94368">
        <ele>734</ele>
        <time>2013-08-05T08:21:19Z</time>
      </trkpt>
      <trkpt lat="45.83148" lon="1.94369">
        <ele>735</ele>
        <time>2013-08-05T08:21:24Z</time>
      </trkpt>
      <trkpt lat="45.8313" lon="1.94365">
        <ele>736</ele>
        <time>2013-08-05T08:21:40Z</time>
      </trkpt>
      <trkpt lat="45.83121" lon="1.9436">
        <ele>737</ele>
        <time>2013-08-05T08:21:47Z</time>
      </trkpt>
      <trkpt lat="45.83115" lon="1.94356">
        <ele>737</ele>
        <time>2013-08-05T08:21:51Z</time>
      </trkpt>
      <trkpt lat="45.83104" lon="1.94351">
        <ele>737</ele>
        <time>2013-08-05T08:21:58Z</time>
      </trkpt>
      <trkpt lat="45.83091" lon="1.94347">
        <ele>737</ele>
        <time>2013-08-05T08:22:07Z</time>
      </trkpt>
      <trkpt lat="45.8307" lon="1.94338">
        <ele>737</ele>
        <time>2013-08-05T08:22:20Z</time>
      </trkpt>
      <trkpt lat="45.8305" lon="1.9433">
        <ele>737</ele>
        <time>2013-08-05T08:22:32Z</time>
      </trkpt>
      <trkpt lat="45.83037" lon="1.94326">
        <ele>737</ele>
        <time>2013-08-05T08:22:39Z</time>
      </trkpt>
      <trkpt lat="45.83026" lon="1.94321">
        <ele>737</ele>
        <time>2013-08-05T08:22:45Z</time>
      </trkpt>
      <trkpt lat="45.83013" lon="1.94311">
        <ele>736</ele>
        <time>2013-08-05T08:22:55Z</time>
      </trkpt>
      <trkpt lat="45.82991" lon="1.94301">
        <ele>737</ele>
        <time>2013-08-05T08:23:09Z</time>
      </trkpt>
      <trkpt lat="45.8297" lon="1.94288">
        <ele>737</ele>
        <time>2013-08-05T08:23:24Z</time>
      </trkpt>
      <trkpt lat="45.82953" lon="1.94278">
        <ele>737</ele>
        <time>2013-08-05T08:23:36Z</time>
      </trkpt>
      <trkpt lat="45.82942" lon="1.94269">
        <ele>737</ele>
        <time>2013-08-05T08:23:45Z</time>
      </trkpt>
      <trkpt lat="45.82926" lon="1.94251">
        <ele>738</ele>
        <time>2013-08-05T08:23:59Z</time>
      </trkpt>
      <trkpt lat="45.82922" lon="1.94246">
        <ele>737</ele>
        <time>2013-08-05T08:24:03Z</time>
      </trkpt>
      <trkpt lat="45.8292" lon="1.94245">
        <ele>737</ele>
        <time>2013-08-05T08:24:05Z</time>
      </trkpt>
      <trkpt lat="45.82916" lon="1.94245">
        <ele>737</ele>
        <time>2013-08-05T08:24:07Z</time>
      </trkpt>
      <trkpt lat="45.82912" lon="1.94242">
        <ele>738</ele>
        <time>2013-08-05T08:24:11Z</time>
      </trkpt>
      <trkpt lat="45.82906" lon="1.94236">
        <ele>738</ele>
        <time>2013-08-05T08:24:16Z</time>
      </trkpt>
      <trkpt lat="45.82885" lon="1.94227">
        <ele>739</ele>
        <time>2013-08-05T08:24:30Z</time>
      </trkpt>
      <trkpt lat="45.82882" lon="1.94225">
        <ele>739</ele>
        <time>2013-08-05T08:24:32Z</time>
      </trkpt>
      <trkpt lat="45.82878" lon="1.94225">
        <ele>739</ele>
        <time>2013-08-05T08:24:35Z</time>
      </trkpt>
      <trkpt lat="45.8286" lon="1.94216">
        <ele>740</ele>
        <time>2013-08-05T08:24:50Z</time>
      </trkpt>
      <trkpt lat="45.82859" lon="1.94215">
        <ele>740</ele>
        <time>2013-08-05T08:24:52Z</time>
      </trkpt>
      <trkpt lat="45.82846" lon="1.9421">
        <ele>740</ele>
        <time>2013-08-05T08:25:02Z</time>
      </trkpt>
      <trkpt lat="45.82825" lon="1.94193">
        <ele>742</ele>
        <time>2013-08-05T08:25:16Z</time>
      </trkpt>
      <trkpt lat="45.82814" lon="1.94188">
        <ele>743</ele>
        <time>2013-08-05T08:25:26Z</time>
      </trkpt>
      <trkpt lat="45.82811" lon="1.9419">
        <ele>743</ele>
        <time>2013-08-05T08:25:27Z</time>
      </trkpt>
      <trkpt lat="45.82809" lon="1.94189">
        <ele>743</ele>
        <time>2013-08-05T08:25:29Z</time>
      </trkpt>
      <trkpt lat="45.82791" lon="1.94173">
        <ele>745</ele>
        <time>2013-08-05T08:25:42Z</time>
      </trkpt>
      <trkpt lat="45.82777" lon="1.94168">
        <ele>747</ele>
        <time>2013-08-05T08:25:53Z</time>
      </trkpt>
      <trkpt lat="45.82766" lon="1.9416">
        <ele>748</ele>
        <time>2013-08-05T08:26:03Z</time>
      </trkpt>
      <trkpt lat="45.82751" lon="1.94154">
        <ele>749</ele>
        <time>2013-08-05T08:26:16Z</time>
      </trkpt>
      <trkpt lat="45.82749" lon="1.94153">
        <ele>749</ele>
        <time>2013-08-05T08:26:18Z</time>
      </trkpt>
      <trkpt lat="45.82725" lon="1.94138">
        <ele>749</ele>
        <time>2013-08-05T08:26:32Z</time>
      </trkpt>
      <trkpt lat="45.82708" lon="1.94127">
        <ele>750</ele>
        <time>2013-08-05T08:26:44Z</time>
      </trkpt>
      <trkpt lat="45.8269" lon="1.94121">
        <ele>749</ele>
        <time>2013-08-05T08:26:59Z</time>
      </trkpt>
      <trkpt lat="45.82688" lon="1.94119">
        <ele>750</ele>
        <time>2013-08-05T08:27:00Z</time>
      </trkpt>
      <trkpt lat="45.82669" lon="1.941">
        <ele>749</ele>
        <time>2013-08-05T08:27:12Z</time>
      </trkpt>
      <trkpt lat="45.82659" lon="1.94082">
        <ele>749</ele>
        <time>2013-08-05T08:27:24Z</time>
      </trkpt>
      <trkpt lat="45.82654" lon="1.94075">
        <ele>749</ele>
        <time>2013-08-05T08:27:29Z</time>
      </trkpt>
      <trkpt lat="45.82649" lon="1.94069">
        <ele>749</ele>
        <time>2013-08-05T08:27:32Z</time>
      </trkpt>
      <trkpt lat="45.8263" lon="1.94049">
        <ele>749</ele>
        <time>2013-08-05T08:27:46Z</time>
      </trkpt>
      <trkpt lat="45.82625" lon="1.94044">
        <ele>749</ele>
        <time>2013-08-05T08:27:49Z</time>
      </trkpt>
      <trkpt lat="45.8262" lon="1.94042">
        <ele>748</ele>
        <time>2013-08-05T08:27:52Z</time>
      </trkpt>
      <trkpt lat="45.82616" lon="1.94038">
        <ele>748</ele>
        <time>2013-08-05T08:27:55Z</time>
      </trkpt>
      <trkpt lat="45.82608" lon="1.94028">
        <ele>748</ele>
        <time>2013-08-05T08:28:04Z</time>
      </trkpt>
      <trkpt lat="45.82602" lon="1.94021">
        <ele>748</ele>
        <time>2013-08-05T08:28:08Z</time>
      </trkpt>
      <trkpt lat="45.82588" lon="1.93999">
        <ele>747</ele>
        <time>2013-08-05T08:28:22Z</time>
      </trkpt>
      <trkpt lat="45.82585" lon="1.93995">
        <ele>747</ele>
        <time>2013-08-05T08:28:28Z</time>
      </trkpt>
      <trkpt lat="45.8258" lon="1.9399">
        <ele>747</ele>
        <time>2013-08-05T08:28:32Z</time>
      </trkpt>
      <trkpt lat="45.82562" lon="1.93971">
        <ele>746</ele>
        <time>2013-08-05T08:28:47Z</time>
      </trkpt>
      <trkpt lat="45.82547" lon="1.93955">
        <ele>746</ele>
        <time>2013-08-05T08:29:00Z</time>
      </trkpt>
      <trkpt lat="45.82533" lon="1.93929">
        <ele>746</ele>
        <time>2013-08-05T08:29:11Z</time>
      </trkpt>
      <trkpt lat="45.82521" lon="1.93908">
        <ele>745</ele>
        <time>2013-08-05T08:29:24Z</time>
      </trkpt>
      <trkpt lat="45.82514" lon="1.93897">
        <ele>744</ele>
        <time>2013-08-05T08:29:30Z</time>
      </trkpt>
      <trkpt lat="45.82503" lon="1.93882">
        <ele>743</ele>
        <time>2013-08-05T08:29:39Z</time>
      </trkpt>
      <trkpt lat="45.82488" lon="1.93863">
        <ele>742</ele>
        <time>2013-08-05T08:29:51Z</time>
      </trkpt>
      <trkpt lat="45.82481" lon="1.93853">
        <ele>742</ele>
        <time>2013-08-05T08:29:57Z</time>
      </trkpt>
      <trkpt lat="45.82473" lon="1.93838">
        <ele>740</ele>
        <time>2013-08-05T08:30:05Z</time>
      </trkpt>
      <trkpt lat="45.82466" lon="1.93833">
        <ele>740</ele>
        <time>2013-08-05T08:30:10Z</time>
      </trkpt>
      <trkpt lat="45.82464" lon="1.93831">
        <ele>740</ele>
        <time>2013-08-05T08:30:12Z</time>
      </trkpt>
      <trkpt lat="45.82449" lon="1.93816">
        <ele>738</ele>
        <time>2013-08-05T08:30:23Z</time>
      </trkpt>
      <trkpt lat="45.82437" lon="1.93803">
        <ele>737</ele>
        <time>2013-08-05T08:30:34Z</time>
      </trkpt>
      <trkpt lat="45.82428" lon="1.93792">
        <ele>735</ele>
        <time>2013-08-05T08:30:48Z</time>
      </trkpt>
      <trkpt lat="45.8242" lon="1.93781">
        <ele>734</ele>
        <time>2013-08-05T08:31:02Z</time>
      </trkpt>
      <trkpt lat="45.82415" lon="1.9377">
        <ele>733</ele>
        <time>2013-08-05T08:31:12Z</time>
      </trkpt>
      <trkpt lat="45.82408" lon="1.93758">
        <ele>732</ele>
        <time>2013-08-05T08:31:24Z</time>
      </trkpt>
      <trkpt lat="45.82408" lon="1.93751">
        <ele>732</ele>
        <time>2013-08-05T08:31:32Z</time>
      </trkpt>
      <trkpt lat="45.82407" lon="1.93746">
        <ele>732</ele>
        <time>2013-08-05T08:31:36Z</time>
      </trkpt>
      <trkpt lat="45.82404" lon="1.93748">
        <ele>732</ele>
        <time>2013-08-05T08:31:51Z</time>
      </trkpt>
      <trkpt lat="45.82395" lon="1.9373">
        <ele>731</ele>
        <time>2013-08-05T08:32:05Z</time>
      </trkpt>
      <trkpt lat="45.82387" lon="1.93716">
        <ele>730</ele>
        <time>2013-08-05T08:32:20Z</time>
      </trkpt>
      <trkpt lat="45.82379" lon="1.9371">
        <ele>730</ele>
        <time>2013-08-05T08:32:33Z</time>
      </trkpt>
      <trkpt lat="45.82376" lon="1.93709">
        <ele>729</ele>
        <time>2013-08-05T08:32:35Z</time>
      </trkpt>
      <trkpt lat="45.82362" lon="1.93707">
        <ele>730</ele>
        <time>2013-08-05T08:32:48Z</time>
      </trkpt>
      <trkpt lat="45.82362" lon="1.93707">
        <ele>730</ele>
        <time>2013-08-05T08:33:10Z</time>
      </trkpt>
      <trkpt lat="45.82362" lon="1.93705">
        <ele>731</ele>
        <time>2013-08-05T08:33:31Z</time>
      </trkpt>
      <trkpt lat="45.82362" lon="1.93705">
        <ele>730</ele>
        <time>2013-08-05T08:33:45Z</time>
      </trkpt>
      <trkpt lat="45.8236" lon="1.93704">
        <ele>730</ele>
        <time>2013-08-05T08:33:57Z</time>
      </trkpt>
      <trkpt lat="45.82353" lon="1.93699">
        <ele>729</ele>
        <time>2013-08-05T08:34:12Z</time>
      </trkpt>
      <trkpt lat="45.82349" lon="1.93691">
        <ele>729</ele>
        <time>2013-08-05T08:34:22Z</time>
      </trkpt>
      <trkpt lat="45.82347" lon="1.93689">
        <ele>729</ele>
        <time>2013-08-05T08:34:37Z</time>
      </trkpt>
      <trkpt lat="45.82342" lon="1.93685">
        <ele>729</ele>
        <time>2013-08-05T08:34:42Z</time>
      </trkpt>
      <trkpt lat="45.82339" lon="1.93683">
        <ele>729</ele>
        <time>2013-08-05T08:34:51Z</time>
      </trkpt>
      <trkpt lat="45.82334" lon="1.93679">
        <ele>729</ele>
        <time>2013-08-05T08:35:04Z</time>
      </trkpt>
      <trkpt lat="45.82327" lon="1.93669">
        <ele>728</ele>
        <time>2013-08-05T08:35:17Z</time>
      </trkpt>
      <trkpt lat="45.82326" lon="1.9367">
        <ele>728</ele>
        <time>2013-08-05T08:35:33Z</time>
      </trkpt>
      <trkpt lat="45.82326" lon="1.93667">
        <ele>728</ele>
        <time>2013-08-05T08:35:47Z</time>
      </trkpt>
      <trkpt lat="45.82323" lon="1.93665">
        <ele>729</ele>
        <time>2013-08-05T08:35:58Z</time>
      </trkpt>
      <trkpt lat="45.82324" lon="1.93666">
        <ele>728</ele>
        <time>2013-08-05T08:36:11Z</time>
      </trkpt>
      <trkpt lat="45.82325" lon="1.93665">
        <ele>729</ele>
        <time>2013-08-05T08:36:27Z</time>
      </trkpt>
      <trkpt lat="45.82326" lon="1.93666">
        <ele>729</ele>
        <time>2013-08-05T08:36:47Z</time>
      </trkpt>
      <trkpt lat="45.82327" lon="1.93666">
        <ele>729</ele>
        <time>2013-08-05T08:36:50Z</time>
      </trkpt>
      <trkpt lat="45.82328" lon="1.93667">
        <ele>729</ele>
        <time>2013-08-05T08:36:52Z</time>
      </trkpt>
      <trkpt lat="45.8233" lon="1.9367">
        <ele>729</ele>
        <time>2013-08-05T08:36:55Z</time>
      </trkpt>
      <trkpt lat="45.82338" lon="1.9368">
        <ele>730</ele>
        <time>2013-08-05T08:37:08Z</time>
      </trkpt>
      <trkpt lat="45.82344" lon="1.93688">
        <ele>730</ele>
        <time>2013-08-05T08:37:13Z</time>
      </trkpt>
      <trkpt lat="45.8235" lon="1.93697">
        <ele>731</ele>
        <time>2013-08-05T08:37:22Z</time>
      </trkpt>
      <trkpt lat="45.82356" lon="1.93703">
        <ele>731</ele>
        <time>2013-08-05T08:37:34Z</time>
      </trkpt>
      <trkpt lat="45.82359" lon="1.93704">
        <ele>731</ele>
        <time>2013-08-05T08:37:48Z</time>
      </trkpt>
      <trkpt lat="45.82362" lon="1.93702">
        <ele>731</ele>
        <time>2013-08-05T08:38:01Z</time>
      </trkpt>
      <trkpt lat="45.82363" lon="1.93712">
        <ele>732</ele>
        <time>2013-08-05T08:38:15Z</time>
      </trkpt>
      <trkpt lat="45.82362" lon="1.93712">
        <ele>732</ele>
        <time>2013-08-05T08:38:36Z</time>
      </trkpt>
      <trkpt lat="45.82361" lon="1.9371">
        <ele>732</ele>
        <time>2013-08-05T08:38:58Z</time>
      </trkpt>
      <trkpt lat="45.82361" lon="1.93709">
        <ele>732</ele>
        <time>2013-08-05T08:39:25Z</time>
      </trkpt>
      <trkpt lat="45.82362" lon="1.93708">
        <ele>732</ele>
        <time>2013-08-05T08:39:49Z</time>
      </trkpt>
      <trkpt lat="45.82364" lon="1.93704">
        <ele>732</ele>
        <time>2013-08-05T08:40:08Z</time>
      </trkpt>
      <trkpt lat="45.82364" lon="1.93703">
        <ele>732</ele>
        <time>2013-08-05T08:40:23Z</time>
      </trkpt>
      <trkpt lat="45.82363" lon="1.93703">
        <ele>732</ele>
        <time>2013-08-05T08:40:39Z</time>
      </trkpt>
      <trkpt lat="45.82366" lon="1.93705">
        <ele>731</ele>
        <time>2013-08-05T08:40:54Z</time>
      </trkpt>
      <trkpt lat="45.82373" lon="1.93709">
        <ele>732</ele>
        <time>2013-08-05T08:40:59Z</time>
      </trkpt>
      <trkpt lat="45.82392" lon="1.93743">
        <ele>733</ele>
        <time>2013-08-05T08:41:15Z</time>
      </trkpt>
      <trkpt lat="45.82393" lon="1.93744">
        <ele>733</ele>
        <time>2013-08-05T08:41:16Z</time>
      </trkpt>
      <trkpt lat="45.82393" lon="1.93747">
        <ele>734</ele>
        <time>2013-08-05T08:41:18Z</time>
      </trkpt>
      <trkpt lat="45.82406" lon="1.93756">
        <ele>734</ele>
        <time>2013-08-05T08:41:28Z</time>
      </trkpt>
      <trkpt lat="45.8241" lon="1.93761">
        <ele>734</ele>
        <time>2013-08-05T08:41:39Z</time>
      </trkpt>
      <trkpt lat="45.82412" lon="1.93762">
        <ele>734</ele>
        <time>2013-08-05T08:41:41Z</time>
      </trkpt>
      <trkpt lat="45.82418" lon="1.93775">
        <ele>734</ele>
        <time>2013-08-05T08:41:45Z</time>
      </trkpt>
      <trkpt lat="45.82425" lon="1.93789">
        <ele>737</ele>
        <time>2013-08-05T08:41:51Z</time>
      </trkpt>
      <trkpt lat="45.82431" lon="1.938">
        <ele>738</ele>
        <time>2013-08-05T08:42:06Z</time>
      </trkpt>
      <trkpt lat="45.82436" lon="1.93802">
        <ele>738</ele>
        <time>2013-08-05T08:42:19Z</time>
      </trkpt>
      <trkpt lat="45.82436" lon="1.93804">
        <ele>738</ele>
        <time>2013-08-05T08:42:32Z</time>
      </trkpt>
      <trkpt lat="45.82438" lon="1.93805">
        <ele>739</ele>
        <time>2013-08-05T08:42:48Z</time>
      </trkpt>
      <trkpt lat="45.82437" lon="1.9381">
        <ele>739</ele>
        <time>2013-08-05T08:43:07Z</time>
      </trkpt>
      <trkpt lat="45.82437" lon="1.93811">
        <ele>739</ele>
        <time>2013-08-05T08:43:10Z</time>
      </trkpt>
      <trkpt lat="45.82444" lon="1.93815">
        <ele>740</ele>
        <time>2013-08-05T08:43:15Z</time>
      </trkpt>
      <trkpt lat="45.82451" lon="1.93819">
        <ele>740</ele>
        <time>2013-08-05T08:43:20Z</time>
      </trkpt>
      <trkpt lat="45.82463" lon="1.93826">
        <ele>741</ele>
        <time>2013-08-05T08:43:28Z</time>
      </trkpt>
      <trkpt lat="45.82472" lon="1.93836">
        <ele>742</ele>
        <time>2013-08-05T08:43:37Z</time>
      </trkpt>
      <trkpt lat="45.82475" lon="1.93842">
        <ele>743</ele>
        <time>2013-08-05T08:43:40Z</time>
      </trkpt>
      <trkpt lat="45.82487" lon="1.93859">
        <ele>744</ele>
        <time>2013-08-05T08:43:54Z</time>
      </trkpt>
      <trkpt lat="45.82486" lon="1.93858">
        <ele>744</ele>
        <time>2013-08-05T08:44:11Z</time>
      </trkpt>
      <trkpt lat="45.82492" lon="1.93864">
        <ele>744</ele>
        <time>2013-08-05T08:44:26Z</time>
      </trkpt>
      <trkpt lat="45.82498" lon="1.93871">
        <ele>745</ele>
        <time>2013-08-05T08:44:32Z</time>
      </trkpt>
      <trkpt lat="45.82504" lon="1.93875">
        <ele>745</ele>
        <time>2013-08-05T08:44:36Z</time>
      </trkpt>
      <trkpt lat="45.82514" lon="1.93884">
        <ele>746</ele>
        <time>2013-08-05T08:44:42Z</time>
      </trkpt>
      <trkpt lat="45.82519" lon="1.939">
        <ele>746</ele>
        <time>2013-08-05T08:44:49Z</time>
      </trkpt>
      <trkpt lat="45.82522" lon="1.93906">
        <ele>747</ele>
        <time>2013-08-05T08:44:52Z</time>
      </trkpt>
      <trkpt lat="45.82531" lon="1.93928">
        <ele>748</ele>
        <time>2013-08-05T08:45:05Z</time>
      </trkpt>
      <trkpt lat="45.8254" lon="1.93949">
        <ele>748</ele>
        <time>2013-08-05T08:45:18Z</time>
      </trkpt>
      <trkpt lat="45.82543" lon="1.93954">
        <ele>748</ele>
        <time>2013-08-05T08:45:23Z</time>
      </trkpt>
      <trkpt lat="45.82549" lon="1.93965">
        <ele>748</ele>
        <time>2013-08-05T08:45:28Z</time>
      </trkpt>
      <trkpt lat="45.82551" lon="1.93981">
        <ele>749</ele>
        <time>2013-08-05T08:45:34Z</time>
      </trkpt>
      <trkpt lat="45.82557" lon="1.93993">
        <ele>749</ele>
        <time>2013-08-05T08:45:41Z</time>
      </trkpt>
      <trkpt lat="45.82587" lon="1.9401">
        <ele>749</ele>
        <time>2013-08-05T08:45:56Z</time>
      </trkpt>
      <trkpt lat="45.82598" lon="1.94016">
        <ele>750</ele>
        <time>2013-08-05T08:46:08Z</time>
      </trkpt>
      <trkpt lat="45.82611" lon="1.94035">
        <ele>750</ele>
        <time>2013-08-05T08:46:19Z</time>
      </trkpt>
      <trkpt lat="45.82615" lon="1.94038">
        <ele>750</ele>
        <time>2013-08-05T08:46:21Z</time>
      </trkpt>
      <trkpt lat="45.82631" lon="1.94057">
        <ele>751</ele>
        <time>2013-08-05T08:46:35Z</time>
      </trkpt>
      <trkpt lat="45.82643" lon="1.94091">
        <ele>752</ele>
        <time>2013-08-05T08:46:52Z</time>
      </trkpt>
      <trkpt lat="45.82649" lon="1.94103">
        <ele>752</ele>
        <time>2013-08-05T08:46:57Z</time>
      </trkpt>
      <trkpt lat="45.82681" lon="1.94122">
        <ele>752</ele>
        <time>2013-08-05T08:47:14Z</time>
      </trkpt>
      <trkpt lat="45.82701" lon="1.94134">
        <ele>752</ele>
        <time>2013-08-05T08:47:28Z</time>
      </trkpt>
      <trkpt lat="45.82721" lon="1.94145">
        <ele>752</ele>
        <time>2013-08-05T08:47:43Z</time>
      </trkpt>
      <trkpt lat="45.82749" lon="1.94158">
        <ele>751</ele>
        <time>2013-08-05T08:48:00Z</time>
      </trkpt>
      <trkpt lat="45.82766" lon="1.94169">
        <ele>750</ele>
        <time>2013-08-05T08:48:12Z</time>
      </trkpt>
      <trkpt lat="45.82774" lon="1.9417">
        <ele>749</ele>
        <time>2013-08-05T08:48:14Z</time>
      </trkpt>
      <trkpt lat="45.82787" lon="1.94175">
        <ele>748</ele>
        <time>2013-08-05T08:48:21Z</time>
      </trkpt>
      <trkpt lat="45.82796" lon="1.94182">
        <ele>747</ele>
        <time>2013-08-05T08:48:27Z</time>
      </trkpt>
      <trkpt lat="45.82817" lon="1.94189">
        <ele>745</ele>
        <time>2013-08-05T08:48:43Z</time>
      </trkpt>
      <trkpt lat="45.8283" lon="1.94195">
        <ele>745</ele>
        <time>2013-08-05T08:48:56Z</time>
      </trkpt>
      <trkpt lat="45.82833" lon="1.94196">
        <ele>744</ele>
        <time>2013-08-05T08:49:07Z</time>
      </trkpt>
      <trkpt lat="45.82843" lon="1.94197">
        <ele>744</ele>
        <time>2013-08-05T08:49:16Z</time>
      </trkpt>
      <trkpt lat="45.82847" lon="1.942">
        <ele>743</ele>
        <time>2013-08-05T08:49:19Z</time>
      </trkpt>
      <trkpt lat="45.82858" lon="1.94206">
        <ele>743</ele>
        <time>2013-08-05T08:49:26Z</time>
      </trkpt>
      <trkpt lat="45.82887" lon="1.94223">
        <ele>742</ele>
        <time>2013-08-05T08:49:40Z</time>
      </trkpt>
      <trkpt lat="45.82899" lon="1.94228">
        <ele>742</ele>
        <time>2013-08-05T08:49:44Z</time>
      </trkpt>
      <trkpt lat="45.82915" lon="1.94234">
        <ele>742</ele>
        <time>2013-08-05T08:49:52Z</time>
      </trkpt>
      <trkpt lat="45.82932" lon="1.94247">
        <ele>742</ele>
        <time>2013-08-05T08:50:04Z</time>
      </trkpt>
      <trkpt lat="45.82937" lon="1.94256">
        <ele>742</ele>
        <time>2013-08-05T08:50:09Z</time>
      </trkpt>
      <trkpt lat="45.82947" lon="1.94272">
        <ele>741</ele>
        <time>2013-08-05T08:50:17Z</time>
      </trkpt>
      <trkpt lat="45.82958" lon="1.94283">
        <ele>740</ele>
        <time>2013-08-05T08:50:25Z</time>
      </trkpt>
      <trkpt lat="45.8298" lon="1.94296">
        <ele>739</ele>
        <time>2013-08-05T08:50:39Z</time>
      </trkpt>
      <trkpt lat="45.82991" lon="1.94302">
        <ele>739</ele>
        <time>2013-08-05T08:50:46Z</time>
      </trkpt>
      <trkpt lat="45.82997" lon="1.94306">
        <ele>739</ele>
        <time>2013-08-05T08:50:51Z</time>
      </trkpt>
      <trkpt lat="45.83002" lon="1.9431">
        <ele>739</ele>
        <time>2013-08-05T08:50:56Z</time>
      </trkpt>
      <trkpt lat="45.83026" lon="1.94322">
        <ele>739</ele>
        <time>2013-08-05T08:51:12Z</time>
      </trkpt>
      <trkpt lat="45.83045" lon="1.94331">
        <ele>740</ele>
        <time>2013-08-05T08:51:24Z</time>
      </trkpt>
      <trkpt lat="45.83049" lon="1.94334">
        <ele>740</ele>
        <time>2013-08-05T08:51:28Z</time>
      </trkpt>
      <trkpt lat="45.83068" lon="1.9434">
        <ele>740</ele>
        <time>2013-08-05T08:51:43Z</time>
      </trkpt>
      <trkpt lat="45.83069" lon="1.94342">
        <ele>741</ele>
        <time>2013-08-05T08:51:44Z</time>
      </trkpt>
      <trkpt lat="45.83092" lon="1.94353">
        <ele>740</ele>
        <time>2013-08-05T08:51:58Z</time>
      </trkpt>
      <trkpt lat="45.83095" lon="1.94357">
        <ele>740</ele>
        <time>2013-08-05T08:52:02Z</time>
      </trkpt>
      <trkpt lat="45.83112" lon="1.94365">
        <ele>739</ele>
        <time>2013-08-05T08:52:14Z</time>
      </trkpt>
      <trkpt lat="45.8312" lon="1.94369">
        <ele>738</ele>
        <time>2013-08-05T08:52:25Z</time>
      </trkpt>
      <trkpt lat="45.83137" lon="1.94374">
        <ele>737</ele>
        <time>2013-08-05T08:52:32Z</time>
      </trkpt>
      <trkpt lat="45.83158" lon="1.94361">
        <ele>737</ele>
        <time>2013-08-05T08:52:41Z</time>
      </trkpt>
      <trkpt lat="45.8316" lon="1.94333">
        <ele>734</ele>
        <time>2013-08-05T08:52:54Z</time>
      </trkpt>
      <trkpt lat="45.83148" lon="1.94308">
        <ele>733</ele>
        <time>2013-08-05T08:53:08Z</time>
      </trkpt>
      <trkpt lat="45.83143" lon="1.943">
        <ele>733</ele>
        <time>2013-08-05T08:53:13Z</time>
      </trkpt>
      <trkpt lat="45.83139" lon="1.94296">
        <ele>732</ele>
        <time>2013-08-05T08:53:16Z</time>
      </trkpt>
      <trkpt lat="45.83133" lon="1.94285">
        <ele>732</ele>
        <time>2013-08-05T08:53:21Z</time>
      </trkpt>
      <trkpt lat="45.8312" lon="1.9427">
        <ele>732</ele>
        <time>2013-08-05T08:53:33Z</time>
      </trkpt>
      <trkpt lat="45.83109" lon="1.94258">
        <ele>732</ele>
        <time>2013-08-05T08:53:40Z</time>
      </trkpt>
      <trkpt lat="45.83109" lon="1.94233">
        <ele>732</ele>
        <time>2013-08-05T08:53:53Z</time>
      </trkpt>
      <trkpt lat="45.83116" lon="1.942">
        <ele>733</ele>
        <time>2013-08-05T08:54:04Z</time>
      </trkpt>
      <trkpt lat="45.83116" lon="1.94198">
        <ele>733</ele>
        <time>2013-08-05T08:54:05Z</time>
      </trkpt>
      <trkpt lat="45.83128" lon="1.94183">
        <ele>733</ele>
        <time>2013-08-05T08:54:20Z</time>
      </trkpt>
      <trkpt lat="45.83136" lon="1.94174">
        <ele>733</ele>
        <time>2013-08-05T08:54:32Z</time>
      </trkpt>
      <trkpt lat="45.83149" lon="1.94165">
        <ele>733</ele>
        <time>2013-08-05T08:54:40Z</time>
      </trkpt>
      <trkpt lat="45.83169" lon="1.94164">
        <ele>733</ele>
        <time>2013-08-05T08:54:52Z</time>
      </trkpt>
      <trkpt lat="45.83199" lon="1.94157">
        <ele>734</ele>
        <time>2013-08-05T08:55:04Z</time>
      </trkpt>
      <trkpt lat="45.83217" lon="1.94166">
        <ele>735</ele>
        <time>2013-08-05T08:55:15Z</time>
      </trkpt>
      <trkpt lat="45.83236" lon="1.94177">
        <ele>733</ele>
        <time>2013-08-05T08:55:28Z</time>
      </trkpt>
      <trkpt lat="45.83238" lon="1.94178">
        <ele>733</ele>
        <time>2013-08-05T08:55:30Z</time>
      </trkpt>
      <trkpt lat="45.83255" lon="1.94191">
        <ele>732</ele>
        <time>2013-08-05T08:55:43Z</time>
      </trkpt>
      <trkpt lat="45.83257" lon="1.94191">
        <ele>732</ele>
        <time>2013-08-05T08:55:45Z</time>
      </trkpt>
      <trkpt lat="45.83268" lon="1.94208">
        <ele>731</ele>
        <time>2013-08-05T08:55:55Z</time>
      </trkpt>
      <trkpt lat="45.8329" lon="1.94214">
        <ele>729</ele>
        <time>2013-08-05T08:56:07Z</time>
      </trkpt>
      <trkpt lat="45.83301" lon="1.94218">
        <ele>728</ele>
        <time>2013-08-05T08:56:14Z</time>
      </trkpt>
      <trkpt lat="45.83332" lon="1.94221">
        <ele>729</ele>
        <time>2013-08-05T08:56:29Z</time>
      </trkpt>
      <trkpt lat="45.83338" lon="1.94219">
        <ele>729</ele>
        <time>2013-08-05T08:56:32Z</time>
      </trkpt>
      <trkpt lat="45.83364" lon="1.94206">
        <ele>730</ele>
        <time>2013-08-05T08:56:43Z</time>
      </trkpt>
      <trkpt lat="45.83381" lon="1.94197">
        <ele>730</ele>
        <time>2013-08-05T08:56:55Z</time>
      </trkpt>
      <trkpt lat="45.83401" lon="1.9419">
        <ele>730</ele>
        <time>2013-08-05T08:57:08Z</time>
      </trkpt>
      <trkpt lat="45.83417" lon="1.94185">
        <ele>730</ele>
        <time>2013-08-05T08:57:14Z</time>
      </trkpt>
      <trkpt lat="45.83448" lon="1.9415">
        <ele>729</ele>
        <time>2013-08-05T08:57:30Z</time>
      </trkpt>
      <trkpt lat="45.83462" lon="1.94139">
        <ele>729</ele>
        <time>2013-08-05T08:57:43Z</time>
      </trkpt>
      <trkpt lat="45.83463" lon="1.9414">
        <ele>728</ele>
        <time>2013-08-05T08:57:45Z</time>
      </trkpt>
      <trkpt lat="45.83489" lon="1.94126">
        <ele>727</ele>
        <time>2013-08-05T08:57:57Z</time>
      </trkpt>
      <trkpt lat="45.83515" lon="1.94135">
        <ele>727</ele>
        <time>2013-08-05T08:58:11Z</time>
      </trkpt>
      <trkpt lat="45.8353" lon="1.94144">
        <ele>727</ele>
        <time>2013-08-05T08:58:18Z</time>
      </trkpt>
      <trkpt lat="45.83532" lon="1.94147">
        <ele>727</ele>
        <time>2013-08-05T08:58:20Z</time>
      </trkpt>
      <trkpt lat="45.83537" lon="1.94149">
        <ele>727</ele>
        <time>2013-08-05T08:58:23Z</time>
      </trkpt>
      <trkpt lat="45.8355" lon="1.94166">
        <ele>725</ele>
        <time>2013-08-05T08:58:35Z</time>
      </trkpt>
      <trkpt lat="45.83559" lon="1.94185">
        <ele>724</ele>
        <time>2013-08-05T08:58:43Z</time>
      </trkpt>
      <trkpt lat="45.83564" lon="1.94188">
        <ele>723</ele>
        <time>2013-08-05T08:58:47Z</time>
      </trkpt>
      <trkpt lat="45.83588" lon="1.94201">
        <ele>722</ele>
        <time>2013-08-05T08:59:03Z</time>
      </trkpt>
      <trkpt lat="45.83596" lon="1.94204">
        <ele>721</ele>
        <time>2013-08-05T08:59:10Z</time>
      </trkpt>
      <trkpt lat="45.83614" lon="1.94209">
        <ele>719</ele>
        <time>2013-08-05T08:59:22Z</time>
      </trkpt>
      <trkpt lat="45.83616" lon="1.94214">
        <ele>719</ele>
        <time>2013-08-05T08:59:24Z</time>
      </trkpt>
      <trkpt lat="45.83613" lon="1.94228">
        <ele>717</ele>
        <time>2013-08-05T08:59:32Z</time>
      </trkpt>
      <trkpt lat="45.83588" lon="1.94236">
        <ele>715</ele>
        <time>2013-08-05T08:59:46Z</time>
      </trkpt>
      <trkpt lat="45.8357" lon="1.94242">
        <ele>714</ele>
        <time>2013-08-05T08:59:57Z</time>
      </trkpt>
      <trkpt lat="45.83559" lon="1.94251">
        <ele>713</ele>
        <time>2013-08-05T09:00:04Z</time>
      </trkpt>
      <trkpt lat="45.83558" lon="1.94256">
        <ele>713</ele>
        <time>2013-08-05T09:00:12Z</time>
      </trkpt>
      <trkpt lat="45.83557" lon="1.94288">
        <ele>713</ele>
        <time>2013-08-05T09:00:27Z</time>
      </trkpt>
      <trkpt lat="45.83562" lon="1.94311">
        <ele>713</ele>
        <time>2013-08-05T09:00:36Z</time>
      </trkpt>
      <trkpt lat="45.83568" lon="1.94327">
        <ele>713</ele>
        <time>2013-08-05T09:00:43Z</time>
      </trkpt>
      <trkpt lat="45.8357" lon="1.94332">
        <ele>713</ele>
        <time>2013-08-05T09:00:46Z</time>
      </trkpt>
      <trkpt lat="45.83573" lon="1.94354">
        <ele>714</ele>
        <time>2013-08-05T09:00:54Z</time>
      </trkpt>
      <trkpt lat="45.83576" lon="1.9437">
        <ele>714</ele>
        <time>2013-08-05T09:01:02Z</time>
      </trkpt>
      <trkpt lat="45.83579" lon="1.94384">
        <ele>715</ele>
        <time>2013-08-05T09:01:07Z</time>
      </trkpt>
      <trkpt lat="45.83581" lon="1.94401">
        <ele>716</ele>
        <time>2013-08-05T09:01:13Z</time>
      </trkpt>
      <trkpt lat="45.83588" lon="1.94424">
        <ele>717</ele>
        <time>2013-08-05T09:01:23Z</time>
      </trkpt>
      <trkpt lat="45.83596" lon="1.94449">
        <ele>718</ele>
        <time>2013-08-05T09:01:36Z</time>
      </trkpt>
      <trkpt lat="45.836" lon="1.94473">
        <ele>719</ele>
        <time>2013-08-05T09:01:48Z</time>
      </trkpt>
      <trkpt lat="45.83604" lon="1.94491">
        <ele>719</ele>
        <time>2013-08-05T09:01:58Z</time>
      </trkpt>
      <trkpt lat="45.83616" lon="1.9452">
        <ele>720</ele>
        <time>2013-08-05T09:02:12Z</time>
      </trkpt>
      <trkpt lat="45.83623" lon="1.9456">
        <ele>719</ele>
        <time>2013-08-05T09:02:26Z</time>
      </trkpt>
      <trkpt lat="45.83624" lon="1.94588">
        <ele>719</ele>
        <time>2013-08-05T09:02:38Z</time>
      </trkpt>
      <trkpt lat="45.83627" lon="1.94607">
        <ele>719</ele>
        <time>2013-08-05T09:02:45Z</time>
      </trkpt>
      <trkpt lat="45.8363" lon="1.94651">
        <ele>718</ele>
        <time>2013-08-05T09:03:02Z</time>
      </trkpt>
      <trkpt lat="45.83633" lon="1.94668">
        <ele>719</ele>
        <time>2013-08-05T09:03:11Z</time>
      </trkpt>
      <trkpt lat="45.83633" lon="1.94692">
        <ele>719</ele>
        <time>2013-08-05T09:03:22Z</time>
      </trkpt>
      <trkpt lat="45.83634" lon="1.94699">
        <ele>720</ele>
        <time>2013-08-05T09:03:25Z</time>
      </trkpt>
      <trkpt lat="45.83633" lon="1.94726">
        <ele>720</ele>
        <time>2013-08-05T09:03:36Z</time>
      </trkpt>
      <trkpt lat="45.83633" lon="1.94729">
        <ele>720</ele>
        <time>2013-08-05T09:03:38Z</time>
      </trkpt>
      <trkpt lat="45.83634" lon="1.9474">
        <ele>720</ele>
        <time>2013-08-05T09:03:41Z</time>
      </trkpt>
      <trkpt lat="45.83636" lon="1.94766">
        <ele>721</ele>
        <time>2013-08-05T09:03:52Z</time>
      </trkpt>
      <trkpt lat="45.83637" lon="1.94801">
        <ele>722</ele>
        <time>2013-08-05T09:04:08Z</time>
      </trkpt>
      <trkpt lat="45.83637" lon="1.94804">
        <ele>722</ele>
        <time>2013-08-05T09:04:09Z</time>
      </trkpt>
      <trkpt lat="45.83638" lon="1.94809">
        <ele>722</ele>
        <time>2013-08-05T09:04:11Z</time>
      </trkpt>
      <trkpt lat="45.83636" lon="1.94829">
        <ele>722</ele>
        <time>2013-08-05T09:04:18Z</time>
      </trkpt>
      <trkpt lat="45.8364" lon="1.9486">
        <ele>723</ele>
        <time>2013-08-05T09:04:30Z</time>
      </trkpt>
      <trkpt lat="45.83651" lon="1.94886">
        <ele>724</ele>
        <time>2013-08-05T09:04:43Z</time>
      </trkpt>
      <trkpt lat="45.83654" lon="1.94894">
        <ele>724</ele>
        <time>2013-08-05T09:04:47Z</time>
      </trkpt>
      <trkpt lat="45.83656" lon="1.94902">
        <ele>724</ele>
        <time>2013-08-05T09:04:51Z</time>
      </trkpt>
      <trkpt lat="45.83671" lon="1.94931">
        <ele>725</ele>
        <time>2013-08-05T09:05:06Z</time>
      </trkpt>
      <trkpt lat="45.83673" lon="1.94936">
        <ele>725</ele>
        <time>2013-08-05T09:05:09Z</time>
      </trkpt>
      <trkpt lat="45.83677" lon="1.94944">
        <ele>725</ele>
        <time>2013-08-05T09:05:14Z</time>
      </trkpt>
      <trkpt lat="45.83685" lon="1.94968">
        <ele>726</ele>
        <time>2013-08-05T09:05:25Z</time>
      </trkpt>
      <trkpt lat="45.83685" lon="1.9497">
        <ele>726</ele>
        <time>2013-08-05T09:05:26Z</time>
      </trkpt>
      <trkpt lat="45.83688" lon="1.94981">
        <ele>726</ele>
        <time>2013-08-05T09:05:31Z</time>
      </trkpt>
      <trkpt lat="45.83693" lon="1.94994">
        <ele>727</ele>
        <time>2013-08-05T09:05:37Z</time>
      </trkpt>
      <trkpt lat="45.83706" lon="1.95022">
        <ele>727</ele>
        <time>2013-08-05T09:05:51Z</time>
      </trkpt>
      <trkpt lat="45.83712" lon="1.95043">
        <ele>728</ele>
        <time>2013-08-05T09:06:02Z</time>
      </trkpt>
      <trkpt lat="45.8372" lon="1.95067">
        <ele>728</ele>
        <time>2013-08-05T09:06:15Z</time>
      </trkpt>
      <trkpt lat="45.83721" lon="1.95072">
        <ele>729</ele>
        <time>2013-08-05T09:06:17Z</time>
      </trkpt>
      <trkpt lat="45.83721" lon="1.95078">
        <ele>729</ele>
        <time>2013-08-05T09:06:20Z</time>
      </trkpt>
      <trkpt lat="45.83717" lon="1.95095">
        <ele>729</ele>
        <time>2013-08-05T09:06:26Z</time>
      </trkpt>
      <trkpt lat="45.83706" lon="1.95119">
        <ele>730</ele>
        <time>2013-08-05T09:06:38Z</time>
      </trkpt>
      <trkpt lat="45.83697" lon="1.95139">
        <ele>731</ele>
        <time>2013-08-05T09:06:50Z</time>
      </trkpt>
      <trkpt lat="45.83685" lon="1.95161">
        <ele>732</ele>
        <time>2013-08-05T09:07:00Z</time>
      </trkpt>
      <trkpt lat="45.83683" lon="1.95164">
        <ele>732</ele>
        <time>2013-08-05T09:07:02Z</time>
      </trkpt>
      <trkpt lat="45.83678" lon="1.95169">
        <ele>732</ele>
        <time>2013-08-05T09:07:06Z</time>
      </trkpt>
      <trkpt lat="45.83656" lon="1.95177">
        <ele>733</ele>
        <time>2013-08-05T09:07:19Z</time>
      </trkpt>
      <trkpt lat="45.83637" lon="1.95181">
        <ele>733</ele>
        <time>2013-08-05T09:07:31Z</time>
      </trkpt>
      <trkpt lat="45.83615" lon="1.95181">
        <ele>733</ele>
        <time>2013-08-05T09:07:45Z</time>
      </trkpt>
      <trkpt lat="45.83596" lon="1.9518">
        <ele>733</ele>
        <time>2013-08-05T09:07:56Z</time>
      </trkpt>
      <trkpt lat="45.83576" lon="1.95185">
        <ele>733</ele>
        <time>2013-08-05T09:08:09Z</time>
      </trkpt>
      <trkpt lat="45.83571" lon="1.95185">
        <ele>734</ele>
        <time>2013-08-05T09:08:12Z</time>
      </trkpt>
      <trkpt lat="45.8356" lon="1.95189">
        <ele>734</ele>
        <time>2013-08-05T09:08:19Z</time>
      </trkpt>
      <trkpt lat="45.83559" lon="1.9519">
        <ele>734</ele>
        <time>2013-08-05T09:08:20Z</time>
      </trkpt>
      <trkpt lat="45.83557" lon="1.95194">
        <ele>734</ele>
        <time>2013-08-05T09:08:22Z</time>
      </trkpt>
      <trkpt lat="45.83535" lon="1.95194">
        <ele>734</ele>
        <time>2013-08-05T09:08:35Z</time>
      </trkpt>
      <trkpt lat="45.83514" lon="1.952">
        <ele>734</ele>
        <time>2013-08-05T09:08:49Z</time>
      </trkpt>
      <trkpt lat="45.83491" lon="1.95202">
        <ele>734</ele>
        <time>2013-08-05T09:09:02Z</time>
      </trkpt>
      <trkpt lat="45.83479" lon="1.95201">
        <ele>735</ele>
        <time>2013-08-05T09:09:09Z</time>
      </trkpt>
      <trkpt lat="45.83476" lon="1.95201">
        <ele>734</ele>
        <time>2013-08-05T09:09:11Z</time>
      </trkpt>
      <trkpt lat="45.83451" lon="1.95206">
        <ele>735</ele>
        <time>2013-08-05T09:09:23Z</time>
      </trkpt>
      <trkpt lat="45.83437" lon="1.95204">
        <ele>734</ele>
        <time>2013-08-05T09:09:32Z</time>
      </trkpt>
      <trkpt lat="45.83416" lon="1.95206">
        <ele>733</ele>
        <time>2013-08-05T09:09:45Z</time>
      </trkpt>
      <trkpt lat="45.83402" lon="1.95206">
        <ele>733</ele>
        <time>2013-08-05T09:09:54Z</time>
      </trkpt>
      <trkpt lat="45.83381" lon="1.95208">
        <ele>732</ele>
        <time>2013-08-05T09:10:07Z</time>
      </trkpt>
      <trkpt lat="45.83362" lon="1.95198">
        <ele>731</ele>
        <time>2013-08-05T09:10:18Z</time>
      </trkpt>
      <trkpt lat="45.8334" lon="1.95169">
        <ele>730</ele>
        <time>2013-08-05T09:10:33Z</time>
      </trkpt>
      <trkpt lat="45.83337" lon="1.95164">
        <ele>730</ele>
        <time>2013-08-05T09:10:36Z</time>
      </trkpt>
      <trkpt lat="45.83325" lon="1.95143">
        <ele>730</ele>
        <time>2013-08-05T09:10:46Z</time>
      </trkpt>
      <trkpt lat="45.83308" lon="1.95123">
        <ele>729</ele>
        <time>2013-08-05T09:10:59Z</time>
      </trkpt>
      <trkpt lat="45.83292" lon="1.95104">
        <ele>729</ele>
        <time>2013-08-05T09:11:10Z</time>
      </trkpt>
      <trkpt lat="45.83277" lon="1.9509">
        <ele>729</ele>
        <time>2013-08-05T09:11:20Z</time>
      </trkpt>
      <trkpt lat="45.83267" lon="1.95079">
        <ele>729</ele>
        <time>2013-08-05T09:11:31Z</time>
      </trkpt>
      <trkpt lat="45.83267" lon="1.95079">
        <ele>729</ele>
        <time>2013-08-05T09:11:34Z</time>
      </trkpt>
      <trkpt lat="45.83264" lon="1.95077">
        <ele>728</ele>
        <time>2013-08-05T09:11:36Z</time>
      </trkpt>
      <trkpt lat="45.83254" lon="1.95071">
        <ele>725</ele>
        <time>2013-08-05T09:11:43Z</time>
      </trkpt>
      <trkpt lat="45.83253" lon="1.9507">
        <ele>728</ele>
        <time>2013-08-05T09:11:44Z</time>
      </trkpt>
      <trkpt lat="45.83236" lon="1.95059">
        <ele>729</ele>
        <time>2013-08-05T09:11:55Z</time>
      </trkpt>
      <trkpt lat="45.83235" lon="1.95058">
        <ele>728</ele>
        <time>2013-08-05T09:11:56Z</time>
      </trkpt>
      <trkpt lat="45.83229" lon="1.95052">
        <ele>728</ele>
        <time>2013-08-05T09:12:01Z</time>
      </trkpt>
      <trkpt lat="45.83208" lon="1.9505">
        <ele>728</ele>
        <time>2013-08-05T09:12:13Z</time>
      </trkpt>
      <trkpt lat="45.8319" lon="1.95053">
        <ele>728</ele>
        <time>2013-08-05T09:12:24Z</time>
      </trkpt>
      <trkpt lat="45.83173" lon="1.95056">
        <ele>727</ele>
        <time>2013-08-05T09:12:34Z</time>
      </trkpt>
      <trkpt lat="45.83153" lon="1.9505">
        <ele>726</ele>
        <time>2013-08-05T09:12:46Z</time>
      </trkpt>
      <trkpt lat="45.83149" lon="1.95049">
        <ele>726</ele>
        <time>2013-08-05T09:12:48Z</time>
      </trkpt>
      <trkpt lat="45.83144" lon="1.95046">
        <ele>726</ele>
        <time>2013-08-05T09:12:52Z</time>
      </trkpt>
      <trkpt lat="45.83138" lon="1.95044">
        <ele>725</ele>
        <time>2013-08-05T09:12:56Z</time>
      </trkpt>
      <trkpt lat="45.83129" lon="1.95037">
        <ele>724</ele>
        <time>2013-08-05T09:13:03Z</time>
      </trkpt>
      <trkpt lat="45.83113" lon="1.9503">
        <ele>724</ele>
        <time>2013-08-05T09:13:15Z</time>
      </trkpt>
      <trkpt lat="45.83111" lon="1.95029">
        <ele>724</ele>
        <time>2013-08-05T09:13:16Z</time>
      </trkpt>
      <trkpt lat="45.83096" lon="1.95007">
        <ele>724</ele>
        <time>2013-08-05T09:13:27Z</time>
      </trkpt>
      <trkpt lat="45.83085" lon="1.94998">
        <ele>724</ele>
        <time>2013-08-05T09:13:35Z</time>
      </trkpt>
      <trkpt lat="45.83081" lon="1.94993">
        <ele>724</ele>
        <time>2013-08-05T09:13:38Z</time>
      </trkpt>
      <trkpt lat="45.83069" lon="1.94981">
        <ele>724</ele>
        <time>2013-08-05T09:13:46Z</time>
      </trkpt>
      <trkpt lat="45.83063" lon="1.94975">
        <ele>724</ele>
        <time>2013-08-05T09:13:50Z</time>
      </trkpt>
      <trkpt lat="45.83059" lon="1.94972">
        <ele>724</ele>
        <time>2013-08-05T09:13:53Z</time>
      </trkpt>
      <trkpt lat="45.83056" lon="1.94969">
        <ele>724</ele>
        <time>2013-08-05T09:13:56Z</time>
      </trkpt>
      <trkpt lat="45.83042" lon="1.94956">
        <ele>724</ele>
        <time>2013-08-05T09:14:05Z</time>
      </trkpt>
      <trkpt lat="45.83038" lon="1.94953">
        <ele>724</ele>
        <time>2013-08-05T09:14:08Z</time>
      </trkpt>
      <trkpt lat="45.83035" lon="1.9495">
        <ele>724</ele>
        <time>2013-08-05T09:14:11Z</time>
      </trkpt>
      <trkpt lat="45.83028" lon="1.94946">
        <ele>724</ele>
        <time>2013-08-05T09:14:15Z</time>
      </trkpt>
      <trkpt lat="45.83015" lon="1.94936">
        <ele>724</ele>
        <time>2013-08-05T09:14:23Z</time>
      </trkpt>
      <trkpt lat="45.83009" lon="1.94934">
        <ele>724</ele>
        <time>2013-08-05T09:14:26Z</time>
      </trkpt>
      <trkpt lat="45.83001" lon="1.94935">
        <ele>724</ele>
        <time>2013-08-05T09:14:30Z</time>
      </trkpt>
      <trkpt lat="45.82994" lon="1.94926">
        <ele>724</ele>
        <time>2013-08-05T09:14:35Z</time>
      </trkpt>
      <trkpt lat="45.82988" lon="1.94919">
        <ele>724</ele>
        <time>2013-08-05T09:14:40Z</time>
      </trkpt>
      <trkpt lat="45.82967" lon="1.9491">
        <ele>724</ele>
        <time>2013-08-05T09:14:54Z</time>
      </trkpt>
      <trkpt lat="45.82958" lon="1.94903">
        <ele>724</ele>
        <time>2013-08-05T09:15:00Z</time>
      </trkpt>
      <trkpt lat="45.82949" lon="1.94901">
        <ele>724</ele>
        <time>2013-08-05T09:15:05Z</time>
      </trkpt>
      <trkpt lat="45.82944" lon="1.94899">
        <ele>724</ele>
        <time>2013-08-05T09:15:09Z</time>
      </trkpt>
      <trkpt lat="45.82927" lon="1.94891">
        <ele>724</ele>
        <time>2013-08-05T09:15:20Z</time>
      </trkpt>
      <trkpt lat="45.82925" lon="1.94891">
        <ele>724</ele>
        <time>2013-08-05T09:15:21Z</time>
      </trkpt>
      <trkpt lat="45.82922" lon="1.94893">
        <ele>724</ele>
        <time>2013-08-05T09:15:25Z</time>
      </trkpt>
      <trkpt lat="45.82906" lon="1.94883">
        <ele>723</ele>
        <time>2013-08-05T09:15:35Z</time>
      </trkpt>
      <trkpt lat="45.82902" lon="1.94881">
        <ele>723</ele>
        <time>2013-08-05T09:15:38Z</time>
      </trkpt>
      <trkpt lat="45.82875" lon="1.94875">
        <ele>723</ele>
        <time>2013-08-05T09:15:52Z</time>
      </trkpt>
      <trkpt lat="45.82867" lon="1.94873">
        <ele>723</ele>
        <time>2013-08-05T09:15:57Z</time>
      </trkpt>
      <trkpt lat="45.8286" lon="1.94868">
        <ele>723</ele>
        <time>2013-08-05T09:16:02Z</time>
      </trkpt>
      <trkpt lat="45.82854" lon="1.94869">
        <ele>723</ele>
        <time>2013-08-05T09:16:06Z</time>
      </trkpt>
      <trkpt lat="45.82851" lon="1.94872">
        <ele>723</ele>
        <time>2013-08-05T09:16:08Z</time>
      </trkpt>
      <trkpt lat="45.82844" lon="1.94873">
        <ele>723</ele>
        <time>2013-08-05T09:16:13Z</time>
      </trkpt>
      <trkpt lat="45.82826" lon="1.94869">
        <ele>723</ele>
        <time>2013-08-05T09:16:24Z</time>
      </trkpt>
      <trkpt lat="45.82825" lon="1.94869">
        <ele>723</ele>
        <time>2013-08-05T09:16:26Z</time>
      </trkpt>
      <trkpt lat="45.82823" lon="1.94872">
        <ele>723</ele>
        <time>2013-08-05T09:16:34Z</time>
      </trkpt>
      <trkpt lat="45.82812" lon="1.9487">
        <ele>723</ele>
        <time>2013-08-05T09:16:43Z</time>
      </trkpt>
      <trkpt lat="45.8281" lon="1.9487">
        <ele>723</ele>
        <time>2013-08-05T09:16:45Z</time>
      </trkpt>
      <trkpt lat="45.82803" lon="1.94871">
        <ele>723</ele>
        <time>2013-08-05T09:16:48Z</time>
      </trkpt>
      <trkpt lat="45.82785" lon="1.94878">
        <ele>722</ele>
        <time>2013-08-05T09:17:01Z</time>
      </trkpt>
      <trkpt lat="45.82769" lon="1.94871">
        <ele>723</ele>
        <time>2013-08-05T09:17:13Z</time>
      </trkpt>
      <trkpt lat="45.82754" lon="1.94872">
        <ele>722</ele>
        <time>2013-08-05T09:17:23Z</time>
      </trkpt>
      <trkpt lat="45.82736" lon="1.94882">
        <ele>722</ele>
        <time>2013-08-05T09:17:34Z</time>
      </trkpt>
      <trkpt lat="45.82727" lon="1.94892">
        <ele>722</ele>
        <time>2013-08-05T09:17:42Z</time>
      </trkpt>
      <trkpt lat="45.82725" lon="1.94903">
        <ele>722</ele>
        <time>2013-08-05T09:17:46Z</time>
      </trkpt>
      <trkpt lat="45.82724" lon="1.94927">
        <ele>723</ele>
        <time>2013-08-05T09:17:57Z</time>
      </trkpt>
      <trkpt lat="45.82723" lon="1.94941">
        <ele>724</ele>
        <time>2013-08-05T09:18:07Z</time>
      </trkpt>
      <trkpt lat="45.82725" lon="1.94944">
        <ele>724</ele>
        <time>2013-08-05T09:18:23Z</time>
      </trkpt>
      <trkpt lat="45.82726" lon="1.94945">
        <ele>724</ele>
        <time>2013-08-05T09:18:25Z</time>
      </trkpt>
      <trkpt lat="45.82731" lon="1.94953">
        <ele>724</ele>
        <time>2013-08-05T09:18:30Z</time>
      </trkpt>
      <trkpt lat="45.82732" lon="1.94958">
        <ele>724</ele>
        <time>2013-08-05T09:18:33Z</time>
      </trkpt>
      <trkpt lat="45.82739" lon="1.9496">
        <ele>724</ele>
        <time>2013-08-05T09:18:47Z</time>
      </trkpt>
      <trkpt lat="45.82739" lon="1.94961">
        <ele>725</ele>
        <time>2013-08-05T09:18:58Z</time>
      </trkpt>
      <trkpt lat="45.82741" lon="1.94961">
        <ele>725</ele>
        <time>2013-08-05T09:19:10Z</time>
      </trkpt>
      <trkpt lat="45.82742" lon="1.94962">
        <ele>724</ele>
        <time>2013-08-05T09:19:12Z</time>
      </trkpt>
      <trkpt lat="45.82744" lon="1.94964">
        <ele>725</ele>
        <time>2013-08-05T09:19:15Z</time>
      </trkpt>
      <trkpt lat="45.82762" lon="1.94992">
        <ele>725</ele>
        <time>2013-08-05T09:19:29Z</time>
      </trkpt>
      <trkpt lat="45.8278" lon="1.95018">
        <ele>726</ele>
        <time>2013-08-05T09:19:41Z</time>
      </trkpt>
      <trkpt lat="45.82781" lon="1.9502">
        <ele>726</ele>
        <time>2013-08-05T09:19:42Z</time>
      </trkpt>
      <trkpt lat="45.82796" lon="1.95051">
        <ele>726</ele>
        <time>2013-08-05T09:19:56Z</time>
      </trkpt>
      <trkpt lat="45.82805" lon="1.95073">
        <ele>726</ele>
        <time>2013-08-05T09:20:09Z</time>
      </trkpt>
      <trkpt lat="45.82809" lon="1.95109">
        <ele>728</ele>
        <time>2013-08-05T09:20:21Z</time>
      </trkpt>
      <trkpt lat="45.82809" lon="1.95142">
        <ele>729</ele>
        <time>2013-08-05T09:20:34Z</time>
      </trkpt>
      <trkpt lat="45.8281" lon="1.95147">
        <ele>729</ele>
        <time>2013-08-05T09:20:37Z</time>
      </trkpt>
      <trkpt lat="45.82812" lon="1.95165">
        <ele>729</ele>
        <time>2013-08-05T09:20:46Z</time>
      </trkpt>
      <trkpt lat="45.82811" lon="1.95184">
        <ele>730</ele>
        <time>2013-08-05T09:20:52Z</time>
      </trkpt>
      <trkpt lat="45.82811" lon="1.95194">
        <ele>730</ele>
        <time>2013-08-05T09:20:57Z</time>
      </trkpt>
      <trkpt lat="45.82804" lon="1.9522">
        <ele>731</ele>
        <time>2013-08-05T09:21:09Z</time>
      </trkpt>
      <trkpt lat="45.82797" lon="1.95234">
        <ele>732</ele>
        <time>2013-08-05T09:21:17Z</time>
      </trkpt>
      <trkpt lat="45.82784" lon="1.95252">
        <ele>732</ele>
        <time>2013-08-05T09:21:31Z</time>
      </trkpt>
      <trkpt lat="45.82754" lon="1.95269">
        <ele>733</ele>
        <time>2013-08-05T09:21:45Z</time>
      </trkpt>
      <trkpt lat="45.82731" lon="1.95287">
        <ele>733</ele>
        <time>2013-08-05T09:21:59Z</time>
      </trkpt>
      <trkpt lat="45.82713" lon="1.95297">
        <ele>733</ele>
        <time>2013-08-05T09:22:11Z</time>
      </trkpt>
      <trkpt lat="45.8271" lon="1.95299">
        <ele>733</ele>
        <time>2013-08-05T09:22:13Z</time>
      </trkpt>
      <trkpt lat="45.82708" lon="1.95301">
        <ele>733</ele>
        <time>2013-08-05T09:22:15Z</time>
      </trkpt>
      <trkpt lat="45.82702" lon="1.95303">
        <ele>733</ele>
        <time>2013-08-05T09:22:19Z</time>
      </trkpt>
      <trkpt lat="45.82691" lon="1.95312">
        <ele>734</ele>
        <time>2013-08-05T09:22:26Z</time>
      </trkpt>
      <trkpt lat="45.8267" lon="1.95326">
        <ele>734</ele>
        <time>2013-08-05T09:22:38Z</time>
      </trkpt>
      <trkpt lat="45.82651" lon="1.95341">
        <ele>734</ele>
        <time>2013-08-05T09:22:50Z</time>
      </trkpt>
      <trkpt lat="45.82633" lon="1.95354">
        <ele>734</ele>
        <time>2013-08-05T09:23:02Z</time>
      </trkpt>
      <trkpt lat="45.82615" lon="1.95368">
        <ele>734</ele>
        <time>2013-08-05T09:23:14Z</time>
      </trkpt>
      <trkpt lat="45.82597" lon="1.95382">
        <ele>735</ele>
        <time>2013-08-05T09:23:26Z</time>
      </trkpt>
      <trkpt lat="45.82576" lon="1.95396">
        <ele>735</ele>
        <time>2013-08-05T09:23:40Z</time>
      </trkpt>
      <trkpt lat="45.8256" lon="1.95409">
        <ele>736</ele>
        <time>2013-08-05T09:23:52Z</time>
      </trkpt>
      <trkpt lat="45.8254" lon="1.9542">
        <ele>736</ele>
        <time>2013-08-05T09:24:04Z</time>
      </trkpt>
      <trkpt lat="45.82523" lon="1.95424">
        <ele>736</ele>
        <time>2013-08-05T09:24:15Z</time>
      </trkpt>
      <trkpt lat="45.825" lon="1.95428">
        <ele>736</ele>
        <time>2013-08-05T09:24:27Z</time>
      </trkpt>
      <trkpt lat="45.82482" lon="1.95423">
        <ele>737</ele>
        <time>2013-08-05T09:24:38Z</time>
      </trkpt>
      <trkpt lat="45.82469" lon="1.95421">
        <ele>737</ele>
        <time>2013-08-05T09:24:45Z</time>
      </trkpt>
      <trkpt lat="45.82462" lon="1.95417">
        <ele>737</ele>
        <time>2013-08-05T09:24:50Z</time>
      </trkpt>
      <trkpt lat="45.82451" lon="1.95413">
        <ele>738</ele>
        <time>2013-08-05T09:24:57Z</time>
      </trkpt>
      <trkpt lat="45.82447" lon="1.95412">
        <ele>739</ele>
        <time>2013-08-05T09:24:59Z</time>
      </trkpt>
      <trkpt lat="45.8243" lon="1.95402">
        <ele>738</ele>
        <time>2013-08-05T09:25:10Z</time>
      </trkpt>
      <trkpt lat="45.82409" lon="1.95392">
        <ele>739</ele>
        <time>2013-08-05T09:25:23Z</time>
      </trkpt>
      <trkpt lat="45.82398" lon="1.95389">
        <ele>739</ele>
        <time>2013-08-05T09:25:30Z</time>
      </trkpt>
      <trkpt lat="45.82377" lon="1.95381">
        <ele>740</ele>
        <time>2013-08-05T09:25:43Z</time>
      </trkpt>
      <trkpt lat="45.82356" lon="1.95386">
        <ele>741</ele>
        <time>2013-08-05T09:25:55Z</time>
      </trkpt>
      <trkpt lat="45.82338" lon="1.95398">
        <ele>742</ele>
        <time>2013-08-05T09:26:08Z</time>
      </trkpt>
      <trkpt lat="45.82324" lon="1.95421">
        <ele>743</ele>
        <time>2013-08-05T09:26:21Z</time>
      </trkpt>
      <trkpt lat="45.82317" lon="1.95448">
        <ele>743</ele>
        <time>2013-08-05T09:26:33Z</time>
      </trkpt>
      <trkpt lat="45.82315" lon="1.95475">
        <ele>744</ele>
        <time>2013-08-05T09:26:45Z</time>
      </trkpt>
      <trkpt lat="45.82315" lon="1.95503">
        <ele>744</ele>
        <time>2013-08-05T09:26:58Z</time>
      </trkpt>
      <trkpt lat="45.82314" lon="1.95531">
        <ele>745</ele>
        <time>2013-08-05T09:27:11Z</time>
      </trkpt>
      <trkpt lat="45.82309" lon="1.95564">
        <ele>746</ele>
        <time>2013-08-05T09:27:24Z</time>
      </trkpt>
      <trkpt lat="45.82305" lon="1.95572">
        <ele>746</ele>
        <time>2013-08-05T09:27:29Z</time>
      </trkpt>
      <trkpt lat="45.82303" lon="1.95579">
        <ele>747</ele>
        <time>2013-08-05T09:27:33Z</time>
      </trkpt>
      <trkpt lat="45.82295" lon="1.95589">
        <ele>747</ele>
        <time>2013-08-05T09:27:40Z</time>
      </trkpt>
      <trkpt lat="45.82289" lon="1.95597">
        <ele>748</ele>
        <time>2013-08-05T09:27:46Z</time>
      </trkpt>
      <trkpt lat="45.82267" lon="1.95614">
        <ele>748</ele>
        <time>2013-08-05T09:28:02Z</time>
      </trkpt>
      <trkpt lat="45.82246" lon="1.95629">
        <ele>749</ele>
        <time>2013-08-05T09:28:16Z</time>
      </trkpt>
      <trkpt lat="45.82226" lon="1.95642">
        <ele>749</ele>
        <time>2013-08-05T09:28:29Z</time>
      </trkpt>
      <trkpt lat="45.8221" lon="1.95646">
        <ele>749</ele>
        <time>2013-08-05T09:28:40Z</time>
      </trkpt>
      <trkpt lat="45.82192" lon="1.95646">
        <ele>749</ele>
        <time>2013-08-05T09:28:51Z</time>
      </trkpt>
      <trkpt lat="45.82175" lon="1.95635">
        <ele>749</ele>
        <time>2013-08-05T09:29:03Z</time>
      </trkpt>
      <trkpt lat="45.82157" lon="1.95614">
        <ele>749</ele>
        <time>2013-08-05T09:29:16Z</time>
      </trkpt>
      <trkpt lat="45.82149" lon="1.95597">
        <ele>748</ele>
        <time>2013-08-05T09:29:25Z</time>
      </trkpt>
      <trkpt lat="45.82139" lon="1.95587">
        <ele>748</ele>
        <time>2013-08-05T09:29:32Z</time>
      </trkpt>
      <trkpt lat="45.82115" lon="1.95574">
        <ele>749</ele>
        <time>2013-08-05T09:29:46Z</time>
      </trkpt>
      <trkpt lat="45.82095" lon="1.95575">
        <ele>748</ele>
        <time>2013-08-05T09:29:59Z</time>
      </trkpt>
      <trkpt lat="45.82084" lon="1.95585">
        <ele>748</ele>
        <time>2013-08-05T09:30:08Z</time>
      </trkpt>
      <trkpt lat="45.82081" lon="1.95591">
        <ele>748</ele>
        <time>2013-08-05T09:30:11Z</time>
      </trkpt>
      <trkpt lat="45.82072" lon="1.95626">
        <ele>748</ele>
        <time>2013-08-05T09:30:25Z</time>
      </trkpt>
      <trkpt lat="45.82071" lon="1.95659">
        <ele>747</ele>
        <time>2013-08-05T09:30:37Z</time>
      </trkpt>
      <trkpt lat="45.82071" lon="1.95661">
        <ele>747</ele>
        <time>2013-08-05T09:30:38Z</time>
      </trkpt>
      <trkpt lat="45.82074" lon="1.95671">
        <ele>747</ele>
        <time>2013-08-05T09:30:43Z</time>
      </trkpt>
      <trkpt lat="45.82077" lon="1.95682">
        <ele>746</ele>
        <time>2013-08-05T09:30:48Z</time>
      </trkpt>
      <trkpt lat="45.82078" lon="1.9569">
        <ele>746</ele>
        <time>2013-08-05T09:30:51Z</time>
      </trkpt>
      <trkpt lat="45.82083" lon="1.95711">
        <ele>746</ele>
        <time>2013-08-05T09:30:58Z</time>
      </trkpt>
      <trkpt lat="45.82083" lon="1.95718">
        <ele>746</ele>
        <time>2013-08-05T09:31:01Z</time>
      </trkpt>
      <trkpt lat="45.82089" lon="1.95748">
        <ele>745</ele>
        <time>2013-08-05T09:31:14Z</time>
      </trkpt>
      <trkpt lat="45.82098" lon="1.95778">
        <ele>744</ele>
        <time>2013-08-05T09:31:27Z</time>
      </trkpt>
      <trkpt lat="45.82106" lon="1.9581">
        <ele>744</ele>
        <time>2013-08-05T09:31:41Z</time>
      </trkpt>
      <trkpt lat="45.82106" lon="1.95815">
        <ele>743</ele>
        <time>2013-08-05T09:31:43Z</time>
      </trkpt>
      <trkpt lat="45.82116" lon="1.95843">
        <ele>743</ele>
        <time>2013-08-05T09:31:57Z</time>
      </trkpt>
      <trkpt lat="45.82124" lon="1.95873">
        <ele>743</ele>
        <time>2013-08-05T09:32:11Z</time>
      </trkpt>
      <trkpt lat="45.82127" lon="1.95891">
        <ele>742</ele>
        <time>2013-08-05T09:32:20Z</time>
      </trkpt>
      <trkpt lat="45.82127" lon="1.95893">
        <ele>742</ele>
        <time>2013-08-05T09:32:21Z</time>
      </trkpt>
      <trkpt lat="45.82127" lon="1.95931">
        <ele>741</ele>
        <time>2013-08-05T09:32:34Z</time>
      </trkpt>
      <trkpt lat="45.82123" lon="1.9594">
        <ele>741</ele>
        <time>2013-08-05T09:32:39Z</time>
      </trkpt>
      <trkpt lat="45.82102" lon="1.95951">
        <ele>740</ele>
        <time>2013-08-05T09:32:48Z</time>
      </trkpt>
      <trkpt lat="45.82092" lon="1.95955">
        <ele>740</ele>
        <time>2013-08-05T09:32:54Z</time>
      </trkpt>
      <trkpt lat="45.82088" lon="1.95956">
        <ele>740</ele>
        <time>2013-08-05T09:32:57Z</time>
      </trkpt>
      <trkpt lat="45.82076" lon="1.95959">
        <ele>739</ele>
        <time>2013-08-05T09:33:06Z</time>
      </trkpt>
      <trkpt lat="45.82054" lon="1.95952">
        <ele>738</ele>
        <time>2013-08-05T09:33:19Z</time>
      </trkpt>
      <trkpt lat="45.82044" lon="1.95941">
        <ele>737</ele>
        <time>2013-08-05T09:33:27Z</time>
      </trkpt>
      <trkpt lat="45.82028" lon="1.95927">
        <ele>737</ele>
        <time>2013-08-05T09:33:37Z</time>
      </trkpt>
      <trkpt lat="45.82011" lon="1.95909">
        <ele>736</ele>
        <time>2013-08-05T09:33:50Z</time>
      </trkpt>
      <trkpt lat="45.81985" lon="1.95898">
        <ele>734</ele>
        <time>2013-08-05T09:34:02Z</time>
      </trkpt>
      <trkpt lat="45.81962" lon="1.95898">
        <ele>734</ele>
        <time>2013-08-05T09:34:14Z</time>
      </trkpt>
      <trkpt lat="45.81958" lon="1.95898">
        <ele>734</ele>
        <time>2013-08-05T09:34:15Z</time>
      </trkpt>
      <trkpt lat="45.8194" lon="1.95893">
        <ele>733</ele>
        <time>2013-08-05T09:34:26Z</time>
      </trkpt>
      <trkpt lat="45.81919" lon="1.95894">
        <ele>732</ele>
        <time>2013-08-05T09:34:39Z</time>
      </trkpt>
      <trkpt lat="45.81911" lon="1.95901">
        <ele>731</ele>
        <time>2013-08-05T09:34:46Z</time>
      </trkpt>
      <trkpt lat="45.81919" lon="1.95915">
        <ele>729</ele>
        <time>2013-08-05T09:34:57Z</time>
      </trkpt>
      <trkpt lat="45.81926" lon="1.95916">
        <ele>729</ele>
        <time>2013-08-05T09:35:11Z</time>
      </trkpt>
      <trkpt lat="45.81929" lon="1.95917">
        <ele>729</ele>
        <time>2013-08-05T09:35:33Z</time>
      </trkpt>
      <trkpt lat="45.81932" lon="1.9592">
        <ele>728</ele>
        <time>2013-08-05T09:35:36Z</time>
      </trkpt>
      <trkpt lat="45.81949" lon="1.95925">
        <ele>726</ele>
        <time>2013-08-05T09:35:49Z</time>
      </trkpt>
      <trkpt lat="45.81968" lon="1.95927">
        <ele>725</ele>
        <time>2013-08-05T09:36:01Z</time>
      </trkpt>
      <trkpt lat="45.81986" lon="1.95935">
        <ele>724</ele>
        <time>2013-08-05T09:36:13Z</time>
      </trkpt>
      <trkpt lat="45.82005" lon="1.95942">
        <ele>722</ele>
        <time>2013-08-05T09:36:26Z</time>
      </trkpt>
      <trkpt lat="45.82009" lon="1.95959">
        <ele>721</ele>
        <time>2013-08-05T09:36:32Z</time>
      </trkpt>
      <trkpt lat="45.82016" lon="1.95968">
        <ele>720</ele>
        <time>2013-08-05T09:36:40Z</time>
      </trkpt>
      <trkpt lat="45.82022" lon="1.9598">
        <ele>720</ele>
        <time>2013-08-05T09:36:49Z</time>
      </trkpt>
      <trkpt lat="45.82022" lon="1.95984">
        <ele>720</ele>
        <time>2013-08-05T09:36:50Z</time>
      </trkpt>
      <trkpt lat="45.82032" lon="1.96002">
        <ele>719</ele>
        <time>2013-08-05T09:37:00Z</time>
      </trkpt>
      <trkpt lat="45.82042" lon="1.96033">
        <ele>717</ele>
        <time>2013-08-05T09:37:15Z</time>
      </trkpt>
      <trkpt lat="45.82056" lon="1.96046">
        <ele>715</ele>
        <time>2013-08-05T09:37:31Z</time>
      </trkpt>
      <trkpt lat="45.8208" lon="1.96069">
        <ele>715</ele>
        <time>2013-08-05T09:37:46Z</time>
      </trkpt>
      <trkpt lat="45.82085" lon="1.96076">
        <ele>714</ele>
        <time>2013-08-05T09:37:55Z</time>
      </trkpt>
      <trkpt lat="45.82112" lon="1.96099">
        <ele>712</ele>
        <time>2013-08-05T09:38:09Z</time>
      </trkpt>
      <trkpt lat="45.82162" lon="1.96122">
        <ele>712</ele>
        <time>2013-08-05T09:38:23Z</time>
      </trkpt>
      <trkpt lat="45.82174" lon="1.96125">
        <ele>712</ele>
        <time>2013-08-05T09:38:27Z</time>
      </trkpt>
      <trkpt lat="45.82184" lon="1.96135">
        <ele>712</ele>
        <time>2013-08-05T09:38:33Z</time>
      </trkpt>
      <trkpt lat="45.82193" lon="1.96158">
        <ele>711</ele>
        <time>2013-08-05T09:38:45Z</time>
      </trkpt>
      <trkpt lat="45.822" lon="1.96181">
        <ele>710</ele>
        <time>2013-08-05T09:38:57Z</time>
      </trkpt>
      <trkpt lat="45.82202" lon="1.96193">
        <ele>710</ele>
        <time>2013-08-05T09:39:03Z</time>
      </trkpt>
      <trkpt lat="45.82206" lon="1.96206">
        <ele>709</ele>
        <time>2013-08-05T09:39:10Z</time>
      </trkpt>
      <trkpt lat="45.82204" lon="1.96223">
        <ele>707</ele>
        <time>2013-08-05T09:39:18Z</time>
      </trkpt>
      <trkpt lat="45.82211" lon="1.96242">
        <ele>705</ele>
        <time>2013-08-05T09:39:31Z</time>
      </trkpt>
      <trkpt lat="45.82222" lon="1.96258">
        <ele>703</ele>
        <time>2013-08-05T09:39:45Z</time>
      </trkpt>
      <trkpt lat="45.8223" lon="1.96271">
        <ele>701</ele>
        <time>2013-08-05T09:39:53Z</time>
      </trkpt>
      <trkpt lat="45.82233" lon="1.96272">
        <ele>700</ele>
        <time>2013-08-05T09:39:56Z</time>
      </trkpt>
      <trkpt lat="45.82237" lon="1.96276">
        <ele>700</ele>
        <time>2013-08-05T09:39:57Z</time>
      </trkpt>
      <trkpt lat="45.82242" lon="1.96281">
        <ele>700</ele>
        <time>2013-08-05T09:39:59Z</time>
      </trkpt>
      <trkpt lat="45.82249" lon="1.9629">
        <ele>700</ele>
        <time>2013-08-05T09:40:02Z</time>
      </trkpt>
      <trkpt lat="45.82255" lon="1.96298">
        <ele>699</ele>
        <time>2013-08-05T09:40:07Z</time>
      </trkpt>
      <trkpt lat="45.82262" lon="1.96321">
        <ele>698</ele>
        <time>2013-08-05T09:40:16Z</time>
      </trkpt>
      <trkpt lat="45.8227" lon="1.96352">
        <ele>696</ele>
        <time>2013-08-05T09:40:26Z</time>
      </trkpt>
      <trkpt lat="45.82271" lon="1.96353">
        <ele>696</ele>
        <time>2013-08-05T09:40:27Z</time>
      </trkpt>
      <trkpt lat="45.82278" lon="1.9639">
        <ele>695</ele>
        <time>2013-08-05T09:40:40Z</time>
      </trkpt>
      <trkpt lat="45.82278" lon="1.96392">
        <ele>694</ele>
        <time>2013-08-05T09:40:42Z</time>
      </trkpt>
      <trkpt lat="45.82282" lon="1.96397">
        <ele>694</ele>
        <time>2013-08-05T09:40:45Z</time>
      </trkpt>
      <trkpt lat="45.82283" lon="1.96399">
        <ele>694</ele>
        <time>2013-08-05T09:40:46Z</time>
      </trkpt>
      <trkpt lat="45.82293" lon="1.9643">
        <ele>692</ele>
        <time>2013-08-05T09:40:58Z</time>
      </trkpt>
      <trkpt lat="45.82297" lon="1.96442">
        <ele>691</ele>
        <time>2013-08-05T09:41:01Z</time>
      </trkpt>
      <trkpt lat="45.82297" lon="1.96446">
        <ele>691</ele>
        <time>2013-08-05T09:41:03Z</time>
      </trkpt>
      <trkpt lat="45.823" lon="1.96454">
        <ele>691</ele>
        <time>2013-08-05T09:41:08Z</time>
      </trkpt>
      <trkpt lat="45.82305" lon="1.96465">
        <ele>688</ele>
        <time>2013-08-05T09:41:15Z</time>
      </trkpt>
      <trkpt lat="45.82305" lon="1.96467">
        <ele>691</ele>
        <time>2013-08-05T09:41:16Z</time>
      </trkpt>
      <trkpt lat="45.82306" lon="1.96469">
        <ele>689</ele>
        <time>2013-08-05T09:41:17Z</time>
      </trkpt>
      <trkpt lat="45.82307" lon="1.96469">
        <ele>689</ele>
        <time>2013-08-05T09:41:18Z</time>
      </trkpt>
      <trkpt lat="45.82307" lon="1.96475">
        <ele>689</ele>
        <time>2013-08-05T09:41:20Z</time>
      </trkpt>
      <trkpt lat="45.82308" lon="1.9649">
        <ele>687</ele>
        <time>2013-08-05T09:41:28Z</time>
      </trkpt>
      <trkpt lat="45.82307" lon="1.9649">
        <ele>689</ele>
        <time>2013-08-05T09:41:30Z</time>
      </trkpt>
      <trkpt lat="45.82307" lon="1.96488">
        <ele>688</ele>
        <time>2013-08-05T09:41:31Z</time>
      </trkpt>
      <trkpt lat="45.82309" lon="1.9649">
        <ele>688</ele>
        <time>2013-08-05T09:41:42Z</time>
      </trkpt>
      <trkpt lat="45.8231" lon="1.96491">
        <ele>688</ele>
        <time>2013-08-05T09:41:49Z</time>
      </trkpt>
      <trkpt lat="45.82313" lon="1.96494">
        <ele>688</ele>
        <time>2013-08-05T09:42:00Z</time>
      </trkpt>
      <trkpt lat="45.82317" lon="1.96495">
        <ele>687</ele>
        <time>2013-08-05T09:42:17Z</time>
      </trkpt>
      <trkpt lat="45.82319" lon="1.96494">
        <ele>688</ele>
        <time>2013-08-05T09:42:38Z</time>
      </trkpt>
      <trkpt lat="45.8232" lon="1.96494">
        <ele>688</ele>
        <time>2013-08-05T09:43:01Z</time>
      </trkpt>
      <trkpt lat="45.82321" lon="1.96491">
        <ele>688</ele>
        <time>2013-08-05T09:43:19Z</time>
      </trkpt>
      <trkpt lat="45.82323" lon="1.96491">
        <ele>688</ele>
        <time>2013-08-05T09:43:41Z</time>
      </trkpt>
      <trkpt lat="45.82324" lon="1.96491">
        <ele>688</ele>
        <time>2013-08-05T09:44:02Z</time>
      </trkpt>
      <trkpt lat="45.82326" lon="1.96491">
        <ele>688</ele>
        <time>2013-08-05T09:44:20Z</time>
      </trkpt>
      <trkpt lat="45.82325" lon="1.96491">
        <ele>688</ele>
        <time>2013-08-05T09:44:34Z</time>
      </trkpt>
      <trkpt lat="45.82326" lon="1.96492">
        <ele>688</ele>
        <time>2013-08-05T09:44:49Z</time>
      </trkpt>
      <trkpt lat="45.82325" lon="1.96494">
        <ele>688</ele>
        <time>2013-08-05T09:45:05Z</time>
      </trkpt>
      <trkpt lat="45.82327" lon="1.96499">
        <ele>688</ele>
        <time>2013-08-05T09:45:20Z</time>
      </trkpt>
      <trkpt lat="45.82327" lon="1.96498">
        <ele>688</ele>
        <time>2013-08-05T09:45:28Z</time>
      </trkpt>
      <trkpt lat="45.82328" lon="1.96493">
        <ele>689</ele>
        <time>2013-08-05T09:45:40Z</time>
      </trkpt>
      <trkpt lat="45.82324" lon="1.96496">
        <ele>689</ele>
        <time>2013-08-05T09:45:58Z</time>
      </trkpt>
      <trkpt lat="45.82323" lon="1.96497">
        <ele>689</ele>
        <time>2013-08-05T09:46:16Z</time>
      </trkpt>
      <trkpt lat="45.82325" lon="1.96499">
        <ele>689</ele>
        <time>2013-08-05T09:46:35Z</time>
      </trkpt>
      <trkpt lat="45.82324" lon="1.96505">
        <ele>689</ele>
        <time>2013-08-05T09:46:47Z</time>
      </trkpt>
      <trkpt lat="45.82324" lon="1.96504">
        <ele>689</ele>
        <time>2013-08-05T09:47:07Z</time>
      </trkpt>
      <trkpt lat="45.82324" lon="1.96504">
        <ele>688</ele>
        <time>2013-08-05T09:47:18Z</time>
      </trkpt>
      <trkpt lat="45.82326" lon="1.96506">
        <ele>689</ele>
        <time>2013-08-05T09:47:39Z</time>
      </trkpt>
      <trkpt lat="45.82327" lon="1.96505">
        <ele>689</ele>
        <time>2013-08-05T09:48:03Z</time>
      </trkpt>
      <trkpt lat="45.82326" lon="1.96505">
        <ele>688</ele>
        <time>2013-08-05T09:48:25Z</time>
      </trkpt>
      <trkpt lat="45.82329" lon="1.96507">
        <ele>688</ele>
        <time>2013-08-05T09:48:50Z</time>
      </trkpt>
      <trkpt lat="45.82329" lon="1.96508">
        <ele>689</ele>
        <time>2013-08-05T09:49:09Z</time>
      </trkpt>
      <trkpt lat="45.82331" lon="1.96504">
        <ele>689</ele>
        <time>2013-08-05T09:49:33Z</time>
      </trkpt>
      <trkpt lat="45.82334" lon="1.96503">
        <ele>689</ele>
        <time>2013-08-05T09:49:51Z</time>
      </trkpt>
      <trkpt lat="45.8233" lon="1.96505">
        <ele>689</ele>
        <time>2013-08-05T09:50:06Z</time>
      </trkpt>
      <trkpt lat="45.82334" lon="1.96507">
        <ele>689</ele>
        <time>2013-08-05T09:50:15Z</time>
      </trkpt>
      <trkpt lat="45.82335" lon="1.9651">
        <ele>688</ele>
        <time>2013-08-05T09:50:17Z</time>
      </trkpt>
      <trkpt lat="45.82336" lon="1.96514">
        <ele>688</ele>
        <time>2013-08-05T09:50:19Z</time>
      </trkpt>
      <trkpt lat="45.82336" lon="1.96517">
        <ele>688</ele>
        <time>2013-08-05T09:50:22Z</time>
      </trkpt>
      <trkpt lat="45.82338" lon="1.9652">
        <ele>688</ele>
        <time>2013-08-05T09:50:24Z</time>
      </trkpt>
      <trkpt lat="45.82339" lon="1.96526">
        <ele>687</ele>
        <time>2013-08-05T09:50:27Z</time>
      </trkpt>
      <trkpt lat="45.82345" lon="1.96536">
        <ele>687</ele>
        <time>2013-08-05T09:50:34Z</time>
      </trkpt>
      <trkpt lat="45.82346" lon="1.96544">
        <ele>686</ele>
        <time>2013-08-05T09:50:38Z</time>
      </trkpt>
      <trkpt lat="45.82347" lon="1.96549">
        <ele>686</ele>
        <time>2013-08-05T09:50:41Z</time>
      </trkpt>
      <trkpt lat="45.82349" lon="1.96553">
        <ele>686</ele>
        <time>2013-08-05T09:50:44Z</time>
      </trkpt>
      <trkpt lat="45.82352" lon="1.9656">
        <ele>685</ele>
        <time>2013-08-05T09:50:48Z</time>
      </trkpt>
      <trkpt lat="45.82352" lon="1.96564">
        <ele>685</ele>
        <time>2013-08-05T09:50:50Z</time>
      </trkpt>
      <trkpt lat="45.82356" lon="1.96573">
        <ele>685</ele>
        <time>2013-08-05T09:50:55Z</time>
      </trkpt>
      <trkpt lat="45.82367" lon="1.96599">
        <ele>684</ele>
        <time>2013-08-05T09:51:10Z</time>
      </trkpt>
      <trkpt lat="45.8237" lon="1.96609">
        <ele>684</ele>
        <time>2013-08-05T09:51:15Z</time>
      </trkpt>
      <trkpt lat="45.82371" lon="1.96618">
        <ele>684</ele>
        <time>2013-08-05T09:51:20Z</time>
      </trkpt>
      <trkpt lat="45.82372" lon="1.96627">
        <ele>684</ele>
        <time>2013-08-05T09:51:25Z</time>
      </trkpt>
      <trkpt lat="45.82386" lon="1.96647">
        <ele>683</ele>
        <time>2013-08-05T09:51:35Z</time>
      </trkpt>
      <trkpt lat="45.82389" lon="1.96656">
        <ele>683</ele>
        <time>2013-08-05T09:51:40Z</time>
      </trkpt>
      <trkpt lat="45.82395" lon="1.96672">
        <ele>683</ele>
        <time>2013-08-05T09:51:49Z</time>
      </trkpt>
      <trkpt lat="45.82402" lon="1.96695">
        <ele>683</ele>
        <time>2013-08-05T09:52:00Z</time>
      </trkpt>
      <trkpt lat="45.82402" lon="1.96698">
        <ele>683</ele>
        <time>2013-08-05T09:52:02Z</time>
      </trkpt>
      <trkpt lat="45.82407" lon="1.96706">
        <ele>683</ele>
        <time>2013-08-05T09:52:07Z</time>
      </trkpt>
      <trkpt lat="45.82408" lon="1.96708">
        <ele>683</ele>
        <time>2013-08-05T09:52:08Z</time>
      </trkpt>
      <trkpt lat="45.82414" lon="1.96722">
        <ele>683</ele>
        <time>2013-08-05T09:52:17Z</time>
      </trkpt>
      <trkpt lat="45.82422" lon="1.96743">
        <ele>683</ele>
        <time>2013-08-05T09:52:28Z</time>
      </trkpt>
      <trkpt lat="45.82422" lon="1.96749">
        <ele>683</ele>
        <time>2013-08-05T09:52:31Z</time>
      </trkpt>
      <trkpt lat="45.82426" lon="1.96756">
        <ele>683</ele>
        <time>2013-08-05T09:52:36Z</time>
      </trkpt>
      <trkpt lat="45.82425" lon="1.96763">
        <ele>684</ele>
        <time>2013-08-05T09:52:40Z</time>
      </trkpt>
      <trkpt lat="45.82427" lon="1.96768">
        <ele>683</ele>
        <time>2013-08-05T09:52:44Z</time>
      </trkpt>
      <trkpt lat="45.82433" lon="1.96782">
        <ele>683</ele>
        <time>2013-08-05T09:52:52Z</time>
      </trkpt>
      <trkpt lat="45.82434" lon="1.96788">
        <ele>683</ele>
        <time>2013-08-05T09:52:56Z</time>
      </trkpt>
      <trkpt lat="45.82435" lon="1.96793">
        <ele>684</ele>
        <time>2013-08-05T09:53:00Z</time>
      </trkpt>
      <trkpt lat="45.82445" lon="1.9681">
        <ele>684</ele>
        <time>2013-08-05T09:53:13Z</time>
      </trkpt>
      <trkpt lat="45.8245" lon="1.96818">
        <ele>684</ele>
        <time>2013-08-05T09:53:19Z</time>
      </trkpt>
      <trkpt lat="45.82454" lon="1.96823">
        <ele>685</ele>
        <time>2013-08-05T09:53:23Z</time>
      </trkpt>
      <trkpt lat="45.8247" lon="1.96845">
        <ele>685</ele>
        <time>2013-08-05T09:53:34Z</time>
      </trkpt>
      <trkpt lat="45.82478" lon="1.96862">
        <ele>686</ele>
        <time>2013-08-05T09:53:47Z</time>
      </trkpt>
      <trkpt lat="45.82483" lon="1.96876">
        <ele>686</ele>
        <time>2013-08-05T09:53:56Z</time>
      </trkpt>
      <trkpt lat="45.82496" lon="1.9689">
        <ele>687</ele>
        <time>2013-08-05T09:54:04Z</time>
      </trkpt>
      <trkpt lat="45.82499" lon="1.96894">
        <ele>687</ele>
        <time>2013-08-05T09:54:09Z</time>
      </trkpt>
      <trkpt lat="45.82509" lon="1.96902">
        <ele>688</ele>
        <time>2013-08-05T09:54:16Z</time>
      </trkpt>
      <trkpt lat="45.82524" lon="1.9692">
        <ele>690</ele>
        <time>2013-08-05T09:54:28Z</time>
      </trkpt>
      <trkpt lat="45.82529" lon="1.96923">
        <ele>690</ele>
        <time>2013-08-05T09:54:32Z</time>
      </trkpt>
      <trkpt lat="45.82533" lon="1.96926">
        <ele>691</ele>
        <time>2013-08-05T09:54:37Z</time>
      </trkpt>
      <trkpt lat="45.82539" lon="1.96933">
        <ele>692</ele>
        <time>2013-08-05T09:54:47Z</time>
      </trkpt>
      <trkpt lat="45.82543" lon="1.96937">
        <ele>692</ele>
        <time>2013-08-05T09:54:50Z</time>
      </trkpt>
      <trkpt lat="45.82553" lon="1.96946">
        <ele>693</ele>
        <time>2013-08-05T09:55:00Z</time>
      </trkpt>
      <trkpt lat="45.82565" lon="1.96953">
        <ele>693</ele>
        <time>2013-08-05T09:55:09Z</time>
      </trkpt>
      <trkpt lat="45.8257" lon="1.96958">
        <ele>694</ele>
        <time>2013-08-05T09:55:14Z</time>
      </trkpt>
      <trkpt lat="45.82577" lon="1.96962">
        <ele>694</ele>
        <time>2013-08-05T09:55:20Z</time>
      </trkpt>
      <trkpt lat="45.82579" lon="1.96965">
        <ele>694</ele>
        <time>2013-08-05T09:55:22Z</time>
      </trkpt>
      <trkpt lat="45.82586" lon="1.96971">
        <ele>694</ele>
        <time>2013-08-05T09:55:28Z</time>
      </trkpt>
      <trkpt lat="45.8259" lon="1.96972">
        <ele>694</ele>
        <time>2013-08-05T09:55:31Z</time>
      </trkpt>
      <trkpt lat="45.82595" lon="1.96979">
        <ele>694</ele>
        <time>2013-08-05T09:55:35Z</time>
      </trkpt>
      <trkpt lat="45.82597" lon="1.96984">
        <ele>694</ele>
        <time>2013-08-05T09:55:39Z</time>
      </trkpt>
      <trkpt lat="45.82603" lon="1.96987">
        <ele>694</ele>
        <time>2013-08-05T09:55:44Z</time>
      </trkpt>
      <trkpt lat="45.82625" lon="1.97002">
        <ele>694</ele>
        <time>2013-08-05T09:55:58Z</time>
      </trkpt>
      <trkpt lat="45.82626" lon="1.97003">
        <ele>694</ele>
        <time>2013-08-05T09:56:12Z</time>
      </trkpt>
      <trkpt lat="45.82629" lon="1.97003">
        <ele>695</ele>
        <time>2013-08-05T09:56:21Z</time>
      </trkpt>
      <trkpt lat="45.82632" lon="1.97002">
        <ele>696</ele>
        <time>2013-08-05T09:56:30Z</time>
      </trkpt>
      <trkpt lat="45.8263" lon="1.97003">
        <ele>696</ele>
        <time>2013-08-05T09:56:37Z</time>
      </trkpt>
      <trkpt lat="45.82631" lon="1.97002">
        <ele>695</ele>
        <time>2013-08-05T09:56:39Z</time>
      </trkpt>
      <trkpt lat="45.82632" lon="1.97003">
        <ele>695</ele>
        <time>2013-08-05T09:56:57Z</time>
      </trkpt>
      <trkpt lat="45.82634" lon="1.97009">
        <ele>695</ele>
        <time>2013-08-05T09:57:09Z</time>
      </trkpt>
      <trkpt lat="45.82634" lon="1.97009">
        <ele>695</ele>
        <time>2013-08-05T09:57:11Z</time>
      </trkpt>
      <trkpt lat="45.82641" lon="1.97013">
        <ele>695</ele>
        <time>2013-08-05T09:57:26Z</time>
      </trkpt>
      <trkpt lat="45.82646" lon="1.97016">
        <ele>695</ele>
        <time>2013-08-05T09:57:40Z</time>
      </trkpt>
      <trkpt lat="45.82648" lon="1.97016">
        <ele>695</ele>
        <time>2013-08-05T09:57:45Z</time>
      </trkpt>
      <trkpt lat="45.82652" lon="1.97024">
        <ele>695</ele>
        <time>2013-08-05T09:57:58Z</time>
      </trkpt>
      <trkpt lat="45.82661" lon="1.9703">
        <ele>695</ele>
        <time>2013-08-05T09:58:04Z</time>
      </trkpt>
      <trkpt lat="45.82682" lon="1.97048">
        <ele>696</ele>
        <time>2013-08-05T09:58:17Z</time>
      </trkpt>
      <trkpt lat="45.8269" lon="1.97058">
        <ele>696</ele>
        <time>2013-08-05T09:58:23Z</time>
      </trkpt>
      <trkpt lat="45.82698" lon="1.97066">
        <ele>696</ele>
        <time>2013-08-05T09:58:29Z</time>
      </trkpt>
      <trkpt lat="45.82717" lon="1.97093">
        <ele>696</ele>
        <time>2013-08-05T09:58:43Z</time>
      </trkpt>
      <trkpt lat="45.82721" lon="1.97105">
        <ele>696</ele>
        <time>2013-08-05T09:58:50Z</time>
      </trkpt>
      <trkpt lat="45.82722" lon="1.97114">
        <ele>695</ele>
        <time>2013-08-05T09:58:54Z</time>
      </trkpt>
      <trkpt lat="45.82725" lon="1.97139">
        <ele>695</ele>
        <time>2013-08-05T09:59:05Z</time>
      </trkpt>
      <trkpt lat="45.82724" lon="1.97148">
        <ele>695</ele>
        <time>2013-08-05T09:59:09Z</time>
      </trkpt>
      <trkpt lat="45.82727" lon="1.97158">
        <ele>695</ele>
        <time>2013-08-05T09:59:14Z</time>
      </trkpt>
      <trkpt lat="45.82729" lon="1.97174">
        <ele>695</ele>
        <time>2013-08-05T09:59:19Z</time>
      </trkpt>
      <trkpt lat="45.82729" lon="1.9718">
        <ele>695</ele>
        <time>2013-08-05T09:59:21Z</time>
      </trkpt>
      <trkpt lat="45.82731" lon="1.9719">
        <ele>695</ele>
        <time>2013-08-05T09:59:25Z</time>
      </trkpt>
      <trkpt lat="45.82737" lon="1.97215">
        <ele>693</ele>
        <time>2013-08-05T09:59:36Z</time>
      </trkpt>
      <trkpt lat="45.82765" lon="1.97227">
        <ele>692</ele>
        <time>2013-08-05T09:59:51Z</time>
      </trkpt>
      <trkpt lat="45.82771" lon="1.9723">
        <ele>692</ele>
        <time>2013-08-05T09:59:55Z</time>
      </trkpt>
      <trkpt lat="45.82793" lon="1.97248">
        <ele>694</ele>
        <time>2013-08-05T10:00:10Z</time>
      </trkpt>
      <trkpt lat="45.82799" lon="1.97257">
        <ele>694</ele>
        <time>2013-08-05T10:00:15Z</time>
      </trkpt>
      <trkpt lat="45.82807" lon="1.97266">
        <ele>695</ele>
        <time>2013-08-05T10:00:21Z</time>
      </trkpt>
      <trkpt lat="45.82826" lon="1.97285">
        <ele>699</ele>
        <time>2013-08-05T10:00:35Z</time>
      </trkpt>
      <trkpt lat="45.82841" lon="1.97299">
        <ele>701</ele>
        <time>2013-08-05T10:00:47Z</time>
      </trkpt>
      <trkpt lat="45.8285" lon="1.97309">
        <ele>703</ele>
        <time>2013-08-05T10:00:55Z</time>
      </trkpt>
      <trkpt lat="45.8286" lon="1.9732">
        <ele>704</ele>
        <time>2013-08-05T10:01:06Z</time>
      </trkpt>
      <trkpt lat="45.82872" lon="1.97332">
        <ele>706</ele>
        <time>2013-08-05T10:01:16Z</time>
      </trkpt>
      <trkpt lat="45.82885" lon="1.97349">
        <ele>707</ele>
        <time>2013-08-05T10:01:25Z</time>
      </trkpt>
      <trkpt lat="45.8289" lon="1.97356">
        <ele>707</ele>
        <time>2013-08-05T10:01:30Z</time>
      </trkpt>
      <trkpt lat="45.82908" lon="1.97377">
        <ele>708</ele>
        <time>2013-08-05T10:01:44Z</time>
      </trkpt>
      <trkpt lat="45.82913" lon="1.97382">
        <ele>708</ele>
        <time>2013-08-05T10:01:48Z</time>
      </trkpt>
      <trkpt lat="45.82931" lon="1.97378">
        <ele>709</ele>
        <time>2013-08-05T10:01:57Z</time>
      </trkpt>
      <trkpt lat="45.82941" lon="1.97367">
        <ele>709</ele>
        <time>2013-08-05T10:02:06Z</time>
      </trkpt>
      <trkpt lat="45.82943" lon="1.97365">
        <ele>710</ele>
        <time>2013-08-05T10:02:08Z</time>
      </trkpt>
      <trkpt lat="45.82951" lon="1.97357">
        <ele>711</ele>
        <time>2013-08-05T10:02:16Z</time>
      </trkpt>
      <trkpt lat="45.82972" lon="1.97342">
        <ele>711</ele>
        <time>2013-08-05T10:02:32Z</time>
      </trkpt>
      <trkpt lat="45.82989" lon="1.9734">
        <ele>712</ele>
        <time>2013-08-05T10:02:42Z</time>
      </trkpt>
      <trkpt lat="45.82991" lon="1.9734">
        <ele>712</ele>
        <time>2013-08-05T10:02:43Z</time>
      </trkpt>
      <trkpt lat="45.83015" lon="1.97342">
        <ele>713</ele>
        <time>2013-08-05T10:02:58Z</time>
      </trkpt>
      <trkpt lat="45.83035" lon="1.97346">
        <ele>713</ele>
        <time>2013-08-05T10:03:08Z</time>
      </trkpt>
      <trkpt lat="45.83044" lon="1.9735">
        <ele>714</ele>
        <time>2013-08-05T10:03:14Z</time>
      </trkpt>
      <trkpt lat="45.8306" lon="1.97349">
        <ele>714</ele>
        <time>2013-08-05T10:03:24Z</time>
      </trkpt>
      <trkpt lat="45.83079" lon="1.97344">
        <ele>713</ele>
        <time>2013-08-05T10:03:35Z</time>
      </trkpt>
      <trkpt lat="45.83085" lon="1.97345">
        <ele>713</ele>
        <time>2013-08-05T10:03:40Z</time>
      </trkpt>
      <trkpt lat="45.83094" lon="1.97346">
        <ele>714</ele>
        <time>2013-08-05T10:03:46Z</time>
      </trkpt>
      <trkpt lat="45.83113" lon="1.97346">
        <ele>712</ele>
        <time>2013-08-05T10:03:58Z</time>
      </trkpt>
      <trkpt lat="45.83118" lon="1.97348">
        <ele>712</ele>
        <time>2013-08-05T10:04:01Z</time>
      </trkpt>
      <trkpt lat="45.83124" lon="1.97354">
        <ele>712</ele>
        <time>2013-08-05T10:04:05Z</time>
      </trkpt>
      <trkpt lat="45.8315" lon="1.97377">
        <ele>712</ele>
        <time>2013-08-05T10:04:19Z</time>
      </trkpt>
      <trkpt lat="45.83154" lon="1.97382">
        <ele>712</ele>
        <time>2013-08-05T10:04:23Z</time>
      </trkpt>
      <trkpt lat="45.8316" lon="1.97401">
        <ele>712</ele>
        <time>2013-08-05T10:04:31Z</time>
      </trkpt>
      <trkpt lat="45.83159" lon="1.97406">
        <ele>712</ele>
        <time>2013-08-05T10:04:33Z</time>
      </trkpt>
      <trkpt lat="45.83153" lon="1.97428">
        <ele>713</ele>
        <time>2013-08-05T10:04:42Z</time>
      </trkpt>
      <trkpt lat="45.83149" lon="1.9744">
        <ele>713</ele>
        <time>2013-08-05T10:04:47Z</time>
      </trkpt>
      <trkpt lat="45.83148" lon="1.97453">
        <ele>714</ele>
        <time>2013-08-05T10:04:52Z</time>
      </trkpt>
      <trkpt lat="45.83148" lon="1.97461">
        <ele>714</ele>
        <time>2013-08-05T10:04:56Z</time>
      </trkpt>
      <trkpt lat="45.83145" lon="1.97463">
        <ele>714</ele>
        <time>2013-08-05T10:04:58Z</time>
      </trkpt>
      <trkpt lat="45.83139" lon="1.97473">
        <ele>715</ele>
        <time>2013-08-05T10:05:04Z</time>
      </trkpt>
      <trkpt lat="45.83134" lon="1.9748">
        <ele>715</ele>
        <time>2013-08-05T10:05:09Z</time>
      </trkpt>
      <trkpt lat="45.83123" lon="1.97498">
        <ele>717</ele>
        <time>2013-08-05T10:05:18Z</time>
      </trkpt>
      <trkpt lat="45.83121" lon="1.97504">
        <ele>717</ele>
        <time>2013-08-05T10:05:21Z</time>
      </trkpt>
      <trkpt lat="45.83112" lon="1.97526">
        <ele>718</ele>
        <time>2013-08-05T10:05:33Z</time>
      </trkpt>
      <trkpt lat="45.83111" lon="1.97531">
        <ele>718</ele>
        <time>2013-08-05T10:05:35Z</time>
      </trkpt>
      <trkpt lat="45.83105" lon="1.97549">
        <ele>719</ele>
        <time>2013-08-05T10:05:44Z</time>
      </trkpt>
      <trkpt lat="45.83094" lon="1.97577">
        <ele>720</ele>
        <time>2013-08-05T10:05:56Z</time>
      </trkpt>
      <trkpt lat="45.83088" lon="1.97601">
        <ele>720</ele>
        <time>2013-08-05T10:06:08Z</time>
      </trkpt>
      <trkpt lat="45.83083" lon="1.97616">
        <ele>719</ele>
        <time>2013-08-05T10:06:14Z</time>
      </trkpt>
      <trkpt lat="45.8308" lon="1.97648">
        <ele>718</ele>
        <time>2013-08-05T10:06:25Z</time>
      </trkpt>
      <trkpt lat="45.8308" lon="1.9765">
        <ele>718</ele>
        <time>2013-08-05T10:06:26Z</time>
      </trkpt>
      <trkpt lat="45.83085" lon="1.97688">
        <ele>717</ele>
        <time>2013-08-05T10:06:40Z</time>
      </trkpt>
      <trkpt lat="45.83092" lon="1.97716">
        <ele>716</ele>
        <time>2013-08-05T10:06:52Z</time>
      </trkpt>
      <trkpt lat="45.83096" lon="1.97735">
        <ele>716</ele>
        <time>2013-08-05T10:07:01Z</time>
      </trkpt>
      <trkpt lat="45.83088" lon="1.97759">
        <ele>716</ele>
        <time>2013-08-05T10:07:12Z</time>
      </trkpt>
      <trkpt lat="45.83085" lon="1.97775">
        <ele>716</ele>
        <time>2013-08-05T10:07:19Z</time>
      </trkpt>
      <trkpt lat="45.8308" lon="1.97807">
        <ele>716</ele>
        <time>2013-08-05T10:07:31Z</time>
      </trkpt>
      <trkpt lat="45.83078" lon="1.97825">
        <ele>717</ele>
        <time>2013-08-05T10:07:38Z</time>
      </trkpt>
      <trkpt lat="45.8307" lon="1.97864">
        <ele>718</ele>
        <time>2013-08-05T10:07:53Z</time>
      </trkpt>
      <trkpt lat="45.8307" lon="1.97866">
        <ele>718</ele>
        <time>2013-08-05T10:07:54Z</time>
      </trkpt>
      <trkpt lat="45.83067" lon="1.97879">
        <ele>718</ele>
        <time>2013-08-05T10:07:59Z</time>
      </trkpt>
      <trkpt lat="45.83061" lon="1.97912">
        <ele>719</ele>
        <time>2013-08-05T10:08:12Z</time>
      </trkpt>
      <trkpt lat="45.83059" lon="1.97937">
        <ele>720</ele>
        <time>2013-08-05T10:08:24Z</time>
      </trkpt>
      <trkpt lat="45.83058" lon="1.97966">
        <ele>720</ele>
        <time>2013-08-05T10:08:35Z</time>
      </trkpt>
      <trkpt lat="45.83058" lon="1.97973">
        <ele>720</ele>
        <time>2013-08-05T10:08:38Z</time>
      </trkpt>
      <trkpt lat="45.83056" lon="1.97985">
        <ele>721</ele>
        <time>2013-08-05T10:08:43Z</time>
      </trkpt>
      <trkpt lat="45.83056" lon="1.97996">
        <ele>721</ele>
        <time>2013-08-05T10:08:48Z</time>
      </trkpt>
      <trkpt lat="45.83055" lon="1.98008">
        <ele>721</ele>
        <time>2013-08-05T10:08:52Z</time>
      </trkpt>
      <trkpt lat="45.83052" lon="1.98037">
        <ele>720</ele>
        <time>2013-08-05T10:09:03Z</time>
      </trkpt>
      <trkpt lat="45.8305" lon="1.98053">
        <ele>720</ele>
        <time>2013-08-05T10:09:09Z</time>
      </trkpt>
      <trkpt lat="45.83046" lon="1.98082">
        <ele>719</ele>
        <time>2013-08-05T10:09:20Z</time>
      </trkpt>
      <trkpt lat="45.83045" lon="1.98089">
        <ele>719</ele>
        <time>2013-08-05T10:09:23Z</time>
      </trkpt>
      <trkpt lat="45.83045" lon="1.98094">
        <ele>719</ele>
        <time>2013-08-05T10:09:25Z</time>
      </trkpt>
      <trkpt lat="45.8304" lon="1.9813">
        <ele>718</ele>
        <time>2013-08-05T10:09:40Z</time>
      </trkpt>
      <trkpt lat="45.83037" lon="1.98168">
        <ele>718</ele>
        <time>2013-08-05T10:09:54Z</time>
      </trkpt>
      <trkpt lat="45.83039" lon="1.98195">
        <ele>718</ele>
        <time>2013-08-05T10:10:05Z</time>
      </trkpt>
      <trkpt lat="45.8304" lon="1.9822">
        <ele>718</ele>
        <time>2013-08-05T10:10:16Z</time>
      </trkpt>
      <trkpt lat="45.8304" lon="1.98227">
        <ele>718</ele>
        <time>2013-08-05T10:10:20Z</time>
      </trkpt>
      <trkpt lat="45.83042" lon="1.98244">
        <ele>719</ele>
        <time>2013-08-05T10:10:29Z</time>
      </trkpt>
      <trkpt lat="45.83042" lon="1.98247">
        <ele>719</ele>
        <time>2013-08-05T10:10:31Z</time>
      </trkpt>
      <trkpt lat="45.83041" lon="1.98258">
        <ele>720</ele>
        <time>2013-08-05T10:10:36Z</time>
      </trkpt>
      <trkpt lat="45.8304" lon="1.98267">
        <ele>720</ele>
        <time>2013-08-05T10:10:40Z</time>
      </trkpt>
      <trkpt lat="45.83037" lon="1.98297">
        <ele>722</ele>
        <time>2013-08-05T10:10:50Z</time>
      </trkpt>
      <trkpt lat="45.83035" lon="1.98303">
        <ele>722</ele>
        <time>2013-08-05T10:10:53Z</time>
      </trkpt>
      <trkpt lat="45.83034" lon="1.9831">
        <ele>722</ele>
        <time>2013-08-05T10:10:57Z</time>
      </trkpt>
      <trkpt lat="45.83031" lon="1.98329">
        <ele>723</ele>
        <time>2013-08-05T10:11:05Z</time>
      </trkpt>
      <trkpt lat="45.83026" lon="1.98347">
        <ele>723</ele>
        <time>2013-08-05T10:11:14Z</time>
      </trkpt>
      <trkpt lat="45.83024" lon="1.98356">
        <ele>724</ele>
        <time>2013-08-05T10:11:18Z</time>
      </trkpt>
      <trkpt lat="45.83021" lon="1.98374">
        <ele>725</ele>
        <time>2013-08-05T10:11:28Z</time>
      </trkpt>
      <trkpt lat="45.8302" lon="1.98378">
        <ele>725</ele>
        <time>2013-08-05T10:11:30Z</time>
      </trkpt>
      <trkpt lat="45.83017" lon="1.98396">
        <ele>726</ele>
        <time>2013-08-05T10:11:37Z</time>
      </trkpt>
      <trkpt lat="45.83015" lon="1.98402">
        <ele>726</ele>
        <time>2013-08-05T10:11:40Z</time>
      </trkpt>
      <trkpt lat="45.83014" lon="1.98416">
        <ele>727</ele>
        <time>2013-08-05T10:11:46Z</time>
      </trkpt>
      <trkpt lat="45.83013" lon="1.9842">
        <ele>728</ele>
        <time>2013-08-05T10:11:48Z</time>
      </trkpt>
      <trkpt lat="45.83012" lon="1.98426">
        <ele>728</ele>
        <time>2013-08-05T10:11:51Z</time>
      </trkpt>
      <trkpt lat="45.83013" lon="1.98434">
        <ele>729</ele>
        <time>2013-08-05T10:11:55Z</time>
      </trkpt>
      <trkpt lat="45.83014" lon="1.98438">
        <ele>729</ele>
        <time>2013-08-05T10:11:57Z</time>
      </trkpt>
      <trkpt lat="45.83012" lon="1.98448">
        <ele>729</ele>
        <time>2013-08-05T10:12:01Z</time>
      </trkpt>
      <trkpt lat="45.83009" lon="1.9846">
        <ele>729</ele>
        <time>2013-08-05T10:12:06Z</time>
      </trkpt>
      <trkpt lat="45.83003" lon="1.9849">
        <ele>730</ele>
        <time>2013-08-05T10:12:20Z</time>
      </trkpt>
      <trkpt lat="45.83" lon="1.98496">
        <ele>730</ele>
        <time>2013-08-05T10:12:29Z</time>
      </trkpt>
      <trkpt lat="45.82996" lon="1.98516">
        <ele>730</ele>
        <time>2013-08-05T10:12:37Z</time>
      </trkpt>
      <trkpt lat="45.82987" lon="1.98549">
        <ele>729</ele>
        <time>2013-08-05T10:12:51Z</time>
      </trkpt>
      <trkpt lat="45.82982" lon="1.98562">
        <ele>729</ele>
        <time>2013-08-05T10:13:01Z</time>
      </trkpt>
      <trkpt lat="45.82979" lon="1.98568">
        <ele>729</ele>
        <time>2013-08-05T10:13:05Z</time>
      </trkpt>
      <trkpt lat="45.82971" lon="1.98604">
        <ele>730</ele>
        <time>2013-08-05T10:13:19Z</time>
      </trkpt>
      <trkpt lat="45.82971" lon="1.98606">
        <ele>730</ele>
        <time>2013-08-05T10:13:20Z</time>
      </trkpt>
      <trkpt lat="45.8297" lon="1.98624">
        <ele>730</ele>
        <time>2013-08-05T10:13:28Z</time>
      </trkpt>
      <trkpt lat="45.82969" lon="1.98634">
        <ele>730</ele>
        <time>2013-08-05T10:13:32Z</time>
      </trkpt>
      <trkpt lat="45.82962" lon="1.98658">
        <ele>730</ele>
        <time>2013-08-05T10:13:43Z</time>
      </trkpt>
      <trkpt lat="45.82958" lon="1.98676">
        <ele>731</ele>
        <time>2013-08-05T10:13:50Z</time>
      </trkpt>
      <trkpt lat="45.82957" lon="1.98681">
        <ele>731</ele>
        <time>2013-08-05T10:13:52Z</time>
      </trkpt>
      <trkpt lat="45.82956" lon="1.98685">
        <ele>731</ele>
        <time>2013-08-05T10:13:54Z</time>
      </trkpt>
      <trkpt lat="45.82956" lon="1.98693">
        <ele>732</ele>
        <time>2013-08-05T10:13:57Z</time>
      </trkpt>
      <trkpt lat="45.82952" lon="1.98721">
        <ele>733</ele>
        <time>2013-08-05T10:14:07Z</time>
      </trkpt>
      <trkpt lat="45.82949" lon="1.9874">
        <ele>733</ele>
        <time>2013-08-05T10:14:15Z</time>
      </trkpt>
      <trkpt lat="45.82946" lon="1.98749">
        <ele>733</ele>
        <time>2013-08-05T10:14:19Z</time>
      </trkpt>
      <trkpt lat="45.82941" lon="1.98777">
        <ele>733</ele>
        <time>2013-08-05T10:14:32Z</time>
      </trkpt>
      <trkpt lat="45.8294" lon="1.98778">
        <ele>733</ele>
        <time>2013-08-05T10:14:34Z</time>
      </trkpt>
      <trkpt lat="45.82935" lon="1.98782">
        <ele>733</ele>
        <time>2013-08-05T10:14:38Z</time>
      </trkpt>
      <trkpt lat="45.82924" lon="1.98803">
        <ele>733</ele>
        <time>2013-08-05T10:14:49Z</time>
      </trkpt>
      <trkpt lat="45.82912" lon="1.9883">
        <ele>734</ele>
        <time>2013-08-05T10:15:04Z</time>
      </trkpt>
      <trkpt lat="45.82911" lon="1.98832">
        <ele>734</ele>
        <time>2013-08-05T10:15:05Z</time>
      </trkpt>
      <trkpt lat="45.82907" lon="1.98835">
        <ele>734</ele>
        <time>2013-08-05T10:15:08Z</time>
      </trkpt>
      <trkpt lat="45.82894" lon="1.9886">
        <ele>735</ele>
        <time>2013-08-05T10:15:23Z</time>
      </trkpt>
      <trkpt lat="45.82894" lon="1.98866">
        <ele>735</ele>
        <time>2013-08-05T10:15:25Z</time>
      </trkpt>
      <trkpt lat="45.82892" lon="1.98875">
        <ele>735</ele>
        <time>2013-08-05T10:15:28Z</time>
      </trkpt>
      <trkpt lat="45.82885" lon="1.98893">
        <ele>736</ele>
        <time>2013-08-05T10:15:36Z</time>
      </trkpt>
      <trkpt lat="45.82878" lon="1.98907">
        <ele>736</ele>
        <time>2013-08-05T10:15:41Z</time>
      </trkpt>
      <trkpt lat="45.82867" lon="1.98925">
        <ele>736</ele>
        <time>2013-08-05T10:15:52Z</time>
      </trkpt>
      <trkpt lat="45.82863" lon="1.98945">
        <ele>736</ele>
        <time>2013-08-05T10:16:02Z</time>
      </trkpt>
      <trkpt lat="45.82859" lon="1.98958">
        <ele>736</ele>
        <time>2013-08-05T10:16:11Z</time>
      </trkpt>
      <trkpt lat="45.82858" lon="1.98973">
        <ele>736</ele>
        <time>2013-08-05T10:16:17Z</time>
      </trkpt>
      <trkpt lat="45.8287" lon="1.98995">
        <ele>736</ele>
        <time>2013-08-05T10:16:28Z</time>
      </trkpt>
      <trkpt lat="45.82871" lon="1.98997">
        <ele>737</ele>
        <time>2013-08-05T10:16:29Z</time>
      </trkpt>
      <trkpt lat="45.8288" lon="1.99019">
        <ele>737</ele>
        <time>2013-08-05T10:16:40Z</time>
      </trkpt>
      <trkpt lat="45.82883" lon="1.9903">
        <ele>737</ele>
        <time>2013-08-05T10:16:45Z</time>
      </trkpt>
      <trkpt lat="45.82887" lon="1.99051">
        <ele>737</ele>
        <time>2013-08-05T10:16:53Z</time>
      </trkpt>
      <trkpt lat="45.82896" lon="1.99059">
        <ele>737</ele>
        <time>2013-08-05T10:17:01Z</time>
      </trkpt>
      <trkpt lat="45.82902" lon="1.99072">
        <ele>737</ele>
        <time>2013-08-05T10:17:07Z</time>
      </trkpt>
      <trkpt lat="45.82909" lon="1.991">
        <ele>737</ele>
        <time>2013-08-05T10:17:18Z</time>
      </trkpt>
      <trkpt lat="45.82921" lon="1.99131">
        <ele>737</ele>
        <time>2013-08-05T10:17:32Z</time>
      </trkpt>
      <trkpt lat="45.82926" lon="1.99157">
        <ele>737</ele>
        <time>2013-08-05T10:17:46Z</time>
      </trkpt>
      <trkpt lat="45.82927" lon="1.99163">
        <ele>737</ele>
        <time>2013-08-05T10:17:48Z</time>
      </trkpt>
      <trkpt lat="45.8293" lon="1.99169">
        <ele>737</ele>
        <time>2013-08-05T10:17:50Z</time>
      </trkpt>
      <trkpt lat="45.82939" lon="1.99192">
        <ele>737</ele>
        <time>2013-08-05T10:18:02Z</time>
      </trkpt>
      <trkpt lat="45.82942" lon="1.99207">
        <ele>737</ele>
        <time>2013-08-05T10:18:18Z</time>
      </trkpt>
      <trkpt lat="45.82942" lon="1.99208">
        <ele>737</ele>
        <time>2013-08-05T10:18:19Z</time>
      </trkpt>
      <trkpt lat="45.82945" lon="1.99224">
        <ele>737</ele>
        <time>2013-08-05T10:18:32Z</time>
      </trkpt>
      <trkpt lat="45.82947" lon="1.99258">
        <ele>738</ele>
        <time>2013-08-05T10:18:46Z</time>
      </trkpt>
      <trkpt lat="45.82949" lon="1.9927">
        <ele>737</ele>
        <time>2013-08-05T10:18:55Z</time>
      </trkpt>
      <trkpt lat="45.82955" lon="1.99308">
        <ele>737</ele>
        <time>2013-08-05T10:19:09Z</time>
      </trkpt>
      <trkpt lat="45.82956" lon="1.99314">
        <ele>737</ele>
        <time>2013-08-05T10:19:14Z</time>
      </trkpt>
      <trkpt lat="45.82961" lon="1.9935">
        <ele>736</ele>
        <time>2013-08-05T10:19:29Z</time>
      </trkpt>
      <trkpt lat="45.82968" lon="1.99369">
        <ele>736</ele>
        <time>2013-08-05T10:19:43Z</time>
      </trkpt>
      <trkpt lat="45.82972" lon="1.99386">
        <ele>736</ele>
        <time>2013-08-05T10:19:56Z</time>
      </trkpt>
      <trkpt lat="45.8297" lon="1.99403">
        <ele>736</ele>
        <time>2013-08-05T10:20:09Z</time>
      </trkpt>
      <trkpt lat="45.82971" lon="1.99408">
        <ele>736</ele>
        <time>2013-08-05T10:20:22Z</time>
      </trkpt>
      <trkpt lat="45.82973" lon="1.99421">
        <ele>736</ele>
        <time>2013-08-05T10:20:36Z</time>
      </trkpt>
      <trkpt lat="45.82973" lon="1.99436">
        <ele>736</ele>
        <time>2013-08-05T10:20:45Z</time>
      </trkpt>
      <trkpt lat="45.82977" lon="1.99446">
        <ele>736</ele>
        <time>2013-08-05T10:20:48Z</time>
      </trkpt>
      <trkpt lat="45.82981" lon="1.99459">
        <ele>736</ele>
        <time>2013-08-05T10:20:54Z</time>
      </trkpt>
      <trkpt lat="45.82981" lon="1.99473">
        <ele>736</ele>
        <time>2013-08-05T10:21:03Z</time>
      </trkpt>
      <trkpt lat="45.82983" lon="1.99477">
        <ele>736</ele>
        <time>2013-08-05T10:21:06Z</time>
      </trkpt>
      <trkpt lat="45.8299" lon="1.99503">
        <ele>737</ele>
        <time>2013-08-05T10:21:18Z</time>
      </trkpt>
      <trkpt lat="45.82992" lon="1.99531">
        <ele>737</ele>
        <time>2013-08-05T10:21:29Z</time>
      </trkpt>
      <trkpt lat="45.82991" lon="1.99556">
        <ele>737</ele>
        <time>2013-08-05T10:21:41Z</time>
      </trkpt>
      <trkpt lat="45.82993" lon="1.99579">
        <ele>737</ele>
        <time>2013-08-05T10:21:53Z</time>
      </trkpt>
      <trkpt lat="45.82996" lon="1.99611">
        <ele>737</ele>
        <time>2013-08-05T10:22:08Z</time>
      </trkpt>
      <trkpt lat="45.83" lon="1.99642">
        <ele>738</ele>
        <time>2013-08-05T10:22:19Z</time>
      </trkpt>
      <trkpt lat="45.82998" lon="1.9966">
        <ele>738</ele>
        <time>2013-08-05T10:22:28Z</time>
      </trkpt>
      <trkpt lat="45.83" lon="1.99692">
        <ele>739</ele>
        <time>2013-08-05T10:22:39Z</time>
      </trkpt>
      <trkpt lat="45.83" lon="1.99698">
        <ele>739</ele>
        <time>2013-08-05T10:22:42Z</time>
      </trkpt>
      <trkpt lat="45.83" lon="1.99714">
        <ele>739</ele>
        <time>2013-08-05T10:22:50Z</time>
      </trkpt>
      <trkpt lat="45.82998" lon="1.99739">
        <ele>740</ele>
        <time>2013-08-05T10:23:04Z</time>
      </trkpt>
      <trkpt lat="45.82999" lon="1.99749">
        <ele>740</ele>
        <time>2013-08-05T10:23:08Z</time>
      </trkpt>
      <trkpt lat="45.83" lon="1.99765">
        <ele>740</ele>
        <time>2013-08-05T10:23:14Z</time>
      </trkpt>
      <trkpt lat="45.83002" lon="1.99783">
        <ele>740</ele>
        <time>2013-08-05T10:23:21Z</time>
      </trkpt>
      <trkpt lat="45.82998" lon="1.99806">
        <ele>741</ele>
        <time>2013-08-05T10:23:35Z</time>
      </trkpt>
      <trkpt lat="45.83002" lon="1.99823">
        <ele>741</ele>
        <time>2013-08-05T10:23:43Z</time>
      </trkpt>
      <trkpt lat="45.83007" lon="1.99847">
        <ele>742</ele>
        <time>2013-08-05T10:23:53Z</time>
      </trkpt>
      <trkpt lat="45.83006" lon="1.99862">
        <ele>742</ele>
        <time>2013-08-05T10:24:03Z</time>
      </trkpt>
      <trkpt lat="45.83002" lon="1.99881">
        <ele>743</ele>
        <time>2013-08-05T10:24:15Z</time>
      </trkpt>
      <trkpt lat="45.82985" lon="1.99875">
        <ele>743</ele>
        <time>2013-08-05T10:24:27Z</time>
      </trkpt>
      <trkpt lat="45.82977" lon="1.99872">
        <ele>743</ele>
        <time>2013-08-05T10:24:31Z</time>
      </trkpt>
      <trkpt lat="45.82961" lon="1.99864">
        <ele>742</ele>
        <time>2013-08-05T10:24:41Z</time>
      </trkpt>
      <trkpt lat="45.82948" lon="1.99864">
        <ele>743</ele>
        <time>2013-08-05T10:24:54Z</time>
      </trkpt>
      <trkpt lat="45.82938" lon="1.99859">
        <ele>742</ele>
        <time>2013-08-05T10:24:58Z</time>
      </trkpt>
      <trkpt lat="45.82926" lon="1.99855">
        <ele>742</ele>
        <time>2013-08-05T10:25:04Z</time>
      </trkpt>
      <trkpt lat="45.82896" lon="1.99836">
        <ele>742</ele>
        <time>2013-08-05T10:25:20Z</time>
      </trkpt>
      <trkpt lat="45.82874" lon="1.9983">
        <ele>742</ele>
        <time>2013-08-05T10:25:33Z</time>
      </trkpt>
      <trkpt lat="45.82852" lon="1.99822">
        <ele>741</ele>
        <time>2013-08-05T10:25:47Z</time>
      </trkpt>
      <trkpt lat="45.82824" lon="1.99811">
        <ele>740</ele>
        <time>2013-08-05T10:26:04Z</time>
      </trkpt>
      <trkpt lat="45.82803" lon="1.99803">
        <ele>739</ele>
        <time>2013-08-05T10:26:18Z</time>
      </trkpt>
      <trkpt lat="45.82782" lon="1.99791">
        <ele>739</ele>
        <time>2013-08-05T10:26:31Z</time>
      </trkpt>
      <trkpt lat="45.82759" lon="1.99785">
        <ele>738</ele>
        <time>2013-08-05T10:26:45Z</time>
      </trkpt>
      <trkpt lat="45.82732" lon="1.99773">
        <ele>737</ele>
        <time>2013-08-05T10:27:00Z</time>
      </trkpt>
      <trkpt lat="45.8271" lon="1.99763">
        <ele>737</ele>
        <time>2013-08-05T10:27:10Z</time>
      </trkpt>
      <trkpt lat="45.82696" lon="1.99758">
        <ele>737</ele>
        <time>2013-08-05T10:27:18Z</time>
      </trkpt>
      <trkpt lat="45.82689" lon="1.99755">
        <ele>737</ele>
        <time>2013-08-05T10:27:23Z</time>
      </trkpt>
      <trkpt lat="45.82677" lon="1.99748">
        <ele>737</ele>
        <time>2013-08-05T10:27:31Z</time>
      </trkpt>
      <trkpt lat="45.82649" lon="1.99737">
        <ele>737</ele>
        <time>2013-08-05T10:27:46Z</time>
      </trkpt>
      <trkpt lat="45.8263" lon="1.9973">
        <ele>736</ele>
        <time>2013-08-05T10:27:58Z</time>
      </trkpt>
      <trkpt lat="45.82615" lon="1.99723">
        <ele>736</ele>
        <time>2013-08-05T10:28:11Z</time>
      </trkpt>
      <trkpt lat="45.82602" lon="1.99719">
        <ele>735</ele>
        <time>2013-08-05T10:28:20Z</time>
      </trkpt>
      <trkpt lat="45.82583" lon="1.99711">
        <ele>735</ele>
        <time>2013-08-05T10:28:30Z</time>
      </trkpt>
      <trkpt lat="45.82577" lon="1.99708">
        <ele>735</ele>
        <time>2013-08-05T10:28:34Z</time>
      </trkpt>
      <trkpt lat="45.82567" lon="1.99704">
        <ele>735</ele>
        <time>2013-08-05T10:28:39Z</time>
      </trkpt>
      <trkpt lat="45.82557" lon="1.99702">
        <ele>734</ele>
        <time>2013-08-05T10:28:43Z</time>
      </trkpt>
      <trkpt lat="45.82537" lon="1.99693">
        <ele>734</ele>
        <time>2013-08-05T10:28:55Z</time>
      </trkpt>
      <trkpt lat="45.82515" lon="1.99685">
        <ele>733</ele>
        <time>2013-08-05T10:29:08Z</time>
      </trkpt>
      <trkpt lat="45.82494" lon="1.99677">
        <ele>732</ele>
        <time>2013-08-05T10:29:19Z</time>
      </trkpt>
      <trkpt lat="45.82476" lon="1.99669">
        <ele>732</ele>
        <time>2013-08-05T10:29:30Z</time>
      </trkpt>
      <trkpt lat="45.82459" lon="1.99662">
        <ele>732</ele>
        <time>2013-08-05T10:29:39Z</time>
      </trkpt>
      <trkpt lat="45.82437" lon="1.99657">
        <ele>732</ele>
        <time>2013-08-05T10:29:51Z</time>
      </trkpt>
      <trkpt lat="45.82429" lon="1.99658">
        <ele>732</ele>
        <time>2013-08-05T10:29:55Z</time>
      </trkpt>
      <trkpt lat="45.82413" lon="1.99662">
        <ele>730</ele>
        <time>2013-08-05T10:30:03Z</time>
      </trkpt>
      <trkpt lat="45.82391" lon="1.99673">
        <ele>731</ele>
        <time>2013-08-05T10:30:16Z</time>
      </trkpt>
      <trkpt lat="45.82369" lon="1.99684">
        <ele>730</ele>
        <time>2013-08-05T10:30:28Z</time>
      </trkpt>
      <trkpt lat="45.82351" lon="1.99689">
        <ele>730</ele>
        <time>2013-08-05T10:30:39Z</time>
      </trkpt>
      <trkpt lat="45.82333" lon="1.99688">
        <ele>729</ele>
        <time>2013-08-05T10:30:50Z</time>
      </trkpt>
      <trkpt lat="45.82317" lon="1.99693">
        <ele>729</ele>
        <time>2013-08-05T10:30:59Z</time>
      </trkpt>
      <trkpt lat="45.82312" lon="1.99694">
        <ele>729</ele>
        <time>2013-08-05T10:31:02Z</time>
      </trkpt>
      <trkpt lat="45.82303" lon="1.9969">
        <ele>729</ele>
        <time>2013-08-05T10:31:06Z</time>
      </trkpt>
      <trkpt lat="45.82284" lon="1.9968">
        <ele>730</ele>
        <time>2013-08-05T10:31:18Z</time>
      </trkpt>
      <trkpt lat="45.82264" lon="1.99669">
        <ele>730</ele>
        <time>2013-08-05T10:31:30Z</time>
      </trkpt>
      <trkpt lat="45.82243" lon="1.99657">
        <ele>730</ele>
        <time>2013-08-05T10:31:42Z</time>
      </trkpt>
      <trkpt lat="45.82221" lon="1.99648">
        <ele>731</ele>
        <time>2013-08-05T10:31:53Z</time>
      </trkpt>
      <trkpt lat="45.8221" lon="1.99643">
        <ele>731</ele>
        <time>2013-08-05T10:32:01Z</time>
      </trkpt>
      <trkpt lat="45.82193" lon="1.99639">
        <ele>732</ele>
        <time>2013-08-05T10:32:12Z</time>
      </trkpt>
      <trkpt lat="45.82179" lon="1.99633">
        <ele>731</ele>
        <time>2013-08-05T10:32:22Z</time>
      </trkpt>
      <trkpt lat="45.82167" lon="1.99626">
        <ele>730</ele>
        <time>2013-08-05T10:32:34Z</time>
      </trkpt>
      <trkpt lat="45.82166" lon="1.99625">
        <ele>730</ele>
        <time>2013-08-05T10:32:35Z</time>
      </trkpt>
      <trkpt lat="45.82156" lon="1.99618">
        <ele>730</ele>
        <time>2013-08-05T10:32:41Z</time>
      </trkpt>
      <trkpt lat="45.82134" lon="1.99604">
        <ele>728</ele>
        <time>2013-08-05T10:32:54Z</time>
      </trkpt>
      <trkpt lat="45.8212" lon="1.99596">
        <ele>728</ele>
        <time>2013-08-05T10:33:03Z</time>
      </trkpt>
      <trkpt lat="45.82111" lon="1.99593">
        <ele>728</ele>
        <time>2013-08-05T10:33:07Z</time>
      </trkpt>
      <trkpt lat="45.82098" lon="1.99585">
        <ele>726</ele>
        <time>2013-08-05T10:33:17Z</time>
      </trkpt>
      <trkpt lat="45.82078" lon="1.99578">
        <ele>724</ele>
        <time>2013-08-05T10:33:30Z</time>
      </trkpt>
      <trkpt lat="45.82074" lon="1.99576">
        <ele>724</ele>
        <time>2013-08-05T10:33:33Z</time>
      </trkpt>
      <trkpt lat="45.82053" lon="1.99566">
        <ele>721</ele>
        <time>2013-08-05T10:33:48Z</time>
      </trkpt>
      <trkpt lat="45.82029" lon="1.99556">
        <ele>719</ele>
        <time>2013-08-05T10:34:00Z</time>
      </trkpt>
      <trkpt lat="45.82008" lon="1.99547">
        <ele>716</ele>
        <time>2013-08-05T10:34:12Z</time>
      </trkpt>
      <trkpt lat="45.82004" lon="1.99545">
        <ele>717</ele>
        <time>2013-08-05T10:34:14Z</time>
      </trkpt>
      <trkpt lat="45.81977" lon="1.99539">
        <ele>716</ele>
        <time>2013-08-05T10:34:27Z</time>
      </trkpt>
      <trkpt lat="45.81953" lon="1.99538">
        <ele>715</ele>
        <time>2013-08-05T10:34:42Z</time>
      </trkpt>
      <trkpt lat="45.81928" lon="1.99535">
        <ele>715</ele>
        <time>2013-08-05T10:34:53Z</time>
      </trkpt>
      <trkpt lat="45.81907" lon="1.99533">
        <ele>715</ele>
        <time>2013-08-05T10:35:04Z</time>
      </trkpt>
      <trkpt lat="45.81906" lon="1.99533">
        <ele>715</ele>
        <time>2013-08-05T10:35:05Z</time>
      </trkpt>
      <trkpt lat="45.819" lon="1.99532">
        <ele>715</ele>
        <time>2013-08-05T10:35:09Z</time>
      </trkpt>
      <trkpt lat="45.81876" lon="1.99534">
        <ele>715</ele>
        <time>2013-08-05T10:35:24Z</time>
      </trkpt>
      <trkpt lat="45.81855" lon="1.99542">
        <ele>717</ele>
        <time>2013-08-05T10:35:38Z</time>
      </trkpt>
      <trkpt lat="45.81852" lon="1.99546">
        <ele>717</ele>
        <time>2013-08-05T10:35:48Z</time>
      </trkpt>
      <trkpt lat="45.81853" lon="1.99547">
        <ele>717</ele>
        <time>2013-08-05T10:36:03Z</time>
      </trkpt>
      <trkpt lat="45.81853" lon="1.99547">
        <ele>717</ele>
        <time>2013-08-05T10:36:25Z</time>
      </trkpt>
      <trkpt lat="45.81853" lon="1.99547">
        <ele>718</ele>
        <time>2013-08-05T10:36:26Z</time>
      </trkpt>
      <trkpt lat="45.81846" lon="1.99549">
        <ele>717</ele>
        <time>2013-08-05T10:36:30Z</time>
      </trkpt>
      <trkpt lat="45.81821" lon="1.99559">
        <ele>717</ele>
        <time>2013-08-05T10:36:43Z</time>
      </trkpt>
      <trkpt lat="45.81818" lon="1.9956">
        <ele>718</ele>
        <time>2013-08-05T10:36:45Z</time>
      </trkpt>
      <trkpt lat="45.81798" lon="1.99567">
        <ele>718</ele>
        <time>2013-08-05T10:36:58Z</time>
      </trkpt>
      <trkpt lat="45.81786" lon="1.99573">
        <ele>717</ele>
        <time>2013-08-05T10:37:04Z</time>
      </trkpt>
      <trkpt lat="45.81785" lon="1.99583">
        <ele>717</ele>
        <time>2013-08-05T10:37:08Z</time>
      </trkpt>
      <trkpt lat="45.81782" lon="1.996">
        <ele>716</ele>
        <time>2013-08-05T10:37:14Z</time>
      </trkpt>
      <trkpt lat="45.81779" lon="1.99605">
        <ele>716</ele>
        <time>2013-08-05T10:37:16Z</time>
      </trkpt>
      <trkpt lat="45.81775" lon="1.99627">
        <ele>716</ele>
        <time>2013-08-05T10:37:29Z</time>
      </trkpt>
      <trkpt lat="45.81775" lon="1.99626">
        <ele>716</ele>
        <time>2013-08-05T10:37:41Z</time>
      </trkpt>
      <trkpt lat="45.81768" lon="1.9963">
        <ele>716</ele>
        <time>2013-08-05T10:37:55Z</time>
      </trkpt>
      <trkpt lat="45.81767" lon="1.99632">
        <ele>716</ele>
        <time>2013-08-05T10:37:58Z</time>
      </trkpt>
      <trkpt lat="45.81769" lon="1.99638">
        <ele>715</ele>
        <time>2013-08-05T10:38:11Z</time>
      </trkpt>
      <trkpt lat="45.81766" lon="1.99636">
        <ele>715</ele>
        <time>2013-08-05T10:38:22Z</time>
      </trkpt>
      <trkpt lat="45.81768" lon="1.99625">
        <ele>714</ele>
        <time>2013-08-05T10:38:33Z</time>
      </trkpt>
      <trkpt lat="45.81768" lon="1.99626">
        <ele>714</ele>
        <time>2013-08-05T10:38:48Z</time>
      </trkpt>
      <trkpt lat="45.81768" lon="1.99626">
        <ele>714</ele>
        <time>2013-08-05T10:39:09Z</time>
      </trkpt>
      <trkpt lat="45.81767" lon="1.99625">
        <ele>714</ele>
        <time>2013-08-05T10:39:26Z</time>
      </trkpt>
      <trkpt lat="45.81764" lon="1.99627">
        <ele>713</ele>
        <time>2013-08-05T10:39:42Z</time>
      </trkpt>
      <trkpt lat="45.81764" lon="1.99627">
        <ele>714</ele>
        <time>2013-08-05T10:39:57Z</time>
      </trkpt>
      <trkpt lat="45.81763" lon="1.9963">
        <ele>714</ele>
        <time>2013-08-05T10:40:11Z</time>
      </trkpt>
      <trkpt lat="45.81764" lon="1.99636">
        <ele>714</ele>
        <time>2013-08-05T10:40:22Z</time>
      </trkpt>
      <trkpt lat="45.81759" lon="1.99636">
        <ele>714</ele>
        <time>2013-08-05T10:40:35Z</time>
      </trkpt>
      <trkpt lat="45.81759" lon="1.99635">
        <ele>714</ele>
        <time>2013-08-05T10:40:50Z</time>
      </trkpt>
      <trkpt lat="45.8176" lon="1.99633">
        <ele>714</ele>
        <time>2013-08-05T10:41:02Z</time>
      </trkpt>
      <trkpt lat="45.81759" lon="1.99632">
        <ele>713</ele>
        <time>2013-08-05T10:41:11Z</time>
      </trkpt>
      <trkpt lat="45.81763" lon="1.99632">
        <ele>714</ele>
        <time>2013-08-05T10:41:20Z</time>
      </trkpt>
      <trkpt lat="45.81765" lon="1.99634">
        <ele>715</ele>
        <time>2013-08-05T10:41:34Z</time>
      </trkpt>
      <trkpt lat="45.81765" lon="1.99635">
        <ele>715</ele>
        <time>2013-08-05T10:41:52Z</time>
      </trkpt>
      <trkpt lat="45.81767" lon="1.99638">
        <ele>715</ele>
        <time>2013-08-05T10:42:06Z</time>
      </trkpt>
      <trkpt lat="45.81767" lon="1.99637">
        <ele>715</ele>
        <time>2013-08-05T10:42:18Z</time>
      </trkpt>
      <trkpt lat="45.81768" lon="1.99635">
        <ele>715</ele>
        <time>2013-08-05T10:42:30Z</time>
      </trkpt>
      <trkpt lat="45.81767" lon="1.99633">
        <ele>714</ele>
        <time>2013-08-05T10:42:32Z</time>
      </trkpt>
      <trkpt lat="45.81766" lon="1.99627">
        <ele>715</ele>
        <time>2013-08-05T10:42:38Z</time>
      </trkpt>
      <trkpt lat="45.81768" lon="1.99625">
        <ele>715</ele>
        <time>2013-08-05T10:42:54Z</time>
      </trkpt>
      <trkpt lat="45.81768" lon="1.99623">
        <ele>715</ele>
        <time>2013-08-05T10:43:15Z</time>
      </trkpt>
      <trkpt lat="45.81771" lon="1.99622">
        <ele>715</ele>
        <time>2013-08-05T10:43:31Z</time>
      </trkpt>
      <trkpt lat="45.81774" lon="1.99624">
        <ele>715</ele>
        <time>2013-08-05T10:43:49Z</time>
      </trkpt>
      <trkpt lat="45.81772" lon="1.99623">
        <ele>714</ele>
        <time>2013-08-05T10:44:01Z</time>
      </trkpt>
      <trkpt lat="45.81772" lon="1.99623">
        <ele>715</ele>
        <time>2013-08-05T10:44:16Z</time>
      </trkpt>
      <trkpt lat="45.81774" lon="1.99623">
        <ele>715</ele>
        <time>2013-08-05T10:44:36Z</time>
      </trkpt>
      <trkpt lat="45.81774" lon="1.99626">
        <ele>715</ele>
        <time>2013-08-05T10:44:51Z</time>
      </trkpt>
      <trkpt lat="45.81773" lon="1.99627">
        <ele>715</ele>
        <time>2013-08-05T10:45:05Z</time>
      </trkpt>
      <trkpt lat="45.81771" lon="1.99627">
        <ele>715</ele>
        <time>2013-08-05T10:45:21Z</time>
      </trkpt>
      <trkpt lat="45.81771" lon="1.99625">
        <ele>714</ele>
        <time>2013-08-05T10:45:30Z</time>
      </trkpt>
      <trkpt lat="45.81771" lon="1.99625">
        <ele>715</ele>
        <time>2013-08-05T10:45:49Z</time>
      </trkpt>
      <trkpt lat="45.81771" lon="1.99636">
        <ele>715</ele>
        <time>2013-08-05T10:45:59Z</time>
      </trkpt>
      <trkpt lat="45.81772" lon="1.99637">
        <ele>714</ele>
        <time>2013-08-05T10:46:13Z</time>
      </trkpt>
      <trkpt lat="45.81773" lon="1.99633">
        <ele>715</ele>
        <time>2013-08-05T10:46:30Z</time>
      </trkpt>
      <trkpt lat="45.81774" lon="1.99631">
        <ele>715</ele>
        <time>2013-08-05T10:46:48Z</time>
      </trkpt>
      <trkpt lat="45.81774" lon="1.99632">
        <ele>715</ele>
        <time>2013-08-05T10:47:09Z</time>
      </trkpt>
      <trkpt lat="45.81776" lon="1.9963">
        <ele>715</ele>
        <time>2013-08-05T10:47:19Z</time>
      </trkpt>
      <trkpt lat="45.81774" lon="1.99621">
        <ele>715</ele>
        <time>2013-08-05T10:47:30Z</time>
      </trkpt>
      <trkpt lat="45.81772" lon="1.99624">
        <ele>715</ele>
        <time>2013-08-05T10:47:37Z</time>
      </trkpt>
      <trkpt lat="45.81768" lon="1.99631">
        <ele>713</ele>
        <time>2013-08-05T10:47:47Z</time>
      </trkpt>
      <trkpt lat="45.81768" lon="1.99632">
        <ele>713</ele>
        <time>2013-08-05T10:47:49Z</time>
      </trkpt>
      <trkpt lat="45.81769" lon="1.9963">
        <ele>714</ele>
        <time>2013-08-05T10:47:52Z</time>
      </trkpt>
      <trkpt lat="45.81771" lon="1.99624">
        <ele>714</ele>
        <time>2013-08-05T10:48:10Z</time>
      </trkpt>
      <trkpt lat="45.81769" lon="1.99623">
        <ele>714</ele>
        <time>2013-08-05T10:48:24Z</time>
      </trkpt>
      <trkpt lat="45.8177" lon="1.99629">
        <ele>714</ele>
        <time>2013-08-05T10:48:37Z</time>
      </trkpt>
      <trkpt lat="45.8177" lon="1.99628">
        <ele>714</ele>
        <time>2013-08-05T10:48:38Z</time>
      </trkpt>
      <trkpt lat="45.81769" lon="1.99623">
        <ele>714</ele>
        <time>2013-08-05T10:48:51Z</time>
      </trkpt>
      <trkpt lat="45.8177" lon="1.99624">
        <ele>714</ele>
        <time>2013-08-05T10:49:04Z</time>
      </trkpt>
      <trkpt lat="45.8177" lon="1.99622">
        <ele>714</ele>
        <time>2013-08-05T10:49:17Z</time>
      </trkpt>
      <trkpt lat="45.8177" lon="1.99622">
        <ele>713</ele>
        <time>2013-08-05T10:49:30Z</time>
      </trkpt>
      <trkpt lat="45.81772" lon="1.99631">
        <ele>714</ele>
        <time>2013-08-05T10:49:40Z</time>
      </trkpt>
      <trkpt lat="45.81772" lon="1.99632">
        <ele>714</ele>
        <time>2013-08-05T10:49:53Z</time>
      </trkpt>
      <trkpt lat="45.81774" lon="1.99631">
        <ele>714</ele>
        <time>2013-08-05T10:50:08Z</time>
      </trkpt>
      <trkpt lat="45.81776" lon="1.99632">
        <ele>713</ele>
        <time>2013-08-05T10:50:28Z</time>
      </trkpt>
      <trkpt lat="45.81777" lon="1.99633">
        <ele>714</ele>
        <time>2013-08-05T10:50:37Z</time>
      </trkpt>
      <trkpt lat="45.81774" lon="1.99635">
        <ele>714</ele>
        <time>2013-08-05T10:50:44Z</time>
      </trkpt>
      <trkpt lat="45.81773" lon="1.99624">
        <ele>713</ele>
        <time>2013-08-05T10:50:55Z</time>
      </trkpt>
      <trkpt lat="45.81773" lon="1.99624">
        <ele>713</ele>
        <time>2013-08-05T10:51:19Z</time>
      </trkpt>
      <trkpt lat="45.81772" lon="1.99624">
        <ele>713</ele>
        <time>2013-08-05T10:51:35Z</time>
      </trkpt>
      <trkpt lat="45.81776" lon="1.99624">
        <ele>713</ele>
        <time>2013-08-05T10:51:51Z</time>
      </trkpt>
      <trkpt lat="45.81777" lon="1.99624">
        <ele>713</ele>
        <time>2013-08-05T10:51:53Z</time>
      </trkpt>
      <trkpt lat="45.81772" lon="1.99622">
        <ele>713</ele>
        <time>2013-08-05T10:52:02Z</time>
      </trkpt>
      <trkpt lat="45.81771" lon="1.99622">
        <ele>709</ele>
        <time>2013-08-05T10:52:11Z</time>
      </trkpt>
      <trkpt lat="45.81771" lon="1.99622">
        <ele>712</ele>
        <time>2013-08-05T10:52:12Z</time>
      </trkpt>
      <trkpt lat="45.8177" lon="1.99623">
        <ele>720</ele>
        <time>2013-08-05T10:52:13Z</time>
      </trkpt>
      <trkpt lat="45.81771" lon="1.99624">
        <ele>716</ele>
        <time>2013-08-05T10:52:14Z</time>
      </trkpt>
      <trkpt lat="45.81771" lon="1.99625">
        <ele>713</ele>
        <time>2013-08-05T10:52:15Z</time>
      </trkpt>
      <trkpt lat="45.81772" lon="1.99622">
        <ele>713</ele>
        <time>2013-08-05T10:52:17Z</time>
      </trkpt>
      <trkpt lat="45.81775" lon="1.99618">
        <ele>713</ele>
        <time>2013-08-05T10:52:27Z</time>
      </trkpt>
      <trkpt lat="45.81777" lon="1.99621">
        <ele>714</ele>
        <time>2013-08-05T10:52:40Z</time>
      </trkpt>
      <trkpt lat="45.81777" lon="1.99623">
        <ele>714</ele>
        <time>2013-08-05T10:52:47Z</time>
      </trkpt>
      <trkpt lat="45.81771" lon="1.99626">
        <ele>713</ele>
        <time>2013-08-05T10:52:57Z</time>
      </trkpt>
      <trkpt lat="45.81768" lon="1.99625">
        <ele>712</ele>
        <time>2013-08-05T10:53:06Z</time>
      </trkpt>
      <trkpt lat="45.81767" lon="1.99626">
        <ele>712</ele>
        <time>2013-08-05T10:53:09Z</time>
      </trkpt>
      <trkpt lat="45.81769" lon="1.99627">
        <ele>713</ele>
        <time>2013-08-05T10:53:11Z</time>
      </trkpt>
      <trkpt lat="45.81774" lon="1.99623">
        <ele>713</ele>
        <time>2013-08-05T10:53:24Z</time>
      </trkpt>
      <trkpt lat="45.81774" lon="1.9962">
        <ele>713</ele>
        <time>2013-08-05T10:53:36Z</time>
      </trkpt>
      <trkpt lat="45.81776" lon="1.99616">
        <ele>713</ele>
        <time>2013-08-05T10:53:42Z</time>
      </trkpt>
      <trkpt lat="45.81777" lon="1.99611">
        <ele>713</ele>
        <time>2013-08-05T10:53:45Z</time>
      </trkpt>
      <trkpt lat="45.81776" lon="1.99605">
        <ele>713</ele>
        <time>2013-08-05T10:54:00Z</time>
      </trkpt>
      <trkpt lat="45.81775" lon="1.9961">
        <ele>713</ele>
        <time>2013-08-05T10:54:13Z</time>
      </trkpt>
      <trkpt lat="45.81775" lon="1.99618">
        <ele>713</ele>
        <time>2013-08-05T10:54:20Z</time>
      </trkpt>
      <trkpt lat="45.81775" lon="1.99625">
        <ele>712</ele>
        <time>2013-08-05T10:54:31Z</time>
      </trkpt>
      <trkpt lat="45.81775" lon="1.99626">
        <ele>712</ele>
        <time>2013-08-05T10:54:41Z</time>
      </trkpt>
      <trkpt lat="45.81773" lon="1.99626">
        <ele>712</ele>
        <time>2013-08-05T10:54:51Z</time>
      </trkpt>
      <trkpt lat="45.81773" lon="1.99629">
        <ele>712</ele>
        <time>2013-08-05T10:55:00Z</time>
      </trkpt>
      <trkpt lat="45.81773" lon="1.9963">
        <ele>712</ele>
        <time>2013-08-05T10:55:08Z</time>
      </trkpt>
      <trkpt lat="45.81775" lon="1.99638">
        <ele>712</ele>
        <time>2013-08-05T10:55:12Z</time>
      </trkpt>
      <trkpt lat="45.81777" lon="1.99652">
        <ele>712</ele>
        <time>2013-08-05T10:55:24Z</time>
      </trkpt>
      <trkpt lat="45.81776" lon="1.9965">
        <ele>712</ele>
        <time>2013-08-05T10:55:44Z</time>
      </trkpt>
      <trkpt lat="45.81776" lon="1.99648">
        <ele>712</ele>
        <time>2013-08-05T10:56:00Z</time>
      </trkpt>
      <trkpt lat="45.81778" lon="1.99649">
        <ele>712</ele>
        <time>2013-08-05T10:56:18Z</time>
      </trkpt>
      <trkpt lat="45.81776" lon="1.99645">
        <ele>712</ele>
        <time>2013-08-05T10:56:45Z</time>
      </trkpt>
      <trkpt lat="45.81776" lon="1.99644">
        <ele>712</ele>
        <time>2013-08-05T10:57:15Z</time>
      </trkpt>
      <trkpt lat="45.81774" lon="1.99645">
        <ele>712</ele>
        <time>2013-08-05T10:57:36Z</time>
      </trkpt>
      <trkpt lat="45.81773" lon="1.99645">
        <ele>712</ele>
        <time>2013-08-05T10:58:01Z</time>
      </trkpt>
      <trkpt lat="45.81773" lon="1.99646">
        <ele>712</ele>
        <time>2013-08-05T10:58:19Z</time>
      </trkpt>
      <trkpt lat="45.81773" lon="1.9964">
        <ele>712</ele>
        <time>2013-08-05T10:58:42Z</time>
      </trkpt>
      <trkpt lat="45.81781" lon="1.99644">
        <ele>712</ele>
        <time>2013-08-05T10:59:11Z</time>
      </trkpt>
      <trkpt lat="45.81753" lon="1.99667">
        <ele>712</ele>
        <time>2013-08-05T10:59:40Z</time>
      </trkpt>
      <trkpt lat="45.81768" lon="1.99648">
        <ele>710</ele>
        <time>2013-08-05T10:59:50Z</time>
      </trkpt>
      <trkpt lat="45.81733" lon="1.99615">
        <ele>712</ele>
        <time>2013-08-05T12:33:43Z</time>
      </trkpt>
      <trkpt lat="45.81736" lon="1.99591">
        <ele>712</ele>
        <time>2013-08-05T12:33:54Z</time>
      </trkpt>
      <trkpt lat="45.81742" lon="1.99595">
        <ele>712</ele>
        <time>2013-08-05T12:34:02Z</time>
      </trkpt>
      <trkpt lat="45.81742" lon="1.996">
        <ele>712</ele>
        <time>2013-08-05T12:34:08Z</time>
      </trkpt>
      <trkpt lat="45.81736" lon="1.99606">
        <ele>712</ele>
        <time>2013-08-05T12:34:14Z</time>
      </trkpt>
      <trkpt lat="45.81734" lon="1.99609">
        <ele>712</ele>
        <time>2013-08-05T12:34:16Z</time>
      </trkpt>
      <trkpt lat="45.81719" lon="1.99622">
        <ele>713</ele>
        <time>2013-08-05T12:34:30Z</time>
      </trkpt>
      <trkpt lat="45.81706" lon="1.99627">
        <ele>713</ele>
        <time>2013-08-05T12:34:41Z</time>
      </trkpt>
      <trkpt lat="45.81702" lon="1.9963">
        <ele>714</ele>
        <time>2013-08-05T12:34:44Z</time>
      </trkpt>
      <trkpt lat="45.81683" lon="1.99639">
        <ele>714</ele>
        <time>2013-08-05T12:34:55Z</time>
      </trkpt>
      <trkpt lat="45.8167" lon="1.99645">
        <ele>715</ele>
        <time>2013-08-05T12:35:03Z</time>
      </trkpt>
      <trkpt lat="45.81667" lon="1.99648">
        <ele>715</ele>
        <time>2013-08-05T12:35:06Z</time>
      </trkpt>
      <trkpt lat="45.81649" lon="1.99658">
        <ele>716</ele>
        <time>2013-08-05T12:35:19Z</time>
      </trkpt>
      <trkpt lat="45.81646" lon="1.9966">
        <ele>716</ele>
        <time>2013-08-05T12:35:21Z</time>
      </trkpt>
      <trkpt lat="45.81637" lon="1.99666">
        <ele>716</ele>
        <time>2013-08-05T12:35:28Z</time>
      </trkpt>
      <trkpt lat="45.81628" lon="1.99675">
        <ele>716</ele>
        <time>2013-08-05T12:35:34Z</time>
      </trkpt>
      <trkpt lat="45.81615" lon="1.9968">
        <ele>717</ele>
        <time>2013-08-05T12:35:46Z</time>
      </trkpt>
      <trkpt lat="45.81611" lon="1.99682">
        <ele>717</ele>
        <time>2013-08-05T12:35:52Z</time>
      </trkpt>
      <trkpt lat="45.81608" lon="1.99684">
        <ele>718</ele>
        <time>2013-08-05T12:35:56Z</time>
      </trkpt>
      <trkpt lat="45.81598" lon="1.99691">
        <ele>718</ele>
        <time>2013-08-05T12:36:04Z</time>
      </trkpt>
      <trkpt lat="45.81576" lon="1.99699">
        <ele>719</ele>
        <time>2013-08-05T12:36:15Z</time>
      </trkpt>
      <trkpt lat="45.81568" lon="1.99705">
        <ele>719</ele>
        <time>2013-08-05T12:36:22Z</time>
      </trkpt>
      <trkpt lat="45.81561" lon="1.99709">
        <ele>720</ele>
        <time>2013-08-05T12:36:27Z</time>
      </trkpt>
      <trkpt lat="45.81558" lon="1.99718">
        <ele>721</ele>
        <time>2013-08-05T12:36:36Z</time>
      </trkpt>
      <trkpt lat="45.81555" lon="1.99724">
        <ele>721</ele>
        <time>2013-08-05T12:36:41Z</time>
      </trkpt>
      <trkpt lat="45.8155" lon="1.99725">
        <ele>720</ele>
        <time>2013-08-05T12:36:43Z</time>
      </trkpt>
      <trkpt lat="45.81543" lon="1.99728">
        <ele>721</ele>
        <time>2013-08-05T12:36:47Z</time>
      </trkpt>
      <trkpt lat="45.81528" lon="1.99737">
        <ele>722</ele>
        <time>2013-08-05T12:36:58Z</time>
      </trkpt>
      <trkpt lat="45.81507" lon="1.99746">
        <ele>722</ele>
        <time>2013-08-05T12:37:12Z</time>
      </trkpt>
      <trkpt lat="45.81505" lon="1.99747">
        <ele>722</ele>
        <time>2013-08-05T12:37:14Z</time>
      </trkpt>
      <trkpt lat="45.81494" lon="1.99756">
        <ele>723</ele>
        <time>2013-08-05T12:37:25Z</time>
      </trkpt>
      <trkpt lat="45.8148" lon="1.99764">
        <ele>724</ele>
        <time>2013-08-05T12:37:36Z</time>
      </trkpt>
      <trkpt lat="45.81471" lon="1.99774">
        <ele>724</ele>
        <time>2013-08-05T12:37:43Z</time>
      </trkpt>
      <trkpt lat="45.81453" lon="1.99786">
        <ele>725</ele>
        <time>2013-08-05T12:37:56Z</time>
      </trkpt>
      <trkpt lat="45.81436" lon="1.99795">
        <ele>725</ele>
        <time>2013-08-05T12:38:07Z</time>
      </trkpt>
      <trkpt lat="45.81419" lon="1.99802">
        <ele>725</ele>
        <time>2013-08-05T12:38:18Z</time>
      </trkpt>
      <trkpt lat="45.8141" lon="1.99804">
        <ele>725</ele>
        <time>2013-08-05T12:38:25Z</time>
      </trkpt>
      <trkpt lat="45.81404" lon="1.99805">
        <ele>725</ele>
        <time>2013-08-05T12:38:29Z</time>
      </trkpt>
      <trkpt lat="45.814" lon="1.99807">
        <ele>726</ele>
        <time>2013-08-05T12:38:33Z</time>
      </trkpt>
      <trkpt lat="45.81398" lon="1.99808">
        <ele>726</ele>
        <time>2013-08-05T12:38:35Z</time>
      </trkpt>
      <trkpt lat="45.81371" lon="1.99809">
        <ele>726</ele>
        <time>2013-08-05T12:38:48Z</time>
      </trkpt>
      <trkpt lat="45.81355" lon="1.99807">
        <ele>727</ele>
        <time>2013-08-05T12:38:57Z</time>
      </trkpt>
      <trkpt lat="45.8135" lon="1.99806">
        <ele>727</ele>
        <time>2013-08-05T12:39:00Z</time>
      </trkpt>
      <trkpt lat="45.81338" lon="1.99804">
        <ele>727</ele>
        <time>2013-08-05T12:39:07Z</time>
      </trkpt>
      <trkpt lat="45.81334" lon="1.99803">
        <ele>728</ele>
        <time>2013-08-05T12:39:10Z</time>
      </trkpt>
      <trkpt lat="45.81314" lon="1.998">
        <ele>729</ele>
        <time>2013-08-05T12:39:23Z</time>
      </trkpt>
      <trkpt lat="45.81294" lon="1.99799">
        <ele>730</ele>
        <time>2013-08-05T12:39:35Z</time>
      </trkpt>
      <trkpt lat="45.81291" lon="1.99798">
        <ele>729</ele>
        <time>2013-08-05T12:39:37Z</time>
      </trkpt>
      <trkpt lat="45.81285" lon="1.99797">
        <ele>730</ele>
        <time>2013-08-05T12:39:42Z</time>
      </trkpt>
      <trkpt lat="45.81265" lon="1.99796">
        <ele>731</ele>
        <time>2013-08-05T12:39:55Z</time>
      </trkpt>
      <trkpt lat="45.81255" lon="1.99793">
        <ele>732</ele>
        <time>2013-08-05T12:40:02Z</time>
      </trkpt>
      <trkpt lat="45.81251" lon="1.99788">
        <ele>732</ele>
        <time>2013-08-05T12:40:06Z</time>
      </trkpt>
      <trkpt lat="45.81246" lon="1.99785">
        <ele>732</ele>
        <time>2013-08-05T12:40:10Z</time>
      </trkpt>
      <trkpt lat="45.81236" lon="1.99779">
        <ele>733</ele>
        <time>2013-08-05T12:40:17Z</time>
      </trkpt>
      <trkpt lat="45.81231" lon="1.99776">
        <ele>733</ele>
        <time>2013-08-05T12:40:21Z</time>
      </trkpt>
      <trkpt lat="45.81222" lon="1.99766">
        <ele>734</ele>
        <time>2013-08-05T12:40:28Z</time>
      </trkpt>
      <trkpt lat="45.81217" lon="1.99762">
        <ele>734</ele>
        <time>2013-08-05T12:40:32Z</time>
      </trkpt>
      <trkpt lat="45.81211" lon="1.99757">
        <ele>734</ele>
        <time>2013-08-05T12:40:37Z</time>
      </trkpt>
      <trkpt lat="45.81199" lon="1.99746">
        <ele>735</ele>
        <time>2013-08-05T12:40:47Z</time>
      </trkpt>
      <trkpt lat="45.81194" lon="1.99743">
        <ele>735</ele>
        <time>2013-08-05T12:40:51Z</time>
      </trkpt>
      <trkpt lat="45.81182" lon="1.99731">
        <ele>736</ele>
        <time>2013-08-05T12:41:01Z</time>
      </trkpt>
      <trkpt lat="45.8118" lon="1.99729">
        <ele>736</ele>
        <time>2013-08-05T12:41:03Z</time>
      </trkpt>
      <trkpt lat="45.81176" lon="1.99726">
        <ele>737</ele>
        <time>2013-08-05T12:41:06Z</time>
      </trkpt>
      <trkpt lat="45.8117" lon="1.9972">
        <ele>737</ele>
        <time>2013-08-05T12:41:11Z</time>
      </trkpt>
      <trkpt lat="45.81155" lon="1.99706">
        <ele>738</ele>
        <time>2013-08-05T12:41:22Z</time>
      </trkpt>
      <trkpt lat="45.81151" lon="1.99704">
        <ele>738</ele>
        <time>2013-08-05T12:41:25Z</time>
      </trkpt>
      <trkpt lat="45.81136" lon="1.99691">
        <ele>739</ele>
        <time>2013-08-05T12:41:38Z</time>
      </trkpt>
      <trkpt lat="45.81135" lon="1.99691">
        <ele>739</ele>
        <time>2013-08-05T12:41:39Z</time>
      </trkpt>
      <trkpt lat="45.81128" lon="1.99686">
        <ele>739</ele>
        <time>2013-08-05T12:41:43Z</time>
      </trkpt>
      <trkpt lat="45.81113" lon="1.99668">
        <ele>740</ele>
        <time>2013-08-05T12:41:55Z</time>
      </trkpt>
      <trkpt lat="45.81101" lon="1.99656">
        <ele>741</ele>
        <time>2013-08-05T12:42:06Z</time>
      </trkpt>
      <trkpt lat="45.811" lon="1.99655">
        <ele>741</ele>
        <time>2013-08-05T12:42:07Z</time>
      </trkpt>
      <trkpt lat="45.81092" lon="1.99651">
        <ele>741</ele>
        <time>2013-08-05T12:42:13Z</time>
      </trkpt>
      <trkpt lat="45.81079" lon="1.99639">
        <ele>742</ele>
        <time>2013-08-05T12:42:25Z</time>
      </trkpt>
      <trkpt lat="45.81075" lon="1.99632">
        <ele>743</ele>
        <time>2013-08-05T12:42:29Z</time>
      </trkpt>
      <trkpt lat="45.81058" lon="1.9962">
        <ele>744</ele>
        <time>2013-08-05T12:42:42Z</time>
      </trkpt>
      <trkpt lat="45.81056" lon="1.99619">
        <ele>744</ele>
        <time>2013-08-05T12:42:44Z</time>
      </trkpt>
      <trkpt lat="45.81047" lon="1.99606">
        <ele>744</ele>
        <time>2013-08-05T12:42:53Z</time>
      </trkpt>
      <trkpt lat="45.81033" lon="1.99591">
        <ele>745</ele>
        <time>2013-08-05T12:43:06Z</time>
      </trkpt>
      <trkpt lat="45.81021" lon="1.99577">
        <ele>746</ele>
        <time>2013-08-05T12:43:19Z</time>
      </trkpt>
      <trkpt lat="45.8102" lon="1.99575">
        <ele>746</ele>
        <time>2013-08-05T12:43:20Z</time>
      </trkpt>
      <trkpt lat="45.81012" lon="1.99561">
        <ele>746</ele>
        <time>2013-08-05T12:43:29Z</time>
      </trkpt>
      <trkpt lat="45.81011" lon="1.9956">
        <ele>746</ele>
        <time>2013-08-05T12:43:30Z</time>
      </trkpt>
      <trkpt lat="45.81004" lon="1.99553">
        <ele>747</ele>
        <time>2013-08-05T12:43:36Z</time>
      </trkpt>
      <trkpt lat="45.80989" lon="1.99538">
        <ele>747</ele>
        <time>2013-08-05T12:43:48Z</time>
      </trkpt>
      <trkpt lat="45.80987" lon="1.99538">
        <ele>747</ele>
        <time>2013-08-05T12:43:49Z</time>
      </trkpt>
      <trkpt lat="45.80968" lon="1.99522">
        <ele>747</ele>
        <time>2013-08-05T12:44:02Z</time>
      </trkpt>
      <trkpt lat="45.80956" lon="1.99508">
        <ele>748</ele>
        <time>2013-08-05T12:44:13Z</time>
      </trkpt>
      <trkpt lat="45.80944" lon="1.99495">
        <ele>748</ele>
        <time>2013-08-05T12:44:26Z</time>
      </trkpt>
      <trkpt lat="45.80936" lon="1.9949">
        <ele>748</ele>
        <time>2013-08-05T12:44:37Z</time>
      </trkpt>
      <trkpt lat="45.80935" lon="1.99487">
        <ele>748</ele>
        <time>2013-08-05T12:44:39Z</time>
      </trkpt>
      <trkpt lat="45.80929" lon="1.99478">
        <ele>748</ele>
        <time>2013-08-05T12:44:48Z</time>
      </trkpt>
      <trkpt lat="45.80919" lon="1.99476">
        <ele>749</ele>
        <time>2013-08-05T12:44:51Z</time>
      </trkpt>
      <trkpt lat="45.80914" lon="1.99474">
        <ele>749</ele>
        <time>2013-08-05T12:44:53Z</time>
      </trkpt>
      <trkpt lat="45.80907" lon="1.9947">
        <ele>749</ele>
        <time>2013-08-05T12:44:58Z</time>
      </trkpt>
      <trkpt lat="45.80892" lon="1.99462">
        <ele>750</ele>
        <time>2013-08-05T12:45:07Z</time>
      </trkpt>
      <trkpt lat="45.80887" lon="1.9946">
        <ele>750</ele>
        <time>2013-08-05T12:45:09Z</time>
      </trkpt>
      <trkpt lat="45.80879" lon="1.99454">
        <ele>750</ele>
        <time>2013-08-05T12:45:16Z</time>
      </trkpt>
      <trkpt lat="45.80875" lon="1.99451">
        <ele>751</ele>
        <time>2013-08-05T12:45:21Z</time>
      </trkpt>
      <trkpt lat="45.80862" lon="1.99428">
        <ele>752</ele>
        <time>2013-08-05T12:45:35Z</time>
      </trkpt>
      <trkpt lat="45.80863" lon="1.99416">
        <ele>752</ele>
        <time>2013-08-05T12:45:41Z</time>
      </trkpt>
      <trkpt lat="45.80859" lon="1.99394">
        <ele>753</ele>
        <time>2013-08-05T12:45:52Z</time>
      </trkpt>
      <trkpt lat="45.8086" lon="1.99387">
        <ele>753</ele>
        <time>2013-08-05T12:45:58Z</time>
      </trkpt>
      <trkpt lat="45.80856" lon="1.9938">
        <ele>754</ele>
        <time>2013-08-05T12:46:01Z</time>
      </trkpt>
      <trkpt lat="45.80854" lon="1.99378">
        <ele>754</ele>
        <time>2013-08-05T12:46:03Z</time>
      </trkpt>
      <trkpt lat="45.80845" lon="1.99361">
        <ele>755</ele>
        <time>2013-08-05T12:46:11Z</time>
      </trkpt>
      <trkpt lat="45.80837" lon="1.9933">
        <ele>756</ele>
        <time>2013-08-05T12:46:26Z</time>
      </trkpt>
      <trkpt lat="45.80839" lon="1.9932">
        <ele>756</ele>
        <time>2013-08-05T12:46:31Z</time>
      </trkpt>
      <trkpt lat="45.80831" lon="1.99291">
        <ele>758</ele>
        <time>2013-08-05T12:46:45Z</time>
      </trkpt>
      <trkpt lat="45.80831" lon="1.99289">
        <ele>758</ele>
        <time>2013-08-05T12:46:47Z</time>
      </trkpt>
      <trkpt lat="45.80832" lon="1.99274">
        <ele>759</ele>
        <time>2013-08-05T12:46:53Z</time>
      </trkpt>
      <trkpt lat="45.80836" lon="1.99257">
        <ele>761</ele>
        <time>2013-08-05T12:47:09Z</time>
      </trkpt>
      <trkpt lat="45.80835" lon="1.99249">
        <ele>762</ele>
        <time>2013-08-05T12:47:15Z</time>
      </trkpt>
      <trkpt lat="45.80821" lon="1.99225">
        <ele>763</ele>
        <time>2013-08-05T12:47:28Z</time>
      </trkpt>
      <trkpt lat="45.80808" lon="1.99209">
        <ele>765</ele>
        <time>2013-08-05T12:47:39Z</time>
      </trkpt>
      <trkpt lat="45.80805" lon="1.99201">
        <ele>765</ele>
        <time>2013-08-05T12:47:43Z</time>
      </trkpt>
      <trkpt lat="45.80803" lon="1.99197">
        <ele>766</ele>
        <time>2013-08-05T12:47:47Z</time>
      </trkpt>
      <trkpt lat="45.80799" lon="1.99194">
        <ele>766</ele>
        <time>2013-08-05T12:47:51Z</time>
      </trkpt>
      <trkpt lat="45.80795" lon="1.99194">
        <ele>766</ele>
        <time>2013-08-05T12:47:53Z</time>
      </trkpt>
      <trkpt lat="45.80792" lon="1.99192">
        <ele>766</ele>
        <time>2013-08-05T12:47:57Z</time>
      </trkpt>
      <trkpt lat="45.80794" lon="1.99187">
        <ele>766</ele>
        <time>2013-08-05T12:48:00Z</time>
      </trkpt>
      <trkpt lat="45.80795" lon="1.99174">
        <ele>767</ele>
        <time>2013-08-05T12:48:11Z</time>
      </trkpt>
      <trkpt lat="45.80786" lon="1.99144">
        <ele>769</ele>
        <time>2013-08-05T12:48:27Z</time>
      </trkpt>
      <trkpt lat="45.80773" lon="1.99137">
        <ele>770</ele>
        <time>2013-08-05T12:48:33Z</time>
      </trkpt>
      <trkpt lat="45.80771" lon="1.99132">
        <ele>769</ele>
        <time>2013-08-05T12:48:36Z</time>
      </trkpt>
      <trkpt lat="45.8077" lon="1.9911">
        <ele>770</ele>
        <time>2013-08-05T12:48:47Z</time>
      </trkpt>
      <trkpt lat="45.80769" lon="1.9909">
        <ele>770</ele>
        <time>2013-08-05T12:48:58Z</time>
      </trkpt>
      <trkpt lat="45.8077" lon="1.99087">
        <ele>771</ele>
        <time>2013-08-05T12:49:00Z</time>
      </trkpt>
      <trkpt lat="45.80773" lon="1.99078">
        <ele>771</ele>
        <time>2013-08-05T12:49:07Z</time>
      </trkpt>
      <trkpt lat="45.80774" lon="1.99076">
        <ele>770</ele>
        <time>2013-08-05T12:49:08Z</time>
      </trkpt>
      <trkpt lat="45.80776" lon="1.99071">
        <ele>770</ele>
        <time>2013-08-05T12:49:10Z</time>
      </trkpt>
      <trkpt lat="45.80778" lon="1.99064">
        <ele>770</ele>
        <time>2013-08-05T12:49:17Z</time>
      </trkpt>
      <trkpt lat="45.80777" lon="1.99059">
        <ele>770</ele>
        <time>2013-08-05T12:49:19Z</time>
      </trkpt>
      <trkpt lat="45.80774" lon="1.99054">
        <ele>770</ele>
        <time>2013-08-05T12:49:21Z</time>
      </trkpt>
      <trkpt lat="45.80762" lon="1.9904">
        <ele>770</ele>
        <time>2013-08-05T12:49:33Z</time>
      </trkpt>
      <trkpt lat="45.80762" lon="1.99037">
        <ele>770</ele>
        <time>2013-08-05T12:49:35Z</time>
      </trkpt>
      <trkpt lat="45.80761" lon="1.99035">
        <ele>770</ele>
        <time>2013-08-05T12:49:36Z</time>
      </trkpt>
      <trkpt lat="45.8076" lon="1.99033">
        <ele>769</ele>
        <time>2013-08-05T12:49:37Z</time>
      </trkpt>
      <trkpt lat="45.80754" lon="1.99028">
        <ele>769</ele>
        <time>2013-08-05T12:49:41Z</time>
      </trkpt>
      <trkpt lat="45.80751" lon="1.99023">
        <ele>769</ele>
        <time>2013-08-05T12:49:44Z</time>
      </trkpt>
      <trkpt lat="45.8074" lon="1.99012">
        <ele>769</ele>
        <time>2013-08-05T12:49:55Z</time>
      </trkpt>
      <trkpt lat="45.80735" lon="1.99008">
        <ele>768</ele>
        <time>2013-08-05T12:50:07Z</time>
      </trkpt>
      <trkpt lat="45.80733" lon="1.99003">
        <ele>769</ele>
        <time>2013-08-05T12:50:23Z</time>
      </trkpt>
      <trkpt lat="45.80733" lon="1.98995">
        <ele>768</ele>
        <time>2013-08-05T12:50:30Z</time>
      </trkpt>
      <trkpt lat="45.80729" lon="1.9899">
        <ele>768</ele>
        <time>2013-08-05T12:50:37Z</time>
      </trkpt>
      <trkpt lat="45.80729" lon="1.98987">
        <ele>768</ele>
        <time>2013-08-05T12:50:39Z</time>
      </trkpt>
      <trkpt lat="45.80718" lon="1.98979">
        <ele>767</ele>
        <time>2013-08-05T12:50:48Z</time>
      </trkpt>
      <trkpt lat="45.80712" lon="1.98969">
        <ele>766</ele>
        <time>2013-08-05T12:51:01Z</time>
      </trkpt>
      <trkpt lat="45.80715" lon="1.98969">
        <ele>766</ele>
        <time>2013-08-05T12:51:15Z</time>
      </trkpt>
      <trkpt lat="45.80712" lon="1.98965">
        <ele>767</ele>
        <time>2013-08-05T12:51:32Z</time>
      </trkpt>
      <trkpt lat="45.80709" lon="1.98963">
        <ele>767</ele>
        <time>2013-08-05T12:51:44Z</time>
      </trkpt>
      <trkpt lat="45.80706" lon="1.9896">
        <ele>767</ele>
        <time>2013-08-05T12:51:59Z</time>
      </trkpt>
      <trkpt lat="45.80694" lon="1.98955">
        <ele>766</ele>
        <time>2013-08-05T12:52:13Z</time>
      </trkpt>
      <trkpt lat="45.80693" lon="1.98955">
        <ele>767</ele>
        <time>2013-08-05T12:52:14Z</time>
      </trkpt>
      <trkpt lat="45.8067" lon="1.98946">
        <ele>766</ele>
        <time>2013-08-05T12:52:30Z</time>
      </trkpt>
      <trkpt lat="45.80654" lon="1.98938">
        <ele>766</ele>
        <time>2013-08-05T12:52:45Z</time>
      </trkpt>
      <trkpt lat="45.80651" lon="1.98935">
        <ele>765</ele>
        <time>2013-08-05T12:52:48Z</time>
      </trkpt>
      <trkpt lat="45.80629" lon="1.98915">
        <ele>765</ele>
        <time>2013-08-05T12:53:02Z</time>
      </trkpt>
      <trkpt lat="45.806" lon="1.98901">
        <ele>764</ele>
        <time>2013-08-05T12:53:16Z</time>
      </trkpt>
      <trkpt lat="45.80582" lon="1.98888">
        <ele>764</ele>
        <time>2013-08-05T12:53:26Z</time>
      </trkpt>
      <trkpt lat="45.80564" lon="1.98853">
        <ele>764</ele>
        <time>2013-08-05T12:53:41Z</time>
      </trkpt>
      <trkpt lat="45.80564" lon="1.98817">
        <ele>764</ele>
        <time>2013-08-05T12:53:54Z</time>
      </trkpt>
      <trkpt lat="45.80566" lon="1.98786">
        <ele>765</ele>
        <time>2013-08-05T12:54:06Z</time>
      </trkpt>
      <trkpt lat="45.80581" lon="1.98747">
        <ele>768</ele>
        <time>2013-08-05T12:54:21Z</time>
      </trkpt>
      <trkpt lat="45.80581" lon="1.98721">
        <ele>768</ele>
        <time>2013-08-05T12:54:32Z</time>
      </trkpt>
      <trkpt lat="45.8057" lon="1.98694">
        <ele>769</ele>
        <time>2013-08-05T12:54:45Z</time>
      </trkpt>
      <trkpt lat="45.80559" lon="1.98676">
        <ele>768</ele>
        <time>2013-08-05T12:54:56Z</time>
      </trkpt>
      <trkpt lat="45.80553" lon="1.98651">
        <ele>768</ele>
        <time>2013-08-05T12:55:07Z</time>
      </trkpt>
      <trkpt lat="45.80549" lon="1.98624">
        <ele>767</ele>
        <time>2013-08-05T12:55:19Z</time>
      </trkpt>
      <trkpt lat="45.80544" lon="1.98612">
        <ele>767</ele>
        <time>2013-08-05T12:55:26Z</time>
      </trkpt>
      <trkpt lat="45.80541" lon="1.98608">
        <ele>767</ele>
        <time>2013-08-05T12:55:29Z</time>
      </trkpt>
      <trkpt lat="45.80538" lon="1.98602">
        <ele>766</ele>
        <time>2013-08-05T12:55:32Z</time>
      </trkpt>
      <trkpt lat="45.80523" lon="1.98579">
        <ele>766</ele>
        <time>2013-08-05T12:55:46Z</time>
      </trkpt>
      <trkpt lat="45.80506" lon="1.98559">
        <ele>766</ele>
        <time>2013-08-05T12:55:59Z</time>
      </trkpt>
      <trkpt lat="45.80489" lon="1.98541">
        <ele>765</ele>
        <time>2013-08-05T12:56:12Z</time>
      </trkpt>
      <trkpt lat="45.80474" lon="1.98525">
        <ele>764</ele>
        <time>2013-08-05T12:56:26Z</time>
      </trkpt>
      <trkpt lat="45.80457" lon="1.98506">
        <ele>763</ele>
        <time>2013-08-05T12:56:40Z</time>
      </trkpt>
      <trkpt lat="45.80441" lon="1.98484">
        <ele>762</ele>
        <time>2013-08-05T12:56:53Z</time>
      </trkpt>
      <trkpt lat="45.80425" lon="1.9847">
        <ele>762</ele>
        <time>2013-08-05T12:57:05Z</time>
      </trkpt>
      <trkpt lat="45.80413" lon="1.98439">
        <ele>761</ele>
        <time>2013-08-05T12:57:19Z</time>
      </trkpt>
      <trkpt lat="45.80405" lon="1.98415">
        <ele>761</ele>
        <time>2013-08-05T12:57:31Z</time>
      </trkpt>
      <trkpt lat="45.80402" lon="1.98404">
        <ele>761</ele>
        <time>2013-08-05T12:57:37Z</time>
      </trkpt>
      <trkpt lat="45.80395" lon="1.9839">
        <ele>760</ele>
        <time>2013-08-05T12:57:46Z</time>
      </trkpt>
      <trkpt lat="45.80388" lon="1.98374">
        <ele>760</ele>
        <time>2013-08-05T12:57:56Z</time>
      </trkpt>
      <trkpt lat="45.80382" lon="1.98341">
        <ele>760</ele>
        <time>2013-08-05T12:58:10Z</time>
      </trkpt>
      <trkpt lat="45.8038" lon="1.98331">
        <ele>760</ele>
        <time>2013-08-05T12:58:16Z</time>
      </trkpt>
      <trkpt lat="45.8037" lon="1.98302">
        <ele>760</ele>
        <time>2013-08-05T12:58:30Z</time>
      </trkpt>
      <trkpt lat="45.80359" lon="1.98276">
        <ele>759</ele>
        <time>2013-08-05T12:58:44Z</time>
      </trkpt>
      <trkpt lat="45.80362" lon="1.98263">
        <ele>760</ele>
        <time>2013-08-05T12:58:49Z</time>
      </trkpt>
      <trkpt lat="45.80364" lon="1.98257">
        <ele>759</ele>
        <time>2013-08-05T12:58:52Z</time>
      </trkpt>
      <trkpt lat="45.80349" lon="1.98215">
        <ele>758</ele>
        <time>2013-08-05T12:59:08Z</time>
      </trkpt>
      <trkpt lat="45.80334" lon="1.98181">
        <ele>758</ele>
        <time>2013-08-05T12:59:25Z</time>
      </trkpt>
      <trkpt lat="45.80317" lon="1.98166">
        <ele>759</ele>
        <time>2013-08-05T12:59:39Z</time>
      </trkpt>
      <trkpt lat="45.8031" lon="1.98162">
        <ele>759</ele>
        <time>2013-08-05T12:59:44Z</time>
      </trkpt>
      <trkpt lat="45.80304" lon="1.98159">
        <ele>759</ele>
        <time>2013-08-05T12:59:48Z</time>
      </trkpt>
      <trkpt lat="45.80289" lon="1.9815">
        <ele>759</ele>
        <time>2013-08-05T13:00:01Z</time>
      </trkpt>
      <trkpt lat="45.80287" lon="1.98149">
        <ele>759</ele>
        <time>2013-08-05T13:00:02Z</time>
      </trkpt>
      <trkpt lat="45.80272" lon="1.98143">
        <ele>759</ele>
        <time>2013-08-05T13:00:11Z</time>
      </trkpt>
      <trkpt lat="45.80264" lon="1.98142">
        <ele>758</ele>
        <time>2013-08-05T13:00:15Z</time>
      </trkpt>
      <trkpt lat="45.80249" lon="1.98134">
        <ele>759</ele>
        <time>2013-08-05T13:00:28Z</time>
      </trkpt>
      <trkpt lat="45.80222" lon="1.98125">
        <ele>759</ele>
        <time>2013-08-05T13:00:43Z</time>
      </trkpt>
      <trkpt lat="45.80217" lon="1.98126">
        <ele>759</ele>
        <time>2013-08-05T13:00:47Z</time>
      </trkpt>
      <trkpt lat="45.80198" lon="1.98115">
        <ele>758</ele>
        <time>2013-08-05T13:00:59Z</time>
      </trkpt>
      <trkpt lat="45.80176" lon="1.98105">
        <ele>758</ele>
        <time>2013-08-05T13:01:12Z</time>
      </trkpt>
      <trkpt lat="45.80156" lon="1.98094">
        <ele>758</ele>
        <time>2013-08-05T13:01:27Z</time>
      </trkpt>
      <trkpt lat="45.8014" lon="1.98081">
        <ele>757</ele>
        <time>2013-08-05T13:01:40Z</time>
      </trkpt>
      <trkpt lat="45.80139" lon="1.9808">
        <ele>757</ele>
        <time>2013-08-05T13:01:41Z</time>
      </trkpt>
      <trkpt lat="45.80125" lon="1.98068">
        <ele>757</ele>
        <time>2013-08-05T13:01:54Z</time>
      </trkpt>
      <trkpt lat="45.80107" lon="1.98058">
        <ele>756</ele>
        <time>2013-08-05T13:02:06Z</time>
      </trkpt>
      <trkpt lat="45.80094" lon="1.98043">
        <ele>756</ele>
        <time>2013-08-05T13:02:19Z</time>
      </trkpt>
      <trkpt lat="45.80086" lon="1.98038">
        <ele>756</ele>
        <time>2013-08-05T13:02:27Z</time>
      </trkpt>
      <trkpt lat="45.8007" lon="1.98024">
        <ele>755</ele>
        <time>2013-08-05T13:02:41Z</time>
      </trkpt>
      <trkpt lat="45.80055" lon="1.98008">
        <ele>754</ele>
        <time>2013-08-05T13:02:54Z</time>
      </trkpt>
      <trkpt lat="45.80048" lon="1.98003">
        <ele>754</ele>
        <time>2013-08-05T13:03:00Z</time>
      </trkpt>
      <trkpt lat="45.80038" lon="1.97997">
        <ele>754</ele>
        <time>2013-08-05T13:03:06Z</time>
      </trkpt>
      <trkpt lat="45.80022" lon="1.97986">
        <ele>753</ele>
        <time>2013-08-05T13:03:20Z</time>
      </trkpt>
      <trkpt lat="45.80008" lon="1.97971">
        <ele>753</ele>
        <time>2013-08-05T13:03:34Z</time>
      </trkpt>
      <trkpt lat="45.79991" lon="1.97963">
        <ele>752</ele>
        <time>2013-08-05T13:03:43Z</time>
      </trkpt>
      <trkpt lat="45.79979" lon="1.97952">
        <ele>753</ele>
        <time>2013-08-05T13:03:54Z</time>
      </trkpt>
      <trkpt lat="45.79954" lon="1.97934">
        <ele>753</ele>
        <time>2013-08-05T13:04:11Z</time>
      </trkpt>
      <trkpt lat="45.79948" lon="1.97916">
        <ele>753</ele>
        <time>2013-08-05T13:04:23Z</time>
      </trkpt>
      <trkpt lat="45.79944" lon="1.97905">
        <ele>753</ele>
        <time>2013-08-05T13:04:29Z</time>
      </trkpt>
      <trkpt lat="45.79941" lon="1.97886">
        <ele>753</ele>
        <time>2013-08-05T13:04:35Z</time>
      </trkpt>
      <trkpt lat="45.79939" lon="1.97857">
        <ele>753</ele>
        <time>2013-08-05T13:04:46Z</time>
      </trkpt>
      <trkpt lat="45.79938" lon="1.97851">
        <ele>752</ele>
        <time>2013-08-05T13:04:49Z</time>
      </trkpt>
      <trkpt lat="45.79936" lon="1.97845">
        <ele>752</ele>
        <time>2013-08-05T13:04:53Z</time>
      </trkpt>
      <trkpt lat="45.79935" lon="1.97842">
        <ele>752</ele>
        <time>2013-08-05T13:04:55Z</time>
      </trkpt>
      <trkpt lat="45.79934" lon="1.97839">
        <ele>752</ele>
        <time>2013-08-05T13:04:57Z</time>
      </trkpt>
      <trkpt lat="45.79933" lon="1.97835">
        <ele>752</ele>
        <time>2013-08-05T13:04:59Z</time>
      </trkpt>
      <trkpt lat="45.79927" lon="1.97825">
        <ele>752</ele>
        <time>2013-08-05T13:05:05Z</time>
      </trkpt>
      <trkpt lat="45.79921" lon="1.97798">
        <ele>752</ele>
        <time>2013-08-05T13:05:16Z</time>
      </trkpt>
      <trkpt lat="45.79913" lon="1.97776">
        <ele>751</ele>
        <time>2013-08-05T13:05:28Z</time>
      </trkpt>
      <trkpt lat="45.79901" lon="1.97752">
        <ele>752</ele>
        <time>2013-08-05T13:05:40Z</time>
      </trkpt>
      <trkpt lat="45.79882" lon="1.97725">
        <ele>751</ele>
        <time>2013-08-05T13:05:54Z</time>
      </trkpt>
      <trkpt lat="45.79881" lon="1.977">
        <ele>751</ele>
        <time>2013-08-05T13:06:05Z</time>
      </trkpt>
      <trkpt lat="45.7988" lon="1.9769">
        <ele>750</ele>
        <time>2013-08-05T13:06:10Z</time>
      </trkpt>
      <trkpt lat="45.79871" lon="1.97677">
        <ele>750</ele>
        <time>2013-08-05T13:06:19Z</time>
      </trkpt>
      <trkpt lat="45.79865" lon="1.97667">
        <ele>749</ele>
        <time>2013-08-05T13:06:27Z</time>
      </trkpt>
      <trkpt lat="45.79857" lon="1.97658">
        <ele>749</ele>
        <time>2013-08-05T13:06:32Z</time>
      </trkpt>
      <trkpt lat="45.79839" lon="1.97656">
        <ele>750</ele>
        <time>2013-08-05T13:06:38Z</time>
      </trkpt>
      <trkpt lat="45.79817" lon="1.9765">
        <ele>750</ele>
        <time>2013-08-05T13:06:52Z</time>
      </trkpt>
      <trkpt lat="45.79805" lon="1.97659">
        <ele>751</ele>
        <time>2013-08-05T13:07:03Z</time>
      </trkpt>
      <trkpt lat="45.79794" lon="1.97669">
        <ele>750</ele>
        <time>2013-08-05T13:07:14Z</time>
      </trkpt>
      <trkpt lat="45.79792" lon="1.97673">
        <ele>750</ele>
        <time>2013-08-05T13:07:17Z</time>
      </trkpt>
      <trkpt lat="45.79787" lon="1.9768">
        <ele>750</ele>
        <time>2013-08-05T13:07:23Z</time>
      </trkpt>
      <trkpt lat="45.79778" lon="1.97696">
        <ele>749</ele>
        <time>2013-08-05T13:07:35Z</time>
      </trkpt>
      <trkpt lat="45.79773" lon="1.97705">
        <ele>749</ele>
        <time>2013-08-05T13:07:42Z</time>
      </trkpt>
      <trkpt lat="45.79769" lon="1.97712">
        <ele>749</ele>
        <time>2013-08-05T13:07:47Z</time>
      </trkpt>
      <trkpt lat="45.79755" lon="1.9772">
        <ele>749</ele>
        <time>2013-08-05T13:08:00Z</time>
      </trkpt>
      <trkpt lat="45.79754" lon="1.97722">
        <ele>749</ele>
        <time>2013-08-05T13:08:03Z</time>
      </trkpt>
      <trkpt lat="45.79745" lon="1.97729">
        <ele>749</ele>
        <time>2013-08-05T13:08:11Z</time>
      </trkpt>
      <trkpt lat="45.79736" lon="1.97743">
        <ele>749</ele>
        <time>2013-08-05T13:08:21Z</time>
      </trkpt>
      <trkpt lat="45.7973" lon="1.97751">
        <ele>748</ele>
        <time>2013-08-05T13:08:25Z</time>
      </trkpt>
      <trkpt lat="45.79713" lon="1.97766">
        <ele>748</ele>
        <time>2013-08-05T13:08:37Z</time>
      </trkpt>
      <trkpt lat="45.79702" lon="1.9778">
        <ele>747</ele>
        <time>2013-08-05T13:08:47Z</time>
      </trkpt>
      <trkpt lat="45.79702" lon="1.97781">
        <ele>747</ele>
        <time>2013-08-05T13:08:48Z</time>
      </trkpt>
      <trkpt lat="45.797" lon="1.97785">
        <ele>747</ele>
        <time>2013-08-05T13:08:51Z</time>
      </trkpt>
      <trkpt lat="45.79698" lon="1.97792">
        <ele>747</ele>
        <time>2013-08-05T13:08:55Z</time>
      </trkpt>
      <trkpt lat="45.79696" lon="1.97796">
        <ele>746</ele>
        <time>2013-08-05T13:08:59Z</time>
      </trkpt>
      <trkpt lat="45.79684" lon="1.97819">
        <ele>744</ele>
        <time>2013-08-05T13:09:13Z</time>
      </trkpt>
      <trkpt lat="45.79684" lon="1.97831">
        <ele>741</ele>
        <time>2013-08-05T13:09:25Z</time>
      </trkpt>
      <trkpt lat="45.79683" lon="1.97832">
        <ele>741</ele>
        <time>2013-08-05T13:09:27Z</time>
      </trkpt>
      <trkpt lat="45.79668" lon="1.97847">
        <ele>738</ele>
        <time>2013-08-05T13:09:41Z</time>
      </trkpt>
      <trkpt lat="45.79668" lon="1.97848">
        <ele>738</ele>
        <time>2013-08-05T13:09:42Z</time>
      </trkpt>
      <trkpt lat="45.79662" lon="1.97856">
        <ele>738</ele>
        <time>2013-08-05T13:09:47Z</time>
      </trkpt>
      <trkpt lat="45.79647" lon="1.97875">
        <ele>737</ele>
        <time>2013-08-05T13:10:01Z</time>
      </trkpt>
      <trkpt lat="45.79644" lon="1.97879">
        <ele>736</ele>
        <time>2013-08-05T13:10:05Z</time>
      </trkpt>
      <trkpt lat="45.79628" lon="1.9789">
        <ele>736</ele>
        <time>2013-08-05T13:10:15Z</time>
      </trkpt>
      <trkpt lat="45.79614" lon="1.97905">
        <ele>736</ele>
        <time>2013-08-05T13:10:24Z</time>
      </trkpt>
      <trkpt lat="45.79612" lon="1.9791">
        <ele>736</ele>
        <time>2013-08-05T13:10:28Z</time>
      </trkpt>
      <trkpt lat="45.79605" lon="1.97917">
        <ele>736</ele>
        <time>2013-08-05T13:10:33Z</time>
      </trkpt>
      <trkpt lat="45.79597" lon="1.97923">
        <ele>736</ele>
        <time>2013-08-05T13:10:37Z</time>
      </trkpt>
      <trkpt lat="45.79576" lon="1.97938">
        <ele>734</ele>
        <time>2013-08-05T13:10:52Z</time>
      </trkpt>
      <trkpt lat="45.79576" lon="1.9794">
        <ele>734</ele>
        <time>2013-08-05T13:10:53Z</time>
      </trkpt>
      <trkpt lat="45.79574" lon="1.97943">
        <ele>734</ele>
        <time>2013-08-05T13:10:55Z</time>
      </trkpt>
      <trkpt lat="45.79568" lon="1.97949">
        <ele>733</ele>
        <time>2013-08-05T13:11:02Z</time>
      </trkpt>
      <trkpt lat="45.79562" lon="1.97953">
        <ele>733</ele>
        <time>2013-08-05T13:11:06Z</time>
      </trkpt>
      <trkpt lat="45.79546" lon="1.97977">
        <ele>732</ele>
        <time>2013-08-05T13:11:20Z</time>
      </trkpt>
      <trkpt lat="45.79543" lon="1.97979">
        <ele>731</ele>
        <time>2013-08-05T13:11:22Z</time>
      </trkpt>
      <trkpt lat="45.7953" lon="1.98004">
        <ele>729</ele>
        <time>2013-08-05T13:11:35Z</time>
      </trkpt>
      <trkpt lat="45.79523" lon="1.98012">
        <ele>728</ele>
        <time>2013-08-05T13:11:39Z</time>
      </trkpt>
      <trkpt lat="45.79521" lon="1.98014">
        <ele>729</ele>
        <time>2013-08-05T13:11:40Z</time>
      </trkpt>
      <trkpt lat="45.79519" lon="1.98016">
        <ele>728</ele>
        <time>2013-08-05T13:11:41Z</time>
      </trkpt>
      <trkpt lat="45.79517" lon="1.98021">
        <ele>729</ele>
        <time>2013-08-05T13:11:43Z</time>
      </trkpt>
      <trkpt lat="45.79505" lon="1.9803">
        <ele>729</ele>
        <time>2013-08-05T13:11:49Z</time>
      </trkpt>
      <trkpt lat="45.795" lon="1.98035">
        <ele>728</ele>
        <time>2013-08-05T13:11:52Z</time>
      </trkpt>
      <trkpt lat="45.79494" lon="1.98039">
        <ele>729</ele>
        <time>2013-08-05T13:11:55Z</time>
      </trkpt>
      <trkpt lat="45.79475" lon="1.98054">
        <ele>728</ele>
        <time>2013-08-05T13:12:05Z</time>
      </trkpt>
      <trkpt lat="45.79469" lon="1.9807">
        <ele>729</ele>
        <time>2013-08-05T13:12:12Z</time>
      </trkpt>
      <trkpt lat="45.79473" lon="1.98084">
        <ele>729</ele>
        <time>2013-08-05T13:12:17Z</time>
      </trkpt>
      <trkpt lat="45.79478" lon="1.98095">
        <ele>729</ele>
        <time>2013-08-05T13:12:23Z</time>
      </trkpt>
      <trkpt lat="45.79474" lon="1.98108">
        <ele>729</ele>
        <time>2013-08-05T13:12:31Z</time>
      </trkpt>
      <trkpt lat="45.79452" lon="1.98101">
        <ele>730</ele>
        <time>2013-08-05T13:12:45Z</time>
      </trkpt>
      <trkpt lat="45.79386" lon="1.98125">
        <ele>730</ele>
        <time>2013-08-05T13:13:02Z</time>
      </trkpt>
      <trkpt lat="45.79357" lon="1.98126">
        <ele>729</ele>
        <time>2013-08-05T13:13:13Z</time>
      </trkpt>
      <trkpt lat="45.79338" lon="1.98121">
        <ele>729</ele>
        <time>2013-08-05T13:13:24Z</time>
      </trkpt>
      <trkpt lat="45.79327" lon="1.98121">
        <ele>729</ele>
        <time>2013-08-05T13:13:30Z</time>
      </trkpt>
      <trkpt lat="45.79312" lon="1.98117">
        <ele>728</ele>
        <time>2013-08-05T13:13:42Z</time>
      </trkpt>
      <trkpt lat="45.79302" lon="1.98116">
        <ele>727</ele>
        <time>2013-08-05T13:13:55Z</time>
      </trkpt>
      <trkpt lat="45.79299" lon="1.98116">
        <ele>727</ele>
        <time>2013-08-05T13:13:58Z</time>
      </trkpt>
      <trkpt lat="45.79289" lon="1.98119">
        <ele>726</ele>
        <time>2013-08-05T13:14:06Z</time>
      </trkpt>
      <trkpt lat="45.79272" lon="1.98127">
        <ele>725</ele>
        <time>2013-08-05T13:14:16Z</time>
      </trkpt>
      <trkpt lat="45.79257" lon="1.98132">
        <ele>722</ele>
        <time>2013-08-05T13:14:29Z</time>
      </trkpt>
      <trkpt lat="45.79245" lon="1.98135">
        <ele>719</ele>
        <time>2013-08-05T13:14:43Z</time>
      </trkpt>
      <trkpt lat="45.79234" lon="1.9813">
        <ele>716</ele>
        <time>2013-08-05T13:14:58Z</time>
      </trkpt>
      <trkpt lat="45.79231" lon="1.98128">
        <ele>716</ele>
        <time>2013-08-05T13:15:01Z</time>
      </trkpt>
      <trkpt lat="45.79216" lon="1.98124">
        <ele>716</ele>
        <time>2013-08-05T13:15:11Z</time>
      </trkpt>
      <trkpt lat="45.79191" lon="1.98129">
        <ele>715</ele>
        <time>2013-08-05T13:15:22Z</time>
      </trkpt>
      <trkpt lat="45.79179" lon="1.98133">
        <ele>716</ele>
        <time>2013-08-05T13:15:27Z</time>
      </trkpt>
      <trkpt lat="45.7915" lon="1.98142">
        <ele>716</ele>
        <time>2013-08-05T13:15:42Z</time>
      </trkpt>
      <trkpt lat="45.79146" lon="1.98141">
        <ele>716</ele>
        <time>2013-08-05T13:15:44Z</time>
      </trkpt>
      <trkpt lat="45.79132" lon="1.98133">
        <ele>716</ele>
        <time>2013-08-05T13:15:50Z</time>
      </trkpt>
      <trkpt lat="45.79129" lon="1.98132">
        <ele>716</ele>
        <time>2013-08-05T13:15:52Z</time>
      </trkpt>
      <trkpt lat="45.79117" lon="1.98124">
        <ele>717</ele>
        <time>2013-08-05T13:15:58Z</time>
      </trkpt>
      <trkpt lat="45.79105" lon="1.98113">
        <ele>717</ele>
        <time>2013-08-05T13:16:06Z</time>
      </trkpt>
      <trkpt lat="45.79099" lon="1.98109">
        <ele>717</ele>
        <time>2013-08-05T13:16:10Z</time>
      </trkpt>
      <trkpt lat="45.79093" lon="1.98103">
        <ele>717</ele>
        <time>2013-08-05T13:16:14Z</time>
      </trkpt>
      <trkpt lat="45.79064" lon="1.98086">
        <ele>718</ele>
        <time>2013-08-05T13:16:29Z</time>
      </trkpt>
      <trkpt lat="45.79048" lon="1.98075">
        <ele>719</ele>
        <time>2013-08-05T13:16:39Z</time>
      </trkpt>
      <trkpt lat="45.79042" lon="1.98069">
        <ele>719</ele>
        <time>2013-08-05T13:16:44Z</time>
      </trkpt>
      <trkpt lat="45.7904" lon="1.98068">
        <ele>719</ele>
        <time>2013-08-05T13:16:46Z</time>
      </trkpt>
      <trkpt lat="45.79036" lon="1.98064">
        <ele>719</ele>
        <time>2013-08-05T13:16:50Z</time>
      </trkpt>
      <trkpt lat="45.79019" lon="1.98049">
        <ele>720</ele>
        <time>2013-08-05T13:17:01Z</time>
      </trkpt>
      <trkpt lat="45.79007" lon="1.98036">
        <ele>723</ele>
        <time>2013-08-05T13:17:12Z</time>
      </trkpt>
      <trkpt lat="45.79002" lon="1.98032">
        <ele>723</ele>
        <time>2013-08-05T13:17:17Z</time>
      </trkpt>
      <trkpt lat="45.79" lon="1.98029">
        <ele>724</ele>
        <time>2013-08-05T13:17:19Z</time>
      </trkpt>
      <trkpt lat="45.78997" lon="1.98027">
        <ele>724</ele>
        <time>2013-08-05T13:17:21Z</time>
      </trkpt>
      <trkpt lat="45.78989" lon="1.98016">
        <ele>725</ele>
        <time>2013-08-05T13:17:29Z</time>
      </trkpt>
      <trkpt lat="45.78986" lon="1.98014">
        <ele>725</ele>
        <time>2013-08-05T13:17:31Z</time>
      </trkpt>
      <trkpt lat="45.7898" lon="1.98006">
        <ele>726</ele>
        <time>2013-08-05T13:17:37Z</time>
      </trkpt>
      <trkpt lat="45.78963" lon="1.97988">
        <ele>728</ele>
        <time>2013-08-05T13:17:51Z</time>
      </trkpt>
      <trkpt lat="45.7896" lon="1.97986">
        <ele>728</ele>
        <time>2013-08-05T13:17:53Z</time>
      </trkpt>
      <trkpt lat="45.78941" lon="1.97966">
        <ele>730</ele>
        <time>2013-08-05T13:18:06Z</time>
      </trkpt>
      <trkpt lat="45.78933" lon="1.97961">
        <ele>731</ele>
        <time>2013-08-05T13:18:12Z</time>
      </trkpt>
      <trkpt lat="45.78922" lon="1.97954">
        <ele>732</ele>
        <time>2013-08-05T13:18:24Z</time>
      </trkpt>
      <trkpt lat="45.78913" lon="1.9795">
        <ele>733</ele>
        <time>2013-08-05T13:18:32Z</time>
      </trkpt>
      <trkpt lat="45.78899" lon="1.97948">
        <ele>734</ele>
        <time>2013-08-05T13:18:43Z</time>
      </trkpt>
      <trkpt lat="45.78888" lon="1.97946">
        <ele>735</ele>
        <time>2013-08-05T13:18:51Z</time>
      </trkpt>
      <trkpt lat="45.78871" lon="1.97941">
        <ele>736</ele>
        <time>2013-08-05T13:19:06Z</time>
      </trkpt>
      <trkpt lat="45.78862" lon="1.97941">
        <ele>737</ele>
        <time>2013-08-05T13:19:15Z</time>
      </trkpt>
      <trkpt lat="45.78835" lon="1.97937">
        <ele>737</ele>
        <time>2013-08-05T13:19:30Z</time>
      </trkpt>
      <trkpt lat="45.78821" lon="1.97936">
        <ele>738</ele>
        <time>2013-08-05T13:19:39Z</time>
      </trkpt>
      <trkpt lat="45.78815" lon="1.97935">
        <ele>738</ele>
        <time>2013-08-05T13:19:42Z</time>
      </trkpt>
      <trkpt lat="45.78796" lon="1.9793">
        <ele>737</ele>
        <time>2013-08-05T13:19:55Z</time>
      </trkpt>
      <trkpt lat="45.7878" lon="1.97925">
        <ele>737</ele>
        <time>2013-08-05T13:20:05Z</time>
      </trkpt>
      <trkpt lat="45.78772" lon="1.97921">
        <ele>738</ele>
        <time>2013-08-05T13:20:09Z</time>
      </trkpt>
      <trkpt lat="45.78749" lon="1.97905">
        <ele>739</ele>
        <time>2013-08-05T13:20:23Z</time>
      </trkpt>
      <trkpt lat="45.78743" lon="1.97896">
        <ele>740</ele>
        <time>2013-08-05T13:20:29Z</time>
      </trkpt>
      <trkpt lat="45.78728" lon="1.97872">
        <ele>743</ele>
        <time>2013-08-05T13:20:43Z</time>
      </trkpt>
      <trkpt lat="45.78715" lon="1.97844">
        <ele>745</ele>
        <time>2013-08-05T13:20:58Z</time>
      </trkpt>
      <trkpt lat="45.78718" lon="1.97814">
        <ele>748</ele>
        <time>2013-08-05T13:21:13Z</time>
      </trkpt>
      <trkpt lat="45.78722" lon="1.97795">
        <ele>750</ele>
        <time>2013-08-05T13:21:26Z</time>
      </trkpt>
      <trkpt lat="45.7872" lon="1.97785">
        <ele>751</ele>
        <time>2013-08-05T13:21:32Z</time>
      </trkpt>
      <trkpt lat="45.78719" lon="1.97763">
        <ele>752</ele>
        <time>2013-08-05T13:21:43Z</time>
      </trkpt>
      <trkpt lat="45.78715" lon="1.97744">
        <ele>751</ele>
        <time>2013-08-05T13:21:55Z</time>
      </trkpt>
      <trkpt lat="45.78709" lon="1.97724">
        <ele>750</ele>
        <time>2013-08-05T13:22:06Z</time>
      </trkpt>
      <trkpt lat="45.78707" lon="1.97711">
        <ele>749</ele>
        <time>2013-08-05T13:22:11Z</time>
      </trkpt>
      <trkpt lat="45.78688" lon="1.9768">
        <ele>749</ele>
        <time>2013-08-05T13:22:26Z</time>
      </trkpt>
      <trkpt lat="45.78677" lon="1.9766">
        <ele>748</ele>
        <time>2013-08-05T13:22:36Z</time>
      </trkpt>
      <trkpt lat="45.7866" lon="1.97632">
        <ele>748</ele>
        <time>2013-08-05T13:22:51Z</time>
      </trkpt>
      <trkpt lat="45.78653" lon="1.97632">
        <ele>748</ele>
        <time>2013-08-05T13:22:55Z</time>
      </trkpt>
      <trkpt lat="45.7865" lon="1.97635">
        <ele>748</ele>
        <time>2013-08-05T13:22:57Z</time>
      </trkpt>
      <trkpt lat="45.78641" lon="1.9764">
        <ele>749</ele>
        <time>2013-08-05T13:23:02Z</time>
      </trkpt>
      <trkpt lat="45.78633" lon="1.97646">
        <ele>749</ele>
        <time>2013-08-05T13:23:08Z</time>
      </trkpt>
      <trkpt lat="45.7863" lon="1.97649">
        <ele>749</ele>
        <time>2013-08-05T13:23:11Z</time>
      </trkpt>
      <trkpt lat="45.78618" lon="1.97655">
        <ele>751</ele>
        <time>2013-08-05T13:23:23Z</time>
      </trkpt>
      <trkpt lat="45.78608" lon="1.97659">
        <ele>752</ele>
        <time>2013-08-05T13:23:31Z</time>
      </trkpt>
      <trkpt lat="45.7859" lon="1.97665">
        <ele>753</ele>
        <time>2013-08-05T13:23:44Z</time>
      </trkpt>
      <trkpt lat="45.78584" lon="1.97667">
        <ele>753</ele>
        <time>2013-08-05T13:23:53Z</time>
      </trkpt>
      <trkpt lat="45.78562" lon="1.97677">
        <ele>755</ele>
        <time>2013-08-05T13:24:07Z</time>
      </trkpt>
      <trkpt lat="45.78547" lon="1.97686">
        <ele>755</ele>
        <time>2013-08-05T13:24:17Z</time>
      </trkpt>
      <trkpt lat="45.78528" lon="1.97696">
        <ele>756</ele>
        <time>2013-08-05T13:24:29Z</time>
      </trkpt>
      <trkpt lat="45.78511" lon="1.97702">
        <ele>756</ele>
        <time>2013-08-05T13:24:40Z</time>
      </trkpt>
      <trkpt lat="45.78499" lon="1.97708">
        <ele>756</ele>
        <time>2013-08-05T13:24:47Z</time>
      </trkpt>
      <trkpt lat="45.78492" lon="1.97714">
        <ele>757</ele>
        <time>2013-08-05T13:24:52Z</time>
      </trkpt>
      <trkpt lat="45.78474" lon="1.97724">
        <ele>757</ele>
        <time>2013-08-05T13:25:05Z</time>
      </trkpt>
      <trkpt lat="45.78459" lon="1.97738">
        <ele>757</ele>
        <time>2013-08-05T13:25:16Z</time>
      </trkpt>
      <trkpt lat="45.7845" lon="1.97748">
        <ele>757</ele>
        <time>2013-08-05T13:25:25Z</time>
      </trkpt>
      <trkpt lat="45.78444" lon="1.97756">
        <ele>757</ele>
        <time>2013-08-05T13:25:33Z</time>
      </trkpt>
      <trkpt lat="45.78442" lon="1.97767">
        <ele>757</ele>
        <time>2013-08-05T13:25:40Z</time>
      </trkpt>
      <trkpt lat="45.78433" lon="1.97785">
        <ele>757</ele>
        <time>2013-08-05T13:25:52Z</time>
      </trkpt>
      <trkpt lat="45.78429" lon="1.97804">
        <ele>757</ele>
        <time>2013-08-05T13:25:57Z</time>
      </trkpt>
      <trkpt lat="45.78419" lon="1.97839">
        <ele>756</ele>
        <time>2013-08-05T13:26:09Z</time>
      </trkpt>
      <trkpt lat="45.78418" lon="1.97854">
        <ele>755</ele>
        <time>2013-08-05T13:26:17Z</time>
      </trkpt>
      <trkpt lat="45.78418" lon="1.97861">
        <ele>755</ele>
        <time>2013-08-05T13:26:21Z</time>
      </trkpt>
      <trkpt lat="45.78418" lon="1.97867">
        <ele>755</ele>
        <time>2013-08-05T13:26:25Z</time>
      </trkpt>
      <trkpt lat="45.78418" lon="1.97874">
        <ele>754</ele>
        <time>2013-08-05T13:26:28Z</time>
      </trkpt>
      <trkpt lat="45.78416" lon="1.97889">
        <ele>753</ele>
        <time>2013-08-05T13:26:34Z</time>
      </trkpt>
      <trkpt lat="45.78412" lon="1.97888">
        <ele>753</ele>
        <time>2013-08-05T13:26:38Z</time>
      </trkpt>
      <trkpt lat="45.78403" lon="1.97877">
        <ele>752</ele>
        <time>2013-08-05T13:26:47Z</time>
      </trkpt>
      <trkpt lat="45.78398" lon="1.97872">
        <ele>752</ele>
        <time>2013-08-05T13:26:51Z</time>
      </trkpt>
      <trkpt lat="45.78389" lon="1.97869">
        <ele>752</ele>
        <time>2013-08-05T13:26:57Z</time>
      </trkpt>
      <trkpt lat="45.78376" lon="1.97868">
        <ele>752</ele>
        <time>2013-08-05T13:27:05Z</time>
      </trkpt>
      <trkpt lat="45.78362" lon="1.97874">
        <ele>752</ele>
        <time>2013-08-05T13:27:16Z</time>
      </trkpt>
      <trkpt lat="45.78347" lon="1.97878">
        <ele>752</ele>
        <time>2013-08-05T13:27:27Z</time>
      </trkpt>
      <trkpt lat="45.78326" lon="1.97877">
        <ele>753</ele>
        <time>2013-08-05T13:27:40Z</time>
      </trkpt>
      <trkpt lat="45.78303" lon="1.97874">
        <ele>751</ele>
        <time>2013-08-05T13:27:55Z</time>
      </trkpt>
      <trkpt lat="45.78289" lon="1.97871">
        <ele>750</ele>
        <time>2013-08-05T13:28:04Z</time>
      </trkpt>
      <trkpt lat="45.78287" lon="1.97869">
        <ele>750</ele>
        <time>2013-08-05T13:28:06Z</time>
      </trkpt>
      <trkpt lat="45.78277" lon="1.97866">
        <ele>750</ele>
        <time>2013-08-05T13:28:13Z</time>
      </trkpt>
      <trkpt lat="45.78273" lon="1.97864">
        <ele>749</ele>
        <time>2013-08-05T13:28:16Z</time>
      </trkpt>
      <trkpt lat="45.78268" lon="1.97862">
        <ele>750</ele>
        <time>2013-08-05T13:28:20Z</time>
      </trkpt>
      <trkpt lat="45.78261" lon="1.97861">
        <ele>750</ele>
        <time>2013-08-05T13:28:24Z</time>
      </trkpt>
      <trkpt lat="45.78242" lon="1.97854">
        <ele>748</ele>
        <time>2013-08-05T13:28:36Z</time>
      </trkpt>
      <trkpt lat="45.78215" lon="1.97851">
        <ele>747</ele>
        <time>2013-08-05T13:28:49Z</time>
      </trkpt>
      <trkpt lat="45.78196" lon="1.97839">
        <ele>746</ele>
        <time>2013-08-05T13:29:01Z</time>
      </trkpt>
      <trkpt lat="45.78193" lon="1.97837">
        <ele>746</ele>
        <time>2013-08-05T13:29:03Z</time>
      </trkpt>
      <trkpt lat="45.78187" lon="1.97831">
        <ele>745</ele>
        <time>2013-08-05T13:29:07Z</time>
      </trkpt>
      <trkpt lat="45.78176" lon="1.97816">
        <ele>745</ele>
        <time>2013-08-05T13:29:18Z</time>
      </trkpt>
      <trkpt lat="45.78168" lon="1.97794">
        <ele>744</ele>
        <time>2013-08-05T13:29:30Z</time>
      </trkpt>
      <trkpt lat="45.78162" lon="1.97774">
        <ele>744</ele>
        <time>2013-08-05T13:29:40Z</time>
      </trkpt>
      <trkpt lat="45.78153" lon="1.97741">
        <ele>742</ele>
        <time>2013-08-05T13:29:55Z</time>
      </trkpt>
      <trkpt lat="45.78146" lon="1.97708">
        <ele>741</ele>
        <time>2013-08-05T13:30:09Z</time>
      </trkpt>
      <trkpt lat="45.78145" lon="1.97702">
        <ele>741</ele>
        <time>2013-08-05T13:30:12Z</time>
      </trkpt>
      <trkpt lat="45.7814" lon="1.97681">
        <ele>740</ele>
        <time>2013-08-05T13:30:21Z</time>
      </trkpt>
      <trkpt lat="45.7814" lon="1.97677">
        <ele>740</ele>
        <time>2013-08-05T13:30:23Z</time>
      </trkpt>
      <trkpt lat="45.78126" lon="1.97647">
        <ele>740</ele>
        <time>2013-08-05T13:30:40Z</time>
      </trkpt>
      <trkpt lat="45.7812" lon="1.9764">
        <ele>740</ele>
        <time>2013-08-05T13:30:49Z</time>
      </trkpt>
      <trkpt lat="45.78113" lon="1.97643">
        <ele>739</ele>
        <time>2013-08-05T13:30:53Z</time>
      </trkpt>
      <trkpt lat="45.78095" lon="1.97635">
        <ele>737</ele>
        <time>2013-08-05T13:31:06Z</time>
      </trkpt>
      <trkpt lat="45.78078" lon="1.97624">
        <ele>735</ele>
        <time>2013-08-05T13:31:20Z</time>
      </trkpt>
      <trkpt lat="45.78063" lon="1.97621">
        <ele>733</ele>
        <time>2013-08-05T13:31:31Z</time>
      </trkpt>
      <trkpt lat="45.78039" lon="1.97614">
        <ele>732</ele>
        <time>2013-08-05T13:31:43Z</time>
      </trkpt>
      <trkpt lat="45.78021" lon="1.97611">
        <ele>730</ele>
        <time>2013-08-05T13:31:54Z</time>
      </trkpt>
      <trkpt lat="45.78003" lon="1.97609">
        <ele>728</ele>
        <time>2013-08-05T13:32:07Z</time>
      </trkpt>
      <trkpt lat="45.78" lon="1.9761">
        <ele>728</ele>
        <time>2013-08-05T13:32:09Z</time>
      </trkpt>
      <trkpt lat="45.77983" lon="1.97618">
        <ele>727</ele>
        <time>2013-08-05T13:32:20Z</time>
      </trkpt>
      <trkpt lat="45.77982" lon="1.97618">
        <ele>727</ele>
        <time>2013-08-05T13:32:22Z</time>
      </trkpt>
      <trkpt lat="45.77972" lon="1.97625">
        <ele>723</ele>
        <time>2013-08-05T13:32:29Z</time>
      </trkpt>
      <trkpt lat="45.7797" lon="1.97626">
        <ele>729</ele>
        <time>2013-08-05T13:32:30Z</time>
      </trkpt>
      <trkpt lat="45.77964" lon="1.97629">
        <ele>726</ele>
        <time>2013-08-05T13:32:34Z</time>
      </trkpt>
      <trkpt lat="45.7795" lon="1.97639">
        <ele>725</ele>
        <time>2013-08-05T13:32:45Z</time>
      </trkpt>
      <trkpt lat="45.77944" lon="1.97642">
        <ele>725</ele>
        <time>2013-08-05T13:32:57Z</time>
      </trkpt>
      <trkpt lat="45.77942" lon="1.97642">
        <ele>725</ele>
        <time>2013-08-05T13:33:15Z</time>
      </trkpt>
      <trkpt lat="45.77943" lon="1.97644">
        <ele>726</ele>
        <time>2013-08-05T13:33:38Z</time>
      </trkpt>
      <trkpt lat="45.77941" lon="1.97645">
        <ele>726</ele>
        <time>2013-08-05T13:33:51Z</time>
      </trkpt>
      <trkpt lat="45.77938" lon="1.97644">
        <ele>726</ele>
        <time>2013-08-05T13:34:08Z</time>
      </trkpt>
      <trkpt lat="45.77937" lon="1.97644">
        <ele>726</ele>
        <time>2013-08-05T13:34:31Z</time>
      </trkpt>
      <trkpt lat="45.77934" lon="1.97644">
        <ele>727</ele>
        <time>2013-08-05T13:34:48Z</time>
      </trkpt>
      <trkpt lat="45.77924" lon="1.97641">
        <ele>727</ele>
        <time>2013-08-05T13:35:12Z</time>
      </trkpt>
      <trkpt lat="45.77917" lon="1.97637">
        <ele>727</ele>
        <time>2013-08-05T13:35:18Z</time>
      </trkpt>
      <trkpt lat="45.77911" lon="1.97632">
        <ele>728</ele>
        <time>2013-08-05T13:35:22Z</time>
      </trkpt>
      <trkpt lat="45.77907" lon="1.97632">
        <ele>728</ele>
        <time>2013-08-05T13:35:25Z</time>
      </trkpt>
      <trkpt lat="45.77891" lon="1.97634">
        <ele>728</ele>
        <time>2013-08-05T13:35:35Z</time>
      </trkpt>
      <trkpt lat="45.77884" lon="1.97638">
        <ele>730</ele>
        <time>2013-08-05T13:35:39Z</time>
      </trkpt>
      <trkpt lat="45.77873" lon="1.97645">
        <ele>732</ele>
        <time>2013-08-05T13:35:47Z</time>
      </trkpt>
      <trkpt lat="45.77859" lon="1.97652">
        <ele>735</ele>
        <time>2013-08-05T13:35:59Z</time>
      </trkpt>
      <trkpt lat="45.77842" lon="1.97666">
        <ele>736</ele>
        <time>2013-08-05T13:36:13Z</time>
      </trkpt>
      <trkpt lat="45.7784" lon="1.97669">
        <ele>736</ele>
        <time>2013-08-05T13:36:16Z</time>
      </trkpt>
      <trkpt lat="45.77835" lon="1.97673">
        <ele>736</ele>
        <time>2013-08-05T13:36:20Z</time>
      </trkpt>
      <trkpt lat="45.77825" lon="1.97683">
        <ele>737</ele>
        <time>2013-08-05T13:36:29Z</time>
      </trkpt>
      <trkpt lat="45.77821" lon="1.9769">
        <ele>737</ele>
        <time>2013-08-05T13:36:36Z</time>
      </trkpt>
      <trkpt lat="45.77816" lon="1.97694">
        <ele>738</ele>
        <time>2013-08-05T13:36:40Z</time>
      </trkpt>
      <trkpt lat="45.77803" lon="1.97709">
        <ele>738</ele>
        <time>2013-08-05T13:36:52Z</time>
      </trkpt>
      <trkpt lat="45.778" lon="1.97713">
        <ele>738</ele>
        <time>2013-08-05T13:36:56Z</time>
      </trkpt>
      <trkpt lat="45.77789" lon="1.97733">
        <ele>739</ele>
        <time>2013-08-05T13:37:09Z</time>
      </trkpt>
      <trkpt lat="45.77787" lon="1.97734">
        <ele>740</ele>
        <time>2013-08-05T13:37:14Z</time>
      </trkpt>
      <trkpt lat="45.7777" lon="1.97755">
        <ele>741</ele>
        <time>2013-08-05T13:37:27Z</time>
      </trkpt>
      <trkpt lat="45.77755" lon="1.97768">
        <ele>742</ele>
        <time>2013-08-05T13:37:37Z</time>
      </trkpt>
      <trkpt lat="45.77753" lon="1.9777">
        <ele>742</ele>
        <time>2013-08-05T13:37:39Z</time>
      </trkpt>
      <trkpt lat="45.77747" lon="1.97772">
        <ele>743</ele>
        <time>2013-08-05T13:37:43Z</time>
      </trkpt>
      <trkpt lat="45.7773" lon="1.97782">
        <ele>744</ele>
        <time>2013-08-05T13:37:55Z</time>
      </trkpt>
      <trkpt lat="45.77714" lon="1.97794">
        <ele>747</ele>
        <time>2013-08-05T13:38:11Z</time>
      </trkpt>
      <trkpt lat="45.77705" lon="1.97801">
        <ele>747</ele>
        <time>2013-08-05T13:38:18Z</time>
      </trkpt>
      <trkpt lat="45.77703" lon="1.97802">
        <ele>747</ele>
        <time>2013-08-05T13:38:19Z</time>
      </trkpt>
      <trkpt lat="45.77687" lon="1.97813">
        <ele>747</ele>
        <time>2013-08-05T13:38:28Z</time>
      </trkpt>
      <trkpt lat="45.77669" lon="1.97819">
        <ele>748</ele>
        <time>2013-08-05T13:38:41Z</time>
      </trkpt>
      <trkpt lat="45.77654" lon="1.97818">
        <ele>749</ele>
        <time>2013-08-05T13:38:52Z</time>
      </trkpt>
      <trkpt lat="45.77629" lon="1.9781">
        <ele>752</ele>
        <time>2013-08-05T13:39:06Z</time>
      </trkpt>
      <trkpt lat="45.7761" lon="1.9781">
        <ele>755</ele>
        <time>2013-08-05T13:39:18Z</time>
      </trkpt>
      <trkpt lat="45.77597" lon="1.9781">
        <ele>755</ele>
        <time>2013-08-05T13:39:25Z</time>
      </trkpt>
      <trkpt lat="45.77591" lon="1.97806">
        <ele>756</ele>
        <time>2013-08-05T13:39:29Z</time>
      </trkpt>
      <trkpt lat="45.77586" lon="1.978">
        <ele>756</ele>
        <time>2013-08-05T13:39:34Z</time>
      </trkpt>
      <trkpt lat="45.77578" lon="1.97794">
        <ele>756</ele>
        <time>2013-08-05T13:39:48Z</time>
      </trkpt>
      <trkpt lat="45.77566" lon="1.97785">
        <ele>757</ele>
        <time>2013-08-05T13:40:02Z</time>
      </trkpt>
      <trkpt lat="45.77545" lon="1.97777">
        <ele>758</ele>
        <time>2013-08-05T13:40:17Z</time>
      </trkpt>
      <trkpt lat="45.77534" lon="1.97785">
        <ele>759</ele>
        <time>2013-08-05T13:40:29Z</time>
      </trkpt>
      <trkpt lat="45.77519" lon="1.97803">
        <ele>759</ele>
        <time>2013-08-05T13:40:42Z</time>
      </trkpt>
      <trkpt lat="45.77501" lon="1.97824">
        <ele>758</ele>
        <time>2013-08-05T13:40:56Z</time>
      </trkpt>
      <trkpt lat="45.77499" lon="1.97826">
        <ele>758</ele>
        <time>2013-08-05T13:40:59Z</time>
      </trkpt>
      <trkpt lat="45.77492" lon="1.97845">
        <ele>757</ele>
        <time>2013-08-05T13:41:13Z</time>
      </trkpt>
      <trkpt lat="45.77491" lon="1.97849">
        <ele>757</ele>
        <time>2013-08-05T13:41:15Z</time>
      </trkpt>
      <trkpt lat="45.77496" lon="1.97862">
        <ele>754</ele>
        <time>2013-08-05T13:41:28Z</time>
      </trkpt>
      <trkpt lat="45.77503" lon="1.97866">
        <ele>752</ele>
        <time>2013-08-05T13:41:35Z</time>
      </trkpt>
      <trkpt lat="45.77508" lon="1.9787">
        <ele>751</ele>
        <time>2013-08-05T13:41:41Z</time>
      </trkpt>
      <trkpt lat="45.77522" lon="1.97907">
        <ele>749</ele>
        <time>2013-08-05T13:41:51Z</time>
      </trkpt>
      <trkpt lat="45.77525" lon="1.97911">
        <ele>748</ele>
        <time>2013-08-05T13:41:54Z</time>
      </trkpt>
      <trkpt lat="45.77532" lon="1.97932">
        <ele>746</ele>
        <time>2013-08-05T13:42:04Z</time>
      </trkpt>
      <trkpt lat="45.77525" lon="1.97952">
        <ele>746</ele>
        <time>2013-08-05T13:42:13Z</time>
      </trkpt>
      <trkpt lat="45.77524" lon="1.97967">
        <ele>746</ele>
        <time>2013-08-05T13:42:20Z</time>
      </trkpt>
      <trkpt lat="45.7752" lon="1.97981">
        <ele>746</ele>
        <time>2013-08-05T13:42:26Z</time>
      </trkpt>
      <trkpt lat="45.77511" lon="1.97997">
        <ele>749</ele>
        <time>2013-08-05T13:42:37Z</time>
      </trkpt>
      <trkpt lat="45.77507" lon="1.97999">
        <ele>749</ele>
        <time>2013-08-05T13:42:39Z</time>
      </trkpt>
      <trkpt lat="45.77502" lon="1.98004">
        <ele>749</ele>
        <time>2013-08-05T13:42:43Z</time>
      </trkpt>
      <trkpt lat="45.77491" lon="1.98013">
        <ele>751</ele>
        <time>2013-08-05T13:42:55Z</time>
      </trkpt>
      <trkpt lat="45.7748" lon="1.98025">
        <ele>752</ele>
        <time>2013-08-05T13:43:06Z</time>
      </trkpt>
      <trkpt lat="45.77461" lon="1.98064">
        <ele>755</ele>
        <time>2013-08-05T13:43:19Z</time>
      </trkpt>
      <trkpt lat="45.77466" lon="1.98064">
        <ele>756</ele>
        <time>2013-08-05T13:43:25Z</time>
      </trkpt>
      <trkpt lat="45.7747" lon="1.98059">
        <ele>757</ele>
        <time>2013-08-05T13:43:30Z</time>
      </trkpt>
      <trkpt lat="45.77477" lon="1.98059">
        <ele>757</ele>
        <time>2013-08-05T13:43:35Z</time>
      </trkpt>
      <trkpt lat="45.77496" lon="1.98051">
        <ele>757</ele>
        <time>2013-08-05T13:43:48Z</time>
      </trkpt>
      <trkpt lat="45.77517" lon="1.98037">
        <ele>757</ele>
        <time>2013-08-05T13:44:04Z</time>
      </trkpt>
      <trkpt lat="45.77537" lon="1.98034">
        <ele>757</ele>
        <time>2013-08-05T13:44:16Z</time>
      </trkpt>
      <trkpt lat="45.77562" lon="1.98043">
        <ele>759</ele>
        <time>2013-08-05T13:44:32Z</time>
      </trkpt>
      <trkpt lat="45.77567" lon="1.98045">
        <ele>759</ele>
        <time>2013-08-05T13:44:36Z</time>
      </trkpt>
      <trkpt lat="45.77584" lon="1.98066">
        <ele>761</ele>
        <time>2013-08-05T13:44:51Z</time>
      </trkpt>
      <trkpt lat="45.77585" lon="1.98067">
        <ele>761</ele>
        <time>2013-08-05T13:44:52Z</time>
      </trkpt>
      <trkpt lat="45.77588" lon="1.98071">
        <ele>762</ele>
        <time>2013-08-05T13:44:54Z</time>
      </trkpt>
      <trkpt lat="45.77597" lon="1.98086">
        <ele>762</ele>
        <time>2013-08-05T13:45:03Z</time>
      </trkpt>
      <trkpt lat="45.77608" lon="1.98102">
        <ele>762</ele>
        <time>2013-08-05T13:45:15Z</time>
      </trkpt>
      <trkpt lat="45.77617" lon="1.98113">
        <ele>762</ele>
        <time>2013-08-05T13:45:25Z</time>
      </trkpt>
      <trkpt lat="45.77622" lon="1.98117">
        <ele>761</ele>
        <time>2013-08-05T13:45:30Z</time>
      </trkpt>
      <trkpt lat="45.77642" lon="1.98138">
        <ele>760</ele>
        <time>2013-08-05T13:45:43Z</time>
      </trkpt>
      <trkpt lat="45.77657" lon="1.98159">
        <ele>759</ele>
        <time>2013-08-05T13:45:55Z</time>
      </trkpt>
      <trkpt lat="45.77657" lon="1.9816">
        <ele>759</ele>
        <time>2013-08-05T13:45:56Z</time>
      </trkpt>
      <trkpt lat="45.77667" lon="1.98189">
        <ele>760</ele>
        <time>2013-08-05T13:46:10Z</time>
      </trkpt>
      <trkpt lat="45.7767" lon="1.98197">
        <ele>761</ele>
        <time>2013-08-05T13:46:14Z</time>
      </trkpt>
      <trkpt lat="45.77662" lon="1.98223">
        <ele>762</ele>
        <time>2013-08-05T13:46:25Z</time>
      </trkpt>
      <trkpt lat="45.77654" lon="1.98255">
        <ele>762</ele>
        <time>2013-08-05T13:46:39Z</time>
      </trkpt>
      <trkpt lat="45.77648" lon="1.98277">
        <ele>762</ele>
        <time>2013-08-05T13:46:49Z</time>
      </trkpt>
      <trkpt lat="45.77644" lon="1.98286">
        <ele>762</ele>
        <time>2013-08-05T13:46:53Z</time>
      </trkpt>
      <trkpt lat="45.77635" lon="1.98307">
        <ele>762</ele>
        <time>2013-08-05T13:47:02Z</time>
      </trkpt>
      <trkpt lat="45.77633" lon="1.98313">
        <ele>762</ele>
        <time>2013-08-05T13:47:05Z</time>
      </trkpt>
      <trkpt lat="45.77627" lon="1.98332">
        <ele>761</ele>
        <time>2013-08-05T13:47:17Z</time>
      </trkpt>
      <trkpt lat="45.77619" lon="1.98348">
        <ele>761</ele>
        <time>2013-08-05T13:47:28Z</time>
      </trkpt>
      <trkpt lat="45.77595" lon="1.98366">
        <ele>761</ele>
        <time>2013-08-05T13:47:42Z</time>
      </trkpt>
      <trkpt lat="45.77588" lon="1.98372">
        <ele>761</ele>
        <time>2013-08-05T13:47:47Z</time>
      </trkpt>
      <trkpt lat="45.77571" lon="1.98376">
        <ele>760</ele>
        <time>2013-08-05T13:47:59Z</time>
      </trkpt>
      <trkpt lat="45.77562" lon="1.98375">
        <ele>760</ele>
        <time>2013-08-05T13:48:07Z</time>
      </trkpt>
      <trkpt lat="45.77557" lon="1.98373">
        <ele>759</ele>
        <time>2013-08-05T13:48:10Z</time>
      </trkpt>
      <trkpt lat="45.77543" lon="1.98372">
        <ele>759</ele>
        <time>2013-08-05T13:48:17Z</time>
      </trkpt>
      <trkpt lat="45.77539" lon="1.98373">
        <ele>759</ele>
        <time>2013-08-05T13:48:20Z</time>
      </trkpt>
      <trkpt lat="45.77534" lon="1.98371">
        <ele>759</ele>
        <time>2013-08-05T13:48:23Z</time>
      </trkpt>
      <trkpt lat="45.7753" lon="1.98367">
        <ele>759</ele>
        <time>2013-08-05T13:48:27Z</time>
      </trkpt>
      <trkpt lat="45.77518" lon="1.9837">
        <ele>760</ele>
        <time>2013-08-05T13:48:37Z</time>
      </trkpt>
      <trkpt lat="45.77491" lon="1.98368">
        <ele>762</ele>
        <time>2013-08-05T13:48:53Z</time>
      </trkpt>
      <trkpt lat="45.77481" lon="1.98365">
        <ele>763</ele>
        <time>2013-08-05T13:48:58Z</time>
      </trkpt>
      <trkpt lat="45.77463" lon="1.98357">
        <ele>764</ele>
        <time>2013-08-05T13:49:09Z</time>
      </trkpt>
      <trkpt lat="45.77454" lon="1.98353">
        <ele>765</ele>
        <time>2013-08-05T13:49:15Z</time>
      </trkpt>
      <trkpt lat="45.77451" lon="1.98352">
        <ele>766</ele>
        <time>2013-08-05T13:49:17Z</time>
      </trkpt>
      <trkpt lat="45.77442" lon="1.98345">
        <ele>767</ele>
        <time>2013-08-05T13:49:25Z</time>
      </trkpt>
      <trkpt lat="45.77437" lon="1.98344">
        <ele>767</ele>
        <time>2013-08-05T13:49:28Z</time>
      </trkpt>
      <trkpt lat="45.77419" lon="1.98344">
        <ele>768</ele>
        <time>2013-08-05T13:49:42Z</time>
      </trkpt>
      <trkpt lat="45.7741" lon="1.98352">
        <ele>766</ele>
        <time>2013-08-05T13:49:51Z</time>
      </trkpt>
      <trkpt lat="45.77403" lon="1.98361">
        <ele>765</ele>
        <time>2013-08-05T13:49:59Z</time>
      </trkpt>
      <trkpt lat="45.77398" lon="1.98367">
        <ele>764</ele>
        <time>2013-08-05T13:50:03Z</time>
      </trkpt>
      <trkpt lat="45.77395" lon="1.9837">
        <ele>764</ele>
        <time>2013-08-05T13:50:05Z</time>
      </trkpt>
      <trkpt lat="45.77387" lon="1.98378">
        <ele>762</ele>
        <time>2013-08-05T13:50:14Z</time>
      </trkpt>
      <trkpt lat="45.77375" lon="1.98378">
        <ele>763</ele>
        <time>2013-08-05T13:50:20Z</time>
      </trkpt>
      <trkpt lat="45.7736" lon="1.9836">
        <ele>766</ele>
        <time>2013-08-05T13:50:32Z</time>
      </trkpt>
      <trkpt lat="45.77348" lon="1.9834">
        <ele>768</ele>
        <time>2013-08-05T13:50:44Z</time>
      </trkpt>
      <trkpt lat="45.77335" lon="1.98331">
        <ele>770</ele>
        <time>2013-08-05T13:50:55Z</time>
      </trkpt>
      <trkpt lat="45.77327" lon="1.98328">
        <ele>771</ele>
        <time>2013-08-05T13:51:00Z</time>
      </trkpt>
      <trkpt lat="45.77309" lon="1.98345">
        <ele>774</ele>
        <time>2013-08-05T13:51:14Z</time>
      </trkpt>
      <trkpt lat="45.773" lon="1.98362">
        <ele>774</ele>
        <time>2013-08-05T13:51:26Z</time>
      </trkpt>
      <trkpt lat="45.77296" lon="1.98377">
        <ele>773</ele>
        <time>2013-08-05T13:51:36Z</time>
      </trkpt>
      <trkpt lat="45.77291" lon="1.984">
        <ele>772</ele>
        <time>2013-08-05T13:51:46Z</time>
      </trkpt>
      <trkpt lat="45.7728" lon="1.98424">
        <ele>770</ele>
        <time>2013-08-05T13:52:00Z</time>
      </trkpt>
      <trkpt lat="45.77276" lon="1.98428">
        <ele>770</ele>
        <time>2013-08-05T13:52:03Z</time>
      </trkpt>
      <trkpt lat="45.7727" lon="1.98436">
        <ele>769</ele>
        <time>2013-08-05T13:52:08Z</time>
      </trkpt>
      <trkpt lat="45.77263" lon="1.98445">
        <ele>768</ele>
        <time>2013-08-05T13:52:14Z</time>
      </trkpt>
      <trkpt lat="45.77261" lon="1.98447">
        <ele>769</ele>
        <time>2013-08-05T13:52:16Z</time>
      </trkpt>
      <trkpt lat="45.77258" lon="1.9845">
        <ele>769</ele>
        <time>2013-08-05T13:52:18Z</time>
      </trkpt>
      <trkpt lat="45.77241" lon="1.98465">
        <ele>768</ele>
        <time>2013-08-05T13:52:31Z</time>
      </trkpt>
      <trkpt lat="45.77227" lon="1.98483">
        <ele>767</ele>
        <time>2013-08-05T13:52:45Z</time>
      </trkpt>
      <trkpt lat="45.77226" lon="1.98497">
        <ele>766</ele>
        <time>2013-08-05T13:52:53Z</time>
      </trkpt>
      <trkpt lat="45.77217" lon="1.98542">
        <ele>765</ele>
        <time>2013-08-05T13:53:09Z</time>
      </trkpt>
      <trkpt lat="45.77218" lon="1.98569">
        <ele>762</ele>
        <time>2013-08-05T13:53:21Z</time>
      </trkpt>
      <trkpt lat="45.77218" lon="1.98574">
        <ele>762</ele>
        <time>2013-08-05T13:53:24Z</time>
      </trkpt>
      <trkpt lat="45.77214" lon="1.98598">
        <ele>761</ele>
        <time>2013-08-05T13:53:36Z</time>
      </trkpt>
      <trkpt lat="45.77212" lon="1.98599">
        <ele>761</ele>
        <time>2013-08-05T13:53:38Z</time>
      </trkpt>
      <trkpt lat="45.7721" lon="1.98602">
        <ele>761</ele>
        <time>2013-08-05T13:53:40Z</time>
      </trkpt>
      <trkpt lat="45.77206" lon="1.98604">
        <ele>762</ele>
        <time>2013-08-05T13:53:42Z</time>
      </trkpt>
      <trkpt lat="45.77191" lon="1.98601">
        <ele>762</ele>
        <time>2013-08-05T13:53:51Z</time>
      </trkpt>
      <trkpt lat="45.77174" lon="1.98586">
        <ele>762</ele>
        <time>2013-08-05T13:54:04Z</time>
      </trkpt>
      <trkpt lat="45.77172" lon="1.98582">
        <ele>763</ele>
        <time>2013-08-05T13:54:07Z</time>
      </trkpt>
      <trkpt lat="45.77167" lon="1.98564">
        <ele>764</ele>
        <time>2013-08-05T13:54:16Z</time>
      </trkpt>
      <trkpt lat="45.77162" lon="1.98534">
        <ele>765</ele>
        <time>2013-08-05T13:54:31Z</time>
      </trkpt>
      <trkpt lat="45.77157" lon="1.9851">
        <ele>766</ele>
        <time>2013-08-05T13:54:42Z</time>
      </trkpt>
      <trkpt lat="45.7716" lon="1.98501">
        <ele>767</ele>
        <time>2013-08-05T13:54:47Z</time>
      </trkpt>
      <trkpt lat="45.7716" lon="1.98496">
        <ele>767</ele>
        <time>2013-08-05T13:54:49Z</time>
      </trkpt>
      <trkpt lat="45.7716" lon="1.98488">
        <ele>767</ele>
        <time>2013-08-05T13:54:52Z</time>
      </trkpt>
      <trkpt lat="45.77161" lon="1.98463">
        <ele>768</ele>
        <time>2013-08-05T13:55:04Z</time>
      </trkpt>
      <trkpt lat="45.77161" lon="1.98443">
        <ele>769</ele>
        <time>2013-08-05T13:55:17Z</time>
      </trkpt>
      <trkpt lat="45.77158" lon="1.98437">
        <ele>769</ele>
        <time>2013-08-05T13:55:20Z</time>
      </trkpt>
      <trkpt lat="45.77149" lon="1.98409">
        <ele>770</ele>
        <time>2013-08-05T13:55:32Z</time>
      </trkpt>
      <trkpt lat="45.77136" lon="1.98389">
        <ele>771</ele>
        <time>2013-08-05T13:55:44Z</time>
      </trkpt>
      <trkpt lat="45.77122" lon="1.9838">
        <ele>771</ele>
        <time>2013-08-05T13:55:56Z</time>
      </trkpt>
      <trkpt lat="45.77104" lon="1.98372">
        <ele>772</ele>
        <time>2013-08-05T13:56:10Z</time>
      </trkpt>
      <trkpt lat="45.77097" lon="1.98368">
        <ele>772</ele>
        <time>2013-08-05T13:56:14Z</time>
      </trkpt>
      <trkpt lat="45.77093" lon="1.98365">
        <ele>772</ele>
        <time>2013-08-05T13:56:17Z</time>
      </trkpt>
      <trkpt lat="45.77087" lon="1.98358">
        <ele>773</ele>
        <time>2013-08-05T13:56:23Z</time>
      </trkpt>
      <trkpt lat="45.77085" lon="1.98356">
        <ele>773</ele>
        <time>2013-08-05T13:56:25Z</time>
      </trkpt>
      <trkpt lat="45.77071" lon="1.98348">
        <ele>773</ele>
        <time>2013-08-05T13:56:32Z</time>
      </trkpt>
      <trkpt lat="45.77065" lon="1.98337">
        <ele>774</ele>
        <time>2013-08-05T13:56:39Z</time>
      </trkpt>
      <trkpt lat="45.77055" lon="1.98315">
        <ele>774</ele>
        <time>2013-08-05T13:56:51Z</time>
      </trkpt>
      <trkpt lat="45.77054" lon="1.98311">
        <ele>774</ele>
        <time>2013-08-05T13:56:53Z</time>
      </trkpt>
      <trkpt lat="45.77037" lon="1.98289">
        <ele>775</ele>
        <time>2013-08-05T13:57:07Z</time>
      </trkpt>
      <trkpt lat="45.77035" lon="1.98277">
        <ele>776</ele>
        <time>2013-08-05T13:57:13Z</time>
      </trkpt>
      <trkpt lat="45.77033" lon="1.98262">
        <ele>777</ele>
        <time>2013-08-05T13:57:22Z</time>
      </trkpt>
      <trkpt lat="45.77033" lon="1.98242">
        <ele>778</ele>
        <time>2013-08-05T13:57:33Z</time>
      </trkpt>
      <trkpt lat="45.77032" lon="1.98232">
        <ele>778</ele>
        <time>2013-08-05T13:57:37Z</time>
      </trkpt>
      <trkpt lat="45.77027" lon="1.98205">
        <ele>779</ele>
        <time>2013-08-05T13:57:49Z</time>
      </trkpt>
      <trkpt lat="45.77024" lon="1.98199">
        <ele>779</ele>
        <time>2013-08-05T13:57:52Z</time>
      </trkpt>
      <trkpt lat="45.77011" lon="1.98178">
        <ele>780</ele>
        <time>2013-08-05T13:58:06Z</time>
      </trkpt>
      <trkpt lat="45.77005" lon="1.98167">
        <ele>780</ele>
        <time>2013-08-05T13:58:14Z</time>
      </trkpt>
      <trkpt lat="45.77" lon="1.98149">
        <ele>781</ele>
        <time>2013-08-05T13:58:23Z</time>
      </trkpt>
      <trkpt lat="45.76996" lon="1.98136">
        <ele>781</ele>
        <time>2013-08-05T13:58:29Z</time>
      </trkpt>
      <trkpt lat="45.76994" lon="1.98133">
        <ele>782</ele>
        <time>2013-08-05T13:58:31Z</time>
      </trkpt>
      <trkpt lat="45.76987" lon="1.9813">
        <ele>782</ele>
        <time>2013-08-05T13:58:37Z</time>
      </trkpt>
      <trkpt lat="45.76963" lon="1.98125">
        <ele>781</ele>
        <time>2013-08-05T13:58:51Z</time>
      </trkpt>
      <trkpt lat="45.76945" lon="1.98124">
        <ele>781</ele>
        <time>2013-08-05T13:59:03Z</time>
      </trkpt>
      <trkpt lat="45.76928" lon="1.98122">
        <ele>781</ele>
        <time>2013-08-05T13:59:14Z</time>
      </trkpt>
      <trkpt lat="45.76921" lon="1.9812">
        <ele>782</ele>
        <time>2013-08-05T13:59:18Z</time>
      </trkpt>
      <trkpt lat="45.76894" lon="1.98116">
        <ele>782</ele>
        <time>2013-08-05T13:59:35Z</time>
      </trkpt>
      <trkpt lat="45.76873" lon="1.98112">
        <ele>783</ele>
        <time>2013-08-05T13:59:47Z</time>
      </trkpt>
      <trkpt lat="45.76851" lon="1.9811">
        <ele>783</ele>
        <time>2013-08-05T14:00:00Z</time>
      </trkpt>
      <trkpt lat="45.76846" lon="1.98111">
        <ele>783</ele>
        <time>2013-08-05T14:00:03Z</time>
      </trkpt>
      <trkpt lat="45.76837" lon="1.98114">
        <ele>784</ele>
        <time>2013-08-05T14:00:07Z</time>
      </trkpt>
      <trkpt lat="45.76827" lon="1.98116">
        <ele>783</ele>
        <time>2013-08-05T14:00:13Z</time>
      </trkpt>
      <trkpt lat="45.76807" lon="1.98127">
        <ele>784</ele>
        <time>2013-08-05T14:00:25Z</time>
      </trkpt>
      <trkpt lat="45.76798" lon="1.98133">
        <ele>785</ele>
        <time>2013-08-05T14:00:34Z</time>
      </trkpt>
      <trkpt lat="45.76771" lon="1.9815">
        <ele>786</ele>
        <time>2013-08-05T14:00:50Z</time>
      </trkpt>
      <trkpt lat="45.76749" lon="1.98163">
        <ele>786</ele>
        <time>2013-08-05T14:01:04Z</time>
      </trkpt>
      <trkpt lat="45.76733" lon="1.98176">
        <ele>786</ele>
        <time>2013-08-05T14:01:16Z</time>
      </trkpt>
      <trkpt lat="45.76715" lon="1.98186">
        <ele>787</ele>
        <time>2013-08-05T14:01:27Z</time>
      </trkpt>
      <trkpt lat="45.767" lon="1.98196">
        <ele>788</ele>
        <time>2013-08-05T14:01:38Z</time>
      </trkpt>
      <trkpt lat="45.76697" lon="1.98197">
        <ele>788</ele>
        <time>2013-08-05T14:01:41Z</time>
      </trkpt>
      <trkpt lat="45.76692" lon="1.98202">
        <ele>789</ele>
        <time>2013-08-05T14:01:45Z</time>
      </trkpt>
      <trkpt lat="45.7668" lon="1.9821">
        <ele>789</ele>
        <time>2013-08-05T14:01:53Z</time>
      </trkpt>
      <trkpt lat="45.76675" lon="1.98215">
        <ele>790</ele>
        <time>2013-08-05T14:01:57Z</time>
      </trkpt>
      <trkpt lat="45.76664" lon="1.98222">
        <ele>790</ele>
        <time>2013-08-05T14:02:05Z</time>
      </trkpt>
      <trkpt lat="45.76657" lon="1.98232">
        <ele>791</ele>
        <time>2013-08-05T14:02:12Z</time>
      </trkpt>
      <trkpt lat="45.76639" lon="1.98253">
        <ele>793</ele>
        <time>2013-08-05T14:02:25Z</time>
      </trkpt>
      <trkpt lat="45.76634" lon="1.98259">
        <ele>793</ele>
        <time>2013-08-05T14:02:30Z</time>
      </trkpt>
      <trkpt lat="45.76628" lon="1.98265">
        <ele>794</ele>
        <time>2013-08-05T14:02:35Z</time>
      </trkpt>
      <trkpt lat="45.76627" lon="1.9827">
        <ele>795</ele>
        <time>2013-08-05T14:02:38Z</time>
      </trkpt>
      <trkpt lat="45.76611" lon="1.9828">
        <ele>795</ele>
        <time>2013-08-05T14:02:49Z</time>
      </trkpt>
      <trkpt lat="45.766" lon="1.98302">
        <ele>795</ele>
        <time>2013-08-05T14:03:04Z</time>
      </trkpt>
      <trkpt lat="45.76596" lon="1.9831">
        <ele>795</ele>
        <time>2013-08-05T14:03:08Z</time>
      </trkpt>
      <trkpt lat="45.76593" lon="1.98316">
        <ele>796</ele>
        <time>2013-08-05T14:03:12Z</time>
      </trkpt>
      <trkpt lat="45.76585" lon="1.98338">
        <ele>797</ele>
        <time>2013-08-05T14:03:24Z</time>
      </trkpt>
      <trkpt lat="45.76585" lon="1.98351">
        <ele>797</ele>
        <time>2013-08-05T14:03:32Z</time>
      </trkpt>
      <trkpt lat="45.76576" lon="1.98364">
        <ele>795</ele>
        <time>2013-08-05T14:03:40Z</time>
      </trkpt>
      <trkpt lat="45.76569" lon="1.98366">
        <ele>795</ele>
        <time>2013-08-05T14:03:44Z</time>
      </trkpt>
      <trkpt lat="45.76564" lon="1.98369">
        <ele>794</ele>
        <time>2013-08-05T14:03:47Z</time>
      </trkpt>
      <trkpt lat="45.7655" lon="1.98385">
        <ele>793</ele>
        <time>2013-08-05T14:03:57Z</time>
      </trkpt>
      <trkpt lat="45.76534" lon="1.98411">
        <ele>792</ele>
        <time>2013-08-05T14:04:10Z</time>
      </trkpt>
      <trkpt lat="45.76528" lon="1.98424">
        <ele>791</ele>
        <time>2013-08-05T14:04:18Z</time>
      </trkpt>
      <trkpt lat="45.76514" lon="1.98448">
        <ele>790</ele>
        <time>2013-08-05T14:04:32Z</time>
      </trkpt>
      <trkpt lat="45.7651" lon="1.9846">
        <ele>789</ele>
        <time>2013-08-05T14:04:38Z</time>
      </trkpt>
      <trkpt lat="45.76502" lon="1.9849">
        <ele>788</ele>
        <time>2013-08-05T14:04:52Z</time>
      </trkpt>
      <trkpt lat="45.76491" lon="1.98523">
        <ele>787</ele>
        <time>2013-08-05T14:05:05Z</time>
      </trkpt>
      <trkpt lat="45.76483" lon="1.98534">
        <ele>787</ele>
        <time>2013-08-05T14:05:12Z</time>
      </trkpt>
      <trkpt lat="45.76471" lon="1.98551">
        <ele>787</ele>
        <time>2013-08-05T14:05:22Z</time>
      </trkpt>
      <trkpt lat="45.76457" lon="1.98566">
        <ele>787</ele>
        <time>2013-08-05T14:05:34Z</time>
      </trkpt>
      <trkpt lat="45.76441" lon="1.98576">
        <ele>788</ele>
        <time>2013-08-05T14:05:46Z</time>
      </trkpt>
      <trkpt lat="45.76438" lon="1.98578">
        <ele>788</ele>
        <time>2013-08-05T14:05:48Z</time>
      </trkpt>
      <trkpt lat="45.76431" lon="1.98585">
        <ele>788</ele>
        <time>2013-08-05T14:05:54Z</time>
      </trkpt>
      <trkpt lat="45.76424" lon="1.98593">
        <ele>788</ele>
        <time>2013-08-05T14:06:00Z</time>
      </trkpt>
      <trkpt lat="45.7641" lon="1.98607">
        <ele>787</ele>
        <time>2013-08-05T14:06:11Z</time>
      </trkpt>
      <trkpt lat="45.76392" lon="1.98629">
        <ele>786</ele>
        <time>2013-08-05T14:06:24Z</time>
      </trkpt>
      <trkpt lat="45.7638" lon="1.98639">
        <ele>784</ele>
        <time>2013-08-05T14:06:33Z</time>
      </trkpt>
      <trkpt lat="45.76369" lon="1.98647">
        <ele>784</ele>
        <time>2013-08-05T14:06:40Z</time>
      </trkpt>
      <trkpt lat="45.76361" lon="1.98652">
        <ele>782</ele>
        <time>2013-08-05T14:06:45Z</time>
      </trkpt>
      <trkpt lat="45.76338" lon="1.98659">
        <ele>780</ele>
        <time>2013-08-05T14:06:59Z</time>
      </trkpt>
      <trkpt lat="45.76332" lon="1.9866">
        <ele>780</ele>
        <time>2013-08-05T14:07:02Z</time>
      </trkpt>
      <trkpt lat="45.76322" lon="1.98664">
        <ele>779</ele>
        <time>2013-08-05T14:07:08Z</time>
      </trkpt>
      <trkpt lat="45.76305" lon="1.98671">
        <ele>777</ele>
        <time>2013-08-05T14:07:21Z</time>
      </trkpt>
      <trkpt lat="45.76281" lon="1.98675">
        <ele>775</ele>
        <time>2013-08-05T14:07:34Z</time>
      </trkpt>
      <trkpt lat="45.76262" lon="1.98679">
        <ele>774</ele>
        <time>2013-08-05T14:07:46Z</time>
      </trkpt>
      <trkpt lat="45.76237" lon="1.98677">
        <ele>773</ele>
        <time>2013-08-05T14:08:00Z</time>
      </trkpt>
      <trkpt lat="45.76215" lon="1.98667">
        <ele>772</ele>
        <time>2013-08-05T14:08:11Z</time>
      </trkpt>
      <trkpt lat="45.76196" lon="1.98656">
        <ele>773</ele>
        <time>2013-08-05T14:08:23Z</time>
      </trkpt>
      <trkpt lat="45.76178" lon="1.9864">
        <ele>774</ele>
        <time>2013-08-05T14:08:36Z</time>
      </trkpt>
      <trkpt lat="45.76177" lon="1.98639">
        <ele>773</ele>
        <time>2013-08-05T14:08:40Z</time>
      </trkpt>
      <trkpt lat="45.76175" lon="1.98639">
        <ele>773</ele>
        <time>2013-08-05T14:08:43Z</time>
      </trkpt>
      <trkpt lat="45.76173" lon="1.98634">
        <ele>774</ele>
        <time>2013-08-05T14:08:49Z</time>
      </trkpt>
      <trkpt lat="45.76173" lon="1.9863">
        <ele>774</ele>
        <time>2013-08-05T14:08:58Z</time>
      </trkpt>
      <trkpt lat="45.76173" lon="1.9863">
        <ele>774</ele>
        <time>2013-08-05T14:09:03Z</time>
      </trkpt>
      <trkpt lat="45.76171" lon="1.98624">
        <ele>774</ele>
        <time>2013-08-05T14:09:12Z</time>
      </trkpt>
      <trkpt lat="45.76172" lon="1.98625">
        <ele>774</ele>
        <time>2013-08-05T14:09:26Z</time>
      </trkpt>
      <trkpt lat="45.76172" lon="1.98629">
        <ele>774</ele>
        <time>2013-08-05T14:09:36Z</time>
      </trkpt>
      <trkpt lat="45.76168" lon="1.98629">
        <ele>774</ele>
        <time>2013-08-05T14:09:45Z</time>
      </trkpt>
      <trkpt lat="45.76164" lon="1.98624">
        <ele>774</ele>
        <time>2013-08-05T14:09:55Z</time>
      </trkpt>
      <trkpt lat="45.76164" lon="1.98624">
        <ele>775</ele>
        <time>2013-08-05T14:09:57Z</time>
      </trkpt>
      <trkpt lat="45.7616" lon="1.98616">
        <ele>774</ele>
        <time>2013-08-05T14:10:03Z</time>
      </trkpt>
      <trkpt lat="45.76146" lon="1.98616">
        <ele>776</ele>
        <time>2013-08-05T14:10:11Z</time>
      </trkpt>
      <trkpt lat="45.76136" lon="1.98618">
        <ele>777</ele>
        <time>2013-08-05T14:10:17Z</time>
      </trkpt>
      <trkpt lat="45.76114" lon="1.98618">
        <ele>779</ele>
        <time>2013-08-05T14:10:30Z</time>
      </trkpt>
      <trkpt lat="45.76094" lon="1.98619">
        <ele>780</ele>
        <time>2013-08-05T14:10:42Z</time>
      </trkpt>
      <trkpt lat="45.7608" lon="1.9862">
        <ele>781</ele>
        <time>2013-08-05T14:10:52Z</time>
      </trkpt>
      <trkpt lat="45.76076" lon="1.98622">
        <ele>782</ele>
        <time>2013-08-05T14:10:55Z</time>
      </trkpt>
      <trkpt lat="45.76062" lon="1.98622">
        <ele>783</ele>
        <time>2013-08-05T14:11:03Z</time>
      </trkpt>
      <trkpt lat="45.76055" lon="1.98623">
        <ele>784</ele>
        <time>2013-08-05T14:11:07Z</time>
      </trkpt>
      <trkpt lat="45.76042" lon="1.98623">
        <ele>785</ele>
        <time>2013-08-05T14:11:17Z</time>
      </trkpt>
      <trkpt lat="45.76023" lon="1.98625">
        <ele>787</ele>
        <time>2013-08-05T14:11:29Z</time>
      </trkpt>
      <trkpt lat="45.76019" lon="1.98626">
        <ele>787</ele>
        <time>2013-08-05T14:11:32Z</time>
      </trkpt>
      <trkpt lat="45.76008" lon="1.98626">
        <ele>789</ele>
        <time>2013-08-05T14:11:39Z</time>
      </trkpt>
      <trkpt lat="45.75989" lon="1.98628">
        <ele>790</ele>
        <time>2013-08-05T14:11:53Z</time>
      </trkpt>
      <trkpt lat="45.75971" lon="1.98629">
        <ele>792</ele>
        <time>2013-08-05T14:12:05Z</time>
      </trkpt>
      <trkpt lat="45.7597" lon="1.98629">
        <ele>792</ele>
        <time>2013-08-05T14:12:06Z</time>
      </trkpt>
      <trkpt lat="45.75954" lon="1.98632">
        <ele>794</ele>
        <time>2013-08-05T14:12:17Z</time>
      </trkpt>
      <trkpt lat="45.75946" lon="1.98633">
        <ele>795</ele>
        <time>2013-08-05T14:12:22Z</time>
      </trkpt>
      <trkpt lat="45.75929" lon="1.98634">
        <ele>796</ele>
        <time>2013-08-05T14:12:34Z</time>
      </trkpt>
      <trkpt lat="45.75916" lon="1.98634">
        <ele>798</ele>
        <time>2013-08-05T14:12:42Z</time>
      </trkpt>
      <trkpt lat="45.75909" lon="1.98635">
        <ele>798</ele>
        <time>2013-08-05T14:12:47Z</time>
      </trkpt>
      <trkpt lat="45.7589" lon="1.98637">
        <ele>799</ele>
        <time>2013-08-05T14:13:00Z</time>
      </trkpt>
      <trkpt lat="45.75889" lon="1.98637">
        <ele>799</ele>
        <time>2013-08-05T14:13:01Z</time>
      </trkpt>
      <trkpt lat="45.75882" lon="1.98638">
        <ele>800</ele>
        <time>2013-08-05T14:13:06Z</time>
      </trkpt>
      <trkpt lat="45.75874" lon="1.98642">
        <ele>799</ele>
        <time>2013-08-05T14:13:19Z</time>
      </trkpt>
      <trkpt lat="45.75874" lon="1.98639">
        <ele>799</ele>
        <time>2013-08-05T14:13:24Z</time>
      </trkpt>
      <trkpt lat="45.75873" lon="1.98635">
        <ele>799</ele>
        <time>2013-08-05T14:13:35Z</time>
      </trkpt>
      <trkpt lat="45.75872" lon="1.98636">
        <ele>799</ele>
        <time>2013-08-05T14:13:51Z</time>
      </trkpt>
      <trkpt lat="45.75872" lon="1.98637">
        <ele>800</ele>
        <time>2013-08-05T14:14:11Z</time>
      </trkpt>
      <trkpt lat="45.75872" lon="1.98638">
        <ele>799</ele>
        <time>2013-08-05T14:14:33Z</time>
      </trkpt>
      <trkpt lat="45.75872" lon="1.98638">
        <ele>799</ele>
        <time>2013-08-05T14:14:39Z</time>
      </trkpt>
      <trkpt lat="45.75863" lon="1.98639">
        <ele>799</ele>
        <time>2013-08-05T14:14:52Z</time>
      </trkpt>
      <trkpt lat="45.75861" lon="1.98638">
        <ele>799</ele>
        <time>2013-08-05T14:15:11Z</time>
      </trkpt>
      <trkpt lat="45.7586" lon="1.98639">
        <ele>799</ele>
        <time>2013-08-05T14:15:30Z</time>
      </trkpt>
      <trkpt lat="45.75859" lon="1.98638">
        <ele>799</ele>
        <time>2013-08-05T14:15:56Z</time>
      </trkpt>
      <trkpt lat="45.75858" lon="1.98639">
        <ele>799</ele>
        <time>2013-08-05T14:15:58Z</time>
      </trkpt>
      <trkpt lat="45.75851" lon="1.98644">
        <ele>799</ele>
        <time>2013-08-05T14:16:03Z</time>
      </trkpt>
      <trkpt lat="45.7584" lon="1.98646">
        <ele>800</ele>
        <time>2013-08-05T14:16:09Z</time>
      </trkpt>
      <trkpt lat="45.75827" lon="1.98644">
        <ele>800</ele>
        <time>2013-08-05T14:16:18Z</time>
      </trkpt>
      <trkpt lat="45.75804" lon="1.98645">
        <ele>800</ele>
        <time>2013-08-05T14:16:32Z</time>
      </trkpt>
      <trkpt lat="45.75787" lon="1.98645">
        <ele>800</ele>
        <time>2013-08-05T14:16:44Z</time>
      </trkpt>
      <trkpt lat="45.75769" lon="1.98644">
        <ele>801</ele>
        <time>2013-08-05T14:16:55Z</time>
      </trkpt>
      <trkpt lat="45.75752" lon="1.98646">
        <ele>802</ele>
        <time>2013-08-05T14:17:06Z</time>
      </trkpt>
      <trkpt lat="45.75731" lon="1.98653">
        <ele>803</ele>
        <time>2013-08-05T14:17:21Z</time>
      </trkpt>
      <trkpt lat="45.75721" lon="1.98657">
        <ele>803</ele>
        <time>2013-08-05T14:17:29Z</time>
      </trkpt>
      <trkpt lat="45.75699" lon="1.98664">
        <ele>804</ele>
        <time>2013-08-05T14:17:45Z</time>
      </trkpt>
      <trkpt lat="45.75698" lon="1.98665">
        <ele>804</ele>
        <time>2013-08-05T14:17:46Z</time>
      </trkpt>
      <trkpt lat="45.75674" lon="1.98678">
        <ele>805</ele>
        <time>2013-08-05T14:18:02Z</time>
      </trkpt>
      <trkpt lat="45.75673" lon="1.98679">
        <ele>805</ele>
        <time>2013-08-05T14:18:03Z</time>
      </trkpt>
      <trkpt lat="45.75664" lon="1.98685">
        <ele>805</ele>
        <time>2013-08-05T14:18:10Z</time>
      </trkpt>
      <trkpt lat="45.75652" lon="1.9869">
        <ele>805</ele>
        <time>2013-08-05T14:18:18Z</time>
      </trkpt>
      <trkpt lat="45.75649" lon="1.9869">
        <ele>805</ele>
        <time>2013-08-05T14:18:20Z</time>
      </trkpt>
      <trkpt lat="45.75626" lon="1.987">
        <ele>804</ele>
        <time>2013-08-05T14:18:35Z</time>
      </trkpt>
      <trkpt lat="45.75597" lon="1.987">
        <ele>804</ele>
        <time>2013-08-05T14:18:52Z</time>
      </trkpt>
      <trkpt lat="45.75575" lon="1.98701">
        <ele>805</ele>
        <time>2013-08-05T14:19:06Z</time>
      </trkpt>
      <trkpt lat="45.75554" lon="1.98706">
        <ele>804</ele>
        <time>2013-08-05T14:19:20Z</time>
      </trkpt>
      <trkpt lat="45.75538" lon="1.98711">
        <ele>802</ele>
        <time>2013-08-05T14:19:32Z</time>
      </trkpt>
      <trkpt lat="45.75533" lon="1.98712">
        <ele>801</ele>
        <time>2013-08-05T14:19:36Z</time>
      </trkpt>
      <trkpt lat="45.75509" lon="1.98707">
        <ele>798</ele>
        <time>2013-08-05T14:19:51Z</time>
      </trkpt>
      <trkpt lat="45.75488" lon="1.98697">
        <ele>797</ele>
        <time>2013-08-05T14:20:05Z</time>
      </trkpt>
      <trkpt lat="45.75456" lon="1.9868">
        <ele>797</ele>
        <time>2013-08-05T14:20:25Z</time>
      </trkpt>
      <trkpt lat="45.75438" lon="1.98671">
        <ele>799</ele>
        <time>2013-08-05T14:20:37Z</time>
      </trkpt>
      <trkpt lat="45.75422" lon="1.98663">
        <ele>799</ele>
        <time>2013-08-05T14:20:48Z</time>
      </trkpt>
      <trkpt lat="45.75412" lon="1.9866">
        <ele>800</ele>
        <time>2013-08-05T14:20:55Z</time>
      </trkpt>
      <trkpt lat="45.75397" lon="1.98654">
        <ele>801</ele>
        <time>2013-08-05T14:21:07Z</time>
      </trkpt>
      <trkpt lat="45.75379" lon="1.98644">
        <ele>801</ele>
        <time>2013-08-05T14:21:19Z</time>
      </trkpt>
      <trkpt lat="45.75361" lon="1.98639">
        <ele>801</ele>
        <time>2013-08-05T14:21:33Z</time>
      </trkpt>
      <trkpt lat="45.75354" lon="1.98638">
        <ele>804</ele>
        <time>2013-08-05T14:21:38Z</time>
      </trkpt>
      <trkpt lat="45.75352" lon="1.98638">
        <ele>800</ele>
        <time>2013-08-05T14:21:39Z</time>
      </trkpt>
      <trkpt lat="45.75347" lon="1.98637">
        <ele>794</ele>
        <time>2013-08-05T14:21:42Z</time>
      </trkpt>
      <trkpt lat="45.75346" lon="1.98637">
        <ele>803</ele>
        <time>2013-08-05T14:21:43Z</time>
      </trkpt>
      <trkpt lat="45.75344" lon="1.98637">
        <ele>802</ele>
        <time>2013-08-05T14:21:44Z</time>
      </trkpt>
      <trkpt lat="45.75343" lon="1.98637">
        <ele>798</ele>
        <time>2013-08-05T14:21:45Z</time>
      </trkpt>
      <trkpt lat="45.75341" lon="1.98637">
        <ele>799</ele>
        <time>2013-08-05T14:21:46Z</time>
      </trkpt>
      <trkpt lat="45.75338" lon="1.98637">
        <ele>802</ele>
        <time>2013-08-05T14:21:48Z</time>
      </trkpt>
      <trkpt lat="45.75334" lon="1.98638">
        <ele>795</ele>
        <time>2013-08-05T14:21:50Z</time>
      </trkpt>
      <trkpt lat="45.75333" lon="1.98638">
        <ele>803</ele>
        <time>2013-08-05T14:21:51Z</time>
      </trkpt>
      <trkpt lat="45.75332" lon="1.98638">
        <ele>800</ele>
        <time>2013-08-05T14:21:52Z</time>
      </trkpt>
      <trkpt lat="45.75328" lon="1.98638">
        <ele>796</ele>
        <time>2013-08-05T14:21:55Z</time>
      </trkpt>
      <trkpt lat="45.75327" lon="1.98638">
        <ele>801</ele>
        <time>2013-08-05T14:21:56Z</time>
      </trkpt>
      <trkpt lat="45.75325" lon="1.98638">
        <ele>805</ele>
        <time>2013-08-05T14:21:57Z</time>
      </trkpt>
      <trkpt lat="45.75323" lon="1.98638">
        <ele>800</ele>
        <time>2013-08-05T14:21:58Z</time>
      </trkpt>
      <trkpt lat="45.75301" lon="1.9864">
        <ele>800</ele>
        <time>2013-08-05T14:22:14Z</time>
      </trkpt>
      <trkpt lat="45.75274" lon="1.98644">
        <ele>800</ele>
        <time>2013-08-05T14:22:31Z</time>
      </trkpt>
      <trkpt lat="45.75261" lon="1.98647">
        <ele>800</ele>
        <time>2013-08-05T14:22:40Z</time>
      </trkpt>
      <trkpt lat="45.7524" lon="1.98645">
        <ele>800</ele>
        <time>2013-08-05T14:22:54Z</time>
      </trkpt>
      <trkpt lat="45.75211" lon="1.98648">
        <ele>799</ele>
        <time>2013-08-05T14:23:12Z</time>
      </trkpt>
      <trkpt lat="45.75193" lon="1.98646">
        <ele>798</ele>
        <time>2013-08-05T14:23:27Z</time>
      </trkpt>
      <trkpt lat="45.75169" lon="1.98655">
        <ele>796</ele>
        <time>2013-08-05T14:23:42Z</time>
      </trkpt>
      <trkpt lat="45.75163" lon="1.98654">
        <ele>796</ele>
        <time>2013-08-05T14:23:45Z</time>
      </trkpt>
      <trkpt lat="45.75156" lon="1.98651">
        <ele>795</ele>
        <time>2013-08-05T14:23:49Z</time>
      </trkpt>
      <trkpt lat="45.75132" lon="1.98655">
        <ele>793</ele>
        <time>2013-08-05T14:24:05Z</time>
      </trkpt>
      <trkpt lat="45.7512" lon="1.98649">
        <ele>791</ele>
        <time>2013-08-05T14:24:13Z</time>
      </trkpt>
      <trkpt lat="45.75093" lon="1.98639">
        <ele>789</ele>
        <time>2013-08-05T14:24:29Z</time>
      </trkpt>
      <trkpt lat="45.75064" lon="1.9864">
        <ele>787</ele>
        <time>2013-08-05T14:24:45Z</time>
      </trkpt>
      <trkpt lat="45.75041" lon="1.9864">
        <ele>786</ele>
        <time>2013-08-05T14:25:00Z</time>
      </trkpt>
      <trkpt lat="45.7504" lon="1.98639">
        <ele>786</ele>
        <time>2013-08-05T14:25:01Z</time>
      </trkpt>
      <trkpt lat="45.75018" lon="1.9865">
        <ele>785</ele>
        <time>2013-08-05T14:25:13Z</time>
      </trkpt>
      <trkpt lat="45.74998" lon="1.98655">
        <ele>785</ele>
        <time>2013-08-05T14:25:25Z</time>
      </trkpt>
      <trkpt lat="45.74975" lon="1.98663">
        <ele>785</ele>
        <time>2013-08-05T14:25:38Z</time>
      </trkpt>
      <trkpt lat="45.74952" lon="1.98675">
        <ele>785</ele>
        <time>2013-08-05T14:25:51Z</time>
      </trkpt>
      <trkpt lat="45.7493" lon="1.98686">
        <ele>784</ele>
        <time>2013-08-05T14:26:06Z</time>
      </trkpt>
      <trkpt lat="45.7491" lon="1.98697">
        <ele>785</ele>
        <time>2013-08-05T14:26:20Z</time>
      </trkpt>
      <trkpt lat="45.74893" lon="1.98707">
        <ele>784</ele>
        <time>2013-08-05T14:26:32Z</time>
      </trkpt>
      <trkpt lat="45.74875" lon="1.98718">
        <ele>783</ele>
        <time>2013-08-05T14:26:45Z</time>
      </trkpt>
      <trkpt lat="45.74854" lon="1.98732">
        <ele>781</ele>
        <time>2013-08-05T14:27:00Z</time>
      </trkpt>
      <trkpt lat="45.74829" lon="1.98748">
        <ele>777</ele>
        <time>2013-08-05T14:27:17Z</time>
      </trkpt>
      <trkpt lat="45.74813" lon="1.98766">
        <ele>776</ele>
        <time>2013-08-05T14:27:30Z</time>
      </trkpt>
      <trkpt lat="45.748" lon="1.98786">
        <ele>775</ele>
        <time>2013-08-05T14:27:42Z</time>
      </trkpt>
      <trkpt lat="45.7478" lon="1.98812">
        <ele>775</ele>
        <time>2013-08-05T14:27:58Z</time>
      </trkpt>
      <trkpt lat="45.74753" lon="1.98828">
        <ele>775</ele>
        <time>2013-08-05T14:28:16Z</time>
      </trkpt>
      <trkpt lat="45.74728" lon="1.98838">
        <ele>775</ele>
        <time>2013-08-05T14:28:32Z</time>
      </trkpt>
      <trkpt lat="45.74706" lon="1.98845">
        <ele>775</ele>
        <time>2013-08-05T14:28:46Z</time>
      </trkpt>
      <trkpt lat="45.747" lon="1.98847">
        <ele>775</ele>
        <time>2013-08-05T14:28:51Z</time>
      </trkpt>
      <trkpt lat="45.74692" lon="1.98848">
        <ele>776</ele>
        <time>2013-08-05T14:28:58Z</time>
      </trkpt>
      <trkpt lat="45.74664" lon="1.98862">
        <ele>776</ele>
        <time>2013-08-05T14:29:13Z</time>
      </trkpt>
      <trkpt lat="45.74643" lon="1.98867">
        <ele>777</ele>
        <time>2013-08-05T14:29:28Z</time>
      </trkpt>
      <trkpt lat="45.74619" lon="1.9887">
        <ele>777</ele>
        <time>2013-08-05T14:29:43Z</time>
      </trkpt>
      <trkpt lat="45.74593" lon="1.98876">
        <ele>777</ele>
        <time>2013-08-05T14:29:59Z</time>
      </trkpt>
      <trkpt lat="45.74569" lon="1.98881">
        <ele>777</ele>
        <time>2013-08-05T14:30:13Z</time>
      </trkpt>
      <trkpt lat="45.74545" lon="1.98879">
        <ele>778</ele>
        <time>2013-08-05T14:30:27Z</time>
      </trkpt>
      <trkpt lat="45.74528" lon="1.98878">
        <ele>776</ele>
        <time>2013-08-05T14:30:39Z</time>
      </trkpt>
      <trkpt lat="45.7451" lon="1.98876">
        <ele>777</ele>
        <time>2013-08-05T14:30:50Z</time>
      </trkpt>
      <trkpt lat="45.74505" lon="1.98876">
        <ele>777</ele>
        <time>2013-08-05T14:30:53Z</time>
      </trkpt>
      <trkpt lat="45.74487" lon="1.98876">
        <ele>777</ele>
        <time>2013-08-05T14:31:05Z</time>
      </trkpt>
      <trkpt lat="45.74472" lon="1.98878">
        <ele>777</ele>
        <time>2013-08-05T14:31:14Z</time>
      </trkpt>
      <trkpt lat="45.74452" lon="1.98876">
        <ele>777</ele>
        <time>2013-08-05T14:31:26Z</time>
      </trkpt>
      <trkpt lat="45.74447" lon="1.98876">
        <ele>777</ele>
        <time>2013-08-05T14:31:29Z</time>
      </trkpt>
      <trkpt lat="45.74409" lon="1.98868">
        <ele>778</ele>
        <time>2013-08-05T14:31:42Z</time>
      </trkpt>
      <trkpt lat="45.74395" lon="1.98862">
        <ele>778</ele>
        <time>2013-08-05T14:31:50Z</time>
      </trkpt>
      <trkpt lat="45.74389" lon="1.98859">
        <ele>778</ele>
        <time>2013-08-05T14:31:54Z</time>
      </trkpt>
      <trkpt lat="45.74383" lon="1.98858">
        <ele>778</ele>
        <time>2013-08-05T14:31:58Z</time>
      </trkpt>
      <trkpt lat="45.74376" lon="1.98855">
        <ele>778</ele>
        <time>2013-08-05T14:32:03Z</time>
      </trkpt>
      <trkpt lat="45.74372" lon="1.98852">
        <ele>779</ele>
        <time>2013-08-05T14:32:06Z</time>
      </trkpt>
      <trkpt lat="45.74349" lon="1.98841">
        <ele>780</ele>
        <time>2013-08-05T14:32:21Z</time>
      </trkpt>
      <trkpt lat="45.74348" lon="1.9884">
        <ele>780</ele>
        <time>2013-08-05T14:32:22Z</time>
      </trkpt>
      <trkpt lat="45.74345" lon="1.98836">
        <ele>780</ele>
        <time>2013-08-05T14:32:25Z</time>
      </trkpt>
      <trkpt lat="45.74346" lon="1.98824">
        <ele>780</ele>
        <time>2013-08-05T14:32:31Z</time>
      </trkpt>
      <trkpt lat="45.74357" lon="1.98799">
        <ele>779</ele>
        <time>2013-08-05T14:32:44Z</time>
      </trkpt>
      <trkpt lat="45.74358" lon="1.98794">
        <ele>779</ele>
        <time>2013-08-05T14:32:46Z</time>
      </trkpt>
      <trkpt lat="45.74369" lon="1.9877">
        <ele>778</ele>
        <time>2013-08-05T14:32:59Z</time>
      </trkpt>
      <trkpt lat="45.7438" lon="1.98745">
        <ele>778</ele>
        <time>2013-08-05T14:33:10Z</time>
      </trkpt>
      <trkpt lat="45.74392" lon="1.98724">
        <ele>778</ele>
        <time>2013-08-05T14:33:22Z</time>
      </trkpt>
      <trkpt lat="45.744" lon="1.98714">
        <ele>777</ele>
        <time>2013-08-05T14:33:29Z</time>
      </trkpt>
      <trkpt lat="45.74416" lon="1.98705">
        <ele>777</ele>
        <time>2013-08-05T14:33:39Z</time>
      </trkpt>
      <trkpt lat="45.74428" lon="1.98697">
        <ele>776</ele>
        <time>2013-08-05T14:33:50Z</time>
      </trkpt>
      <trkpt lat="45.74445" lon="1.98681">
        <ele>774</ele>
        <time>2013-08-05T14:34:06Z</time>
      </trkpt>
      <trkpt lat="45.74455" lon="1.98665">
        <ele>774</ele>
        <time>2013-08-05T14:34:16Z</time>
      </trkpt>
      <trkpt lat="45.74458" lon="1.9866">
        <ele>773</ele>
        <time>2013-08-05T14:34:19Z</time>
      </trkpt>
      <trkpt lat="45.74472" lon="1.98641">
        <ele>772</ele>
        <time>2013-08-05T14:34:30Z</time>
      </trkpt>
      <trkpt lat="45.74478" lon="1.98614">
        <ele>770</ele>
        <time>2013-08-05T14:34:43Z</time>
      </trkpt>
      <trkpt lat="45.74481" lon="1.9859">
        <ele>769</ele>
        <time>2013-08-05T14:34:54Z</time>
      </trkpt>
      <trkpt lat="45.74487" lon="1.9856">
        <ele>768</ele>
        <time>2013-08-05T14:35:07Z</time>
      </trkpt>
      <trkpt lat="45.74487" lon="1.98558">
        <ele>768</ele>
        <time>2013-08-05T14:35:08Z</time>
      </trkpt>
      <trkpt lat="45.74488" lon="1.98544">
        <ele>767</ele>
        <time>2013-08-05T14:35:14Z</time>
      </trkpt>
      <trkpt lat="45.74488" lon="1.98536">
        <ele>767</ele>
        <time>2013-08-05T14:35:17Z</time>
      </trkpt>
      <trkpt lat="45.74488" lon="1.9852">
        <ele>767</ele>
        <time>2013-08-05T14:35:28Z</time>
      </trkpt>
      <trkpt lat="45.74488" lon="1.98505">
        <ele>767</ele>
        <time>2013-08-05T14:35:32Z</time>
      </trkpt>
      <trkpt lat="45.74489" lon="1.98463">
        <ele>767</ele>
        <time>2013-08-05T14:35:47Z</time>
      </trkpt>
      <trkpt lat="45.7449" lon="1.98451">
        <ele>766</ele>
        <time>2013-08-05T14:36:04Z</time>
      </trkpt>
      <trkpt lat="45.7449" lon="1.98446">
        <ele>766</ele>
        <time>2013-08-05T14:36:23Z</time>
      </trkpt>
      <trkpt lat="45.74492" lon="1.98442">
        <ele>766</ele>
        <time>2013-08-05T14:36:34Z</time>
      </trkpt>
      <trkpt lat="45.74493" lon="1.98441">
        <ele>766</ele>
        <time>2013-08-05T14:36:50Z</time>
      </trkpt>
      <trkpt lat="45.74493" lon="1.98439">
        <ele>766</ele>
        <time>2013-08-05T14:37:12Z</time>
      </trkpt>
      <trkpt lat="45.74493" lon="1.98437">
        <ele>766</ele>
        <time>2013-08-05T14:37:24Z</time>
      </trkpt>
      <trkpt lat="45.74494" lon="1.98438">
        <ele>766</ele>
        <time>2013-08-05T14:37:42Z</time>
      </trkpt>
      <trkpt lat="45.74493" lon="1.98435">
        <ele>766</ele>
        <time>2013-08-05T14:38:08Z</time>
      </trkpt>
      <trkpt lat="45.74494" lon="1.98435">
        <ele>766</ele>
        <time>2013-08-05T14:38:33Z</time>
      </trkpt>
      <trkpt lat="45.74493" lon="1.98435">
        <ele>766</ele>
        <time>2013-08-05T14:38:52Z</time>
      </trkpt>
      <trkpt lat="45.74493" lon="1.98436">
        <ele>766</ele>
        <time>2013-08-05T14:39:16Z</time>
      </trkpt>
      <trkpt lat="45.74494" lon="1.98436">
        <ele>767</ele>
        <time>2013-08-05T14:39:46Z</time>
      </trkpt>
      <trkpt lat="45.74496" lon="1.98435">
        <ele>766</ele>
        <time>2013-08-05T14:40:08Z</time>
      </trkpt>
      <trkpt lat="45.74496" lon="1.98436">
        <ele>766</ele>
        <time>2013-08-05T14:40:34Z</time>
      </trkpt>
      <trkpt lat="45.74494" lon="1.98435">
        <ele>767</ele>
        <time>2013-08-05T14:40:59Z</time>
      </trkpt>
      <trkpt lat="45.74493" lon="1.98434">
        <ele>766</ele>
        <time>2013-08-05T14:41:30Z</time>
      </trkpt>
      <trkpt lat="45.74495" lon="1.98433">
        <ele>766</ele>
        <time>2013-08-05T14:41:57Z</time>
      </trkpt>
      <trkpt lat="45.74495" lon="1.98433">
        <ele>766</ele>
        <time>2013-08-05T14:42:23Z</time>
      </trkpt>
      <trkpt lat="45.74494" lon="1.98432">
        <ele>766</ele>
        <time>2013-08-05T14:42:44Z</time>
      </trkpt>
      <trkpt lat="45.74493" lon="1.98431">
        <ele>767</ele>
        <time>2013-08-05T14:42:59Z</time>
      </trkpt>
      <trkpt lat="45.74495" lon="1.9843">
        <ele>766</ele>
        <time>2013-08-05T14:43:14Z</time>
      </trkpt>
      <trkpt lat="45.74495" lon="1.9843">
        <ele>766</ele>
        <time>2013-08-05T14:43:35Z</time>
      </trkpt>
      <trkpt lat="45.74493" lon="1.98429">
        <ele>766</ele>
        <time>2013-08-05T14:44:00Z</time>
      </trkpt>
      <trkpt lat="45.74493" lon="1.9843">
        <ele>766</ele>
        <time>2013-08-05T14:44:19Z</time>
      </trkpt>
      <trkpt lat="45.74491" lon="1.98431">
        <ele>766</ele>
        <time>2013-08-05T14:44:42Z</time>
      </trkpt>
      <trkpt lat="45.7449" lon="1.98435">
        <ele>767</ele>
        <time>2013-08-05T14:45:00Z</time>
      </trkpt>
      <trkpt lat="45.7449" lon="1.98433">
        <ele>767</ele>
        <time>2013-08-05T14:45:17Z</time>
      </trkpt>
      <trkpt lat="45.74492" lon="1.98432">
        <ele>767</ele>
        <time>2013-08-05T14:45:34Z</time>
      </trkpt>
      <trkpt lat="45.74493" lon="1.98433">
        <ele>767</ele>
        <time>2013-08-05T14:45:50Z</time>
      </trkpt>
      <trkpt lat="45.74493" lon="1.9843">
        <ele>767</ele>
        <time>2013-08-05T14:46:10Z</time>
      </trkpt>
      <trkpt lat="45.7449" lon="1.98425">
        <ele>767</ele>
        <time>2013-08-05T14:46:31Z</time>
      </trkpt>
      <trkpt lat="45.74495" lon="1.98426">
        <ele>767</ele>
        <time>2013-08-05T14:46:49Z</time>
      </trkpt>
      <trkpt lat="45.74498" lon="1.98425">
        <ele>766</ele>
        <time>2013-08-05T14:47:09Z</time>
      </trkpt>
      <trkpt lat="45.74506" lon="1.98406">
        <ele>766</ele>
        <time>2013-08-05T14:47:20Z</time>
      </trkpt>
      <trkpt lat="45.74509" lon="1.98393">
        <ele>765</ele>
        <time>2013-08-05T14:47:28Z</time>
      </trkpt>
      <trkpt lat="45.74512" lon="1.98382">
        <ele>765</ele>
        <time>2013-08-05T14:47:32Z</time>
      </trkpt>
      <trkpt lat="45.74522" lon="1.98357">
        <ele>763</ele>
        <time>2013-08-05T14:47:47Z</time>
      </trkpt>
      <trkpt lat="45.74538" lon="1.98327">
        <ele>762</ele>
        <time>2013-08-05T14:48:01Z</time>
      </trkpt>
      <trkpt lat="45.74541" lon="1.98317">
        <ele>761</ele>
        <time>2013-08-05T14:48:05Z</time>
      </trkpt>
      <trkpt lat="45.74541" lon="1.98305">
        <ele>761</ele>
        <time>2013-08-05T14:48:10Z</time>
      </trkpt>
      <trkpt lat="45.74544" lon="1.98282">
        <ele>759</ele>
        <time>2013-08-05T14:48:23Z</time>
      </trkpt>
      <trkpt lat="45.74545" lon="1.98263">
        <ele>758</ele>
        <time>2013-08-05T14:48:33Z</time>
      </trkpt>
      <trkpt lat="45.74544" lon="1.98237">
        <ele>757</ele>
        <time>2013-08-05T14:48:44Z</time>
      </trkpt>
      <trkpt lat="45.74544" lon="1.9823">
        <ele>756</ele>
        <time>2013-08-05T14:48:47Z</time>
      </trkpt>
      <trkpt lat="45.7454" lon="1.982">
        <ele>756</ele>
        <time>2013-08-05T14:49:01Z</time>
      </trkpt>
      <trkpt lat="45.74541" lon="1.98163">
        <ele>755</ele>
        <time>2013-08-05T14:49:16Z</time>
      </trkpt>
      <trkpt lat="45.74542" lon="1.98155">
        <ele>755</ele>
        <time>2013-08-05T14:49:20Z</time>
      </trkpt>
      <trkpt lat="45.74542" lon="1.98133">
        <ele>755</ele>
        <time>2013-08-05T14:49:30Z</time>
      </trkpt>
      <trkpt lat="45.74543" lon="1.98115">
        <ele>755</ele>
        <time>2013-08-05T14:49:43Z</time>
      </trkpt>
      <trkpt lat="45.74542" lon="1.9809">
        <ele>756</ele>
        <time>2013-08-05T14:49:58Z</time>
      </trkpt>
      <trkpt lat="45.74541" lon="1.98085">
        <ele>756</ele>
        <time>2013-08-05T14:50:00Z</time>
      </trkpt>
      <trkpt lat="45.74542" lon="1.98077">
        <ele>757</ele>
        <time>2013-08-05T14:50:03Z</time>
      </trkpt>
      <trkpt lat="45.74539" lon="1.98046">
        <ele>759</ele>
        <time>2013-08-05T14:50:15Z</time>
      </trkpt>
      <trkpt lat="45.74546" lon="1.98013">
        <ele>762</ele>
        <time>2013-08-05T14:50:33Z</time>
      </trkpt>
      <trkpt lat="45.74548" lon="1.98009">
        <ele>761</ele>
        <time>2013-08-05T14:50:35Z</time>
      </trkpt>
      <trkpt lat="45.74553" lon="1.97998">
        <ele>762</ele>
        <time>2013-08-05T14:50:40Z</time>
      </trkpt>
      <trkpt lat="45.74563" lon="1.97967">
        <ele>763</ele>
        <time>2013-08-05T14:50:53Z</time>
      </trkpt>
      <trkpt lat="45.74563" lon="1.9796">
        <ele>763</ele>
        <time>2013-08-05T14:50:55Z</time>
      </trkpt>
      <trkpt lat="45.7457" lon="1.97944">
        <ele>764</ele>
        <time>2013-08-05T14:51:03Z</time>
      </trkpt>
      <trkpt lat="45.74571" lon="1.97937">
        <ele>765</ele>
        <time>2013-08-05T14:51:06Z</time>
      </trkpt>
      <trkpt lat="45.74573" lon="1.97931">
        <ele>765</ele>
        <time>2013-08-05T14:51:08Z</time>
      </trkpt>
      <trkpt lat="45.74578" lon="1.97921">
        <ele>765</ele>
        <time>2013-08-05T14:51:14Z</time>
      </trkpt>
      <trkpt lat="45.74589" lon="1.97904">
        <ele>767</ele>
        <time>2013-08-05T14:51:27Z</time>
      </trkpt>
      <trkpt lat="45.7459" lon="1.97903">
        <ele>767</ele>
        <time>2013-08-05T14:51:28Z</time>
      </trkpt>
      <trkpt lat="45.74595" lon="1.97875">
        <ele>767</ele>
        <time>2013-08-05T14:51:42Z</time>
      </trkpt>
      <trkpt lat="45.74595" lon="1.97865">
        <ele>768</ele>
        <time>2013-08-05T14:51:46Z</time>
      </trkpt>
      <trkpt lat="45.74594" lon="1.97853">
        <ele>768</ele>
        <time>2013-08-05T14:51:51Z</time>
      </trkpt>
      <trkpt lat="45.74595" lon="1.9783">
        <ele>768</ele>
        <time>2013-08-05T14:52:03Z</time>
      </trkpt>
      <trkpt lat="45.74595" lon="1.97828">
        <ele>768</ele>
        <time>2013-08-05T14:52:04Z</time>
      </trkpt>
      <trkpt lat="45.74597" lon="1.97809">
        <ele>768</ele>
        <time>2013-08-05T14:52:15Z</time>
      </trkpt>
      <trkpt lat="45.74599" lon="1.97791">
        <ele>768</ele>
        <time>2013-08-05T14:52:26Z</time>
      </trkpt>
      <trkpt lat="45.746" lon="1.97768">
        <ele>767</ele>
        <time>2013-08-05T14:52:36Z</time>
      </trkpt>
      <trkpt lat="45.74597" lon="1.9776">
        <ele>767</ele>
        <time>2013-08-05T14:52:39Z</time>
      </trkpt>
      <trkpt lat="45.74595" lon="1.97742">
        <ele>767</ele>
        <time>2013-08-05T14:52:49Z</time>
      </trkpt>
      <trkpt lat="45.74593" lon="1.97725">
        <ele>766</ele>
        <time>2013-08-05T14:52:58Z</time>
      </trkpt>
      <trkpt lat="45.74591" lon="1.97719">
        <ele>765</ele>
        <time>2013-08-05T14:53:02Z</time>
      </trkpt>
      <trkpt lat="45.74584" lon="1.97699">
        <ele>764</ele>
        <time>2013-08-05T14:53:13Z</time>
      </trkpt>
      <trkpt lat="45.74578" lon="1.9769">
        <ele>764</ele>
        <time>2013-08-05T14:53:17Z</time>
      </trkpt>
      <trkpt lat="45.74574" lon="1.97682">
        <ele>763</ele>
        <time>2013-08-05T14:53:22Z</time>
      </trkpt>
      <trkpt lat="45.74571" lon="1.9767">
        <ele>762</ele>
        <time>2013-08-05T14:53:29Z</time>
      </trkpt>
      <trkpt lat="45.74567" lon="1.97662">
        <ele>762</ele>
        <time>2013-08-05T14:53:33Z</time>
      </trkpt>
      <trkpt lat="45.74557" lon="1.97642">
        <ele>760</ele>
        <time>2013-08-05T14:53:44Z</time>
      </trkpt>
      <trkpt lat="45.74541" lon="1.97619">
        <ele>758</ele>
        <time>2013-08-05T14:53:59Z</time>
      </trkpt>
      <trkpt lat="45.74532" lon="1.9761">
        <ele>757</ele>
        <time>2013-08-05T14:54:07Z</time>
      </trkpt>
      <trkpt lat="45.7453" lon="1.97597">
        <ele>756</ele>
        <time>2013-08-05T14:54:13Z</time>
      </trkpt>
      <trkpt lat="45.74524" lon="1.97572">
        <ele>755</ele>
        <time>2013-08-05T14:54:23Z</time>
      </trkpt>
      <trkpt lat="45.74523" lon="1.97562">
        <ele>755</ele>
        <time>2013-08-05T14:54:28Z</time>
      </trkpt>
      <trkpt lat="45.74519" lon="1.97553">
        <ele>754</ele>
        <time>2013-08-05T14:54:32Z</time>
      </trkpt>
      <trkpt lat="45.74518" lon="1.97542">
        <ele>753</ele>
        <time>2013-08-05T14:54:37Z</time>
      </trkpt>
      <trkpt lat="45.74516" lon="1.97529">
        <ele>752</ele>
        <time>2013-08-05T14:54:46Z</time>
      </trkpt>
      <trkpt lat="45.74514" lon="1.97508">
        <ele>750</ele>
        <time>2013-08-05T14:54:57Z</time>
      </trkpt>
      <trkpt lat="45.74514" lon="1.97504">
        <ele>750</ele>
        <time>2013-08-05T14:55:00Z</time>
      </trkpt>
      <trkpt lat="45.74511" lon="1.97493">
        <ele>749</ele>
        <time>2013-08-05T14:55:06Z</time>
      </trkpt>
      <trkpt lat="45.74509" lon="1.9748">
        <ele>748</ele>
        <time>2013-08-05T14:55:14Z</time>
      </trkpt>
      <trkpt lat="45.74508" lon="1.97471">
        <ele>748</ele>
        <time>2013-08-05T14:55:18Z</time>
      </trkpt>
      <trkpt lat="45.74507" lon="1.97463">
        <ele>748</ele>
        <time>2013-08-05T14:55:22Z</time>
      </trkpt>
      <trkpt lat="45.74505" lon="1.97435">
        <ele>746</ele>
        <time>2013-08-05T14:55:35Z</time>
      </trkpt>
      <trkpt lat="45.74503" lon="1.97401">
        <ele>745</ele>
        <time>2013-08-05T14:55:50Z</time>
      </trkpt>
      <trkpt lat="45.74503" lon="1.9738">
        <ele>744</ele>
        <time>2013-08-05T14:56:01Z</time>
      </trkpt>
      <trkpt lat="45.74498" lon="1.97345">
        <ele>742</ele>
        <time>2013-08-05T14:56:16Z</time>
      </trkpt>
      <trkpt lat="45.74498" lon="1.97339">
        <ele>742</ele>
        <time>2013-08-05T14:56:19Z</time>
      </trkpt>
      <trkpt lat="45.74493" lon="1.97308">
        <ele>741</ele>
        <time>2013-08-05T14:56:33Z</time>
      </trkpt>
      <trkpt lat="45.74489" lon="1.97276">
        <ele>739</ele>
        <time>2013-08-05T14:56:49Z</time>
      </trkpt>
      <trkpt lat="45.74487" lon="1.97262">
        <ele>738</ele>
        <time>2013-08-05T14:56:55Z</time>
      </trkpt>
      <trkpt lat="45.74486" lon="1.97242">
        <ele>737</ele>
        <time>2013-08-05T14:57:04Z</time>
      </trkpt>
      <trkpt lat="45.74492" lon="1.97225">
        <ele>735</ele>
        <time>2013-08-05T14:57:15Z</time>
      </trkpt>
      <trkpt lat="45.74493" lon="1.97218">
        <ele>734</ele>
        <time>2013-08-05T14:57:19Z</time>
      </trkpt>
      <trkpt lat="45.74495" lon="1.97208">
        <ele>734</ele>
        <time>2013-08-05T14:57:23Z</time>
      </trkpt>
      <trkpt lat="45.74501" lon="1.97187">
        <ele>731</ele>
        <time>2013-08-05T14:57:31Z</time>
      </trkpt>
      <trkpt lat="45.74506" lon="1.97177">
        <ele>730</ele>
        <time>2013-08-05T14:57:37Z</time>
      </trkpt>
      <trkpt lat="45.74509" lon="1.97158">
        <ele>729</ele>
        <time>2013-08-05T14:57:44Z</time>
      </trkpt>
      <trkpt lat="45.74512" lon="1.97152">
        <ele>729</ele>
        <time>2013-08-05T14:57:46Z</time>
      </trkpt>
      <trkpt lat="45.74515" lon="1.97149">
        <ele>729</ele>
        <time>2013-08-05T14:57:48Z</time>
      </trkpt>
      <trkpt lat="45.74517" lon="1.97145">
        <ele>729</ele>
        <time>2013-08-05T14:57:50Z</time>
      </trkpt>
      <trkpt lat="45.74521" lon="1.9714">
        <ele>729</ele>
        <time>2013-08-05T14:57:52Z</time>
      </trkpt>
      <trkpt lat="45.74527" lon="1.97136">
        <ele>729</ele>
        <time>2013-08-05T14:57:56Z</time>
      </trkpt>
      <trkpt lat="45.74532" lon="1.97129">
        <ele>728</ele>
        <time>2013-08-05T14:58:01Z</time>
      </trkpt>
      <trkpt lat="45.74533" lon="1.9712">
        <ele>729</ele>
        <time>2013-08-05T14:58:05Z</time>
      </trkpt>
      <trkpt lat="45.74532" lon="1.97093">
        <ele>729</ele>
        <time>2013-08-05T14:58:16Z</time>
      </trkpt>
      <trkpt lat="45.74532" lon="1.9709">
        <ele>728</ele>
        <time>2013-08-05T14:58:17Z</time>
      </trkpt>
      <trkpt lat="45.74531" lon="1.9708">
        <ele>728</ele>
        <time>2013-08-05T14:58:21Z</time>
      </trkpt>
      <trkpt lat="45.74526" lon="1.97063">
        <ele>728</ele>
        <time>2013-08-05T14:58:28Z</time>
      </trkpt>
      <trkpt lat="45.74522" lon="1.97049">
        <ele>727</ele>
        <time>2013-08-05T14:58:34Z</time>
      </trkpt>
      <trkpt lat="45.74517" lon="1.97024">
        <ele>727</ele>
        <time>2013-08-05T14:58:47Z</time>
      </trkpt>
      <trkpt lat="45.74514" lon="1.97011">
        <ele>727</ele>
        <time>2013-08-05T14:58:54Z</time>
      </trkpt>
      <trkpt lat="45.74511" lon="1.96996">
        <ele>727</ele>
        <time>2013-08-05T14:59:00Z</time>
      </trkpt>
      <trkpt lat="45.74505" lon="1.96962">
        <ele>727</ele>
        <time>2013-08-05T14:59:14Z</time>
      </trkpt>
      <trkpt lat="45.74499" lon="1.96937">
        <ele>728</ele>
        <time>2013-08-05T14:59:25Z</time>
      </trkpt>
      <trkpt lat="45.74494" lon="1.96927">
        <ele>728</ele>
        <time>2013-08-05T14:59:29Z</time>
      </trkpt>
      <trkpt lat="45.74486" lon="1.96888">
        <ele>728</ele>
        <time>2013-08-05T14:59:45Z</time>
      </trkpt>
      <trkpt lat="45.74483" lon="1.96874">
        <ele>728</ele>
        <time>2013-08-05T14:59:52Z</time>
      </trkpt>
      <trkpt lat="45.74478" lon="1.96851">
        <ele>728</ele>
        <time>2013-08-05T15:00:02Z</time>
      </trkpt>
      <trkpt lat="45.74471" lon="1.96827">
        <ele>728</ele>
        <time>2013-08-05T15:00:12Z</time>
      </trkpt>
      <trkpt lat="45.74471" lon="1.96825">
        <ele>727</ele>
        <time>2013-08-05T15:00:13Z</time>
      </trkpt>
      <trkpt lat="45.7447" lon="1.9682">
        <ele>728</ele>
        <time>2013-08-05T15:00:16Z</time>
      </trkpt>
      <trkpt lat="45.74463" lon="1.96805">
        <ele>728</ele>
        <time>2013-08-05T15:00:24Z</time>
      </trkpt>
      <trkpt lat="45.74451" lon="1.9679">
        <ele>727</ele>
        <time>2013-08-05T15:00:35Z</time>
      </trkpt>
      <trkpt lat="45.7445" lon="1.96788">
        <ele>727</ele>
        <time>2013-08-05T15:00:36Z</time>
      </trkpt>
      <trkpt lat="45.74432" lon="1.96773">
        <ele>726</ele>
        <time>2013-08-05T15:00:50Z</time>
      </trkpt>
      <trkpt lat="45.7442" lon="1.96748">
        <ele>726</ele>
        <time>2013-08-05T15:01:02Z</time>
      </trkpt>
      <trkpt lat="45.74423" lon="1.96704">
        <ele>725</ele>
        <time>2013-08-05T15:01:17Z</time>
      </trkpt>
      <trkpt lat="45.74425" lon="1.96695">
        <ele>724</ele>
        <time>2013-08-05T15:01:21Z</time>
      </trkpt>
      <trkpt lat="45.7443" lon="1.96686">
        <ele>724</ele>
        <time>2013-08-05T15:01:25Z</time>
      </trkpt>
      <trkpt lat="45.74443" lon="1.96658">
        <ele>723</ele>
        <time>2013-08-05T15:01:38Z</time>
      </trkpt>
      <trkpt lat="45.74449" lon="1.96653">
        <ele>723</ele>
        <time>2013-08-05T15:01:42Z</time>
      </trkpt>
      <trkpt lat="45.74451" lon="1.96646">
        <ele>723</ele>
        <time>2013-08-05T15:01:46Z</time>
      </trkpt>
      <trkpt lat="45.74452" lon="1.96641">
        <ele>723</ele>
        <time>2013-08-05T15:01:48Z</time>
      </trkpt>
      <trkpt lat="45.74453" lon="1.96635">
        <ele>723</ele>
        <time>2013-08-05T15:01:51Z</time>
      </trkpt>
      <trkpt lat="45.74452" lon="1.96632">
        <ele>723</ele>
        <time>2013-08-05T15:01:53Z</time>
      </trkpt>
      <trkpt lat="45.74443" lon="1.966">
        <ele>723</ele>
        <time>2013-08-05T15:02:07Z</time>
      </trkpt>
      <trkpt lat="45.74427" lon="1.96565">
        <ele>722</ele>
        <time>2013-08-05T15:02:21Z</time>
      </trkpt>
      <trkpt lat="45.74418" lon="1.9654">
        <ele>722</ele>
        <time>2013-08-05T15:02:33Z</time>
      </trkpt>
      <trkpt lat="45.74411" lon="1.9652">
        <ele>722</ele>
        <time>2013-08-05T15:02:43Z</time>
      </trkpt>
      <trkpt lat="45.74401" lon="1.96495">
        <ele>722</ele>
        <time>2013-08-05T15:02:56Z</time>
      </trkpt>
      <trkpt lat="45.74392" lon="1.96466">
        <ele>721</ele>
        <time>2013-08-05T15:03:11Z</time>
      </trkpt>
      <trkpt lat="45.74392" lon="1.96434">
        <ele>721</ele>
        <time>2013-08-05T15:03:25Z</time>
      </trkpt>
      <trkpt lat="45.74394" lon="1.96412">
        <ele>721</ele>
        <time>2013-08-05T15:03:34Z</time>
      </trkpt>
      <trkpt lat="45.74396" lon="1.96399">
        <ele>721</ele>
        <time>2013-08-05T15:03:40Z</time>
      </trkpt>
      <trkpt lat="45.74403" lon="1.96372">
        <ele>721</ele>
        <time>2013-08-05T15:03:52Z</time>
      </trkpt>
      <trkpt lat="45.74407" lon="1.96357">
        <ele>721</ele>
        <time>2013-08-05T15:03:59Z</time>
      </trkpt>
      <trkpt lat="45.74411" lon="1.96342">
        <ele>720</ele>
        <time>2013-08-05T15:04:05Z</time>
      </trkpt>
      <trkpt lat="45.74414" lon="1.96313">
        <ele>719</ele>
        <time>2013-08-05T15:04:16Z</time>
      </trkpt>
      <trkpt lat="45.74414" lon="1.96278">
        <ele>719</ele>
        <time>2013-08-05T15:04:28Z</time>
      </trkpt>
      <trkpt lat="45.74416" lon="1.96267">
        <ele>718</ele>
        <time>2013-08-05T15:04:33Z</time>
      </trkpt>
      <trkpt lat="45.74421" lon="1.96247">
        <ele>718</ele>
        <time>2013-08-05T15:04:43Z</time>
      </trkpt>
      <trkpt lat="45.74422" lon="1.96239">
        <ele>718</ele>
        <time>2013-08-05T15:04:47Z</time>
      </trkpt>
      <trkpt lat="45.74419" lon="1.96236">
        <ele>718</ele>
        <time>2013-08-05T15:04:51Z</time>
      </trkpt>
      <trkpt lat="45.74401" lon="1.96235">
        <ele>719</ele>
        <time>2013-08-05T15:05:02Z</time>
      </trkpt>
      <trkpt lat="45.74394" lon="1.96218">
        <ele>719</ele>
        <time>2013-08-05T15:05:10Z</time>
      </trkpt>
      <trkpt lat="45.74398" lon="1.96199">
        <ele>719</ele>
        <time>2013-08-05T15:05:17Z</time>
      </trkpt>
      <trkpt lat="45.74405" lon="1.96182">
        <ele>719</ele>
        <time>2013-08-05T15:05:25Z</time>
      </trkpt>
      <trkpt lat="45.7441" lon="1.96169">
        <ele>720</ele>
        <time>2013-08-05T15:05:30Z</time>
      </trkpt>
      <trkpt lat="45.74419" lon="1.96144">
        <ele>720</ele>
        <time>2013-08-05T15:05:44Z</time>
      </trkpt>
      <trkpt lat="45.74421" lon="1.96138">
        <ele>720</ele>
        <time>2013-08-05T15:05:47Z</time>
      </trkpt>
      <trkpt lat="45.74421" lon="1.96135">
        <ele>720</ele>
        <time>2013-08-05T15:05:49Z</time>
      </trkpt>
      <trkpt lat="45.74428" lon="1.96104">
        <ele>721</ele>
        <time>2013-08-05T15:06:05Z</time>
      </trkpt>
      <trkpt lat="45.74434" lon="1.96072">
        <ele>723</ele>
        <time>2013-08-05T15:06:20Z</time>
      </trkpt>
      <trkpt lat="45.74435" lon="1.96069">
        <ele>723</ele>
        <time>2013-08-05T15:06:22Z</time>
      </trkpt>
      <trkpt lat="45.74437" lon="1.96053">
        <ele>724</ele>
        <time>2013-08-05T15:06:29Z</time>
      </trkpt>
      <trkpt lat="45.74437" lon="1.96042">
        <ele>724</ele>
        <time>2013-08-05T15:06:34Z</time>
      </trkpt>
      <trkpt lat="45.74439" lon="1.96033">
        <ele>724</ele>
        <time>2013-08-05T15:06:39Z</time>
      </trkpt>
      <trkpt lat="45.74443" lon="1.96006">
        <ele>724</ele>
        <time>2013-08-05T15:06:52Z</time>
      </trkpt>
      <trkpt lat="45.74446" lon="1.95996">
        <ele>723</ele>
        <time>2013-08-05T15:06:57Z</time>
      </trkpt>
      <trkpt lat="45.74453" lon="1.95984">
        <ele>723</ele>
        <time>2013-08-05T15:07:04Z</time>
      </trkpt>
      <trkpt lat="45.74458" lon="1.95978">
        <ele>723</ele>
        <time>2013-08-05T15:07:09Z</time>
      </trkpt>
      <trkpt lat="45.74461" lon="1.95968">
        <ele>722</ele>
        <time>2013-08-05T15:07:15Z</time>
      </trkpt>
      <trkpt lat="45.74465" lon="1.95959">
        <ele>721</ele>
        <time>2013-08-05T15:07:19Z</time>
      </trkpt>
      <trkpt lat="45.74472" lon="1.95954">
        <ele>721</ele>
        <time>2013-08-05T15:07:24Z</time>
      </trkpt>
      <trkpt lat="45.74478" lon="1.95933">
        <ele>719</ele>
        <time>2013-08-05T15:07:33Z</time>
      </trkpt>
      <trkpt lat="45.74481" lon="1.95928">
        <ele>718</ele>
        <time>2013-08-05T15:07:35Z</time>
      </trkpt>
      <trkpt lat="45.74486" lon="1.95915">
        <ele>717</ele>
        <time>2013-08-05T15:07:39Z</time>
      </trkpt>
      <trkpt lat="45.74484" lon="1.95894">
        <ele>717</ele>
        <time>2013-08-05T15:07:45Z</time>
      </trkpt>
      <trkpt lat="45.74482" lon="1.95875">
        <ele>717</ele>
        <time>2013-08-05T15:07:52Z</time>
      </trkpt>
      <trkpt lat="45.74482" lon="1.95871">
        <ele>717</ele>
        <time>2013-08-05T15:07:54Z</time>
      </trkpt>
      <trkpt lat="45.74481" lon="1.95851">
        <ele>717</ele>
        <time>2013-08-05T15:08:02Z</time>
      </trkpt>
      <trkpt lat="45.7448" lon="1.95835">
        <ele>718</ele>
        <time>2013-08-05T15:08:07Z</time>
      </trkpt>
      <trkpt lat="45.74481" lon="1.95828">
        <ele>718</ele>
        <time>2013-08-05T15:08:10Z</time>
      </trkpt>
      <trkpt lat="45.74481" lon="1.9582">
        <ele>718</ele>
        <time>2013-08-05T15:08:14Z</time>
      </trkpt>
      <trkpt lat="45.74484" lon="1.95805">
        <ele>718</ele>
        <time>2013-08-05T15:08:19Z</time>
      </trkpt>
      <trkpt lat="45.74488" lon="1.95795">
        <ele>718</ele>
        <time>2013-08-05T15:08:21Z</time>
      </trkpt>
      <trkpt lat="45.74494" lon="1.95782">
        <ele>717</ele>
        <time>2013-08-05T15:08:23Z</time>
      </trkpt>
      <trkpt lat="45.74497" lon="1.95775">
        <ele>718</ele>
        <time>2013-08-05T15:08:24Z</time>
      </trkpt>
      <trkpt lat="45.74501" lon="1.95768">
        <ele>718</ele>
        <time>2013-08-05T15:08:25Z</time>
      </trkpt>
      <trkpt lat="45.74508" lon="1.95756">
        <ele>719</ele>
        <time>2013-08-05T15:08:27Z</time>
      </trkpt>
      <trkpt lat="45.74515" lon="1.95743">
        <ele>719</ele>
        <time>2013-08-05T15:08:29Z</time>
      </trkpt>
      <trkpt lat="45.74518" lon="1.95736">
        <ele>719</ele>
        <time>2013-08-05T15:08:30Z</time>
      </trkpt>
      <trkpt lat="45.74521" lon="1.95728">
        <ele>720</ele>
        <time>2013-08-05T15:08:31Z</time>
      </trkpt>
      <trkpt lat="45.74523" lon="1.95719">
        <ele>720</ele>
        <time>2013-08-05T15:08:32Z</time>
      </trkpt>
      <trkpt lat="45.74525" lon="1.9571">
        <ele>720</ele>
        <time>2013-08-05T15:08:33Z</time>
      </trkpt>
      <trkpt lat="45.7453" lon="1.9569">
        <ele>721</ele>
        <time>2013-08-05T15:08:35Z</time>
      </trkpt>
      <trkpt lat="45.74532" lon="1.9568">
        <ele>722</ele>
        <time>2013-08-05T15:08:36Z</time>
      </trkpt>
      <trkpt lat="45.74533" lon="1.95671">
        <ele>722</ele>
        <time>2013-08-05T15:08:37Z</time>
      </trkpt>
      <trkpt lat="45.74535" lon="1.95661">
        <ele>723</ele>
        <time>2013-08-05T15:08:38Z</time>
      </trkpt>
      <trkpt lat="45.74537" lon="1.95652">
        <ele>723</ele>
        <time>2013-08-05T15:08:39Z</time>
      </trkpt>
      <trkpt lat="45.74538" lon="1.95642">
        <ele>724</ele>
        <time>2013-08-05T15:08:40Z</time>
      </trkpt>
      <trkpt lat="45.74541" lon="1.95619">
        <ele>725</ele>
        <time>2013-08-05T15:08:43Z</time>
      </trkpt>
      <trkpt lat="45.74552" lon="1.9558">
        <ele>728</ele>
        <time>2013-08-05T15:08:49Z</time>
      </trkpt>
      <trkpt lat="45.74554" lon="1.95574">
        <ele>727</ele>
        <time>2013-08-05T15:08:50Z</time>
      </trkpt>
      <trkpt lat="45.74566" lon="1.95544">
        <ele>728</ele>
        <time>2013-08-05T15:08:54Z</time>
      </trkpt>
      <trkpt lat="45.74568" lon="1.95536">
        <ele>728</ele>
        <time>2013-08-05T15:08:55Z</time>
      </trkpt>
      <trkpt lat="45.74569" lon="1.95529">
        <ele>728</ele>
        <time>2013-08-05T15:08:56Z</time>
      </trkpt>
      <trkpt lat="45.74576" lon="1.95441">
        <ele>732</ele>
        <time>2013-08-05T15:09:07Z</time>
      </trkpt>
      <trkpt lat="45.74576" lon="1.95434">
        <ele>732</ele>
        <time>2013-08-05T15:09:08Z</time>
      </trkpt>
      <trkpt lat="45.74572" lon="1.95382">
        <ele>734</ele>
        <time>2013-08-05T15:09:15Z</time>
      </trkpt>
      <trkpt lat="45.74572" lon="1.95366">
        <ele>735</ele>
        <time>2013-08-05T15:09:17Z</time>
      </trkpt>
      <trkpt lat="45.74571" lon="1.95358">
        <ele>735</ele>
        <time>2013-08-05T15:09:18Z</time>
      </trkpt>
      <trkpt lat="45.74567" lon="1.95325">
        <ele>737</ele>
        <time>2013-08-05T15:09:22Z</time>
      </trkpt>
      <trkpt lat="45.74557" lon="1.95288">
        <ele>738</ele>
        <time>2013-08-05T15:09:31Z</time>
      </trkpt>
      <trkpt lat="45.74544" lon="1.95267">
        <ele>740</ele>
        <time>2013-08-05T15:09:44Z</time>
      </trkpt>
      <trkpt lat="45.74524" lon="1.95246">
        <ele>740</ele>
        <time>2013-08-05T15:09:57Z</time>
      </trkpt>
      <trkpt lat="45.74507" lon="1.95218">
        <ele>741</ele>
        <time>2013-08-05T15:10:09Z</time>
      </trkpt>
      <trkpt lat="45.74491" lon="1.95198">
        <ele>742</ele>
        <time>2013-08-05T15:10:23Z</time>
      </trkpt>
      <trkpt lat="45.74476" lon="1.95179">
        <ele>743</ele>
        <time>2013-08-05T15:10:36Z</time>
      </trkpt>
      <trkpt lat="45.74465" lon="1.95159">
        <ele>744</ele>
        <time>2013-08-05T15:10:47Z</time>
      </trkpt>
      <trkpt lat="45.74455" lon="1.95143">
        <ele>745</ele>
        <time>2013-08-05T15:10:58Z</time>
      </trkpt>
      <trkpt lat="45.74453" lon="1.95142">
        <ele>745</ele>
        <time>2013-08-05T15:10:59Z</time>
      </trkpt>
      <trkpt lat="45.74451" lon="1.9514">
        <ele>745</ele>
        <time>2013-08-05T15:11:00Z</time>
      </trkpt>
      <trkpt lat="45.7445" lon="1.95138">
        <ele>745</ele>
        <time>2013-08-05T15:11:01Z</time>
      </trkpt>
      <trkpt lat="45.74449" lon="1.95136">
        <ele>745</ele>
        <time>2013-08-05T15:11:02Z</time>
      </trkpt>
      <trkpt lat="45.74447" lon="1.95134">
        <ele>745</ele>
        <time>2013-08-05T15:11:03Z</time>
      </trkpt>
      <trkpt lat="45.74446" lon="1.95132">
        <ele>745</ele>
        <time>2013-08-05T15:11:04Z</time>
      </trkpt>
      <trkpt lat="45.74445" lon="1.9513">
        <ele>746</ele>
        <time>2013-08-05T15:11:05Z</time>
      </trkpt>
      <trkpt lat="45.74435" lon="1.95113">
        <ele>746</ele>
        <time>2013-08-05T15:11:15Z</time>
      </trkpt>
      <trkpt lat="45.74434" lon="1.95112">
        <ele>746</ele>
        <time>2013-08-05T15:11:16Z</time>
      </trkpt>
      <trkpt lat="45.74434" lon="1.9511">
        <ele>746</ele>
        <time>2013-08-05T15:11:17Z</time>
      </trkpt>
      <trkpt lat="45.74433" lon="1.95107">
        <ele>746</ele>
        <time>2013-08-05T15:11:18Z</time>
      </trkpt>
      <trkpt lat="45.74432" lon="1.95105">
        <ele>746</ele>
        <time>2013-08-05T15:11:19Z</time>
      </trkpt>
      <trkpt lat="45.74423" lon="1.95082">
        <ele>747</ele>
        <time>2013-08-05T15:11:32Z</time>
      </trkpt>
      <trkpt lat="45.7442" lon="1.95076">
        <ele>747</ele>
        <time>2013-08-05T15:11:37Z</time>
      </trkpt>
      <trkpt lat="45.74419" lon="1.95074">
        <ele>747</ele>
        <time>2013-08-05T15:11:38Z</time>
      </trkpt>
      <trkpt lat="45.74418" lon="1.95072">
        <ele>747</ele>
        <time>2013-08-05T15:11:39Z</time>
      </trkpt>
      <trkpt lat="45.74416" lon="1.9507">
        <ele>748</ele>
        <time>2013-08-05T15:11:40Z</time>
      </trkpt>
      <trkpt lat="45.74416" lon="1.95068">
        <ele>748</ele>
        <time>2013-08-05T15:11:41Z</time>
      </trkpt>
      <trkpt lat="45.74415" lon="1.95067">
        <ele>748</ele>
        <time>2013-08-05T15:11:42Z</time>
      </trkpt>
      <trkpt lat="45.74403" lon="1.9505">
        <ele>749</ele>
        <time>2013-08-05T15:11:53Z</time>
      </trkpt>
      <trkpt lat="45.74392" lon="1.95037">
        <ele>750</ele>
        <time>2013-08-05T15:12:02Z</time>
      </trkpt>
      <trkpt lat="45.7439" lon="1.95036">
        <ele>750</ele>
        <time>2013-08-05T15:12:03Z</time>
      </trkpt>
      <trkpt lat="45.74389" lon="1.95034">
        <ele>750</ele>
        <time>2013-08-05T15:12:04Z</time>
      </trkpt>
      <trkpt lat="45.74373" lon="1.95014">
        <ele>751</ele>
        <time>2013-08-05T15:12:18Z</time>
      </trkpt>
      <trkpt lat="45.74367" lon="1.95003">
        <ele>752</ele>
        <time>2013-08-05T15:12:26Z</time>
      </trkpt>
      <trkpt lat="45.74367" lon="1.95001">
        <ele>752</ele>
        <time>2013-08-05T15:12:27Z</time>
      </trkpt>
      <trkpt lat="45.74367" lon="1.94999">
        <ele>752</ele>
        <time>2013-08-05T15:12:28Z</time>
      </trkpt>
      <trkpt lat="45.74367" lon="1.94997">
        <ele>752</ele>
        <time>2013-08-05T15:12:29Z</time>
      </trkpt>
      <trkpt lat="45.74366" lon="1.9499">
        <ele>753</ele>
        <time>2013-08-05T15:12:33Z</time>
      </trkpt>
      <trkpt lat="45.74365" lon="1.94989">
        <ele>753</ele>
        <time>2013-08-05T15:12:34Z</time>
      </trkpt>
      <trkpt lat="45.74364" lon="1.94987">
        <ele>754</ele>
        <time>2013-08-05T15:12:35Z</time>
      </trkpt>
      <trkpt lat="45.74363" lon="1.94985">
        <ele>754</ele>
        <time>2013-08-05T15:12:36Z</time>
      </trkpt>
      <trkpt lat="45.74362" lon="1.94983">
        <ele>754</ele>
        <time>2013-08-05T15:12:37Z</time>
      </trkpt>
      <trkpt lat="45.74355" lon="1.9496">
        <ele>756</ele>
        <time>2013-08-05T15:12:49Z</time>
      </trkpt>
      <trkpt lat="45.74354" lon="1.94958">
        <ele>756</ele>
        <time>2013-08-05T15:12:50Z</time>
      </trkpt>
      <trkpt lat="45.74353" lon="1.94957">
        <ele>756</ele>
        <time>2013-08-05T15:12:51Z</time>
      </trkpt>
      <trkpt lat="45.74352" lon="1.94954">
        <ele>756</ele>
        <time>2013-08-05T15:12:52Z</time>
      </trkpt>
      <trkpt lat="45.74346" lon="1.94929">
        <ele>757</ele>
        <time>2013-08-05T15:13:03Z</time>
      </trkpt>
      <trkpt lat="45.74347" lon="1.94918">
        <ele>758</ele>
        <time>2013-08-05T15:13:09Z</time>
      </trkpt>
      <trkpt lat="45.74349" lon="1.94914">
        <ele>758</ele>
        <time>2013-08-05T15:13:12Z</time>
      </trkpt>
      <trkpt lat="45.74349" lon="1.94912">
        <ele>758</ele>
        <time>2013-08-05T15:13:13Z</time>
      </trkpt>
      <trkpt lat="45.74351" lon="1.94906">
        <ele>759</ele>
        <time>2013-08-05T15:13:16Z</time>
      </trkpt>
      <trkpt lat="45.74351" lon="1.94904">
        <ele>759</ele>
        <time>2013-08-05T15:13:17Z</time>
      </trkpt>
      <trkpt lat="45.7435" lon="1.94902">
        <ele>759</ele>
        <time>2013-08-05T15:13:18Z</time>
      </trkpt>
      <trkpt lat="45.7435" lon="1.949">
        <ele>759</ele>
        <time>2013-08-05T15:13:19Z</time>
      </trkpt>
      <trkpt lat="45.74349" lon="1.94898">
        <ele>759</ele>
        <time>2013-08-05T15:13:20Z</time>
      </trkpt>
      <trkpt lat="45.74349" lon="1.94895">
        <ele>759</ele>
        <time>2013-08-05T15:13:21Z</time>
      </trkpt>
      <trkpt lat="45.74348" lon="1.94892">
        <ele>759</ele>
        <time>2013-08-05T15:13:22Z</time>
      </trkpt>
      <trkpt lat="45.74348" lon="1.94889">
        <ele>760</ele>
        <time>2013-08-05T15:13:23Z</time>
      </trkpt>
      <trkpt lat="45.74345" lon="1.94869">
        <ele>761</ele>
        <time>2013-08-05T15:13:29Z</time>
      </trkpt>
      <trkpt lat="45.74344" lon="1.94867">
        <ele>761</ele>
        <time>2013-08-05T15:13:30Z</time>
      </trkpt>
      <trkpt lat="45.74344" lon="1.94864">
        <ele>761</ele>
        <time>2013-08-05T15:13:31Z</time>
      </trkpt>
      <trkpt lat="45.74344" lon="1.94861">
        <ele>761</ele>
        <time>2013-08-05T15:13:32Z</time>
      </trkpt>
      <trkpt lat="45.74345" lon="1.94859">
        <ele>761</ele>
        <time>2013-08-05T15:13:33Z</time>
      </trkpt>
      <trkpt lat="45.74344" lon="1.94857">
        <ele>761</ele>
        <time>2013-08-05T15:13:34Z</time>
      </trkpt>
      <trkpt lat="45.74344" lon="1.94854">
        <ele>761</ele>
        <time>2013-08-05T15:13:35Z</time>
      </trkpt>
      <trkpt lat="45.74344" lon="1.94851">
        <ele>761</ele>
        <time>2013-08-05T15:13:36Z</time>
      </trkpt>
      <trkpt lat="45.74342" lon="1.94847">
        <ele>761</ele>
        <time>2013-08-05T15:13:37Z</time>
      </trkpt>
      <trkpt lat="45.74335" lon="1.94826">
        <ele>761</ele>
        <time>2013-08-05T15:13:47Z</time>
      </trkpt>
      <trkpt lat="45.74335" lon="1.94825">
        <ele>761</ele>
        <time>2013-08-05T15:13:48Z</time>
      </trkpt>
      <trkpt lat="45.74334" lon="1.94822">
        <ele>761</ele>
        <time>2013-08-05T15:13:49Z</time>
      </trkpt>
      <trkpt lat="45.74334" lon="1.94818">
        <ele>761</ele>
        <time>2013-08-05T15:13:50Z</time>
      </trkpt>
      <trkpt lat="45.74335" lon="1.94815">
        <ele>761</ele>
        <time>2013-08-05T15:13:51Z</time>
      </trkpt>
      <trkpt lat="45.74336" lon="1.94812">
        <ele>761</ele>
        <time>2013-08-05T15:13:52Z</time>
      </trkpt>
      <trkpt lat="45.74337" lon="1.9481">
        <ele>761</ele>
        <time>2013-08-05T15:13:53Z</time>
      </trkpt>
      <trkpt lat="45.74338" lon="1.94809">
        <ele>761</ele>
        <time>2013-08-05T15:13:54Z</time>
      </trkpt>
      <trkpt lat="45.74339" lon="1.94807">
        <ele>762</ele>
        <time>2013-08-05T15:13:56Z</time>
      </trkpt>
      <trkpt lat="45.74339" lon="1.94805">
        <ele>762</ele>
        <time>2013-08-05T15:13:57Z</time>
      </trkpt>
      <trkpt lat="45.74339" lon="1.94803">
        <ele>762</ele>
        <time>2013-08-05T15:13:58Z</time>
      </trkpt>
      <trkpt lat="45.74332" lon="1.94782">
        <ele>762</ele>
        <time>2013-08-05T15:14:07Z</time>
      </trkpt>
      <trkpt lat="45.74333" lon="1.94781">
        <ele>762</ele>
        <time>2013-08-05T15:14:09Z</time>
      </trkpt>
      <trkpt lat="45.74334" lon="1.9476">
        <ele>763</ele>
        <time>2013-08-05T15:14:17Z</time>
      </trkpt>
      <trkpt lat="45.74339" lon="1.94754">
        <ele>763</ele>
        <time>2013-08-05T15:14:21Z</time>
      </trkpt>
      <trkpt lat="45.7434" lon="1.94752">
        <ele>763</ele>
        <time>2013-08-05T15:14:22Z</time>
      </trkpt>
      <trkpt lat="45.74371" lon="1.9472">
        <ele>763</ele>
        <time>2013-08-05T15:14:36Z</time>
      </trkpt>
      <trkpt lat="45.74375" lon="1.94709">
        <ele>762</ele>
        <time>2013-08-05T15:14:41Z</time>
      </trkpt>
      <trkpt lat="45.74376" lon="1.94708">
        <ele>762</ele>
        <time>2013-08-05T15:14:42Z</time>
      </trkpt>
      <trkpt lat="45.74376" lon="1.94706">
        <ele>762</ele>
        <time>2013-08-05T15:14:43Z</time>
      </trkpt>
      <trkpt lat="45.74377" lon="1.94703">
        <ele>763</ele>
        <time>2013-08-05T15:14:44Z</time>
      </trkpt>
      <trkpt lat="45.74377" lon="1.947">
        <ele>762</ele>
        <time>2013-08-05T15:14:45Z</time>
      </trkpt>
      <trkpt lat="45.74377" lon="1.94697">
        <ele>762</ele>
        <time>2013-08-05T15:14:46Z</time>
      </trkpt>
      <trkpt lat="45.74378" lon="1.94695">
        <ele>762</ele>
        <time>2013-08-05T15:14:47Z</time>
      </trkpt>
      <trkpt lat="45.74379" lon="1.94693">
        <ele>762</ele>
        <time>2013-08-05T15:14:48Z</time>
      </trkpt>
      <trkpt lat="45.7438" lon="1.94691">
        <ele>762</ele>
        <time>2013-08-05T15:14:49Z</time>
      </trkpt>
      <trkpt lat="45.74381" lon="1.94688">
        <ele>762</ele>
        <time>2013-08-05T15:14:50Z</time>
      </trkpt>
      <trkpt lat="45.74382" lon="1.94686">
        <ele>762</ele>
        <time>2013-08-05T15:14:51Z</time>
      </trkpt>
      <trkpt lat="45.74383" lon="1.94683">
        <ele>762</ele>
        <time>2013-08-05T15:14:52Z</time>
      </trkpt>
      <trkpt lat="45.74384" lon="1.94681">
        <ele>762</ele>
        <time>2013-08-05T15:14:53Z</time>
      </trkpt>
      <trkpt lat="45.74384" lon="1.94679">
        <ele>762</ele>
        <time>2013-08-05T15:14:54Z</time>
      </trkpt>
      <trkpt lat="45.74385" lon="1.94677">
        <ele>762</ele>
        <time>2013-08-05T15:14:55Z</time>
      </trkpt>
      <trkpt lat="45.74386" lon="1.94675">
        <ele>762</ele>
        <time>2013-08-05T15:14:56Z</time>
      </trkpt>
      <trkpt lat="45.74386" lon="1.94672">
        <ele>762</ele>
        <time>2013-08-05T15:14:57Z</time>
      </trkpt>
      <trkpt lat="45.74396" lon="1.94643">
        <ele>762</ele>
        <time>2013-08-05T15:15:10Z</time>
      </trkpt>
      <trkpt lat="45.74397" lon="1.94643">
        <ele>762</ele>
        <time>2013-08-05T15:15:11Z</time>
      </trkpt>
      <trkpt lat="45.74398" lon="1.94641">
        <ele>762</ele>
        <time>2013-08-05T15:15:12Z</time>
      </trkpt>
      <trkpt lat="45.74398" lon="1.94638">
        <ele>762</ele>
        <time>2013-08-05T15:15:13Z</time>
      </trkpt>
      <trkpt lat="45.74398" lon="1.94635">
        <ele>762</ele>
        <time>2013-08-05T15:15:14Z</time>
      </trkpt>
      <trkpt lat="45.74399" lon="1.94633">
        <ele>762</ele>
        <time>2013-08-05T15:15:15Z</time>
      </trkpt>
      <trkpt lat="45.74406" lon="1.9462">
        <ele>762</ele>
        <time>2013-08-05T15:15:22Z</time>
      </trkpt>
      <trkpt lat="45.74408" lon="1.94619">
        <ele>762</ele>
        <time>2013-08-05T15:15:23Z</time>
      </trkpt>
      <trkpt lat="45.7441" lon="1.94615">
        <ele>762</ele>
        <time>2013-08-05T15:15:25Z</time>
      </trkpt>
      <trkpt lat="45.74411" lon="1.94614">
        <ele>762</ele>
        <time>2013-08-05T15:15:26Z</time>
      </trkpt>
      <trkpt lat="45.74413" lon="1.94613">
        <ele>762</ele>
        <time>2013-08-05T15:15:27Z</time>
      </trkpt>
      <trkpt lat="45.74414" lon="1.94611">
        <ele>762</ele>
        <time>2013-08-05T15:15:28Z</time>
      </trkpt>
      <trkpt lat="45.74415" lon="1.94609">
        <ele>762</ele>
        <time>2013-08-05T15:15:29Z</time>
      </trkpt>
      <trkpt lat="45.74418" lon="1.94607">
        <ele>762</ele>
        <time>2013-08-05T15:15:31Z</time>
      </trkpt>
      <trkpt lat="45.74419" lon="1.94604">
        <ele>762</ele>
        <time>2013-08-05T15:15:32Z</time>
      </trkpt>
      <trkpt lat="45.7442" lon="1.94602">
        <ele>762</ele>
        <time>2013-08-05T15:15:33Z</time>
      </trkpt>
      <trkpt lat="45.74426" lon="1.94592">
        <ele>761</ele>
        <time>2013-08-05T15:15:39Z</time>
      </trkpt>
      <trkpt lat="45.74444" lon="1.94583">
        <ele>762</ele>
        <time>2013-08-05T15:15:50Z</time>
      </trkpt>
      <trkpt lat="45.74457" lon="1.94578">
        <ele>762</ele>
        <time>2013-08-05T15:15:57Z</time>
      </trkpt>
      <trkpt lat="45.74459" lon="1.94578">
        <ele>762</ele>
        <time>2013-08-05T15:15:58Z</time>
      </trkpt>
      <trkpt lat="45.7446" lon="1.94578">
        <ele>762</ele>
        <time>2013-08-05T15:15:59Z</time>
      </trkpt>
      <trkpt lat="45.74462" lon="1.94577">
        <ele>762</ele>
        <time>2013-08-05T15:16:00Z</time>
      </trkpt>
      <trkpt lat="45.74464" lon="1.94577">
        <ele>762</ele>
        <time>2013-08-05T15:16:01Z</time>
      </trkpt>
      <trkpt lat="45.74465" lon="1.94576">
        <ele>762</ele>
        <time>2013-08-05T15:16:02Z</time>
      </trkpt>
      <trkpt lat="45.74472" lon="1.94571">
        <ele>761</ele>
        <time>2013-08-05T15:16:07Z</time>
      </trkpt>
      <trkpt lat="45.74474" lon="1.9457">
        <ele>761</ele>
        <time>2013-08-05T15:16:08Z</time>
      </trkpt>
      <trkpt lat="45.74475" lon="1.94569">
        <ele>761</ele>
        <time>2013-08-05T15:16:09Z</time>
      </trkpt>
      <trkpt lat="45.74484" lon="1.94565">
        <ele>761</ele>
        <time>2013-08-05T15:16:15Z</time>
      </trkpt>
      <trkpt lat="45.74486" lon="1.94566">
        <ele>761</ele>
        <time>2013-08-05T15:16:16Z</time>
      </trkpt>
      <trkpt lat="45.74488" lon="1.94565">
        <ele>761</ele>
        <time>2013-08-05T15:16:17Z</time>
      </trkpt>
      <trkpt lat="45.74489" lon="1.94564">
        <ele>761</ele>
        <time>2013-08-05T15:16:18Z</time>
      </trkpt>
      <trkpt lat="45.7449" lon="1.94563">
        <ele>761</ele>
        <time>2013-08-05T15:16:19Z</time>
      </trkpt>
      <trkpt lat="45.74504" lon="1.9455">
        <ele>760</ele>
        <time>2013-08-05T15:16:29Z</time>
      </trkpt>
      <trkpt lat="45.74505" lon="1.94548">
        <ele>760</ele>
        <time>2013-08-05T15:16:30Z</time>
      </trkpt>
      <trkpt lat="45.74506" lon="1.94546">
        <ele>760</ele>
        <time>2013-08-05T15:16:31Z</time>
      </trkpt>
      <trkpt lat="45.74507" lon="1.94544">
        <ele>760</ele>
        <time>2013-08-05T15:16:32Z</time>
      </trkpt>
      <trkpt lat="45.74509" lon="1.94543">
        <ele>760</ele>
        <time>2013-08-05T15:16:33Z</time>
      </trkpt>
      <trkpt lat="45.74511" lon="1.94543">
        <ele>760</ele>
        <time>2013-08-05T15:16:34Z</time>
      </trkpt>
      <trkpt lat="45.74512" lon="1.94542">
        <ele>760</ele>
        <time>2013-08-05T15:16:35Z</time>
      </trkpt>
      <trkpt lat="45.74515" lon="1.9454">
        <ele>760</ele>
        <time>2013-08-05T15:16:37Z</time>
      </trkpt>
      <trkpt lat="45.74516" lon="1.94539">
        <ele>760</ele>
        <time>2013-08-05T15:16:38Z</time>
      </trkpt>
      <trkpt lat="45.74517" lon="1.94538">
        <ele>760</ele>
        <time>2013-08-05T15:16:39Z</time>
      </trkpt>
      <trkpt lat="45.74519" lon="1.94537">
        <ele>760</ele>
        <time>2013-08-05T15:16:40Z</time>
      </trkpt>
      <trkpt lat="45.7452" lon="1.94535">
        <ele>760</ele>
        <time>2013-08-05T15:16:41Z</time>
      </trkpt>
      <trkpt lat="45.74521" lon="1.94533">
        <ele>760</ele>
        <time>2013-08-05T15:16:42Z</time>
      </trkpt>
      <trkpt lat="45.74522" lon="1.9453">
        <ele>760</ele>
        <time>2013-08-05T15:16:43Z</time>
      </trkpt>
      <trkpt lat="45.74523" lon="1.94528">
        <ele>760</ele>
        <time>2013-08-05T15:16:44Z</time>
      </trkpt>
      <trkpt lat="45.74524" lon="1.94525">
        <ele>759</ele>
        <time>2013-08-05T15:16:45Z</time>
      </trkpt>
      <trkpt lat="45.74524" lon="1.94521">
        <ele>760</ele>
        <time>2013-08-05T15:16:47Z</time>
      </trkpt>
      <trkpt lat="45.74525" lon="1.94518">
        <ele>759</ele>
        <time>2013-08-05T15:16:48Z</time>
      </trkpt>
      <trkpt lat="45.74525" lon="1.94516">
        <ele>760</ele>
        <time>2013-08-05T15:16:49Z</time>
      </trkpt>
      <trkpt lat="45.74526" lon="1.94514">
        <ele>759</ele>
        <time>2013-08-05T15:16:50Z</time>
      </trkpt>
      <trkpt lat="45.74527" lon="1.94512">
        <ele>759</ele>
        <time>2013-08-05T15:16:51Z</time>
      </trkpt>
      <trkpt lat="45.74528" lon="1.9451">
        <ele>759</ele>
        <time>2013-08-05T15:16:52Z</time>
      </trkpt>
      <trkpt lat="45.74529" lon="1.94507">
        <ele>759</ele>
        <time>2013-08-05T15:16:53Z</time>
      </trkpt>
      <trkpt lat="45.74529" lon="1.94505">
        <ele>759</ele>
        <time>2013-08-05T15:16:54Z</time>
      </trkpt>
      <trkpt lat="45.7453" lon="1.94502">
        <ele>759</ele>
        <time>2013-08-05T15:16:55Z</time>
      </trkpt>
      <trkpt lat="45.74531" lon="1.945">
        <ele>759</ele>
        <time>2013-08-05T15:16:56Z</time>
      </trkpt>
      <trkpt lat="45.74532" lon="1.94498">
        <ele>759</ele>
        <time>2013-08-05T15:16:57Z</time>
      </trkpt>
      <trkpt lat="45.74533" lon="1.94496">
        <ele>759</ele>
        <time>2013-08-05T15:16:58Z</time>
      </trkpt>
      <trkpt lat="45.74534" lon="1.94494">
        <ele>759</ele>
        <time>2013-08-05T15:16:59Z</time>
      </trkpt>
      <trkpt lat="45.74535" lon="1.94492">
        <ele>759</ele>
        <time>2013-08-05T15:17:00Z</time>
      </trkpt>
      <trkpt lat="45.74536" lon="1.9449">
        <ele>759</ele>
        <time>2013-08-05T15:17:01Z</time>
      </trkpt>
      <trkpt lat="45.74536" lon="1.94486">
        <ele>759</ele>
        <time>2013-08-05T15:17:03Z</time>
      </trkpt>
      <trkpt lat="45.74537" lon="1.94484">
        <ele>758</ele>
        <time>2013-08-05T15:17:04Z</time>
      </trkpt>
      <trkpt lat="45.74538" lon="1.94481">
        <ele>758</ele>
        <time>2013-08-05T15:17:05Z</time>
      </trkpt>
      <trkpt lat="45.74539" lon="1.94479">
        <ele>758</ele>
        <time>2013-08-05T15:17:06Z</time>
      </trkpt>
      <trkpt lat="45.7454" lon="1.94477">
        <ele>758</ele>
        <time>2013-08-05T15:17:07Z</time>
      </trkpt>
      <trkpt lat="45.74554" lon="1.94453">
        <ele>758</ele>
        <time>2013-08-05T15:17:20Z</time>
      </trkpt>
      <trkpt lat="45.74556" lon="1.9445">
        <ele>758</ele>
        <time>2013-08-05T15:17:22Z</time>
      </trkpt>
      <trkpt lat="45.74556" lon="1.94449">
        <ele>758</ele>
        <time>2013-08-05T15:17:23Z</time>
      </trkpt>
      <trkpt lat="45.74557" lon="1.94447">
        <ele>758</ele>
        <time>2013-08-05T15:17:24Z</time>
      </trkpt>
      <trkpt lat="45.74558" lon="1.94444">
        <ele>758</ele>
        <time>2013-08-05T15:17:25Z</time>
      </trkpt>
      <trkpt lat="45.74559" lon="1.94442">
        <ele>758</ele>
        <time>2013-08-05T15:17:26Z</time>
      </trkpt>
      <trkpt lat="45.74559" lon="1.94439">
        <ele>757</ele>
        <time>2013-08-05T15:17:27Z</time>
      </trkpt>
      <trkpt lat="45.7456" lon="1.94431">
        <ele>758</ele>
        <time>2013-08-05T15:17:30Z</time>
      </trkpt>
      <trkpt lat="45.74561" lon="1.94429">
        <ele>758</ele>
        <time>2013-08-05T15:17:31Z</time>
      </trkpt>
      <trkpt lat="45.74561" lon="1.94425">
        <ele>757</ele>
        <time>2013-08-05T15:17:32Z</time>
      </trkpt>
      <trkpt lat="45.74562" lon="1.94422">
        <ele>757</ele>
        <time>2013-08-05T15:17:33Z</time>
      </trkpt>
      <trkpt lat="45.74563" lon="1.94419">
        <ele>757</ele>
        <time>2013-08-05T15:17:34Z</time>
      </trkpt>
      <trkpt lat="45.74564" lon="1.94406">
        <ele>757</ele>
        <time>2013-08-05T15:17:38Z</time>
      </trkpt>
      <trkpt lat="45.74564" lon="1.94403">
        <ele>757</ele>
        <time>2013-08-05T15:17:39Z</time>
      </trkpt>
      <trkpt lat="45.74573" lon="1.94372">
        <ele>756</ele>
        <time>2013-08-05T15:17:52Z</time>
      </trkpt>
      <trkpt lat="45.74584" lon="1.94348">
        <ele>755</ele>
        <time>2013-08-05T15:18:04Z</time>
      </trkpt>
      <trkpt lat="45.7459" lon="1.94334">
        <ele>754</ele>
        <time>2013-08-05T15:18:11Z</time>
      </trkpt>
      <trkpt lat="45.74591" lon="1.94332">
        <ele>754</ele>
        <time>2013-08-05T15:18:12Z</time>
      </trkpt>
      <trkpt lat="45.74592" lon="1.9433">
        <ele>754</ele>
        <time>2013-08-05T15:18:13Z</time>
      </trkpt>
      <trkpt lat="45.74593" lon="1.94327">
        <ele>754</ele>
        <time>2013-08-05T15:18:14Z</time>
      </trkpt>
      <trkpt lat="45.74594" lon="1.94326">
        <ele>754</ele>
        <time>2013-08-05T15:18:15Z</time>
      </trkpt>
      <trkpt lat="45.74595" lon="1.94324">
        <ele>754</ele>
        <time>2013-08-05T15:18:16Z</time>
      </trkpt>
      <trkpt lat="45.74602" lon="1.94314">
        <ele>753</ele>
        <time>2013-08-05T15:18:22Z</time>
      </trkpt>
      <trkpt lat="45.74604" lon="1.94313">
        <ele>753</ele>
        <time>2013-08-05T15:18:23Z</time>
      </trkpt>
      <trkpt lat="45.74615" lon="1.94294">
        <ele>752</ele>
        <time>2013-08-05T15:18:37Z</time>
      </trkpt>
      <trkpt lat="45.74615" lon="1.94295">
        <ele>739</ele>
        <time>2013-08-05T15:18:39Z</time>
      </trkpt>
      <trkpt lat="45.74615" lon="1.94295">
        <ele>767</ele>
        <time>2013-08-05T15:18:40Z</time>
      </trkpt>
      <trkpt lat="45.74615" lon="1.94295">
        <ele>753</ele>
        <time>2013-08-05T15:18:41Z</time>
      </trkpt>
      <trkpt lat="45.74615" lon="1.94295">
        <ele>752</ele>
        <time>2013-08-05T15:18:43Z</time>
      </trkpt>
      <trkpt lat="45.74615" lon="1.94295">
        <ele>752</ele>
        <time>2013-08-05T15:18:57Z</time>
      </trkpt>
      <trkpt lat="45.74615" lon="1.94295">
        <ele>752</ele>
        <time>2013-08-05T15:19:22Z</time>
      </trkpt>
      <trkpt lat="45.74614" lon="1.94295">
        <ele>752</ele>
        <time>2013-08-05T15:19:40Z</time>
      </trkpt>
      <trkpt lat="45.74613" lon="1.94295">
        <ele>752</ele>
        <time>2013-08-05T15:19:55Z</time>
      </trkpt>
      <trkpt lat="45.74612" lon="1.94295">
        <ele>752</ele>
        <time>2013-08-05T15:20:06Z</time>
      </trkpt>
      <trkpt lat="45.74612" lon="1.94295">
        <ele>752</ele>
        <time>2013-08-05T15:20:22Z</time>
      </trkpt>
      <trkpt lat="45.74617" lon="1.94295">
        <ele>751</ele>
        <time>2013-08-05T15:20:36Z</time>
      </trkpt>
      <trkpt lat="45.74621" lon="1.94289">
        <ele>751</ele>
        <time>2013-08-05T15:20:50Z</time>
      </trkpt>
      <trkpt lat="45.74622" lon="1.94288">
        <ele>751</ele>
        <time>2013-08-05T15:20:51Z</time>
      </trkpt>
      <trkpt lat="45.74622" lon="1.94286">
        <ele>751</ele>
        <time>2013-08-05T15:20:52Z</time>
      </trkpt>
      <trkpt lat="45.74623" lon="1.9428">
        <ele>750</ele>
        <time>2013-08-05T15:20:56Z</time>
      </trkpt>
      <trkpt lat="45.74623" lon="1.94277">
        <ele>750</ele>
        <time>2013-08-05T15:20:58Z</time>
      </trkpt>
      <trkpt lat="45.74621" lon="1.94272">
        <ele>750</ele>
        <time>2013-08-05T15:21:01Z</time>
      </trkpt>
      <trkpt lat="45.74619" lon="1.94267">
        <ele>749</ele>
        <time>2013-08-05T15:21:05Z</time>
      </trkpt>
      <trkpt lat="45.74629" lon="1.94266">
        <ele>749</ele>
        <time>2013-08-05T15:21:08Z</time>
      </trkpt>
      <trkpt lat="45.74636" lon="1.9426">
        <ele>749</ele>
        <time>2013-08-05T15:21:18Z</time>
      </trkpt>
      <trkpt lat="45.74638" lon="1.94256">
        <ele>749</ele>
        <time>2013-08-05T15:21:22Z</time>
      </trkpt>
      <trkpt lat="45.74637" lon="1.94251">
        <ele>748</ele>
        <time>2013-08-05T15:21:25Z</time>
      </trkpt>
      <trkpt lat="45.74644" lon="1.9425">
        <ele>748</ele>
        <time>2013-08-05T15:21:36Z</time>
      </trkpt>
      <trkpt lat="45.7465" lon="1.94251">
        <ele>748</ele>
        <time>2013-08-05T15:21:55Z</time>
      </trkpt>
      <trkpt lat="45.74651" lon="1.9425">
        <ele>748</ele>
        <time>2013-08-05T15:21:59Z</time>
      </trkpt>
      <trkpt lat="45.74671" lon="1.94243">
        <ele>747</ele>
        <time>2013-08-05T15:22:08Z</time>
      </trkpt>
      <trkpt lat="45.74675" lon="1.94243">
        <ele>747</ele>
        <time>2013-08-05T15:22:10Z</time>
      </trkpt>
      <trkpt lat="45.7468" lon="1.9424">
        <ele>746</ele>
        <time>2013-08-05T15:22:14Z</time>
      </trkpt>
      <trkpt lat="45.74686" lon="1.9424">
        <ele>746</ele>
        <time>2013-08-05T15:22:17Z</time>
      </trkpt>
      <trkpt lat="45.74692" lon="1.94232">
        <ele>746</ele>
        <time>2013-08-05T15:22:26Z</time>
      </trkpt>
      <trkpt lat="45.74696" lon="1.94228">
        <ele>745</ele>
        <time>2013-08-05T15:22:32Z</time>
      </trkpt>
      <trkpt lat="45.74698" lon="1.94227">
        <ele>745</ele>
        <time>2013-08-05T15:22:34Z</time>
      </trkpt>
      <trkpt lat="45.74703" lon="1.94217">
        <ele>744</ele>
        <time>2013-08-05T15:22:43Z</time>
      </trkpt>
      <trkpt lat="45.74715" lon="1.9421">
        <ele>744</ele>
        <time>2013-08-05T15:22:55Z</time>
      </trkpt>
      <trkpt lat="45.74721" lon="1.94208">
        <ele>743</ele>
        <time>2013-08-05T15:23:00Z</time>
      </trkpt>
      <trkpt lat="45.74735" lon="1.94194">
        <ele>742</ele>
        <time>2013-08-05T15:23:12Z</time>
      </trkpt>
      <trkpt lat="45.74741" lon="1.94187">
        <ele>742</ele>
        <time>2013-08-05T15:23:17Z</time>
      </trkpt>
      <trkpt lat="45.74743" lon="1.94176">
        <ele>741</ele>
        <time>2013-08-05T15:23:25Z</time>
      </trkpt>
      <trkpt lat="45.74741" lon="1.94172">
        <ele>741</ele>
        <time>2013-08-05T15:23:27Z</time>
      </trkpt>
      <trkpt lat="45.74749" lon="1.94165">
        <ele>740</ele>
        <time>2013-08-05T15:23:33Z</time>
      </trkpt>
      <trkpt lat="45.74762" lon="1.94145">
        <ele>739</ele>
        <time>2013-08-05T15:23:47Z</time>
      </trkpt>
      <trkpt lat="45.74765" lon="1.94137">
        <ele>739</ele>
        <time>2013-08-05T15:23:53Z</time>
      </trkpt>
      <trkpt lat="45.74782" lon="1.94118">
        <ele>738</ele>
        <time>2013-08-05T15:24:07Z</time>
      </trkpt>
      <trkpt lat="45.74789" lon="1.94115">
        <ele>737</ele>
        <time>2013-08-05T15:24:10Z</time>
      </trkpt>
      <trkpt lat="45.74798" lon="1.94094">
        <ele>737</ele>
        <time>2013-08-05T15:24:21Z</time>
      </trkpt>
      <trkpt lat="45.74798" lon="1.94092">
        <ele>736</ele>
        <time>2013-08-05T15:24:22Z</time>
      </trkpt>
      <trkpt lat="45.74795" lon="1.94086">
        <ele>736</ele>
        <time>2013-08-05T15:24:25Z</time>
      </trkpt>
      <trkpt lat="45.74796" lon="1.94075">
        <ele>736</ele>
        <time>2013-08-05T15:24:33Z</time>
      </trkpt>
      <trkpt lat="45.748" lon="1.94071">
        <ele>735</ele>
        <time>2013-08-05T15:24:35Z</time>
      </trkpt>
      <trkpt lat="45.74825" lon="1.94056">
        <ele>735</ele>
        <time>2013-08-05T15:24:45Z</time>
      </trkpt>
      <trkpt lat="45.74832" lon="1.94052">
        <ele>734</ele>
        <time>2013-08-05T15:24:48Z</time>
      </trkpt>
      <trkpt lat="45.74842" lon="1.94046">
        <ele>734</ele>
        <time>2013-08-05T15:24:53Z</time>
      </trkpt>
      <trkpt lat="45.74847" lon="1.9403">
        <ele>733</ele>
        <time>2013-08-05T15:24:59Z</time>
      </trkpt>
      <trkpt lat="45.74856" lon="1.94025">
        <ele>730</ele>
        <time>2013-08-05T15:25:03Z</time>
      </trkpt>
      <trkpt lat="45.74866" lon="1.94014">
        <ele>732</ele>
        <time>2013-08-05T15:25:12Z</time>
      </trkpt>
      <trkpt lat="45.74869" lon="1.93998">
        <ele>732</ele>
        <time>2013-08-05T15:25:20Z</time>
      </trkpt>
      <trkpt lat="45.74869" lon="1.93992">
        <ele>731</ele>
        <time>2013-08-05T15:25:23Z</time>
      </trkpt>
      <trkpt lat="45.74873" lon="1.93985">
        <ele>731</ele>
        <time>2013-08-05T15:25:27Z</time>
      </trkpt>
      <trkpt lat="45.74873" lon="1.93983">
        <ele>731</ele>
        <time>2013-08-05T15:25:28Z</time>
      </trkpt>
      <trkpt lat="45.74874" lon="1.93981">
        <ele>731</ele>
        <time>2013-08-05T15:25:30Z</time>
      </trkpt>
      <trkpt lat="45.74883" lon="1.93967">
        <ele>730</ele>
        <time>2013-08-05T15:25:39Z</time>
      </trkpt>
      <trkpt lat="45.74888" lon="1.93964">
        <ele>730</ele>
        <time>2013-08-05T15:25:41Z</time>
      </trkpt>
      <trkpt lat="45.74887" lon="1.9395">
        <ele>729</ele>
        <time>2013-08-05T15:25:49Z</time>
      </trkpt>
      <trkpt lat="45.74893" lon="1.93936">
        <ele>729</ele>
        <time>2013-08-05T15:25:59Z</time>
      </trkpt>
      <trkpt lat="45.74897" lon="1.9393">
        <ele>729</ele>
        <time>2013-08-05T15:26:03Z</time>
      </trkpt>
      <trkpt lat="45.74909" lon="1.93916">
        <ele>728</ele>
        <time>2013-08-05T15:26:12Z</time>
      </trkpt>
      <trkpt lat="45.74917" lon="1.9391">
        <ele>727</ele>
        <time>2013-08-05T15:26:17Z</time>
      </trkpt>
      <trkpt lat="45.74919" lon="1.93905">
        <ele>727</ele>
        <time>2013-08-05T15:26:20Z</time>
      </trkpt>
      <trkpt lat="45.74923" lon="1.93899">
        <ele>727</ele>
        <time>2013-08-05T15:26:23Z</time>
      </trkpt>
      <trkpt lat="45.74924" lon="1.93892">
        <ele>727</ele>
        <time>2013-08-05T15:26:28Z</time>
      </trkpt>
      <trkpt lat="45.74928" lon="1.93887">
        <ele>726</ele>
        <time>2013-08-05T15:26:32Z</time>
      </trkpt>
      <trkpt lat="45.74934" lon="1.93873">
        <ele>726</ele>
        <time>2013-08-05T15:26:37Z</time>
      </trkpt>
      <trkpt lat="45.74937" lon="1.93862">
        <ele>726</ele>
        <time>2013-08-05T15:26:44Z</time>
      </trkpt>
      <trkpt lat="45.74942" lon="1.93847">
        <ele>726</ele>
        <time>2013-08-05T15:26:50Z</time>
      </trkpt>
      <trkpt lat="45.74945" lon="1.93844">
        <ele>726</ele>
        <time>2013-08-05T15:26:53Z</time>
      </trkpt>
      <trkpt lat="45.74951" lon="1.93835">
        <ele>726</ele>
        <time>2013-08-05T15:26:58Z</time>
      </trkpt>
      <trkpt lat="45.74949" lon="1.93828">
        <ele>726</ele>
        <time>2013-08-05T15:27:02Z</time>
      </trkpt>
      <trkpt lat="45.74949" lon="1.93826">
        <ele>726</ele>
        <time>2013-08-05T15:27:03Z</time>
      </trkpt>
      <trkpt lat="45.74949" lon="1.93812">
        <ele>726</ele>
        <time>2013-08-05T15:27:10Z</time>
      </trkpt>
      <trkpt lat="45.74948" lon="1.93807">
        <ele>726</ele>
        <time>2013-08-05T15:27:13Z</time>
      </trkpt>
      <trkpt lat="45.74951" lon="1.93802">
        <ele>726</ele>
        <time>2013-08-05T15:27:16Z</time>
      </trkpt>
      <trkpt lat="45.74952" lon="1.93798">
        <ele>726</ele>
        <time>2013-08-05T15:27:18Z</time>
      </trkpt>
      <trkpt lat="45.74953" lon="1.93796">
        <ele>726</ele>
        <time>2013-08-05T15:27:19Z</time>
      </trkpt>
      <trkpt lat="45.74953" lon="1.93793">
        <ele>726</ele>
        <time>2013-08-05T15:27:21Z</time>
      </trkpt>
      <trkpt lat="45.74955" lon="1.93785">
        <ele>726</ele>
        <time>2013-08-05T15:27:26Z</time>
      </trkpt>
      <trkpt lat="45.74965" lon="1.93778">
        <ele>726</ele>
        <time>2013-08-05T15:27:32Z</time>
      </trkpt>
      <trkpt lat="45.74966" lon="1.93756">
        <ele>726</ele>
        <time>2013-08-05T15:27:43Z</time>
      </trkpt>
      <trkpt lat="45.74967" lon="1.93755">
        <ele>726</ele>
        <time>2013-08-05T15:27:45Z</time>
      </trkpt>
      <trkpt lat="45.74961" lon="1.93744">
        <ele>725</ele>
        <time>2013-08-05T15:27:49Z</time>
      </trkpt>
      <trkpt lat="45.74954" lon="1.93735">
        <ele>725</ele>
        <time>2013-08-05T15:27:54Z</time>
      </trkpt>
      <trkpt lat="45.74951" lon="1.93732">
        <ele>725</ele>
        <time>2013-08-05T15:27:55Z</time>
      </trkpt>
      <trkpt lat="45.74954" lon="1.93727">
        <ele>725</ele>
        <time>2013-08-05T15:27:58Z</time>
      </trkpt>
      <trkpt lat="45.74962" lon="1.93721">
        <ele>725</ele>
        <time>2013-08-05T15:28:02Z</time>
      </trkpt>
      <trkpt lat="45.74963" lon="1.93715">
        <ele>725</ele>
        <time>2013-08-05T15:28:05Z</time>
      </trkpt>
      <trkpt lat="45.7497" lon="1.9371">
        <ele>725</ele>
        <time>2013-08-05T15:28:15Z</time>
      </trkpt>
      <trkpt lat="45.74987" lon="1.93708">
        <ele>725</ele>
        <time>2013-08-05T15:28:34Z</time>
      </trkpt>
      <trkpt lat="45.74988" lon="1.93709">
        <ele>725</ele>
        <time>2013-08-05T15:28:39Z</time>
      </trkpt>
      <trkpt lat="45.74986" lon="1.93701">
        <ele>724</ele>
        <time>2013-08-05T15:28:43Z</time>
      </trkpt>
      <trkpt lat="45.74985" lon="1.937">
        <ele>724</ele>
        <time>2013-08-05T15:28:44Z</time>
      </trkpt>
      <trkpt lat="45.74988" lon="1.93693">
        <ele>724</ele>
        <time>2013-08-05T15:28:48Z</time>
      </trkpt>
      <trkpt lat="45.74989" lon="1.93686">
        <ele>724</ele>
        <time>2013-08-05T15:28:53Z</time>
      </trkpt>
      <trkpt lat="45.75004" lon="1.93673">
        <ele>724</ele>
        <time>2013-08-05T15:28:59Z</time>
      </trkpt>
      <trkpt lat="45.75004" lon="1.93665">
        <ele>724</ele>
        <time>2013-08-05T15:29:03Z</time>
      </trkpt>
      <trkpt lat="45.75004" lon="1.93662">
        <ele>724</ele>
        <time>2013-08-05T15:29:05Z</time>
      </trkpt>
      <trkpt lat="45.75007" lon="1.93654">
        <ele>724</ele>
        <time>2013-08-05T15:29:09Z</time>
      </trkpt>
      <trkpt lat="45.75009" lon="1.93653">
        <ele>723</ele>
        <time>2013-08-05T15:29:10Z</time>
      </trkpt>
      <trkpt lat="45.75022" lon="1.93642">
        <ele>723</ele>
        <time>2013-08-05T15:29:19Z</time>
      </trkpt>
      <trkpt lat="45.75022" lon="1.93637">
        <ele>723</ele>
        <time>2013-08-05T15:29:22Z</time>
      </trkpt>
      <trkpt lat="45.75022" lon="1.9363">
        <ele>723</ele>
        <time>2013-08-05T15:29:26Z</time>
      </trkpt>
      <trkpt lat="45.75028" lon="1.93623">
        <ele>723</ele>
        <time>2013-08-05T15:29:31Z</time>
      </trkpt>
      <trkpt lat="45.7503" lon="1.93623">
        <ele>722</ele>
        <time>2013-08-05T15:29:32Z</time>
      </trkpt>
      <trkpt lat="45.75034" lon="1.93621">
        <ele>722</ele>
        <time>2013-08-05T15:29:38Z</time>
      </trkpt>
      <trkpt lat="45.75027" lon="1.93598">
        <ele>722</ele>
        <time>2013-08-05T15:29:46Z</time>
      </trkpt>
      <trkpt lat="45.75025" lon="1.93593">
        <ele>722</ele>
        <time>2013-08-05T15:29:49Z</time>
      </trkpt>
      <trkpt lat="45.75025" lon="1.93586">
        <ele>721</ele>
        <time>2013-08-05T15:29:57Z</time>
      </trkpt>
      <trkpt lat="45.75034" lon="1.93588">
        <ele>721</ele>
        <time>2013-08-05T15:30:02Z</time>
      </trkpt>
      <trkpt lat="45.75037" lon="1.93582">
        <ele>721</ele>
        <time>2013-08-05T15:30:09Z</time>
      </trkpt>
      <trkpt lat="45.75044" lon="1.93578">
        <ele>721</ele>
        <time>2013-08-05T15:30:21Z</time>
      </trkpt>
      <trkpt lat="45.75046" lon="1.93578">
        <ele>721</ele>
        <time>2013-08-05T15:30:37Z</time>
      </trkpt>
      <trkpt lat="45.75047" lon="1.93578">
        <ele>721</ele>
        <time>2013-08-05T15:31:01Z</time>
      </trkpt>
      <trkpt lat="45.75051" lon="1.93579">
        <ele>721</ele>
        <time>2013-08-05T15:31:29Z</time>
      </trkpt>
      <trkpt lat="45.75055" lon="1.9358">
        <ele>721</ele>
        <time>2013-08-05T15:31:51Z</time>
      </trkpt>
      <trkpt lat="45.75052" lon="1.93578">
        <ele>721</ele>
        <time>2013-08-05T15:32:16Z</time>
      </trkpt>
      <trkpt lat="45.75049" lon="1.93574">
        <ele>720</ele>
        <time>2013-08-05T15:32:24Z</time>
      </trkpt>
      <trkpt lat="45.75047" lon="1.93566">
        <ele>720</ele>
        <time>2013-08-05T15:32:28Z</time>
      </trkpt>
      <trkpt lat="45.75047" lon="1.93559">
        <ele>720</ele>
        <time>2013-08-05T15:32:32Z</time>
      </trkpt>
      <trkpt lat="45.75047" lon="1.93543">
        <ele>719</ele>
        <time>2013-08-05T15:32:44Z</time>
      </trkpt>
      <trkpt lat="45.75047" lon="1.93542">
        <ele>719</ele>
        <time>2013-08-05T15:32:45Z</time>
      </trkpt>
      <trkpt lat="45.75048" lon="1.93532">
        <ele>719</ele>
        <time>2013-08-05T15:32:51Z</time>
      </trkpt>
      <trkpt lat="45.75051" lon="1.9352">
        <ele>718</ele>
        <time>2013-08-05T15:33:00Z</time>
      </trkpt>
      <trkpt lat="45.75055" lon="1.93508">
        <ele>717</ele>
        <time>2013-08-05T15:33:10Z</time>
      </trkpt>
      <trkpt lat="45.75055" lon="1.93505">
        <ele>717</ele>
        <time>2013-08-05T15:33:13Z</time>
      </trkpt>
      <trkpt lat="45.75057" lon="1.93503">
        <ele>717</ele>
        <time>2013-08-05T15:33:16Z</time>
      </trkpt>
      <trkpt lat="45.7506" lon="1.93489">
        <ele>718</ele>
        <time>2013-08-05T15:33:24Z</time>
      </trkpt>
      <trkpt lat="45.75064" lon="1.9348">
        <ele>718</ele>
        <time>2013-08-05T15:33:29Z</time>
      </trkpt>
      <trkpt lat="45.75074" lon="1.93473">
        <ele>718</ele>
        <time>2013-08-05T15:33:36Z</time>
      </trkpt>
      <trkpt lat="45.75076" lon="1.93468">
        <ele>718</ele>
        <time>2013-08-05T15:33:39Z</time>
      </trkpt>
      <trkpt lat="45.75079" lon="1.93459">
        <ele>718</ele>
        <time>2013-08-05T15:33:45Z</time>
      </trkpt>
      <trkpt lat="45.75078" lon="1.93453">
        <ele>718</ele>
        <time>2013-08-05T15:33:48Z</time>
      </trkpt>
      <trkpt lat="45.75079" lon="1.93436">
        <ele>719</ele>
        <time>2013-08-05T15:33:56Z</time>
      </trkpt>
      <trkpt lat="45.75082" lon="1.93434">
        <ele>719</ele>
        <time>2013-08-05T15:33:59Z</time>
      </trkpt>
      <trkpt lat="45.75079" lon="1.9342">
        <ele>718</ele>
        <time>2013-08-05T15:34:05Z</time>
      </trkpt>
      <trkpt lat="45.75073" lon="1.93406">
        <ele>719</ele>
        <time>2013-08-05T15:34:12Z</time>
      </trkpt>
      <trkpt lat="45.75066" lon="1.934">
        <ele>718</ele>
        <time>2013-08-05T15:34:17Z</time>
      </trkpt>
      <trkpt lat="45.75051" lon="1.93393">
        <ele>716</ele>
        <time>2013-08-05T15:34:28Z</time>
      </trkpt>
      <trkpt lat="45.75049" lon="1.93394">
        <ele>716</ele>
        <time>2013-08-05T15:34:30Z</time>
      </trkpt>
      <trkpt lat="45.75043" lon="1.93392">
        <ele>716</ele>
        <time>2013-08-05T15:34:38Z</time>
      </trkpt>
      <trkpt lat="45.75038" lon="1.93385">
        <ele>715</ele>
        <time>2013-08-05T15:34:44Z</time>
      </trkpt>
      <trkpt lat="45.75036" lon="1.93388">
        <ele>715</ele>
        <time>2013-08-05T15:34:47Z</time>
      </trkpt>
      <trkpt lat="45.75031" lon="1.93377">
        <ele>715</ele>
        <time>2013-08-05T15:35:03Z</time>
      </trkpt>
      <trkpt lat="45.75033" lon="1.93375">
        <ele>715</ele>
        <time>2013-08-05T15:35:22Z</time>
      </trkpt>
      <trkpt lat="45.75034" lon="1.93375">
        <ele>715</ele>
        <time>2013-08-05T15:35:39Z</time>
      </trkpt>
      <trkpt lat="45.75037" lon="1.93377">
        <ele>715</ele>
        <time>2013-08-05T15:35:57Z</time>
      </trkpt>
      <trkpt lat="45.7504" lon="1.93381">
        <ele>715</ele>
        <time>2013-08-05T15:36:15Z</time>
      </trkpt>
      <trkpt lat="45.75042" lon="1.93383">
        <ele>715</ele>
        <time>2013-08-05T15:36:39Z</time>
      </trkpt>
      <trkpt lat="45.75048" lon="1.93387">
        <ele>715</ele>
        <time>2013-08-05T15:36:49Z</time>
      </trkpt>
      <trkpt lat="45.75046" lon="1.93386">
        <ele>715</ele>
        <time>2013-08-05T15:37:02Z</time>
      </trkpt>
      <trkpt lat="45.75046" lon="1.93386">
        <ele>715</ele>
        <time>2013-08-05T15:37:15Z</time>
      </trkpt>
      <trkpt lat="45.75046" lon="1.93385">
        <ele>715</ele>
        <time>2013-08-05T15:37:29Z</time>
      </trkpt>
      <trkpt lat="45.75045" lon="1.93385">
        <ele>715</ele>
        <time>2013-08-05T15:37:45Z</time>
      </trkpt>
      <trkpt lat="45.75044" lon="1.93385">
        <ele>715</ele>
        <time>2013-08-05T15:38:07Z</time>
      </trkpt>
      <trkpt lat="45.75044" lon="1.93385">
        <ele>715</ele>
        <time>2013-08-05T15:38:21Z</time>
      </trkpt>
      <trkpt lat="45.75052" lon="1.9339">
        <ele>715</ele>
        <time>2013-08-05T15:38:31Z</time>
      </trkpt>
      <trkpt lat="45.75053" lon="1.93392">
        <ele>716</ele>
        <time>2013-08-05T15:38:36Z</time>
      </trkpt>
      <trkpt lat="45.75057" lon="1.93395">
        <ele>716</ele>
        <time>2013-08-05T15:38:39Z</time>
      </trkpt>
      <trkpt lat="45.7506" lon="1.93401">
        <ele>716</ele>
        <time>2013-08-05T15:38:54Z</time>
      </trkpt>
      <trkpt lat="45.7506" lon="1.93401">
        <ele>716</ele>
        <time>2013-08-05T15:39:12Z</time>
      </trkpt>
      <trkpt lat="45.75064" lon="1.93404">
        <ele>716</ele>
        <time>2013-08-05T15:39:32Z</time>
      </trkpt>
      <trkpt lat="45.75065" lon="1.93405">
        <ele>717</ele>
        <time>2013-08-05T15:39:52Z</time>
      </trkpt>
      <trkpt lat="45.75065" lon="1.93406">
        <ele>716</ele>
        <time>2013-08-05T15:40:06Z</time>
      </trkpt>
      <trkpt lat="45.75067" lon="1.93406">
        <ele>716</ele>
        <time>2013-08-05T15:40:21Z</time>
      </trkpt>
      <trkpt lat="45.75068" lon="1.93405">
        <ele>716</ele>
        <time>2013-08-05T15:40:23Z</time>
      </trkpt>
      <trkpt lat="45.75065" lon="1.93394">
        <ele>716</ele>
        <time>2013-08-05T15:40:33Z</time>
      </trkpt>
      <trkpt lat="45.75065" lon="1.93395">
        <ele>717</ele>
        <time>2013-08-05T15:40:48Z</time>
      </trkpt>
      <trkpt lat="45.75064" lon="1.93394">
        <ele>717</ele>
        <time>2013-08-05T15:40:57Z</time>
      </trkpt>
      <trkpt lat="45.75059" lon="1.93385">
        <ele>717</ele>
        <time>2013-08-05T15:41:01Z</time>
      </trkpt>
      <trkpt lat="45.75054" lon="1.93379">
        <ele>717</ele>
        <time>2013-08-05T15:41:21Z</time>
      </trkpt>
    </trkseg>
  </trk>
</gpx>